<?xml version="1.0" encoding="UTF-8" standalone="no" ?>
<gpx xmlns="http://www.topografix.com/GPX/1/1" xmlns:xsi="http://www.w3.org/2001/XMLSchema-instance" xsi:schemaLocation="http://www.topografix.com/GPX/1/1 http://www.topografix.com/GPX/1/1/gpx.xsd" version="1.1" creator="VisuGPX - https://www.visugpx.com">
  <metadata>
    <name>La Savine,Les Marais</name>
  </metadata>
  <trk>
    <name><![CDATA[La Savine,Les Marais_1]]></name>
    <extensions>
      <line xmlns="http://www.topografix.com/GPX/gpx_style/0/2">
        <color>0000FF</color>
        <width>4</width>
      </line>
    </extensions>
    <trkseg>
      <trkpt lat="46.57443" lon="5.97447">
        <ele>878.6</ele>
        <time>2021-11-09T07:26:32Z</time>
      </trkpt>
      <trkpt lat="46.57439" lon="5.97451">
        <ele>879.2</ele>
        <time>2021-11-09T07:29:40Z</time>
      </trkpt>
      <trkpt lat="46.57435" lon="5.97454">
        <ele>877.9</ele>
        <time>2021-11-09T07:30:10Z</time>
      </trkpt>
      <trkpt lat="46.57433" lon="5.97461">
        <ele>878.7</ele>
        <time>2021-11-09T07:30:16Z</time>
      </trkpt>
      <trkpt lat="46.57431" lon="5.97467">
        <ele>879.4</ele>
        <time>2021-11-09T07:30:21Z</time>
      </trkpt>
      <trkpt lat="46.57428" lon="5.97472">
        <ele>879.8</ele>
        <time>2021-11-09T07:30:27Z</time>
      </trkpt>
      <trkpt lat="46.57424" lon="5.97476">
        <ele>880.1</ele>
        <time>2021-11-09T07:30:33Z</time>
      </trkpt>
      <trkpt lat="46.57419" lon="5.97475">
        <ele>881.1</ele>
        <time>2021-11-09T07:30:42Z</time>
      </trkpt>
      <trkpt lat="46.57414" lon="5.97472">
        <ele>881.2</ele>
        <time>2021-11-09T07:30:48Z</time>
      </trkpt>
      <trkpt lat="46.5741" lon="5.97469">
        <ele>880.9</ele>
        <time>2021-11-09T07:30:52Z</time>
      </trkpt>
      <trkpt lat="46.57406" lon="5.97465">
        <ele>879.4</ele>
        <time>2021-11-09T07:30:58Z</time>
      </trkpt>
      <trkpt lat="46.57401" lon="5.97462">
        <ele>878</ele>
        <time>2021-11-09T07:31:03Z</time>
      </trkpt>
      <trkpt lat="46.57396" lon="5.97461">
        <ele>877.5</ele>
        <time>2021-11-09T07:31:07Z</time>
      </trkpt>
      <trkpt lat="46.57391" lon="5.9746">
        <ele>877.1</ele>
        <time>2021-11-09T07:31:11Z</time>
      </trkpt>
      <trkpt lat="46.57386" lon="5.97459">
        <ele>877.4</ele>
        <time>2021-11-09T07:31:15Z</time>
      </trkpt>
      <trkpt lat="46.57381" lon="5.97458">
        <ele>878.1</ele>
        <time>2021-11-09T07:31:20Z</time>
      </trkpt>
      <trkpt lat="46.57376" lon="5.97457">
        <ele>878.7</ele>
        <time>2021-11-09T07:31:26Z</time>
      </trkpt>
      <trkpt lat="46.57371" lon="5.97457">
        <ele>878.6</ele>
        <time>2021-11-09T07:31:30Z</time>
      </trkpt>
      <trkpt lat="46.57366" lon="5.97456">
        <ele>878.5</ele>
        <time>2021-11-09T07:31:35Z</time>
      </trkpt>
      <trkpt lat="46.57362" lon="5.97454">
        <ele>878.5</ele>
        <time>2021-11-09T07:31:40Z</time>
      </trkpt>
      <trkpt lat="46.57357" lon="5.97455">
        <ele>878.9</ele>
        <time>2021-11-09T07:31:47Z</time>
      </trkpt>
      <trkpt lat="46.57352" lon="5.97454">
        <ele>879.5</ele>
        <time>2021-11-09T07:31:51Z</time>
      </trkpt>
      <trkpt lat="46.57347" lon="5.97454">
        <ele>879.9</ele>
        <time>2021-11-09T07:31:54Z</time>
      </trkpt>
      <trkpt lat="46.57343" lon="5.97452">
        <ele>880.1</ele>
        <time>2021-11-09T07:31:58Z</time>
      </trkpt>
      <trkpt lat="46.57338" lon="5.97449">
        <ele>880.5</ele>
        <time>2021-11-09T07:32:04Z</time>
      </trkpt>
      <trkpt lat="46.57332" lon="5.97449">
        <ele>880.9</ele>
        <time>2021-11-09T07:32:09Z</time>
      </trkpt>
      <trkpt lat="46.57328" lon="5.97449">
        <ele>881</ele>
        <time>2021-11-09T07:32:13Z</time>
      </trkpt>
      <trkpt lat="46.57323" lon="5.97447">
        <ele>880.9</ele>
        <time>2021-11-09T07:32:18Z</time>
      </trkpt>
      <trkpt lat="46.57318" lon="5.97445">
        <ele>880.2</ele>
        <time>2021-11-09T07:32:24Z</time>
      </trkpt>
      <trkpt lat="46.57313" lon="5.97445">
        <ele>879.9</ele>
        <time>2021-11-09T07:32:28Z</time>
      </trkpt>
      <trkpt lat="46.57308" lon="5.97443">
        <ele>879.7</ele>
        <time>2021-11-09T07:32:33Z</time>
      </trkpt>
      <trkpt lat="46.57303" lon="5.97442">
        <ele>880</ele>
        <time>2021-11-09T07:32:38Z</time>
      </trkpt>
      <trkpt lat="46.57298" lon="5.97443">
        <ele>880.1</ele>
        <time>2021-11-09T07:32:42Z</time>
      </trkpt>
      <trkpt lat="46.57293" lon="5.97443">
        <ele>880.1</ele>
        <time>2021-11-09T07:32:47Z</time>
      </trkpt>
      <trkpt lat="46.57288" lon="5.97442">
        <ele>880.2</ele>
        <time>2021-11-09T07:32:51Z</time>
      </trkpt>
      <trkpt lat="46.57283" lon="5.97442">
        <ele>880.4</ele>
        <time>2021-11-09T07:32:55Z</time>
      </trkpt>
      <trkpt lat="46.57278" lon="5.97442">
        <ele>881</ele>
        <time>2021-11-09T07:33:00Z</time>
      </trkpt>
      <trkpt lat="46.57273" lon="5.9744">
        <ele>881.9</ele>
        <time>2021-11-09T07:33:06Z</time>
      </trkpt>
      <trkpt lat="46.57269" lon="5.97438">
        <ele>883.2</ele>
        <time>2021-11-09T07:33:14Z</time>
      </trkpt>
      <trkpt lat="46.57273" lon="5.97437">
        <ele>887</ele>
        <time>2021-11-09T07:34:34Z</time>
      </trkpt>
      <trkpt lat="46.57278" lon="5.97438">
        <ele>886.5</ele>
        <time>2021-11-09T07:34:38Z</time>
      </trkpt>
      <trkpt lat="46.57284" lon="5.9744">
        <ele>885.7</ele>
        <time>2021-11-09T07:34:43Z</time>
      </trkpt>
      <trkpt lat="46.57289" lon="5.9744">
        <ele>885</ele>
        <time>2021-11-09T07:34:50Z</time>
      </trkpt>
      <trkpt lat="46.57293" lon="5.97439">
        <ele>884.5</ele>
        <time>2021-11-09T07:34:55Z</time>
      </trkpt>
      <trkpt lat="46.57298" lon="5.9744">
        <ele>883.3</ele>
        <time>2021-11-09T07:35:00Z</time>
      </trkpt>
      <trkpt lat="46.57303" lon="5.97442">
        <ele>882.3</ele>
        <time>2021-11-09T07:35:05Z</time>
      </trkpt>
      <trkpt lat="46.57308" lon="5.97443">
        <ele>882.3</ele>
        <time>2021-11-09T07:35:10Z</time>
      </trkpt>
      <trkpt lat="46.57313" lon="5.97444">
        <ele>882.9</ele>
        <time>2021-11-09T07:35:15Z</time>
      </trkpt>
      <trkpt lat="46.57318" lon="5.97445">
        <ele>883.4</ele>
        <time>2021-11-09T07:35:19Z</time>
      </trkpt>
      <trkpt lat="46.57323" lon="5.97446">
        <ele>882.6</ele>
        <time>2021-11-09T07:35:23Z</time>
      </trkpt>
      <trkpt lat="46.57328" lon="5.97447">
        <ele>882</ele>
        <time>2021-11-09T07:35:29Z</time>
      </trkpt>
      <trkpt lat="46.57333" lon="5.97449">
        <ele>881.9</ele>
        <time>2021-11-09T07:35:35Z</time>
      </trkpt>
      <trkpt lat="46.57339" lon="5.97449">
        <ele>881.6</ele>
        <time>2021-11-09T07:35:41Z</time>
      </trkpt>
      <trkpt lat="46.57343" lon="5.9745">
        <ele>881.1</ele>
        <time>2021-11-09T07:35:47Z</time>
      </trkpt>
      <trkpt lat="46.57349" lon="5.97451">
        <ele>881</ele>
        <time>2021-11-09T07:35:53Z</time>
      </trkpt>
      <trkpt lat="46.57354" lon="5.97451">
        <ele>881.1</ele>
        <time>2021-11-09T07:35:58Z</time>
      </trkpt>
      <trkpt lat="46.57359" lon="5.97453">
        <ele>881.3</ele>
        <time>2021-11-09T07:36:02Z</time>
      </trkpt>
      <trkpt lat="46.57365" lon="5.97454">
        <ele>881.1</ele>
        <time>2021-11-09T07:36:09Z</time>
      </trkpt>
      <trkpt lat="46.5737" lon="5.97455">
        <ele>880.5</ele>
        <time>2021-11-09T07:36:14Z</time>
      </trkpt>
      <trkpt lat="46.57376" lon="5.97456">
        <ele>880.3</ele>
        <time>2021-11-09T07:36:18Z</time>
      </trkpt>
      <trkpt lat="46.5738" lon="5.97457">
        <ele>879.6</ele>
        <time>2021-11-09T07:36:22Z</time>
      </trkpt>
      <trkpt lat="46.57385" lon="5.97459">
        <ele>879.1</ele>
        <time>2021-11-09T07:36:28Z</time>
      </trkpt>
      <trkpt lat="46.5739" lon="5.9746">
        <ele>878.6</ele>
        <time>2021-11-09T07:36:32Z</time>
      </trkpt>
      <trkpt lat="46.57394" lon="5.97462">
        <ele>877.9</ele>
        <time>2021-11-09T07:36:36Z</time>
      </trkpt>
      <trkpt lat="46.574" lon="5.97464">
        <ele>877.4</ele>
        <time>2021-11-09T07:36:41Z</time>
      </trkpt>
      <trkpt lat="46.57404" lon="5.97466">
        <ele>877.1</ele>
        <time>2021-11-09T07:36:46Z</time>
      </trkpt>
      <trkpt lat="46.57409" lon="5.97469">
        <ele>877.3</ele>
        <time>2021-11-09T07:36:50Z</time>
      </trkpt>
      <trkpt lat="46.57413" lon="5.97473">
        <ele>877.4</ele>
        <time>2021-11-09T07:36:55Z</time>
      </trkpt>
      <trkpt lat="46.57417" lon="5.97477">
        <ele>877.3</ele>
        <time>2021-11-09T07:37:00Z</time>
      </trkpt>
      <trkpt lat="46.5742" lon="5.97483">
        <ele>877.8</ele>
        <time>2021-11-09T07:37:07Z</time>
      </trkpt>
      <trkpt lat="46.57417" lon="5.97487">
        <ele>878.7</ele>
        <time>2021-11-09T07:37:16Z</time>
      </trkpt>
      <trkpt lat="46.57411" lon="5.97488">
        <ele>878.6</ele>
        <time>2021-11-09T07:37:22Z</time>
      </trkpt>
      <trkpt lat="46.57406" lon="5.97489">
        <ele>878.3</ele>
        <time>2021-11-09T07:37:27Z</time>
      </trkpt>
      <trkpt lat="46.57401" lon="5.9749">
        <ele>878</ele>
        <time>2021-11-09T07:37:32Z</time>
      </trkpt>
      <trkpt lat="46.57395" lon="5.97489">
        <ele>877.8</ele>
        <time>2021-11-09T07:37:37Z</time>
      </trkpt>
      <trkpt lat="46.5739" lon="5.97491">
        <ele>877.6</ele>
        <time>2021-11-09T07:37:41Z</time>
      </trkpt>
      <trkpt lat="46.57385" lon="5.97491">
        <ele>878</ele>
        <time>2021-11-09T07:37:46Z</time>
      </trkpt>
      <trkpt lat="46.5738" lon="5.97491">
        <ele>878.7</ele>
        <time>2021-11-09T07:37:51Z</time>
      </trkpt>
      <trkpt lat="46.57375" lon="5.97492">
        <ele>879.5</ele>
        <time>2021-11-09T07:37:56Z</time>
      </trkpt>
      <trkpt lat="46.5737" lon="5.97493">
        <ele>880.4</ele>
        <time>2021-11-09T07:38:01Z</time>
      </trkpt>
      <trkpt lat="46.57365" lon="5.97494">
        <ele>881.3</ele>
        <time>2021-11-09T07:38:05Z</time>
      </trkpt>
      <trkpt lat="46.5736" lon="5.97493">
        <ele>882.3</ele>
        <time>2021-11-09T07:38:11Z</time>
      </trkpt>
      <trkpt lat="46.57356" lon="5.97492">
        <ele>883</ele>
        <time>2021-11-09T07:38:16Z</time>
      </trkpt>
      <trkpt lat="46.5735" lon="5.97493">
        <ele>883.7</ele>
        <time>2021-11-09T07:38:21Z</time>
      </trkpt>
      <trkpt lat="46.57345" lon="5.97494">
        <ele>884.5</ele>
        <time>2021-11-09T07:38:26Z</time>
      </trkpt>
      <trkpt lat="46.5734" lon="5.97494">
        <ele>884.8</ele>
        <time>2021-11-09T07:38:31Z</time>
      </trkpt>
      <trkpt lat="46.57335" lon="5.97494">
        <ele>885.2</ele>
        <time>2021-11-09T07:38:36Z</time>
      </trkpt>
      <trkpt lat="46.5733" lon="5.97494">
        <ele>885.9</ele>
        <time>2021-11-09T07:38:41Z</time>
      </trkpt>
      <trkpt lat="46.57325" lon="5.97494">
        <ele>886.3</ele>
        <time>2021-11-09T07:38:45Z</time>
      </trkpt>
      <trkpt lat="46.5732" lon="5.97494">
        <ele>886.8</ele>
        <time>2021-11-09T07:38:49Z</time>
      </trkpt>
      <trkpt lat="46.57315" lon="5.97496">
        <ele>887.3</ele>
        <time>2021-11-09T07:38:54Z</time>
      </trkpt>
      <trkpt lat="46.5731" lon="5.97499">
        <ele>887.4</ele>
        <time>2021-11-09T07:39:00Z</time>
      </trkpt>
      <trkpt lat="46.57305" lon="5.97501">
        <ele>887.2</ele>
        <time>2021-11-09T07:39:08Z</time>
      </trkpt>
      <trkpt lat="46.573" lon="5.97504">
        <ele>888</ele>
        <time>2021-11-09T07:39:13Z</time>
      </trkpt>
      <trkpt lat="46.57295" lon="5.97508">
        <ele>888.8</ele>
        <time>2021-11-09T07:39:18Z</time>
      </trkpt>
      <trkpt lat="46.57291" lon="5.97512">
        <ele>889.1</ele>
        <time>2021-11-09T07:39:22Z</time>
      </trkpt>
      <trkpt lat="46.57286" lon="5.97515">
        <ele>889.5</ele>
        <time>2021-11-09T07:39:27Z</time>
      </trkpt>
      <trkpt lat="46.57282" lon="5.97519">
        <ele>890.1</ele>
        <time>2021-11-09T07:39:32Z</time>
      </trkpt>
      <trkpt lat="46.57279" lon="5.97524">
        <ele>890.8</ele>
        <time>2021-11-09T07:39:37Z</time>
      </trkpt>
      <trkpt lat="46.57274" lon="5.97527">
        <ele>891.5</ele>
        <time>2021-11-09T07:39:42Z</time>
      </trkpt>
      <trkpt lat="46.5727" lon="5.97532">
        <ele>892.4</ele>
        <time>2021-11-09T07:39:47Z</time>
      </trkpt>
      <trkpt lat="46.57266" lon="5.97537">
        <ele>893</ele>
        <time>2021-11-09T07:39:52Z</time>
      </trkpt>
      <trkpt lat="46.57262" lon="5.97542">
        <ele>894</ele>
        <time>2021-11-09T07:39:57Z</time>
      </trkpt>
      <trkpt lat="46.57257" lon="5.97544">
        <ele>894.6</ele>
        <time>2021-11-09T07:40:02Z</time>
      </trkpt>
      <trkpt lat="46.57252" lon="5.97546">
        <ele>894.9</ele>
        <time>2021-11-09T07:40:06Z</time>
      </trkpt>
      <trkpt lat="46.57247" lon="5.97547">
        <ele>895</ele>
        <time>2021-11-09T07:40:12Z</time>
      </trkpt>
      <trkpt lat="46.57242" lon="5.97547">
        <ele>895.3</ele>
        <time>2021-11-09T07:40:18Z</time>
      </trkpt>
      <trkpt lat="46.57237" lon="5.97548">
        <ele>895.7</ele>
        <time>2021-11-09T07:40:22Z</time>
      </trkpt>
      <trkpt lat="46.57232" lon="5.97548">
        <ele>896</ele>
        <time>2021-11-09T07:40:26Z</time>
      </trkpt>
      <trkpt lat="46.57228" lon="5.97546">
        <ele>896.2</ele>
        <time>2021-11-09T07:40:30Z</time>
      </trkpt>
      <trkpt lat="46.57223" lon="5.97545">
        <ele>896.3</ele>
        <time>2021-11-09T07:40:35Z</time>
      </trkpt>
      <trkpt lat="46.57217" lon="5.97544">
        <ele>896.1</ele>
        <time>2021-11-09T07:40:40Z</time>
      </trkpt>
      <trkpt lat="46.57212" lon="5.97543">
        <ele>895.5</ele>
        <time>2021-11-09T07:40:45Z</time>
      </trkpt>
      <trkpt lat="46.57207" lon="5.9754">
        <ele>895.5</ele>
        <time>2021-11-09T07:40:51Z</time>
      </trkpt>
      <trkpt lat="46.57202" lon="5.97538">
        <ele>896.4</ele>
        <time>2021-11-09T07:40:56Z</time>
      </trkpt>
      <trkpt lat="46.57197" lon="5.97535">
        <ele>897.7</ele>
        <time>2021-11-09T07:41:01Z</time>
      </trkpt>
      <trkpt lat="46.57192" lon="5.97533">
        <ele>898.8</ele>
        <time>2021-11-09T07:41:06Z</time>
      </trkpt>
      <trkpt lat="46.57187" lon="5.97533">
        <ele>898.8</ele>
        <time>2021-11-09T07:41:10Z</time>
      </trkpt>
      <trkpt lat="46.57183" lon="5.9753">
        <ele>898.7</ele>
        <time>2021-11-09T07:41:15Z</time>
      </trkpt>
      <trkpt lat="46.57179" lon="5.97526">
        <ele>898</ele>
        <time>2021-11-09T07:41:20Z</time>
      </trkpt>
      <trkpt lat="46.57175" lon="5.97522">
        <ele>897</ele>
        <time>2021-11-09T07:41:25Z</time>
      </trkpt>
      <trkpt lat="46.57171" lon="5.97517">
        <ele>896.6</ele>
        <time>2021-11-09T07:41:30Z</time>
      </trkpt>
      <trkpt lat="46.57166" lon="5.97513">
        <ele>896.3</ele>
        <time>2021-11-09T07:41:35Z</time>
      </trkpt>
      <trkpt lat="46.57163" lon="5.97509">
        <ele>896.4</ele>
        <time>2021-11-09T07:41:39Z</time>
      </trkpt>
      <trkpt lat="46.57158" lon="5.97505">
        <ele>896.4</ele>
        <time>2021-11-09T07:41:44Z</time>
      </trkpt>
      <trkpt lat="46.57154" lon="5.97501">
        <ele>896.6</ele>
        <time>2021-11-09T07:41:49Z</time>
      </trkpt>
      <trkpt lat="46.57149" lon="5.97497">
        <ele>897.1</ele>
        <time>2021-11-09T07:41:54Z</time>
      </trkpt>
      <trkpt lat="46.57145" lon="5.97493">
        <ele>898</ele>
        <time>2021-11-09T07:41:59Z</time>
      </trkpt>
      <trkpt lat="46.57141" lon="5.97488">
        <ele>899.3</ele>
        <time>2021-11-09T07:42:04Z</time>
      </trkpt>
      <trkpt lat="46.57136" lon="5.97484">
        <ele>900.3</ele>
        <time>2021-11-09T07:42:09Z</time>
      </trkpt>
      <trkpt lat="46.57132" lon="5.9748">
        <ele>901</ele>
        <time>2021-11-09T07:42:14Z</time>
      </trkpt>
      <trkpt lat="46.57128" lon="5.97474">
        <ele>901.8</ele>
        <time>2021-11-09T07:42:19Z</time>
      </trkpt>
      <trkpt lat="46.57124" lon="5.97469">
        <ele>902.2</ele>
        <time>2021-11-09T07:42:24Z</time>
      </trkpt>
      <trkpt lat="46.5712" lon="5.97464">
        <ele>902.6</ele>
        <time>2021-11-09T07:42:29Z</time>
      </trkpt>
      <trkpt lat="46.57118" lon="5.97457">
        <ele>903.1</ele>
        <time>2021-11-09T07:42:34Z</time>
      </trkpt>
      <trkpt lat="46.57116" lon="5.9745">
        <ele>903.4</ele>
        <time>2021-11-09T07:42:39Z</time>
      </trkpt>
      <trkpt lat="46.57114" lon="5.97442">
        <ele>903.3</ele>
        <time>2021-11-09T07:42:44Z</time>
      </trkpt>
      <trkpt lat="46.57113" lon="5.97435">
        <ele>903.4</ele>
        <time>2021-11-09T07:42:49Z</time>
      </trkpt>
      <trkpt lat="46.57111" lon="5.97429">
        <ele>903.8</ele>
        <time>2021-11-09T07:42:54Z</time>
      </trkpt>
      <trkpt lat="46.57111" lon="5.97422">
        <ele>904.4</ele>
        <time>2021-11-09T07:42:59Z</time>
      </trkpt>
      <trkpt lat="46.5711" lon="5.97415">
        <ele>905.2</ele>
        <time>2021-11-09T07:43:04Z</time>
      </trkpt>
      <trkpt lat="46.5711" lon="5.97408">
        <ele>906</ele>
        <time>2021-11-09T07:43:09Z</time>
      </trkpt>
      <trkpt lat="46.57109" lon="5.97401">
        <ele>907</ele>
        <time>2021-11-09T07:43:15Z</time>
      </trkpt>
      <trkpt lat="46.57106" lon="5.97394">
        <ele>908.1</ele>
        <time>2021-11-09T07:43:21Z</time>
      </trkpt>
      <trkpt lat="46.57103" lon="5.97387">
        <ele>908.9</ele>
        <time>2021-11-09T07:43:26Z</time>
      </trkpt>
      <trkpt lat="46.57101" lon="5.9738">
        <ele>909.4</ele>
        <time>2021-11-09T07:43:30Z</time>
      </trkpt>
      <trkpt lat="46.57099" lon="5.97374">
        <ele>909.9</ele>
        <time>2021-11-09T07:43:34Z</time>
      </trkpt>
      <trkpt lat="46.57095" lon="5.97368">
        <ele>910.1</ele>
        <time>2021-11-09T07:43:39Z</time>
      </trkpt>
      <trkpt lat="46.57092" lon="5.97364">
        <ele>910.2</ele>
        <time>2021-11-09T07:43:43Z</time>
      </trkpt>
      <trkpt lat="46.57089" lon="5.97357">
        <ele>910</ele>
        <time>2021-11-09T07:43:47Z</time>
      </trkpt>
      <trkpt lat="46.57086" lon="5.97351">
        <ele>909.4</ele>
        <time>2021-11-09T07:43:51Z</time>
      </trkpt>
      <trkpt lat="46.57083" lon="5.97345">
        <ele>909.2</ele>
        <time>2021-11-09T07:43:55Z</time>
      </trkpt>
      <trkpt lat="46.5708" lon="5.9734">
        <ele>909.3</ele>
        <time>2021-11-09T07:44:00Z</time>
      </trkpt>
      <trkpt lat="46.57077" lon="5.97334">
        <ele>909.8</ele>
        <time>2021-11-09T07:44:05Z</time>
      </trkpt>
      <trkpt lat="46.57074" lon="5.97329">
        <ele>910.3</ele>
        <time>2021-11-09T07:44:10Z</time>
      </trkpt>
      <trkpt lat="46.5707" lon="5.97323">
        <ele>910.9</ele>
        <time>2021-11-09T07:44:15Z</time>
      </trkpt>
      <trkpt lat="46.57067" lon="5.97318">
        <ele>911.4</ele>
        <time>2021-11-09T07:44:20Z</time>
      </trkpt>
      <trkpt lat="46.57064" lon="5.97312">
        <ele>911.4</ele>
        <time>2021-11-09T07:44:25Z</time>
      </trkpt>
      <trkpt lat="46.5706" lon="5.97306">
        <ele>911.8</ele>
        <time>2021-11-09T07:44:30Z</time>
      </trkpt>
      <trkpt lat="46.57056" lon="5.97302">
        <ele>912.6</ele>
        <time>2021-11-09T07:44:36Z</time>
      </trkpt>
      <trkpt lat="46.57052" lon="5.97298">
        <ele>912.5</ele>
        <time>2021-11-09T07:44:41Z</time>
      </trkpt>
      <trkpt lat="46.57048" lon="5.97294">
        <ele>912.1</ele>
        <time>2021-11-09T07:44:46Z</time>
      </trkpt>
      <trkpt lat="46.57044" lon="5.9729">
        <ele>911.2</ele>
        <time>2021-11-09T07:44:51Z</time>
      </trkpt>
      <trkpt lat="46.5704" lon="5.97284">
        <ele>910.3</ele>
        <time>2021-11-09T07:44:56Z</time>
      </trkpt>
      <trkpt lat="46.57036" lon="5.97281">
        <ele>909.9</ele>
        <time>2021-11-09T07:45:00Z</time>
      </trkpt>
      <trkpt lat="46.57032" lon="5.97279">
        <ele>909.7</ele>
        <time>2021-11-09T07:45:04Z</time>
      </trkpt>
      <trkpt lat="46.57028" lon="5.97276">
        <ele>909.6</ele>
        <time>2021-11-09T07:45:08Z</time>
      </trkpt>
      <trkpt lat="46.57024" lon="5.97273">
        <ele>909.5</ele>
        <time>2021-11-09T07:45:12Z</time>
      </trkpt>
      <trkpt lat="46.5702" lon="5.97269">
        <ele>909.8</ele>
        <time>2021-11-09T07:45:16Z</time>
      </trkpt>
      <trkpt lat="46.57015" lon="5.97268">
        <ele>909.9</ele>
        <time>2021-11-09T07:45:20Z</time>
      </trkpt>
      <trkpt lat="46.57011" lon="5.97265">
        <ele>909.8</ele>
        <time>2021-11-09T07:45:25Z</time>
      </trkpt>
      <trkpt lat="46.57007" lon="5.97262">
        <ele>909.9</ele>
        <time>2021-11-09T07:45:29Z</time>
      </trkpt>
      <trkpt lat="46.57003" lon="5.97259">
        <ele>910.2</ele>
        <time>2021-11-09T07:45:33Z</time>
      </trkpt>
      <trkpt lat="46.57" lon="5.97253">
        <ele>910.8</ele>
        <time>2021-11-09T07:45:38Z</time>
      </trkpt>
      <trkpt lat="46.56997" lon="5.97248">
        <ele>910.8</ele>
        <time>2021-11-09T07:45:42Z</time>
      </trkpt>
      <trkpt lat="46.56993" lon="5.97243">
        <ele>910.4</ele>
        <time>2021-11-09T07:45:47Z</time>
      </trkpt>
      <trkpt lat="46.56989" lon="5.97238">
        <ele>910.5</ele>
        <time>2021-11-09T07:45:51Z</time>
      </trkpt>
      <trkpt lat="46.56987" lon="5.97231">
        <ele>910.9</ele>
        <time>2021-11-09T07:45:56Z</time>
      </trkpt>
      <trkpt lat="46.56984" lon="5.97224">
        <ele>911.1</ele>
        <time>2021-11-09T07:46:01Z</time>
      </trkpt>
      <trkpt lat="46.56982" lon="5.97218">
        <ele>910.8</ele>
        <time>2021-11-09T07:46:05Z</time>
      </trkpt>
      <trkpt lat="46.5698" lon="5.97212">
        <ele>910.2</ele>
        <time>2021-11-09T07:46:09Z</time>
      </trkpt>
      <trkpt lat="46.56976" lon="5.97207">
        <ele>909.7</ele>
        <time>2021-11-09T07:46:13Z</time>
      </trkpt>
      <trkpt lat="46.56972" lon="5.97202">
        <ele>909.6</ele>
        <time>2021-11-09T07:46:18Z</time>
      </trkpt>
      <trkpt lat="46.56969" lon="5.97196">
        <ele>909.8</ele>
        <time>2021-11-09T07:46:22Z</time>
      </trkpt>
      <trkpt lat="46.56967" lon="5.97189">
        <ele>909.7</ele>
        <time>2021-11-09T07:46:27Z</time>
      </trkpt>
      <trkpt lat="46.56964" lon="5.97183">
        <ele>909.9</ele>
        <time>2021-11-09T07:46:31Z</time>
      </trkpt>
      <trkpt lat="46.56961" lon="5.97178">
        <ele>909.9</ele>
        <time>2021-11-09T07:46:35Z</time>
      </trkpt>
      <trkpt lat="46.56957" lon="5.97174">
        <ele>909.7</ele>
        <time>2021-11-09T07:46:39Z</time>
      </trkpt>
      <trkpt lat="46.56952" lon="5.9717">
        <ele>909.7</ele>
        <time>2021-11-09T07:46:44Z</time>
      </trkpt>
      <trkpt lat="46.56947" lon="5.97168">
        <ele>909.5</ele>
        <time>2021-11-09T07:46:48Z</time>
      </trkpt>
      <trkpt lat="46.56942" lon="5.97168">
        <ele>909.3</ele>
        <time>2021-11-09T07:46:52Z</time>
      </trkpt>
      <trkpt lat="46.56938" lon="5.97167">
        <ele>909</ele>
        <time>2021-11-09T07:46:56Z</time>
      </trkpt>
      <trkpt lat="46.56932" lon="5.97167">
        <ele>909.2</ele>
        <time>2021-11-09T07:47:01Z</time>
      </trkpt>
      <trkpt lat="46.56928" lon="5.97168">
        <ele>909.8</ele>
        <time>2021-11-09T07:47:06Z</time>
      </trkpt>
      <trkpt lat="46.56923" lon="5.9717">
        <ele>910.4</ele>
        <time>2021-11-09T07:47:11Z</time>
      </trkpt>
      <trkpt lat="46.56918" lon="5.9717">
        <ele>911.1</ele>
        <time>2021-11-09T07:47:17Z</time>
      </trkpt>
      <trkpt lat="46.56913" lon="5.97172">
        <ele>911.8</ele>
        <time>2021-11-09T07:47:22Z</time>
      </trkpt>
      <trkpt lat="46.56908" lon="5.97174">
        <ele>912.5</ele>
        <time>2021-11-09T07:47:26Z</time>
      </trkpt>
      <trkpt lat="46.56904" lon="5.97176">
        <ele>913.2</ele>
        <time>2021-11-09T07:47:29Z</time>
      </trkpt>
      <trkpt lat="46.56899" lon="5.97178">
        <ele>914.5</ele>
        <time>2021-11-09T07:47:33Z</time>
      </trkpt>
      <trkpt lat="46.56894" lon="5.97178">
        <ele>915.6</ele>
        <time>2021-11-09T07:47:37Z</time>
      </trkpt>
      <trkpt lat="46.56889" lon="5.97178">
        <ele>917</ele>
        <time>2021-11-09T07:47:42Z</time>
      </trkpt>
      <trkpt lat="46.56885" lon="5.97177">
        <ele>917.8</ele>
        <time>2021-11-09T07:47:47Z</time>
      </trkpt>
      <trkpt lat="46.56879" lon="5.97176">
        <ele>918</ele>
        <time>2021-11-09T07:47:52Z</time>
      </trkpt>
      <trkpt lat="46.56874" lon="5.97175">
        <ele>918.2</ele>
        <time>2021-11-09T07:47:57Z</time>
      </trkpt>
      <trkpt lat="46.56869" lon="5.97172">
        <ele>918.2</ele>
        <time>2021-11-09T07:48:02Z</time>
      </trkpt>
      <trkpt lat="46.56865" lon="5.97171">
        <ele>918</ele>
        <time>2021-11-09T07:48:06Z</time>
      </trkpt>
      <trkpt lat="46.56861" lon="5.97167">
        <ele>917.4</ele>
        <time>2021-11-09T07:48:10Z</time>
      </trkpt>
      <trkpt lat="46.56857" lon="5.97165">
        <ele>916.7</ele>
        <time>2021-11-09T07:48:14Z</time>
      </trkpt>
      <trkpt lat="46.56851" lon="5.97164">
        <ele>916.1</ele>
        <time>2021-11-09T07:48:18Z</time>
      </trkpt>
      <trkpt lat="46.56846" lon="5.97162">
        <ele>915.3</ele>
        <time>2021-11-09T07:48:23Z</time>
      </trkpt>
      <trkpt lat="46.56842" lon="5.97159">
        <ele>914.8</ele>
        <time>2021-11-09T07:48:27Z</time>
      </trkpt>
      <trkpt lat="46.56839" lon="5.97154">
        <ele>914.7</ele>
        <time>2021-11-09T07:48:31Z</time>
      </trkpt>
      <trkpt lat="46.56835" lon="5.97148">
        <ele>914.4</ele>
        <time>2021-11-09T07:48:36Z</time>
      </trkpt>
      <trkpt lat="46.56831" lon="5.97144">
        <ele>914.1</ele>
        <time>2021-11-09T07:48:40Z</time>
      </trkpt>
      <trkpt lat="46.56827" lon="5.9714">
        <ele>914</ele>
        <time>2021-11-09T07:48:44Z</time>
      </trkpt>
      <trkpt lat="46.56823" lon="5.97137">
        <ele>913.7</ele>
        <time>2021-11-09T07:48:49Z</time>
      </trkpt>
      <trkpt lat="46.56818" lon="5.97133">
        <ele>913.1</ele>
        <time>2021-11-09T07:48:54Z</time>
      </trkpt>
      <trkpt lat="46.56815" lon="5.97128">
        <ele>912.7</ele>
        <time>2021-11-09T07:48:58Z</time>
      </trkpt>
      <trkpt lat="46.56811" lon="5.97122">
        <ele>912.6</ele>
        <time>2021-11-09T07:49:03Z</time>
      </trkpt>
      <trkpt lat="46.56807" lon="5.97117">
        <ele>912.7</ele>
        <time>2021-11-09T07:49:08Z</time>
      </trkpt>
      <trkpt lat="46.56802" lon="5.97114">
        <ele>913.1</ele>
        <time>2021-11-09T07:49:13Z</time>
      </trkpt>
      <trkpt lat="46.56798" lon="5.97111">
        <ele>914.4</ele>
        <time>2021-11-09T07:49:18Z</time>
      </trkpt>
      <trkpt lat="46.56793" lon="5.97108">
        <ele>915.6</ele>
        <time>2021-11-09T07:49:23Z</time>
      </trkpt>
      <trkpt lat="46.56789" lon="5.97104">
        <ele>916.5</ele>
        <time>2021-11-09T07:49:28Z</time>
      </trkpt>
      <trkpt lat="46.56784" lon="5.971">
        <ele>916.7</ele>
        <time>2021-11-09T07:49:33Z</time>
      </trkpt>
      <trkpt lat="46.5678" lon="5.97096">
        <ele>916.5</ele>
        <time>2021-11-09T07:49:37Z</time>
      </trkpt>
      <trkpt lat="46.56776" lon="5.97093">
        <ele>916.1</ele>
        <time>2021-11-09T07:49:41Z</time>
      </trkpt>
      <trkpt lat="46.56771" lon="5.9709">
        <ele>915.6</ele>
        <time>2021-11-09T07:49:45Z</time>
      </trkpt>
      <trkpt lat="46.56767" lon="5.97085">
        <ele>915.1</ele>
        <time>2021-11-09T07:49:50Z</time>
      </trkpt>
      <trkpt lat="46.56764" lon="5.9708">
        <ele>915</ele>
        <time>2021-11-09T07:49:54Z</time>
      </trkpt>
      <trkpt lat="46.5676" lon="5.97075">
        <ele>914.6</ele>
        <time>2021-11-09T07:49:59Z</time>
      </trkpt>
      <trkpt lat="46.56756" lon="5.97071">
        <ele>914.3</ele>
        <time>2021-11-09T07:50:04Z</time>
      </trkpt>
      <trkpt lat="46.56752" lon="5.97068">
        <ele>914.6</ele>
        <time>2021-11-09T07:50:09Z</time>
      </trkpt>
      <trkpt lat="46.56747" lon="5.97066">
        <ele>914.6</ele>
        <time>2021-11-09T07:50:14Z</time>
      </trkpt>
      <trkpt lat="46.56742" lon="5.97067">
        <ele>914.8</ele>
        <time>2021-11-09T07:50:20Z</time>
      </trkpt>
      <trkpt lat="46.56738" lon="5.97066">
        <ele>915.3</ele>
        <time>2021-11-09T07:50:28Z</time>
      </trkpt>
      <trkpt lat="46.56734" lon="5.97071">
        <ele>915.4</ele>
        <time>2021-11-09T07:50:33Z</time>
      </trkpt>
      <trkpt lat="46.56729" lon="5.97074">
        <ele>914.5</ele>
        <time>2021-11-09T07:50:40Z</time>
      </trkpt>
      <trkpt lat="46.56725" lon="5.97079">
        <ele>913.9</ele>
        <time>2021-11-09T07:50:44Z</time>
      </trkpt>
      <trkpt lat="46.56721" lon="5.97084">
        <ele>913.1</ele>
        <time>2021-11-09T07:50:48Z</time>
      </trkpt>
      <trkpt lat="46.56718" lon="5.97089">
        <ele>912.4</ele>
        <time>2021-11-09T07:50:52Z</time>
      </trkpt>
      <trkpt lat="46.56714" lon="5.97093">
        <ele>911.5</ele>
        <time>2021-11-09T07:50:57Z</time>
      </trkpt>
      <trkpt lat="46.5671" lon="5.97097">
        <ele>911</ele>
        <time>2021-11-09T07:51:02Z</time>
      </trkpt>
      <trkpt lat="46.56706" lon="5.97102">
        <ele>910.5</ele>
        <time>2021-11-09T07:51:11Z</time>
      </trkpt>
      <trkpt lat="46.56702" lon="5.97105">
        <ele>910.7</ele>
        <time>2021-11-09T07:51:17Z</time>
      </trkpt>
      <trkpt lat="46.56699" lon="5.97111">
        <ele>911.7</ele>
        <time>2021-11-09T07:51:21Z</time>
      </trkpt>
      <trkpt lat="46.56696" lon="5.97117">
        <ele>913.1</ele>
        <time>2021-11-09T07:51:25Z</time>
      </trkpt>
      <trkpt lat="46.56697" lon="5.97125">
        <ele>915.5</ele>
        <time>2021-11-09T07:51:30Z</time>
      </trkpt>
      <trkpt lat="46.56699" lon="5.97131">
        <ele>918</ele>
        <time>2021-11-09T07:51:35Z</time>
      </trkpt>
      <trkpt lat="46.567" lon="5.97138">
        <ele>920.8</ele>
        <time>2021-11-09T07:51:41Z</time>
      </trkpt>
      <trkpt lat="46.56698" lon="5.97144">
        <ele>922</ele>
        <time>2021-11-09T07:51:46Z</time>
      </trkpt>
      <trkpt lat="46.56702" lon="5.97149">
        <ele>923.3</ele>
        <time>2021-11-09T07:51:52Z</time>
      </trkpt>
      <trkpt lat="46.56705" lon="5.97154">
        <ele>924.4</ele>
        <time>2021-11-09T07:51:57Z</time>
      </trkpt>
      <trkpt lat="46.56707" lon="5.97161">
        <ele>925.3</ele>
        <time>2021-11-09T07:52:03Z</time>
      </trkpt>
      <trkpt lat="46.5671" lon="5.97167">
        <ele>926.1</ele>
        <time>2021-11-09T07:52:08Z</time>
      </trkpt>
      <trkpt lat="46.56713" lon="5.97171">
        <ele>926.8</ele>
        <time>2021-11-09T07:52:14Z</time>
      </trkpt>
      <trkpt lat="46.56716" lon="5.97177">
        <ele>928</ele>
        <time>2021-11-09T07:52:21Z</time>
      </trkpt>
      <trkpt lat="46.56719" lon="5.97183">
        <ele>929.8</ele>
        <time>2021-11-09T07:52:28Z</time>
      </trkpt>
      <trkpt lat="46.56723" lon="5.97188">
        <ele>930.7</ele>
        <time>2021-11-09T07:52:32Z</time>
      </trkpt>
      <trkpt lat="46.56727" lon="5.97193">
        <ele>931.4</ele>
        <time>2021-11-09T07:52:37Z</time>
      </trkpt>
      <trkpt lat="46.5673" lon="5.97199">
        <ele>932.5</ele>
        <time>2021-11-09T07:52:44Z</time>
      </trkpt>
      <trkpt lat="46.56733" lon="5.97204">
        <ele>933.4</ele>
        <time>2021-11-09T07:52:51Z</time>
      </trkpt>
      <trkpt lat="46.56737" lon="5.97209">
        <ele>934.5</ele>
        <time>2021-11-09T07:52:57Z</time>
      </trkpt>
      <trkpt lat="46.56739" lon="5.97216">
        <ele>936</ele>
        <time>2021-11-09T07:53:04Z</time>
      </trkpt>
      <trkpt lat="46.56742" lon="5.97221">
        <ele>938</ele>
        <time>2021-11-09T07:53:12Z</time>
      </trkpt>
      <trkpt lat="46.56746" lon="5.97226">
        <ele>940.2</ele>
        <time>2021-11-09T07:53:18Z</time>
      </trkpt>
      <trkpt lat="46.56749" lon="5.97232">
        <ele>941.7</ele>
        <time>2021-11-09T07:53:23Z</time>
      </trkpt>
      <trkpt lat="46.56754" lon="5.97235">
        <ele>943.4</ele>
        <time>2021-11-09T07:53:29Z</time>
      </trkpt>
      <trkpt lat="46.56757" lon="5.9724">
        <ele>945.7</ele>
        <time>2021-11-09T07:53:35Z</time>
      </trkpt>
      <trkpt lat="46.5676" lon="5.97247">
        <ele>947.9</ele>
        <time>2021-11-09T07:53:40Z</time>
      </trkpt>
      <trkpt lat="46.56764" lon="5.97252">
        <ele>950</ele>
        <time>2021-11-09T07:53:44Z</time>
      </trkpt>
      <trkpt lat="46.56767" lon="5.97257">
        <ele>951.6</ele>
        <time>2021-11-09T07:53:48Z</time>
      </trkpt>
      <trkpt lat="46.56766" lon="5.97263">
        <ele>951.2</ele>
        <time>2021-11-09T07:53:55Z</time>
      </trkpt>
      <trkpt lat="46.56764" lon="5.9727">
        <ele>949.6</ele>
        <time>2021-11-09T07:54:05Z</time>
      </trkpt>
      <trkpt lat="46.56763" lon="5.97278">
        <ele>949.1</ele>
        <time>2021-11-09T07:54:10Z</time>
      </trkpt>
      <trkpt lat="46.56765" lon="5.97285">
        <ele>949</ele>
        <time>2021-11-09T07:54:15Z</time>
      </trkpt>
      <trkpt lat="46.56766" lon="5.97292">
        <ele>948.8</ele>
        <time>2021-11-09T07:54:20Z</time>
      </trkpt>
      <trkpt lat="46.56766" lon="5.973">
        <ele>948.5</ele>
        <time>2021-11-09T07:54:26Z</time>
      </trkpt>
      <trkpt lat="46.56766" lon="5.97307">
        <ele>947.3</ele>
        <time>2021-11-09T07:54:39Z</time>
      </trkpt>
      <trkpt lat="46.56766" lon="5.97314">
        <ele>948.5</ele>
        <time>2021-11-09T07:54:49Z</time>
      </trkpt>
      <trkpt lat="46.56766" lon="5.97321">
        <ele>949.7</ele>
        <time>2021-11-09T07:54:57Z</time>
      </trkpt>
      <trkpt lat="46.56766" lon="5.97328">
        <ele>950.9</ele>
        <time>2021-11-09T07:55:03Z</time>
      </trkpt>
      <trkpt lat="46.56768" lon="5.97335">
        <ele>952.1</ele>
        <time>2021-11-09T07:55:08Z</time>
      </trkpt>
      <trkpt lat="46.5677" lon="5.97341">
        <ele>953.4</ele>
        <time>2021-11-09T07:55:14Z</time>
      </trkpt>
      <trkpt lat="46.56772" lon="5.97347">
        <ele>954.8</ele>
        <time>2021-11-09T07:55:20Z</time>
      </trkpt>
      <trkpt lat="46.56773" lon="5.97354">
        <ele>956.3</ele>
        <time>2021-11-09T07:55:26Z</time>
      </trkpt>
      <trkpt lat="46.5677" lon="5.97359">
        <ele>957.2</ele>
        <time>2021-11-09T07:55:31Z</time>
      </trkpt>
      <trkpt lat="46.56767" lon="5.97365">
        <ele>957.8</ele>
        <time>2021-11-09T07:55:36Z</time>
      </trkpt>
      <trkpt lat="46.56766" lon="5.97372">
        <ele>958.3</ele>
        <time>2021-11-09T07:55:42Z</time>
      </trkpt>
      <trkpt lat="46.56766" lon="5.97378">
        <ele>958.8</ele>
        <time>2021-11-09T07:55:48Z</time>
      </trkpt>
      <trkpt lat="46.56763" lon="5.97384">
        <ele>958.9</ele>
        <time>2021-11-09T07:55:58Z</time>
      </trkpt>
      <trkpt lat="46.5676" lon="5.9739">
        <ele>958</ele>
        <time>2021-11-09T07:56:03Z</time>
      </trkpt>
      <trkpt lat="46.56755" lon="5.97393">
        <ele>957.2</ele>
        <time>2021-11-09T07:56:08Z</time>
      </trkpt>
      <trkpt lat="46.56752" lon="5.97398">
        <ele>956.3</ele>
        <time>2021-11-09T07:56:13Z</time>
      </trkpt>
      <trkpt lat="46.56749" lon="5.97402">
        <ele>956.2</ele>
        <time>2021-11-09T07:56:18Z</time>
      </trkpt>
      <trkpt lat="46.56744" lon="5.97402">
        <ele>957.5</ele>
        <time>2021-11-09T07:56:25Z</time>
      </trkpt>
      <trkpt lat="46.56739" lon="5.97399">
        <ele>958.8</ele>
        <time>2021-11-09T07:56:30Z</time>
      </trkpt>
      <trkpt lat="46.56736" lon="5.97395">
        <ele>960.3</ele>
        <time>2021-11-09T07:56:36Z</time>
      </trkpt>
      <trkpt lat="46.56732" lon="5.9739">
        <ele>961.2</ele>
        <time>2021-11-09T07:56:42Z</time>
      </trkpt>
      <trkpt lat="46.56729" lon="5.97385">
        <ele>961.6</ele>
        <time>2021-11-09T07:56:48Z</time>
      </trkpt>
      <trkpt lat="46.56725" lon="5.97381">
        <ele>961.9</ele>
        <time>2021-11-09T07:56:54Z</time>
      </trkpt>
      <trkpt lat="46.56722" lon="5.97376">
        <ele>962.1</ele>
        <time>2021-11-09T07:56:59Z</time>
      </trkpt>
      <trkpt lat="46.56717" lon="5.97372">
        <ele>962.3</ele>
        <time>2021-11-09T07:57:04Z</time>
      </trkpt>
      <trkpt lat="46.56712" lon="5.97371">
        <ele>962.8</ele>
        <time>2021-11-09T07:57:09Z</time>
      </trkpt>
      <trkpt lat="46.56707" lon="5.97371">
        <ele>963</ele>
        <time>2021-11-09T07:57:13Z</time>
      </trkpt>
      <trkpt lat="46.56703" lon="5.97371">
        <ele>963.1</ele>
        <time>2021-11-09T07:57:18Z</time>
      </trkpt>
      <trkpt lat="46.56698" lon="5.97372">
        <ele>962.9</ele>
        <time>2021-11-09T07:57:24Z</time>
      </trkpt>
      <trkpt lat="46.56693" lon="5.97375">
        <ele>962.7</ele>
        <time>2021-11-09T07:57:30Z</time>
      </trkpt>
      <trkpt lat="46.56689" lon="5.97379">
        <ele>962.4</ele>
        <time>2021-11-09T07:57:36Z</time>
      </trkpt>
      <trkpt lat="46.56685" lon="5.97384">
        <ele>962.2</ele>
        <time>2021-11-09T07:57:41Z</time>
      </trkpt>
      <trkpt lat="46.56681" lon="5.97387">
        <ele>961.7</ele>
        <time>2021-11-09T07:57:46Z</time>
      </trkpt>
      <trkpt lat="46.56676" lon="5.97391">
        <ele>960</ele>
        <time>2021-11-09T07:57:55Z</time>
      </trkpt>
      <trkpt lat="46.56673" lon="5.97396">
        <ele>958.3</ele>
        <time>2021-11-09T07:58:01Z</time>
      </trkpt>
      <trkpt lat="46.56669" lon="5.97403">
        <ele>958.1</ele>
        <time>2021-11-09T07:58:05Z</time>
      </trkpt>
      <trkpt lat="46.56666" lon="5.9741">
        <ele>958.8</ele>
        <time>2021-11-09T07:58:09Z</time>
      </trkpt>
      <trkpt lat="46.56661" lon="5.97414">
        <ele>959.9</ele>
        <time>2021-11-09T07:58:14Z</time>
      </trkpt>
      <trkpt lat="46.56657" lon="5.97415">
        <ele>961</ele>
        <time>2021-11-09T07:58:21Z</time>
      </trkpt>
      <trkpt lat="46.56653" lon="5.97419">
        <ele>961.6</ele>
        <time>2021-11-09T07:58:26Z</time>
      </trkpt>
      <trkpt lat="46.56648" lon="5.97421">
        <ele>961.9</ele>
        <time>2021-11-09T07:58:30Z</time>
      </trkpt>
      <trkpt lat="46.56644" lon="5.97422">
        <ele>962.3</ele>
        <time>2021-11-09T07:58:35Z</time>
      </trkpt>
      <trkpt lat="46.5664" lon="5.97417">
        <ele>965.4</ele>
        <time>2021-11-09T07:58:45Z</time>
      </trkpt>
      <trkpt lat="46.56635" lon="5.97415">
        <ele>966.8</ele>
        <time>2021-11-09T07:58:50Z</time>
      </trkpt>
      <trkpt lat="46.56631" lon="5.97411">
        <ele>968</ele>
        <time>2021-11-09T07:58:57Z</time>
      </trkpt>
      <trkpt lat="46.56627" lon="5.97407">
        <ele>970</ele>
        <time>2021-11-09T07:59:02Z</time>
      </trkpt>
      <trkpt lat="46.56623" lon="5.97404">
        <ele>971.1</ele>
        <time>2021-11-09T07:59:07Z</time>
      </trkpt>
      <trkpt lat="46.56618" lon="5.97402">
        <ele>971.4</ele>
        <time>2021-11-09T07:59:12Z</time>
      </trkpt>
      <trkpt lat="46.56613" lon="5.97399">
        <ele>971.6</ele>
        <time>2021-11-09T07:59:17Z</time>
      </trkpt>
      <trkpt lat="46.56607" lon="5.97398">
        <ele>972.4</ele>
        <time>2021-11-09T07:59:21Z</time>
      </trkpt>
      <trkpt lat="46.56602" lon="5.97396">
        <ele>973.3</ele>
        <time>2021-11-09T07:59:25Z</time>
      </trkpt>
      <trkpt lat="46.56598" lon="5.97392">
        <ele>975</ele>
        <time>2021-11-09T07:59:30Z</time>
      </trkpt>
      <trkpt lat="46.56593" lon="5.97388">
        <ele>976.2</ele>
        <time>2021-11-09T07:59:36Z</time>
      </trkpt>
      <trkpt lat="46.56588" lon="5.97385">
        <ele>976.7</ele>
        <time>2021-11-09T07:59:41Z</time>
      </trkpt>
      <trkpt lat="46.56583" lon="5.97383">
        <ele>977.8</ele>
        <time>2021-11-09T07:59:46Z</time>
      </trkpt>
      <trkpt lat="46.56578" lon="5.97383">
        <ele>979.2</ele>
        <time>2021-11-09T07:59:52Z</time>
      </trkpt>
      <trkpt lat="46.56573" lon="5.97385">
        <ele>980.2</ele>
        <time>2021-11-09T07:59:58Z</time>
      </trkpt>
      <trkpt lat="46.56568" lon="5.97385">
        <ele>980.9</ele>
        <time>2021-11-09T08:00:03Z</time>
      </trkpt>
      <trkpt lat="46.56564" lon="5.97386">
        <ele>981.4</ele>
        <time>2021-11-09T08:00:09Z</time>
      </trkpt>
      <trkpt lat="46.56559" lon="5.97389">
        <ele>981.7</ele>
        <time>2021-11-09T08:00:15Z</time>
      </trkpt>
      <trkpt lat="46.56554" lon="5.97391">
        <ele>981.5</ele>
        <time>2021-11-09T08:00:21Z</time>
      </trkpt>
      <trkpt lat="46.56549" lon="5.97391">
        <ele>981.3</ele>
        <time>2021-11-09T08:00:25Z</time>
      </trkpt>
      <trkpt lat="46.56544" lon="5.97392">
        <ele>981</ele>
        <time>2021-11-09T08:00:29Z</time>
      </trkpt>
      <trkpt lat="46.5654" lon="5.97393">
        <ele>980.7</ele>
        <time>2021-11-09T08:00:33Z</time>
      </trkpt>
      <trkpt lat="46.56535" lon="5.97395">
        <ele>979.6</ele>
        <time>2021-11-09T08:00:40Z</time>
      </trkpt>
      <trkpt lat="46.5653" lon="5.97393">
        <ele>979.6</ele>
        <time>2021-11-09T08:00:48Z</time>
      </trkpt>
      <trkpt lat="46.56525" lon="5.97393">
        <ele>978.9</ele>
        <time>2021-11-09T08:00:53Z</time>
      </trkpt>
      <trkpt lat="46.5652" lon="5.97389">
        <ele>977.8</ele>
        <time>2021-11-09T08:00:59Z</time>
      </trkpt>
      <trkpt lat="46.56516" lon="5.97389">
        <ele>976.8</ele>
        <time>2021-11-09T08:01:03Z</time>
      </trkpt>
      <trkpt lat="46.56511" lon="5.97388">
        <ele>976</ele>
        <time>2021-11-09T08:01:07Z</time>
      </trkpt>
      <trkpt lat="46.56506" lon="5.97386">
        <ele>974.9</ele>
        <time>2021-11-09T08:01:12Z</time>
      </trkpt>
      <trkpt lat="46.56503" lon="5.97382">
        <ele>974.2</ele>
        <time>2021-11-09T08:01:17Z</time>
      </trkpt>
      <trkpt lat="46.56499" lon="5.97377">
        <ele>973.5</ele>
        <time>2021-11-09T08:01:22Z</time>
      </trkpt>
      <trkpt lat="46.56495" lon="5.97373">
        <ele>972.3</ele>
        <time>2021-11-09T08:01:27Z</time>
      </trkpt>
      <trkpt lat="46.56491" lon="5.97368">
        <ele>971.6</ele>
        <time>2021-11-09T08:01:31Z</time>
      </trkpt>
      <trkpt lat="46.56488" lon="5.97364">
        <ele>971.2</ele>
        <time>2021-11-09T08:01:35Z</time>
      </trkpt>
      <trkpt lat="46.56484" lon="5.97358">
        <ele>971</ele>
        <time>2021-11-09T08:01:40Z</time>
      </trkpt>
      <trkpt lat="46.5648" lon="5.97352">
        <ele>972.1</ele>
        <time>2021-11-09T08:01:46Z</time>
      </trkpt>
      <trkpt lat="46.56477" lon="5.97348">
        <ele>973.3</ele>
        <time>2021-11-09T08:01:52Z</time>
      </trkpt>
      <trkpt lat="46.56472" lon="5.97346">
        <ele>974.6</ele>
        <time>2021-11-09T08:01:57Z</time>
      </trkpt>
      <trkpt lat="46.56467" lon="5.97342">
        <ele>975.9</ele>
        <time>2021-11-09T08:02:02Z</time>
      </trkpt>
      <trkpt lat="46.56463" lon="5.97341">
        <ele>982.6</ele>
        <time>2021-11-09T08:02:27Z</time>
      </trkpt>
      <trkpt lat="46.56457" lon="5.97341">
        <ele>982.7</ele>
        <time>2021-11-09T08:02:33Z</time>
      </trkpt>
      <trkpt lat="46.56452" lon="5.97342">
        <ele>982.4</ele>
        <time>2021-11-09T08:02:40Z</time>
      </trkpt>
      <trkpt lat="46.56449" lon="5.97347">
        <ele>982.1</ele>
        <time>2021-11-09T08:02:45Z</time>
      </trkpt>
      <trkpt lat="46.56445" lon="5.97351">
        <ele>981.6</ele>
        <time>2021-11-09T08:02:51Z</time>
      </trkpt>
      <trkpt lat="46.5644" lon="5.97355">
        <ele>981.4</ele>
        <time>2021-11-09T08:02:56Z</time>
      </trkpt>
      <trkpt lat="46.56435" lon="5.97358">
        <ele>981.7</ele>
        <time>2021-11-09T08:03:00Z</time>
      </trkpt>
      <trkpt lat="46.56431" lon="5.97362">
        <ele>982.2</ele>
        <time>2021-11-09T08:03:04Z</time>
      </trkpt>
      <trkpt lat="46.56426" lon="5.97365">
        <ele>982.3</ele>
        <time>2021-11-09T08:03:09Z</time>
      </trkpt>
      <trkpt lat="46.56422" lon="5.97369">
        <ele>981.7</ele>
        <time>2021-11-09T08:03:15Z</time>
      </trkpt>
      <trkpt lat="46.56418" lon="5.97372">
        <ele>981.3</ele>
        <time>2021-11-09T08:03:21Z</time>
      </trkpt>
      <trkpt lat="46.56414" lon="5.97376">
        <ele>980.7</ele>
        <time>2021-11-09T08:03:25Z</time>
      </trkpt>
      <trkpt lat="46.56409" lon="5.9738">
        <ele>980.4</ele>
        <time>2021-11-09T08:03:30Z</time>
      </trkpt>
      <trkpt lat="46.56406" lon="5.97385">
        <ele>980.6</ele>
        <time>2021-11-09T08:03:34Z</time>
      </trkpt>
      <trkpt lat="46.56402" lon="5.9739">
        <ele>981</ele>
        <time>2021-11-09T08:03:39Z</time>
      </trkpt>
      <trkpt lat="46.56399" lon="5.97396">
        <ele>980.9</ele>
        <time>2021-11-09T08:03:45Z</time>
      </trkpt>
      <trkpt lat="46.56396" lon="5.97402">
        <ele>980.5</ele>
        <time>2021-11-09T08:03:51Z</time>
      </trkpt>
      <trkpt lat="46.56391" lon="5.97406">
        <ele>980.2</ele>
        <time>2021-11-09T08:03:56Z</time>
      </trkpt>
      <trkpt lat="46.56388" lon="5.97412">
        <ele>979.5</ele>
        <time>2021-11-09T08:04:02Z</time>
      </trkpt>
      <trkpt lat="46.56385" lon="5.97418">
        <ele>978.5</ele>
        <time>2021-11-09T08:04:07Z</time>
      </trkpt>
      <trkpt lat="46.56384" lon="5.97424">
        <ele>977.5</ele>
        <time>2021-11-09T08:04:12Z</time>
      </trkpt>
      <trkpt lat="46.56383" lon="5.97431">
        <ele>976.1</ele>
        <time>2021-11-09T08:04:17Z</time>
      </trkpt>
      <trkpt lat="46.56381" lon="5.97438">
        <ele>974.8</ele>
        <time>2021-11-09T08:04:23Z</time>
      </trkpt>
      <trkpt lat="46.56378" lon="5.97444">
        <ele>974.4</ele>
        <time>2021-11-09T08:04:28Z</time>
      </trkpt>
      <trkpt lat="46.56374" lon="5.97449">
        <ele>974.7</ele>
        <time>2021-11-09T08:04:33Z</time>
      </trkpt>
      <trkpt lat="46.56371" lon="5.97455">
        <ele>974.9</ele>
        <time>2021-11-09T08:04:38Z</time>
      </trkpt>
      <trkpt lat="46.56366" lon="5.97458">
        <ele>975.2</ele>
        <time>2021-11-09T08:04:43Z</time>
      </trkpt>
      <trkpt lat="46.56362" lon="5.97461">
        <ele>975.4</ele>
        <time>2021-11-09T08:04:48Z</time>
      </trkpt>
      <trkpt lat="46.56357" lon="5.97462">
        <ele>975.7</ele>
        <time>2021-11-09T08:04:53Z</time>
      </trkpt>
      <trkpt lat="46.56353" lon="5.97463">
        <ele>975.8</ele>
        <time>2021-11-09T08:04:58Z</time>
      </trkpt>
      <trkpt lat="46.56348" lon="5.97467">
        <ele>975.7</ele>
        <time>2021-11-09T08:05:04Z</time>
      </trkpt>
      <trkpt lat="46.56344" lon="5.97469">
        <ele>975.2</ele>
        <time>2021-11-09T08:05:11Z</time>
      </trkpt>
      <trkpt lat="46.5634" lon="5.97474">
        <ele>974.9</ele>
        <time>2021-11-09T08:05:17Z</time>
      </trkpt>
      <trkpt lat="46.56335" lon="5.97477">
        <ele>975.6</ele>
        <time>2021-11-09T08:05:22Z</time>
      </trkpt>
      <trkpt lat="46.56331" lon="5.9748">
        <ele>976.1</ele>
        <time>2021-11-09T08:05:26Z</time>
      </trkpt>
      <trkpt lat="46.56326" lon="5.97482">
        <ele>976.1</ele>
        <time>2021-11-09T08:05:31Z</time>
      </trkpt>
      <trkpt lat="46.56321" lon="5.97487">
        <ele>976.1</ele>
        <time>2021-11-09T08:05:35Z</time>
      </trkpt>
      <trkpt lat="46.56317" lon="5.97491">
        <ele>975.4</ele>
        <time>2021-11-09T08:05:39Z</time>
      </trkpt>
      <trkpt lat="46.56315" lon="5.97498">
        <ele>974</ele>
        <time>2021-11-09T08:05:44Z</time>
      </trkpt>
      <trkpt lat="46.5631" lon="5.97502">
        <ele>973.6</ele>
        <time>2021-11-09T08:05:48Z</time>
      </trkpt>
      <trkpt lat="46.56305" lon="5.97503">
        <ele>973.8</ele>
        <time>2021-11-09T08:05:51Z</time>
      </trkpt>
      <trkpt lat="46.563" lon="5.97505">
        <ele>974.7</ele>
        <time>2021-11-09T08:05:54Z</time>
      </trkpt>
      <trkpt lat="46.56294" lon="5.97507">
        <ele>976.1</ele>
        <time>2021-11-09T08:05:58Z</time>
      </trkpt>
      <trkpt lat="46.5629" lon="5.97511">
        <ele>977.9</ele>
        <time>2021-11-09T08:06:02Z</time>
      </trkpt>
      <trkpt lat="46.56285" lon="5.97515">
        <ele>979.9</ele>
        <time>2021-11-09T08:06:06Z</time>
      </trkpt>
      <trkpt lat="46.56282" lon="5.97521">
        <ele>982.4</ele>
        <time>2021-11-09T08:06:10Z</time>
      </trkpt>
      <trkpt lat="46.56277" lon="5.97524">
        <ele>984.5</ele>
        <time>2021-11-09T08:06:14Z</time>
      </trkpt>
      <trkpt lat="46.56273" lon="5.97527">
        <ele>986.8</ele>
        <time>2021-11-09T08:06:19Z</time>
      </trkpt>
      <trkpt lat="46.56269" lon="5.97532">
        <ele>987.6</ele>
        <time>2021-11-09T08:06:26Z</time>
      </trkpt>
      <trkpt lat="46.56265" lon="5.97535">
        <ele>986.8</ele>
        <time>2021-11-09T08:06:32Z</time>
      </trkpt>
      <trkpt lat="46.56261" lon="5.97539">
        <ele>985.7</ele>
        <time>2021-11-09T08:06:38Z</time>
      </trkpt>
      <trkpt lat="46.56257" lon="5.97543">
        <ele>984.6</ele>
        <time>2021-11-09T08:06:44Z</time>
      </trkpt>
      <trkpt lat="46.56255" lon="5.9755">
        <ele>983.4</ele>
        <time>2021-11-09T08:06:49Z</time>
      </trkpt>
      <trkpt lat="46.56252" lon="5.97557">
        <ele>982</ele>
        <time>2021-11-09T08:06:54Z</time>
      </trkpt>
      <trkpt lat="46.56252" lon="5.97564">
        <ele>980</ele>
        <time>2021-11-09T08:06:59Z</time>
      </trkpt>
      <trkpt lat="46.56251" lon="5.97571">
        <ele>978</ele>
        <time>2021-11-09T08:07:03Z</time>
      </trkpt>
      <trkpt lat="46.5625" lon="5.97578">
        <ele>975.9</ele>
        <time>2021-11-09T08:07:08Z</time>
      </trkpt>
      <trkpt lat="46.56249" lon="5.97586">
        <ele>973.3</ele>
        <time>2021-11-09T08:07:14Z</time>
      </trkpt>
      <trkpt lat="46.56248" lon="5.97592">
        <ele>971.2</ele>
        <time>2021-11-09T08:07:19Z</time>
      </trkpt>
      <trkpt lat="46.56246" lon="5.97599">
        <ele>970</ele>
        <time>2021-11-09T08:07:23Z</time>
      </trkpt>
      <trkpt lat="46.56245" lon="5.97606">
        <ele>968.4</ele>
        <time>2021-11-09T08:07:27Z</time>
      </trkpt>
      <trkpt lat="46.56242" lon="5.97612">
        <ele>966.8</ele>
        <time>2021-11-09T08:07:31Z</time>
      </trkpt>
      <trkpt lat="46.5624" lon="5.97618">
        <ele>964.8</ele>
        <time>2021-11-09T08:07:36Z</time>
      </trkpt>
      <trkpt lat="46.56238" lon="5.97625">
        <ele>963.4</ele>
        <time>2021-11-09T08:07:42Z</time>
      </trkpt>
      <trkpt lat="46.56235" lon="5.97631">
        <ele>962.6</ele>
        <time>2021-11-09T08:07:47Z</time>
      </trkpt>
      <trkpt lat="46.56233" lon="5.97638">
        <ele>962.6</ele>
        <time>2021-11-09T08:07:53Z</time>
      </trkpt>
      <trkpt lat="46.56229" lon="5.97643">
        <ele>962</ele>
        <time>2021-11-09T08:07:59Z</time>
      </trkpt>
      <trkpt lat="46.56226" lon="5.97649">
        <ele>961.3</ele>
        <time>2021-11-09T08:08:05Z</time>
      </trkpt>
      <trkpt lat="46.56223" lon="5.97654">
        <ele>961.3</ele>
        <time>2021-11-09T08:08:09Z</time>
      </trkpt>
      <trkpt lat="46.56221" lon="5.97661">
        <ele>961.3</ele>
        <time>2021-11-09T08:08:13Z</time>
      </trkpt>
      <trkpt lat="46.56217" lon="5.97665">
        <ele>961.8</ele>
        <time>2021-11-09T08:08:17Z</time>
      </trkpt>
      <trkpt lat="46.56211" lon="5.97666">
        <ele>962.3</ele>
        <time>2021-11-09T08:08:21Z</time>
      </trkpt>
      <trkpt lat="46.56207" lon="5.97669">
        <ele>963.1</ele>
        <time>2021-11-09T08:08:25Z</time>
      </trkpt>
      <trkpt lat="46.56203" lon="5.97673">
        <ele>964.1</ele>
        <time>2021-11-09T08:08:30Z</time>
      </trkpt>
      <trkpt lat="46.56199" lon="5.97679">
        <ele>965.7</ele>
        <time>2021-11-09T08:08:35Z</time>
      </trkpt>
      <trkpt lat="46.56196" lon="5.97684">
        <ele>966.4</ele>
        <time>2021-11-09T08:08:40Z</time>
      </trkpt>
      <trkpt lat="46.56192" lon="5.97689">
        <ele>967.3</ele>
        <time>2021-11-09T08:08:46Z</time>
      </trkpt>
      <trkpt lat="46.56189" lon="5.97694">
        <ele>967.9</ele>
        <time>2021-11-09T08:08:51Z</time>
      </trkpt>
      <trkpt lat="46.56185" lon="5.97699">
        <ele>968.2</ele>
        <time>2021-11-09T08:08:56Z</time>
      </trkpt>
      <trkpt lat="46.56181" lon="5.97704">
        <ele>968.6</ele>
        <time>2021-11-09T08:09:01Z</time>
      </trkpt>
      <trkpt lat="46.56177" lon="5.9771">
        <ele>969.6</ele>
        <time>2021-11-09T08:09:05Z</time>
      </trkpt>
      <trkpt lat="46.56173" lon="5.97715">
        <ele>970.6</ele>
        <time>2021-11-09T08:09:09Z</time>
      </trkpt>
      <trkpt lat="46.56171" lon="5.9772">
        <ele>971.7</ele>
        <time>2021-11-09T08:09:15Z</time>
      </trkpt>
      <trkpt lat="46.56167" lon="5.97724">
        <ele>972.5</ele>
        <time>2021-11-09T08:09:20Z</time>
      </trkpt>
      <trkpt lat="46.56163" lon="5.9773">
        <ele>972.7</ele>
        <time>2021-11-09T08:09:25Z</time>
      </trkpt>
      <trkpt lat="46.5616" lon="5.97737">
        <ele>973.2</ele>
        <time>2021-11-09T08:09:30Z</time>
      </trkpt>
      <trkpt lat="46.56156" lon="5.97741">
        <ele>973.3</ele>
        <time>2021-11-09T08:09:35Z</time>
      </trkpt>
      <trkpt lat="46.56152" lon="5.97745">
        <ele>973.4</ele>
        <time>2021-11-09T08:09:40Z</time>
      </trkpt>
      <trkpt lat="46.56148" lon="5.97749">
        <ele>973.7</ele>
        <time>2021-11-09T08:09:45Z</time>
      </trkpt>
      <trkpt lat="46.56145" lon="5.97754">
        <ele>974.2</ele>
        <time>2021-11-09T08:09:50Z</time>
      </trkpt>
      <trkpt lat="46.56142" lon="5.9776">
        <ele>974.5</ele>
        <time>2021-11-09T08:09:55Z</time>
      </trkpt>
      <trkpt lat="46.56138" lon="5.97765">
        <ele>974.3</ele>
        <time>2021-11-09T08:10:01Z</time>
      </trkpt>
      <trkpt lat="46.56135" lon="5.9777">
        <ele>974.3</ele>
        <time>2021-11-09T08:10:06Z</time>
      </trkpt>
      <trkpt lat="46.56132" lon="5.97775">
        <ele>974.4</ele>
        <time>2021-11-09T08:10:11Z</time>
      </trkpt>
      <trkpt lat="46.56129" lon="5.97782">
        <ele>974.9</ele>
        <time>2021-11-09T08:10:16Z</time>
      </trkpt>
      <trkpt lat="46.56125" lon="5.97787">
        <ele>975.3</ele>
        <time>2021-11-09T08:10:21Z</time>
      </trkpt>
      <trkpt lat="46.56121" lon="5.97791">
        <ele>975.7</ele>
        <time>2021-11-09T08:10:25Z</time>
      </trkpt>
      <trkpt lat="46.56117" lon="5.97795">
        <ele>976.1</ele>
        <time>2021-11-09T08:10:30Z</time>
      </trkpt>
      <trkpt lat="46.56113" lon="5.97798">
        <ele>975.2</ele>
        <time>2021-11-09T08:10:36Z</time>
      </trkpt>
      <trkpt lat="46.56108" lon="5.97802">
        <ele>974.3</ele>
        <time>2021-11-09T08:10:42Z</time>
      </trkpt>
      <trkpt lat="46.56105" lon="5.97807">
        <ele>976.8</ele>
        <time>2021-11-09T08:11:08Z</time>
      </trkpt>
      <trkpt lat="46.561" lon="5.97807">
        <ele>976.9</ele>
        <time>2021-11-09T08:11:17Z</time>
      </trkpt>
      <trkpt lat="46.56096" lon="5.97811">
        <ele>981.5</ele>
        <time>2021-11-09T08:11:59Z</time>
      </trkpt>
      <trkpt lat="46.56092" lon="5.97813">
        <ele>981.1</ele>
        <time>2021-11-09T08:12:11Z</time>
      </trkpt>
      <trkpt lat="46.56087" lon="5.97814">
        <ele>981</ele>
        <time>2021-11-09T08:12:17Z</time>
      </trkpt>
      <trkpt lat="46.56082" lon="5.97814">
        <ele>980.4</ele>
        <time>2021-11-09T08:12:24Z</time>
      </trkpt>
      <trkpt lat="46.56077" lon="5.97815">
        <ele>980.6</ele>
        <time>2021-11-09T08:12:29Z</time>
      </trkpt>
      <trkpt lat="46.56073" lon="5.97819">
        <ele>981.3</ele>
        <time>2021-11-09T08:12:33Z</time>
      </trkpt>
      <trkpt lat="46.56069" lon="5.97822">
        <ele>983.1</ele>
        <time>2021-11-09T08:12:39Z</time>
      </trkpt>
      <trkpt lat="46.56064" lon="5.97825">
        <ele>984.4</ele>
        <time>2021-11-09T08:12:44Z</time>
      </trkpt>
      <trkpt lat="46.56059" lon="5.97827">
        <ele>985.9</ele>
        <time>2021-11-09T08:12:49Z</time>
      </trkpt>
      <trkpt lat="46.56055" lon="5.9783">
        <ele>987.1</ele>
        <time>2021-11-09T08:12:53Z</time>
      </trkpt>
      <trkpt lat="46.5605" lon="5.9783">
        <ele>988.2</ele>
        <time>2021-11-09T08:12:57Z</time>
      </trkpt>
      <trkpt lat="46.56046" lon="5.97827">
        <ele>988.9</ele>
        <time>2021-11-09T08:13:02Z</time>
      </trkpt>
      <trkpt lat="46.56042" lon="5.97824">
        <ele>989.2</ele>
        <time>2021-11-09T08:13:07Z</time>
      </trkpt>
      <trkpt lat="46.56038" lon="5.97818">
        <ele>989.8</ele>
        <time>2021-11-09T08:13:12Z</time>
      </trkpt>
      <trkpt lat="46.56034" lon="5.97813">
        <ele>990.3</ele>
        <time>2021-11-09T08:13:17Z</time>
      </trkpt>
      <trkpt lat="46.5603" lon="5.97809">
        <ele>989.6</ele>
        <time>2021-11-09T08:13:23Z</time>
      </trkpt>
      <trkpt lat="46.56026" lon="5.97806">
        <ele>988.8</ele>
        <time>2021-11-09T08:13:28Z</time>
      </trkpt>
      <trkpt lat="46.56021" lon="5.97803">
        <ele>987.6</ele>
        <time>2021-11-09T08:13:34Z</time>
      </trkpt>
      <trkpt lat="46.56016" lon="5.97798">
        <ele>986.2</ele>
        <time>2021-11-09T08:13:40Z</time>
      </trkpt>
      <trkpt lat="46.56013" lon="5.97793">
        <ele>982.9</ele>
        <time>2021-11-09T08:14:09Z</time>
      </trkpt>
      <trkpt lat="46.56009" lon="5.97788">
        <ele>982.1</ele>
        <time>2021-11-09T08:14:16Z</time>
      </trkpt>
      <trkpt lat="46.56004" lon="5.97785">
        <ele>981.8</ele>
        <time>2021-11-09T08:14:21Z</time>
      </trkpt>
      <trkpt lat="46.55999" lon="5.97782">
        <ele>982.1</ele>
        <time>2021-11-09T08:14:27Z</time>
      </trkpt>
      <trkpt lat="46.55996" lon="5.97777">
        <ele>982.8</ele>
        <time>2021-11-09T08:14:33Z</time>
      </trkpt>
      <trkpt lat="46.55995" lon="5.9777">
        <ele>982.9</ele>
        <time>2021-11-09T08:14:40Z</time>
      </trkpt>
      <trkpt lat="46.55991" lon="5.97767">
        <ele>982.5</ele>
        <time>2021-11-09T08:14:45Z</time>
      </trkpt>
      <trkpt lat="46.55987" lon="5.97762">
        <ele>982.5</ele>
        <time>2021-11-09T08:14:50Z</time>
      </trkpt>
      <trkpt lat="46.55983" lon="5.97758">
        <ele>982.5</ele>
        <time>2021-11-09T08:14:54Z</time>
      </trkpt>
      <trkpt lat="46.55978" lon="5.97756">
        <ele>982.5</ele>
        <time>2021-11-09T08:14:59Z</time>
      </trkpt>
      <trkpt lat="46.55975" lon="5.97751">
        <ele>982.6</ele>
        <time>2021-11-09T08:15:06Z</time>
      </trkpt>
      <trkpt lat="46.55972" lon="5.97744">
        <ele>982.5</ele>
        <time>2021-11-09T08:15:12Z</time>
      </trkpt>
      <trkpt lat="46.5597" lon="5.97738">
        <ele>982.6</ele>
        <time>2021-11-09T08:15:16Z</time>
      </trkpt>
      <trkpt lat="46.55969" lon="5.97731">
        <ele>982.8</ele>
        <time>2021-11-09T08:15:21Z</time>
      </trkpt>
      <trkpt lat="46.55967" lon="5.97723">
        <ele>983.1</ele>
        <time>2021-11-09T08:15:26Z</time>
      </trkpt>
      <trkpt lat="46.55967" lon="5.97716">
        <ele>983.1</ele>
        <time>2021-11-09T08:15:30Z</time>
      </trkpt>
      <trkpt lat="46.55965" lon="5.97709">
        <ele>982.9</ele>
        <time>2021-11-09T08:15:34Z</time>
      </trkpt>
      <trkpt lat="46.55962" lon="5.97704">
        <ele>982.6</ele>
        <time>2021-11-09T08:15:38Z</time>
      </trkpt>
      <trkpt lat="46.55961" lon="5.97696">
        <ele>982.6</ele>
        <time>2021-11-09T08:15:43Z</time>
      </trkpt>
      <trkpt lat="46.5596" lon="5.97689">
        <ele>982.8</ele>
        <time>2021-11-09T08:15:48Z</time>
      </trkpt>
      <trkpt lat="46.5596" lon="5.97681">
        <ele>982.8</ele>
        <time>2021-11-09T08:15:53Z</time>
      </trkpt>
      <trkpt lat="46.55959" lon="5.97674">
        <ele>982.9</ele>
        <time>2021-11-09T08:15:58Z</time>
      </trkpt>
      <trkpt lat="46.55958" lon="5.97667">
        <ele>982.6</ele>
        <time>2021-11-09T08:16:03Z</time>
      </trkpt>
      <trkpt lat="46.55956" lon="5.9766">
        <ele>982.2</ele>
        <time>2021-11-09T08:16:09Z</time>
      </trkpt>
      <trkpt lat="46.55956" lon="5.97652">
        <ele>981.4</ele>
        <time>2021-11-09T08:16:14Z</time>
      </trkpt>
      <trkpt lat="46.55953" lon="5.97647">
        <ele>980.6</ele>
        <time>2021-11-09T08:16:19Z</time>
      </trkpt>
      <trkpt lat="46.5595" lon="5.97641">
        <ele>979.9</ele>
        <time>2021-11-09T08:16:24Z</time>
      </trkpt>
      <trkpt lat="46.55947" lon="5.97636">
        <ele>979.7</ele>
        <time>2021-11-09T08:16:28Z</time>
      </trkpt>
      <trkpt lat="46.55943" lon="5.9763">
        <ele>979.8</ele>
        <time>2021-11-09T08:16:32Z</time>
      </trkpt>
      <trkpt lat="46.5594" lon="5.97625">
        <ele>980.4</ele>
        <time>2021-11-09T08:16:35Z</time>
      </trkpt>
      <trkpt lat="46.55936" lon="5.97621">
        <ele>981.4</ele>
        <time>2021-11-09T08:16:39Z</time>
      </trkpt>
      <trkpt lat="46.55931" lon="5.97618">
        <ele>982.6</ele>
        <time>2021-11-09T08:16:43Z</time>
      </trkpt>
      <trkpt lat="46.55926" lon="5.97613">
        <ele>983.7</ele>
        <time>2021-11-09T08:16:48Z</time>
      </trkpt>
      <trkpt lat="46.55922" lon="5.97609">
        <ele>984</ele>
        <time>2021-11-09T08:16:53Z</time>
      </trkpt>
      <trkpt lat="46.55917" lon="5.97608">
        <ele>983.8</ele>
        <time>2021-11-09T08:16:59Z</time>
      </trkpt>
      <trkpt lat="46.55912" lon="5.97608">
        <ele>983.6</ele>
        <time>2021-11-09T08:17:04Z</time>
      </trkpt>
      <trkpt lat="46.55907" lon="5.97605">
        <ele>983.4</ele>
        <time>2021-11-09T08:17:10Z</time>
      </trkpt>
      <trkpt lat="46.55903" lon="5.97601">
        <ele>983.5</ele>
        <time>2021-11-09T08:17:15Z</time>
      </trkpt>
      <trkpt lat="46.55899" lon="5.97598">
        <ele>984.1</ele>
        <time>2021-11-09T08:17:21Z</time>
      </trkpt>
      <trkpt lat="46.55894" lon="5.97596">
        <ele>985.9</ele>
        <time>2021-11-09T08:17:29Z</time>
      </trkpt>
      <trkpt lat="46.55889" lon="5.97595">
        <ele>987</ele>
        <time>2021-11-09T08:17:34Z</time>
      </trkpt>
      <trkpt lat="46.55885" lon="5.97594">
        <ele>987.9</ele>
        <time>2021-11-09T08:17:39Z</time>
      </trkpt>
      <trkpt lat="46.5588" lon="5.97592">
        <ele>988.2</ele>
        <time>2021-11-09T08:17:45Z</time>
      </trkpt>
      <trkpt lat="46.55876" lon="5.97589">
        <ele>988.4</ele>
        <time>2021-11-09T08:17:52Z</time>
      </trkpt>
      <trkpt lat="46.55871" lon="5.97585">
        <ele>987.8</ele>
        <time>2021-11-09T08:17:58Z</time>
      </trkpt>
      <trkpt lat="46.55866" lon="5.97584">
        <ele>986.5</ele>
        <time>2021-11-09T08:18:05Z</time>
      </trkpt>
      <trkpt lat="46.55861" lon="5.97587">
        <ele>986.3</ele>
        <time>2021-11-09T08:18:10Z</time>
      </trkpt>
      <trkpt lat="46.55858" lon="5.97591">
        <ele>986.5</ele>
        <time>2021-11-09T08:18:15Z</time>
      </trkpt>
      <trkpt lat="46.55854" lon="5.97597">
        <ele>987.2</ele>
        <time>2021-11-09T08:18:20Z</time>
      </trkpt>
      <trkpt lat="46.55851" lon="5.97602">
        <ele>988.3</ele>
        <time>2021-11-09T08:18:27Z</time>
      </trkpt>
      <trkpt lat="46.55846" lon="5.97607">
        <ele>988.7</ele>
        <time>2021-11-09T08:18:34Z</time>
      </trkpt>
      <trkpt lat="46.55843" lon="5.97611">
        <ele>988.7</ele>
        <time>2021-11-09T08:18:39Z</time>
      </trkpt>
      <trkpt lat="46.55839" lon="5.97615">
        <ele>989.1</ele>
        <time>2021-11-09T08:18:52Z</time>
      </trkpt>
      <trkpt lat="46.55834" lon="5.97616">
        <ele>989.5</ele>
        <time>2021-11-09T08:18:59Z</time>
      </trkpt>
      <trkpt lat="46.5583" lon="5.97611">
        <ele>989.6</ele>
        <time>2021-11-09T08:19:07Z</time>
      </trkpt>
      <trkpt lat="46.55827" lon="5.97606">
        <ele>988.7</ele>
        <time>2021-11-09T08:19:13Z</time>
      </trkpt>
      <trkpt lat="46.55822" lon="5.97604">
        <ele>986.9</ele>
        <time>2021-11-09T08:19:19Z</time>
      </trkpt>
      <trkpt lat="46.55817" lon="5.976">
        <ele>985.3</ele>
        <time>2021-11-09T08:19:24Z</time>
      </trkpt>
      <trkpt lat="46.55813" lon="5.97595">
        <ele>984.2</ele>
        <time>2021-11-09T08:19:28Z</time>
      </trkpt>
      <trkpt lat="46.5581" lon="5.97591">
        <ele>983.4</ele>
        <time>2021-11-09T08:19:32Z</time>
      </trkpt>
      <trkpt lat="46.55805" lon="5.97588">
        <ele>983.2</ele>
        <time>2021-11-09T08:19:37Z</time>
      </trkpt>
      <trkpt lat="46.558" lon="5.97586">
        <ele>983.7</ele>
        <time>2021-11-09T08:19:43Z</time>
      </trkpt>
      <trkpt lat="46.55798" lon="5.97579">
        <ele>985.3</ele>
        <time>2021-11-09T08:20:06Z</time>
      </trkpt>
      <trkpt lat="46.55794" lon="5.97582">
        <ele>985.6</ele>
        <time>2021-11-09T08:20:11Z</time>
      </trkpt>
      <trkpt lat="46.55788" lon="5.97582">
        <ele>986</ele>
        <time>2021-11-09T08:20:15Z</time>
      </trkpt>
      <trkpt lat="46.55784" lon="5.97581">
        <ele>986.3</ele>
        <time>2021-11-09T08:20:19Z</time>
      </trkpt>
      <trkpt lat="46.55779" lon="5.9758">
        <ele>987</ele>
        <time>2021-11-09T08:20:24Z</time>
      </trkpt>
      <trkpt lat="46.55775" lon="5.97576">
        <ele>988.1</ele>
        <time>2021-11-09T08:20:32Z</time>
      </trkpt>
      <trkpt lat="46.55774" lon="5.97568">
        <ele>988.9</ele>
        <time>2021-11-09T08:20:38Z</time>
      </trkpt>
      <trkpt lat="46.55774" lon="5.97561">
        <ele>989</ele>
        <time>2021-11-09T08:20:44Z</time>
      </trkpt>
      <trkpt lat="46.55771" lon="5.97556">
        <ele>989</ele>
        <time>2021-11-09T08:20:52Z</time>
      </trkpt>
      <trkpt lat="46.55769" lon="5.97549">
        <ele>989.1</ele>
        <time>2021-11-09T08:21:00Z</time>
      </trkpt>
      <trkpt lat="46.55767" lon="5.97543">
        <ele>989.6</ele>
        <time>2021-11-09T08:21:07Z</time>
      </trkpt>
      <trkpt lat="46.55765" lon="5.97536">
        <ele>990.1</ele>
        <time>2021-11-09T08:21:13Z</time>
      </trkpt>
      <trkpt lat="46.55763" lon="5.9753">
        <ele>990.5</ele>
        <time>2021-11-09T08:21:18Z</time>
      </trkpt>
      <trkpt lat="46.55761" lon="5.97524">
        <ele>991.3</ele>
        <time>2021-11-09T08:21:23Z</time>
      </trkpt>
      <trkpt lat="46.55761" lon="5.97517">
        <ele>993.1</ele>
        <time>2021-11-09T08:21:32Z</time>
      </trkpt>
      <trkpt lat="46.55762" lon="5.97523">
        <ele>1008.4</ele>
        <time>2021-11-09T08:26:31Z</time>
      </trkpt>
      <trkpt lat="46.55758" lon="5.97527">
        <ele>1008.4</ele>
        <time>2021-11-09T08:26:38Z</time>
      </trkpt>
      <trkpt lat="46.55759" lon="5.9752">
        <ele>1007.7</ele>
        <time>2021-11-09T08:27:41Z</time>
      </trkpt>
      <trkpt lat="46.55754" lon="5.97521">
        <ele>1006.8</ele>
        <time>2021-11-09T08:27:53Z</time>
      </trkpt>
      <trkpt lat="46.55752" lon="5.97515">
        <ele>1004</ele>
        <time>2021-11-09T08:28:54Z</time>
      </trkpt>
      <trkpt lat="46.55751" lon="5.97507">
        <ele>1002.8</ele>
        <time>2021-11-09T08:28:59Z</time>
      </trkpt>
      <trkpt lat="46.55751" lon="5.97501">
        <ele>1002.3</ele>
        <time>2021-11-09T08:29:05Z</time>
      </trkpt>
      <trkpt lat="46.55749" lon="5.97495">
        <ele>1003.7</ele>
        <time>2021-11-09T08:29:15Z</time>
      </trkpt>
      <trkpt lat="46.55748" lon="5.97489">
        <ele>1004.8</ele>
        <time>2021-11-09T08:29:21Z</time>
      </trkpt>
      <trkpt lat="46.55748" lon="5.97481">
        <ele>1005.9</ele>
        <time>2021-11-09T08:29:27Z</time>
      </trkpt>
      <trkpt lat="46.55746" lon="5.97475">
        <ele>1006.5</ele>
        <time>2021-11-09T08:29:37Z</time>
      </trkpt>
      <trkpt lat="46.55743" lon="5.9747">
        <ele>1007</ele>
        <time>2021-11-09T08:29:43Z</time>
      </trkpt>
      <trkpt lat="46.5574" lon="5.97464">
        <ele>1007.8</ele>
        <time>2021-11-09T08:29:48Z</time>
      </trkpt>
      <trkpt lat="46.55737" lon="5.97459">
        <ele>1009</ele>
        <time>2021-11-09T08:29:55Z</time>
      </trkpt>
      <trkpt lat="46.55732" lon="5.97455">
        <ele>1010.4</ele>
        <time>2021-11-09T08:30:01Z</time>
      </trkpt>
      <trkpt lat="46.55728" lon="5.97451">
        <ele>1012.5</ele>
        <time>2021-11-09T08:30:08Z</time>
      </trkpt>
      <trkpt lat="46.55724" lon="5.97448">
        <ele>1015</ele>
        <time>2021-11-09T08:30:14Z</time>
      </trkpt>
      <trkpt lat="46.55722" lon="5.97442">
        <ele>1017.1</ele>
        <time>2021-11-09T08:30:27Z</time>
      </trkpt>
      <trkpt lat="46.55717" lon="5.97441">
        <ele>1018.5</ele>
        <time>2021-11-09T08:30:36Z</time>
      </trkpt>
      <trkpt lat="46.55712" lon="5.97441">
        <ele>1019.2</ele>
        <time>2021-11-09T08:30:48Z</time>
      </trkpt>
      <trkpt lat="46.55707" lon="5.97441">
        <ele>1019.3</ele>
        <time>2021-11-09T08:30:53Z</time>
      </trkpt>
      <trkpt lat="46.55702" lon="5.97437">
        <ele>1019.7</ele>
        <time>2021-11-09T08:30:58Z</time>
      </trkpt>
      <trkpt lat="46.55698" lon="5.97432">
        <ele>1020.3</ele>
        <time>2021-11-09T08:31:05Z</time>
      </trkpt>
      <trkpt lat="46.55696" lon="5.97426">
        <ele>1020.4</ele>
        <time>2021-11-09T08:31:11Z</time>
      </trkpt>
      <trkpt lat="46.55692" lon="5.9742">
        <ele>1020.1</ele>
        <time>2021-11-09T08:31:18Z</time>
      </trkpt>
      <trkpt lat="46.55688" lon="5.97415">
        <ele>1019</ele>
        <time>2021-11-09T08:31:24Z</time>
      </trkpt>
      <trkpt lat="46.55686" lon="5.97409">
        <ele>1017.8</ele>
        <time>2021-11-09T08:31:29Z</time>
      </trkpt>
      <trkpt lat="46.55682" lon="5.97405">
        <ele>1015.9</ele>
        <time>2021-11-09T08:31:36Z</time>
      </trkpt>
      <trkpt lat="46.55679" lon="5.974">
        <ele>1014.3</ele>
        <time>2021-11-09T08:31:42Z</time>
      </trkpt>
      <trkpt lat="46.55675" lon="5.97396">
        <ele>1013.1</ele>
        <time>2021-11-09T08:31:49Z</time>
      </trkpt>
      <trkpt lat="46.55671" lon="5.97392">
        <ele>1012.2</ele>
        <time>2021-11-09T08:31:55Z</time>
      </trkpt>
      <trkpt lat="46.55667" lon="5.97388">
        <ele>1011.6</ele>
        <time>2021-11-09T08:32:00Z</time>
      </trkpt>
      <trkpt lat="46.55665" lon="5.97382">
        <ele>1011.6</ele>
        <time>2021-11-09T08:32:06Z</time>
      </trkpt>
      <trkpt lat="46.55662" lon="5.97377">
        <ele>1011.6</ele>
        <time>2021-11-09T08:32:12Z</time>
      </trkpt>
      <trkpt lat="46.55659" lon="5.97373">
        <ele>1011.4</ele>
        <time>2021-11-09T08:32:20Z</time>
      </trkpt>
      <trkpt lat="46.55656" lon="5.97367">
        <ele>1011.4</ele>
        <time>2021-11-09T08:32:26Z</time>
      </trkpt>
      <trkpt lat="46.55654" lon="5.97359">
        <ele>1012</ele>
        <time>2021-11-09T08:32:31Z</time>
      </trkpt>
      <trkpt lat="46.55652" lon="5.97352">
        <ele>1012</ele>
        <time>2021-11-09T08:32:36Z</time>
      </trkpt>
      <trkpt lat="46.55648" lon="5.97349">
        <ele>1011.7</ele>
        <time>2021-11-09T08:32:42Z</time>
      </trkpt>
      <trkpt lat="46.55644" lon="5.97347">
        <ele>1011.4</ele>
        <time>2021-11-09T08:32:47Z</time>
      </trkpt>
      <trkpt lat="46.55641" lon="5.97342">
        <ele>1009.4</ele>
        <time>2021-11-09T08:32:55Z</time>
      </trkpt>
      <trkpt lat="46.55638" lon="5.97336">
        <ele>1007.8</ele>
        <time>2021-11-09T08:33:00Z</time>
      </trkpt>
      <trkpt lat="46.55634" lon="5.97332">
        <ele>1006.4</ele>
        <time>2021-11-09T08:33:05Z</time>
      </trkpt>
      <trkpt lat="46.5563" lon="5.97327">
        <ele>1005.8</ele>
        <time>2021-11-09T08:33:10Z</time>
      </trkpt>
      <trkpt lat="46.55625" lon="5.97324">
        <ele>1005.8</ele>
        <time>2021-11-09T08:33:15Z</time>
      </trkpt>
      <trkpt lat="46.55622" lon="5.97319">
        <ele>1005.6</ele>
        <time>2021-11-09T08:33:21Z</time>
      </trkpt>
      <trkpt lat="46.55618" lon="5.97316">
        <ele>1005.8</ele>
        <time>2021-11-09T08:33:26Z</time>
      </trkpt>
      <trkpt lat="46.55613" lon="5.97313">
        <ele>1006.1</ele>
        <time>2021-11-09T08:33:32Z</time>
      </trkpt>
      <trkpt lat="46.5561" lon="5.97309">
        <ele>1006.9</ele>
        <time>2021-11-09T08:33:37Z</time>
      </trkpt>
      <trkpt lat="46.55607" lon="5.97303">
        <ele>1007.3</ele>
        <time>2021-11-09T08:33:43Z</time>
      </trkpt>
      <trkpt lat="46.55605" lon="5.97295">
        <ele>1007.3</ele>
        <time>2021-11-09T08:33:49Z</time>
      </trkpt>
      <trkpt lat="46.55604" lon="5.97289">
        <ele>1007</ele>
        <time>2021-11-09T08:33:55Z</time>
      </trkpt>
      <trkpt lat="46.55605" lon="5.97281">
        <ele>1006.8</ele>
        <time>2021-11-09T08:34:02Z</time>
      </trkpt>
      <trkpt lat="46.55605" lon="5.97274">
        <ele>1006.7</ele>
        <time>2021-11-09T08:34:06Z</time>
      </trkpt>
      <trkpt lat="46.55603" lon="5.97267">
        <ele>1005.8</ele>
        <time>2021-11-09T08:34:12Z</time>
      </trkpt>
      <trkpt lat="46.55603" lon="5.97259">
        <ele>1004.3</ele>
        <time>2021-11-09T08:34:18Z</time>
      </trkpt>
      <trkpt lat="46.556" lon="5.97252">
        <ele>1003.1</ele>
        <time>2021-11-09T08:34:23Z</time>
      </trkpt>
      <trkpt lat="46.556" lon="5.97245">
        <ele>1002.7</ele>
        <time>2021-11-09T08:34:28Z</time>
      </trkpt>
      <trkpt lat="46.55599" lon="5.97238">
        <ele>1002.5</ele>
        <time>2021-11-09T08:34:34Z</time>
      </trkpt>
      <trkpt lat="46.55595" lon="5.97232">
        <ele>1002.8</ele>
        <time>2021-11-09T08:34:39Z</time>
      </trkpt>
      <trkpt lat="46.55592" lon="5.97226">
        <ele>1002.9</ele>
        <time>2021-11-09T08:34:44Z</time>
      </trkpt>
      <trkpt lat="46.55592" lon="5.9722">
        <ele>1002.8</ele>
        <time>2021-11-09T08:34:55Z</time>
      </trkpt>
      <trkpt lat="46.55588" lon="5.97214">
        <ele>1002.9</ele>
        <time>2021-11-09T08:35:01Z</time>
      </trkpt>
      <trkpt lat="46.55585" lon="5.97219">
        <ele>1004.5</ele>
        <time>2021-11-09T08:35:17Z</time>
      </trkpt>
      <trkpt lat="46.55582" lon="5.97226">
        <ele>1002.7</ele>
        <time>2021-11-09T08:35:22Z</time>
      </trkpt>
      <trkpt lat="46.5558" lon="5.97232">
        <ele>1001.1</ele>
        <time>2021-11-09T08:35:26Z</time>
      </trkpt>
      <trkpt lat="46.55577" lon="5.97238">
        <ele>999.2</ele>
        <time>2021-11-09T08:35:30Z</time>
      </trkpt>
      <trkpt lat="46.55574" lon="5.97245">
        <ele>998</ele>
        <time>2021-11-09T08:35:34Z</time>
      </trkpt>
      <trkpt lat="46.55572" lon="5.97251">
        <ele>997.9</ele>
        <time>2021-11-09T08:35:38Z</time>
      </trkpt>
      <trkpt lat="46.5557" lon="5.97259">
        <ele>997.2</ele>
        <time>2021-11-09T08:35:43Z</time>
      </trkpt>
      <trkpt lat="46.55567" lon="5.97265">
        <ele>997.3</ele>
        <time>2021-11-09T08:35:47Z</time>
      </trkpt>
      <trkpt lat="46.55565" lon="5.97272">
        <ele>997.7</ele>
        <time>2021-11-09T08:35:52Z</time>
      </trkpt>
      <trkpt lat="46.55563" lon="5.97279">
        <ele>999.2</ele>
        <time>2021-11-09T08:35:59Z</time>
      </trkpt>
      <trkpt lat="46.55562" lon="5.97286">
        <ele>1001.5</ele>
        <time>2021-11-09T08:36:06Z</time>
      </trkpt>
      <trkpt lat="46.55561" lon="5.97294">
        <ele>1002.3</ele>
        <time>2021-11-09T08:36:10Z</time>
      </trkpt>
      <trkpt lat="46.5556" lon="5.973">
        <ele>1002.6</ele>
        <time>2021-11-09T08:36:14Z</time>
      </trkpt>
      <trkpt lat="46.55559" lon="5.97306">
        <ele>1002.3</ele>
        <time>2021-11-09T08:36:19Z</time>
      </trkpt>
      <trkpt lat="46.55559" lon="5.97314">
        <ele>1002.3</ele>
        <time>2021-11-09T08:36:25Z</time>
      </trkpt>
      <trkpt lat="46.55558" lon="5.9732">
        <ele>1002.3</ele>
        <time>2021-11-09T08:36:30Z</time>
      </trkpt>
      <trkpt lat="46.55557" lon="5.97327">
        <ele>1002.5</ele>
        <time>2021-11-09T08:36:36Z</time>
      </trkpt>
      <trkpt lat="46.55558" lon="5.97335">
        <ele>1001.3</ele>
        <time>2021-11-09T08:36:41Z</time>
      </trkpt>
      <trkpt lat="46.55558" lon="5.97342">
        <ele>999.3</ele>
        <time>2021-11-09T08:36:46Z</time>
      </trkpt>
      <trkpt lat="46.55556" lon="5.97349">
        <ele>997.9</ele>
        <time>2021-11-09T08:36:51Z</time>
      </trkpt>
      <trkpt lat="46.55557" lon="5.97356">
        <ele>997.7</ele>
        <time>2021-11-09T08:36:56Z</time>
      </trkpt>
      <trkpt lat="46.55558" lon="5.97363">
        <ele>998.1</ele>
        <time>2021-11-09T08:37:02Z</time>
      </trkpt>
      <trkpt lat="46.55558" lon="5.97371">
        <ele>999</ele>
        <time>2021-11-09T08:37:07Z</time>
      </trkpt>
      <trkpt lat="46.55558" lon="5.97378">
        <ele>1001</ele>
        <time>2021-11-09T08:37:12Z</time>
      </trkpt>
      <trkpt lat="46.55557" lon="5.97385">
        <ele>1003.1</ele>
        <time>2021-11-09T08:37:17Z</time>
      </trkpt>
      <trkpt lat="46.55558" lon="5.97393">
        <ele>1006</ele>
        <time>2021-11-09T08:37:23Z</time>
      </trkpt>
      <trkpt lat="46.55558" lon="5.974">
        <ele>1008.5</ele>
        <time>2021-11-09T08:37:28Z</time>
      </trkpt>
      <trkpt lat="46.55556" lon="5.97406">
        <ele>1010.4</ele>
        <time>2021-11-09T08:37:32Z</time>
      </trkpt>
      <trkpt lat="46.55554" lon="5.97412">
        <ele>1011.7</ele>
        <time>2021-11-09T08:37:36Z</time>
      </trkpt>
      <trkpt lat="46.5555" lon="5.97418">
        <ele>1012.3</ele>
        <time>2021-11-09T08:37:40Z</time>
      </trkpt>
      <trkpt lat="46.55545" lon="5.97423">
        <ele>1012.9</ele>
        <time>2021-11-09T08:37:44Z</time>
      </trkpt>
      <trkpt lat="46.55542" lon="5.97428">
        <ele>1012.8</ele>
        <time>2021-11-09T08:37:47Z</time>
      </trkpt>
      <trkpt lat="46.55539" lon="5.97433">
        <ele>1012.2</ele>
        <time>2021-11-09T08:37:51Z</time>
      </trkpt>
      <trkpt lat="46.55534" lon="5.97435">
        <ele>1011.8</ele>
        <time>2021-11-09T08:37:56Z</time>
      </trkpt>
      <trkpt lat="46.5553" lon="5.9744">
        <ele>1011.1</ele>
        <time>2021-11-09T08:38:02Z</time>
      </trkpt>
      <trkpt lat="46.55525" lon="5.97442">
        <ele>1011</ele>
        <time>2021-11-09T08:38:05Z</time>
      </trkpt>
      <trkpt lat="46.55521" lon="5.97445">
        <ele>1011</ele>
        <time>2021-11-09T08:38:08Z</time>
      </trkpt>
      <trkpt lat="46.55516" lon="5.97447">
        <ele>1010.6</ele>
        <time>2021-11-09T08:38:13Z</time>
      </trkpt>
      <trkpt lat="46.55511" lon="5.9745">
        <ele>1010.9</ele>
        <time>2021-11-09T08:38:19Z</time>
      </trkpt>
      <trkpt lat="46.55506" lon="5.97453">
        <ele>1011.4</ele>
        <time>2021-11-09T08:38:24Z</time>
      </trkpt>
      <trkpt lat="46.55502" lon="5.97455">
        <ele>1011.4</ele>
        <time>2021-11-09T08:38:30Z</time>
      </trkpt>
      <trkpt lat="46.55498" lon="5.97458">
        <ele>1011.2</ele>
        <time>2021-11-09T08:38:34Z</time>
      </trkpt>
      <trkpt lat="46.55494" lon="5.97462">
        <ele>1011.1</ele>
        <time>2021-11-09T08:38:38Z</time>
      </trkpt>
      <trkpt lat="46.55489" lon="5.97466">
        <ele>1010.9</ele>
        <time>2021-11-09T08:38:43Z</time>
      </trkpt>
      <trkpt lat="46.55485" lon="5.9747">
        <ele>1010.5</ele>
        <time>2021-11-09T08:38:49Z</time>
      </trkpt>
      <trkpt lat="46.55481" lon="5.97472">
        <ele>1010.4</ele>
        <time>2021-11-09T08:38:56Z</time>
      </trkpt>
      <trkpt lat="46.55475" lon="5.97473">
        <ele>1010.4</ele>
        <time>2021-11-09T08:39:02Z</time>
      </trkpt>
      <trkpt lat="46.5547" lon="5.97474">
        <ele>1010.2</ele>
        <time>2021-11-09T08:39:06Z</time>
      </trkpt>
      <trkpt lat="46.55465" lon="5.97477">
        <ele>1010</ele>
        <time>2021-11-09T08:39:10Z</time>
      </trkpt>
      <trkpt lat="46.55459" lon="5.97478">
        <ele>1010</ele>
        <time>2021-11-09T08:39:15Z</time>
      </trkpt>
      <trkpt lat="46.55455" lon="5.97476">
        <ele>1009.9</ele>
        <time>2021-11-09T08:39:19Z</time>
      </trkpt>
      <trkpt lat="46.5545" lon="5.97473">
        <ele>1009.9</ele>
        <time>2021-11-09T08:39:23Z</time>
      </trkpt>
      <trkpt lat="46.55445" lon="5.97469">
        <ele>1010.4</ele>
        <time>2021-11-09T08:39:27Z</time>
      </trkpt>
      <trkpt lat="46.55441" lon="5.97465">
        <ele>1010.7</ele>
        <time>2021-11-09T08:39:31Z</time>
      </trkpt>
      <trkpt lat="46.55437" lon="5.9746">
        <ele>1011.3</ele>
        <time>2021-11-09T08:39:36Z</time>
      </trkpt>
      <trkpt lat="46.55435" lon="5.97454">
        <ele>1011.7</ele>
        <time>2021-11-09T08:39:42Z</time>
      </trkpt>
      <trkpt lat="46.55433" lon="5.97447">
        <ele>1012.1</ele>
        <time>2021-11-09T08:39:49Z</time>
      </trkpt>
      <trkpt lat="46.5543" lon="5.97442">
        <ele>1011.8</ele>
        <time>2021-11-09T08:39:54Z</time>
      </trkpt>
      <trkpt lat="46.55427" lon="5.97436">
        <ele>1012.3</ele>
        <time>2021-11-09T08:39:58Z</time>
      </trkpt>
      <trkpt lat="46.55423" lon="5.97432">
        <ele>1013.9</ele>
        <time>2021-11-09T08:40:03Z</time>
      </trkpt>
      <trkpt lat="46.55418" lon="5.97429">
        <ele>1014.9</ele>
        <time>2021-11-09T08:40:09Z</time>
      </trkpt>
      <trkpt lat="46.55413" lon="5.97426">
        <ele>1014.8</ele>
        <time>2021-11-09T08:40:15Z</time>
      </trkpt>
      <trkpt lat="46.55409" lon="5.97426">
        <ele>1014.7</ele>
        <time>2021-11-09T08:40:20Z</time>
      </trkpt>
      <trkpt lat="46.55404" lon="5.97428">
        <ele>1014.5</ele>
        <time>2021-11-09T08:40:24Z</time>
      </trkpt>
      <trkpt lat="46.55399" lon="5.97429">
        <ele>1014.4</ele>
        <time>2021-11-09T08:40:28Z</time>
      </trkpt>
      <trkpt lat="46.55394" lon="5.9743">
        <ele>1014.3</ele>
        <time>2021-11-09T08:40:32Z</time>
      </trkpt>
      <trkpt lat="46.55389" lon="5.97431">
        <ele>1013.9</ele>
        <time>2021-11-09T08:40:36Z</time>
      </trkpt>
      <trkpt lat="46.55385" lon="5.97431">
        <ele>1013.3</ele>
        <time>2021-11-09T08:40:40Z</time>
      </trkpt>
      <trkpt lat="46.5538" lon="5.97435">
        <ele>1012.8</ele>
        <time>2021-11-09T08:40:44Z</time>
      </trkpt>
      <trkpt lat="46.55375" lon="5.97438">
        <ele>1012.5</ele>
        <time>2021-11-09T08:40:49Z</time>
      </trkpt>
      <trkpt lat="46.55371" lon="5.97441">
        <ele>1012.6</ele>
        <time>2021-11-09T08:40:54Z</time>
      </trkpt>
      <trkpt lat="46.55367" lon="5.97446">
        <ele>1012.8</ele>
        <time>2021-11-09T08:40:59Z</time>
      </trkpt>
      <trkpt lat="46.55365" lon="5.97452">
        <ele>1013.1</ele>
        <time>2021-11-09T08:41:05Z</time>
      </trkpt>
      <trkpt lat="46.55362" lon="5.97458">
        <ele>1013.3</ele>
        <time>2021-11-09T08:41:11Z</time>
      </trkpt>
      <trkpt lat="46.5536" lon="5.97465">
        <ele>1012.9</ele>
        <time>2021-11-09T08:41:17Z</time>
      </trkpt>
      <trkpt lat="46.55358" lon="5.97472">
        <ele>1012.3</ele>
        <time>2021-11-09T08:41:22Z</time>
      </trkpt>
      <trkpt lat="46.55356" lon="5.97478">
        <ele>1012</ele>
        <time>2021-11-09T08:41:27Z</time>
      </trkpt>
      <trkpt lat="46.55352" lon="5.97483">
        <ele>1012.3</ele>
        <time>2021-11-09T08:41:32Z</time>
      </trkpt>
      <trkpt lat="46.55349" lon="5.97488">
        <ele>1012.8</ele>
        <time>2021-11-09T08:41:37Z</time>
      </trkpt>
      <trkpt lat="46.55346" lon="5.97494">
        <ele>1013.5</ele>
        <time>2021-11-09T08:41:43Z</time>
      </trkpt>
      <trkpt lat="46.55342" lon="5.97499">
        <ele>1014.2</ele>
        <time>2021-11-09T08:41:50Z</time>
      </trkpt>
      <trkpt lat="46.55338" lon="5.97504">
        <ele>1014.9</ele>
        <time>2021-11-09T08:41:55Z</time>
      </trkpt>
      <trkpt lat="46.55333" lon="5.97504">
        <ele>1016.1</ele>
        <time>2021-11-09T08:42:00Z</time>
      </trkpt>
      <trkpt lat="46.55328" lon="5.97505">
        <ele>1017.4</ele>
        <time>2021-11-09T08:42:05Z</time>
      </trkpt>
      <trkpt lat="46.55323" lon="5.97509">
        <ele>1018.5</ele>
        <time>2021-11-09T08:42:11Z</time>
      </trkpt>
      <trkpt lat="46.55318" lon="5.97511">
        <ele>1019.3</ele>
        <time>2021-11-09T08:42:15Z</time>
      </trkpt>
      <trkpt lat="46.55313" lon="5.97513">
        <ele>1020.4</ele>
        <time>2021-11-09T08:42:19Z</time>
      </trkpt>
      <trkpt lat="46.55308" lon="5.97514">
        <ele>1021.9</ele>
        <time>2021-11-09T08:42:23Z</time>
      </trkpt>
      <trkpt lat="46.55302" lon="5.97515">
        <ele>1023.5</ele>
        <time>2021-11-09T08:42:27Z</time>
      </trkpt>
      <trkpt lat="46.55297" lon="5.97516">
        <ele>1025</ele>
        <time>2021-11-09T08:42:31Z</time>
      </trkpt>
      <trkpt lat="46.55292" lon="5.97517">
        <ele>1026.4</ele>
        <time>2021-11-09T08:42:37Z</time>
      </trkpt>
      <trkpt lat="46.55287" lon="5.97518">
        <ele>1027</ele>
        <time>2021-11-09T08:42:43Z</time>
      </trkpt>
      <trkpt lat="46.55281" lon="5.97518">
        <ele>1027.1</ele>
        <time>2021-11-09T08:42:48Z</time>
      </trkpt>
      <trkpt lat="46.55277" lon="5.9752">
        <ele>1026.9</ele>
        <time>2021-11-09T08:42:53Z</time>
      </trkpt>
      <trkpt lat="46.55271" lon="5.97518">
        <ele>1027.5</ele>
        <time>2021-11-09T08:42:59Z</time>
      </trkpt>
      <trkpt lat="46.55266" lon="5.97517">
        <ele>1028.2</ele>
        <time>2021-11-09T08:43:04Z</time>
      </trkpt>
      <trkpt lat="46.55261" lon="5.97514">
        <ele>1029.2</ele>
        <time>2021-11-09T08:43:08Z</time>
      </trkpt>
      <trkpt lat="46.55256" lon="5.97511">
        <ele>1030.6</ele>
        <time>2021-11-09T08:43:12Z</time>
      </trkpt>
      <trkpt lat="46.55251" lon="5.97509">
        <ele>1032.2</ele>
        <time>2021-11-09T08:43:18Z</time>
      </trkpt>
      <trkpt lat="46.55246" lon="5.97509">
        <ele>1033.4</ele>
        <time>2021-11-09T08:43:24Z</time>
      </trkpt>
      <trkpt lat="46.55242" lon="5.97506">
        <ele>1034.5</ele>
        <time>2021-11-09T08:43:32Z</time>
      </trkpt>
      <trkpt lat="46.55237" lon="5.97504">
        <ele>1034.2</ele>
        <time>2021-11-09T08:43:38Z</time>
      </trkpt>
      <trkpt lat="46.55233" lon="5.975">
        <ele>1034</ele>
        <time>2021-11-09T08:43:44Z</time>
      </trkpt>
      <trkpt lat="46.5523" lon="5.97493">
        <ele>1034.2</ele>
        <time>2021-11-09T08:43:51Z</time>
      </trkpt>
      <trkpt lat="46.55226" lon="5.9749">
        <ele>1035</ele>
        <time>2021-11-09T08:43:56Z</time>
      </trkpt>
      <trkpt lat="46.55222" lon="5.97484">
        <ele>1036.2</ele>
        <time>2021-11-09T08:44:02Z</time>
      </trkpt>
      <trkpt lat="46.55218" lon="5.9748">
        <ele>1036.8</ele>
        <time>2021-11-09T08:44:06Z</time>
      </trkpt>
      <trkpt lat="46.55214" lon="5.97477">
        <ele>1037.2</ele>
        <time>2021-11-09T08:44:11Z</time>
      </trkpt>
      <trkpt lat="46.55209" lon="5.97477">
        <ele>1036.3</ele>
        <time>2021-11-09T08:44:17Z</time>
      </trkpt>
      <trkpt lat="46.55204" lon="5.97475">
        <ele>1035.5</ele>
        <time>2021-11-09T08:44:21Z</time>
      </trkpt>
      <trkpt lat="46.552" lon="5.97472">
        <ele>1035</ele>
        <time>2021-11-09T08:44:24Z</time>
      </trkpt>
      <trkpt lat="46.55196" lon="5.97471">
        <ele>1034.5</ele>
        <time>2021-11-09T08:44:28Z</time>
      </trkpt>
      <trkpt lat="46.55191" lon="5.9747">
        <ele>1033</ele>
        <time>2021-11-09T08:44:34Z</time>
      </trkpt>
      <trkpt lat="46.55185" lon="5.97469">
        <ele>1031.2</ele>
        <time>2021-11-09T08:44:40Z</time>
      </trkpt>
      <trkpt lat="46.5518" lon="5.97467">
        <ele>1031.1</ele>
        <time>2021-11-09T08:44:43Z</time>
      </trkpt>
      <trkpt lat="46.55174" lon="5.97465">
        <ele>1031.2</ele>
        <time>2021-11-09T08:44:46Z</time>
      </trkpt>
      <trkpt lat="46.55169" lon="5.97464">
        <ele>1031.4</ele>
        <time>2021-11-09T08:44:49Z</time>
      </trkpt>
      <trkpt lat="46.55165" lon="5.97464">
        <ele>1031.7</ele>
        <time>2021-11-09T08:44:52Z</time>
      </trkpt>
      <trkpt lat="46.5516" lon="5.97464">
        <ele>1032.6</ele>
        <time>2021-11-09T08:44:56Z</time>
      </trkpt>
      <trkpt lat="46.55156" lon="5.97465">
        <ele>1033.6</ele>
        <time>2021-11-09T08:45:00Z</time>
      </trkpt>
      <trkpt lat="46.55151" lon="5.97465">
        <ele>1035.1</ele>
        <time>2021-11-09T08:45:04Z</time>
      </trkpt>
      <trkpt lat="46.55146" lon="5.97467">
        <ele>1036.4</ele>
        <time>2021-11-09T08:45:08Z</time>
      </trkpt>
      <trkpt lat="46.55142" lon="5.9747">
        <ele>1037.2</ele>
        <time>2021-11-09T08:45:13Z</time>
      </trkpt>
      <trkpt lat="46.55137" lon="5.97473">
        <ele>1037.6</ele>
        <time>2021-11-09T08:45:19Z</time>
      </trkpt>
      <trkpt lat="46.55135" lon="5.97479">
        <ele>1038.8</ele>
        <time>2021-11-09T08:45:27Z</time>
      </trkpt>
      <trkpt lat="46.55132" lon="5.97485">
        <ele>1040.2</ele>
        <time>2021-11-09T08:45:37Z</time>
      </trkpt>
      <trkpt lat="46.5513" lon="5.97491">
        <ele>1040</ele>
        <time>2021-11-09T08:45:46Z</time>
      </trkpt>
      <trkpt lat="46.55126" lon="5.97498">
        <ele>1039.7</ele>
        <time>2021-11-09T08:46:13Z</time>
      </trkpt>
      <trkpt lat="46.55122" lon="5.97501">
        <ele>1039.1</ele>
        <time>2021-11-09T08:46:17Z</time>
      </trkpt>
      <trkpt lat="46.55117" lon="5.97504">
        <ele>1038.7</ele>
        <time>2021-11-09T08:46:24Z</time>
      </trkpt>
      <trkpt lat="46.55116" lon="5.97511">
        <ele>1039.9</ele>
        <time>2021-11-09T08:46:31Z</time>
      </trkpt>
      <trkpt lat="46.55115" lon="5.97518">
        <ele>1043.2</ele>
        <time>2021-11-09T08:46:42Z</time>
      </trkpt>
      <trkpt lat="46.55112" lon="5.97523">
        <ele>1044.9</ele>
        <time>2021-11-09T08:46:50Z</time>
      </trkpt>
      <trkpt lat="46.55107" lon="5.97526">
        <ele>1045.1</ele>
        <time>2021-11-09T08:46:59Z</time>
      </trkpt>
      <trkpt lat="46.55103" lon="5.97529">
        <ele>1044.4</ele>
        <time>2021-11-09T08:47:08Z</time>
      </trkpt>
      <trkpt lat="46.55101" lon="5.97535">
        <ele>1043.5</ele>
        <time>2021-11-09T08:47:14Z</time>
      </trkpt>
      <trkpt lat="46.55098" lon="5.97541">
        <ele>1043.1</ele>
        <time>2021-11-09T08:47:20Z</time>
      </trkpt>
      <trkpt lat="46.55093" lon="5.97542">
        <ele>1043.5</ele>
        <time>2021-11-09T08:47:25Z</time>
      </trkpt>
      <trkpt lat="46.55089" lon="5.97547">
        <ele>1045</ele>
        <time>2021-11-09T08:47:35Z</time>
      </trkpt>
      <trkpt lat="46.55084" lon="5.97548">
        <ele>1045.8</ele>
        <time>2021-11-09T08:47:43Z</time>
      </trkpt>
      <trkpt lat="46.55079" lon="5.97547">
        <ele>1046.5</ele>
        <time>2021-11-09T08:47:47Z</time>
      </trkpt>
      <trkpt lat="46.55073" lon="5.97546">
        <ele>1047.3</ele>
        <time>2021-11-09T08:47:51Z</time>
      </trkpt>
      <trkpt lat="46.55069" lon="5.97549">
        <ele>1048.9</ele>
        <time>2021-11-09T08:47:58Z</time>
      </trkpt>
      <trkpt lat="46.55074" lon="5.97553">
        <ele>1052.7</ele>
        <time>2021-11-09T08:48:27Z</time>
      </trkpt>
      <trkpt lat="46.5507" lon="5.97548">
        <ele>1056.3</ele>
        <time>2021-11-09T08:48:47Z</time>
      </trkpt>
      <trkpt lat="46.55065" lon="5.97547">
        <ele>1055.7</ele>
        <time>2021-11-09T08:48:53Z</time>
      </trkpt>
      <trkpt lat="46.5506" lon="5.97549">
        <ele>1055.5</ele>
        <time>2021-11-09T08:48:57Z</time>
      </trkpt>
      <trkpt lat="46.55055" lon="5.97553">
        <ele>1055.7</ele>
        <time>2021-11-09T08:49:01Z</time>
      </trkpt>
      <trkpt lat="46.55052" lon="5.97557">
        <ele>1055.7</ele>
        <time>2021-11-09T08:49:05Z</time>
      </trkpt>
      <trkpt lat="46.55048" lon="5.97561">
        <ele>1055.7</ele>
        <time>2021-11-09T08:49:16Z</time>
      </trkpt>
      <trkpt lat="46.55043" lon="5.9756">
        <ele>1056.3</ele>
        <time>2021-11-09T08:49:24Z</time>
      </trkpt>
      <trkpt lat="46.55038" lon="5.97564">
        <ele>1056.9</ele>
        <time>2021-11-09T08:49:28Z</time>
      </trkpt>
      <trkpt lat="46.55034" lon="5.9757">
        <ele>1057.7</ele>
        <time>2021-11-09T08:49:32Z</time>
      </trkpt>
      <trkpt lat="46.55034" lon="5.97577">
        <ele>1058.7</ele>
        <time>2021-11-09T08:49:37Z</time>
      </trkpt>
      <trkpt lat="46.5503" lon="5.97583">
        <ele>1059.6</ele>
        <time>2021-11-09T08:49:44Z</time>
      </trkpt>
      <trkpt lat="46.55028" lon="5.9759">
        <ele>1060.6</ele>
        <time>2021-11-09T08:49:49Z</time>
      </trkpt>
      <trkpt lat="46.55027" lon="5.97596">
        <ele>1061.8</ele>
        <time>2021-11-09T08:49:54Z</time>
      </trkpt>
      <trkpt lat="46.55024" lon="5.97602">
        <ele>1062.5</ele>
        <time>2021-11-09T08:50:00Z</time>
      </trkpt>
      <trkpt lat="46.55021" lon="5.97609">
        <ele>1063.5</ele>
        <time>2021-11-09T08:50:06Z</time>
      </trkpt>
      <trkpt lat="46.55018" lon="5.97614">
        <ele>1063.7</ele>
        <time>2021-11-09T08:50:12Z</time>
      </trkpt>
      <trkpt lat="46.55016" lon="5.97621">
        <ele>1064.7</ele>
        <time>2021-11-09T08:50:21Z</time>
      </trkpt>
      <trkpt lat="46.55014" lon="5.97627">
        <ele>1065.7</ele>
        <time>2021-11-09T08:50:27Z</time>
      </trkpt>
      <trkpt lat="46.55013" lon="5.97634">
        <ele>1065.5</ele>
        <time>2021-11-09T08:50:35Z</time>
      </trkpt>
      <trkpt lat="46.55009" lon="5.97639">
        <ele>1065.5</ele>
        <time>2021-11-09T08:50:41Z</time>
      </trkpt>
      <trkpt lat="46.55006" lon="5.97644">
        <ele>1066</ele>
        <time>2021-11-09T08:50:46Z</time>
      </trkpt>
      <trkpt lat="46.55002" lon="5.9765">
        <ele>1066</ele>
        <time>2021-11-09T08:50:52Z</time>
      </trkpt>
      <trkpt lat="46.54998" lon="5.97654">
        <ele>1065.7</ele>
        <time>2021-11-09T08:50:58Z</time>
      </trkpt>
      <trkpt lat="46.54996" lon="5.97661">
        <ele>1065.6</ele>
        <time>2021-11-09T08:51:04Z</time>
      </trkpt>
      <trkpt lat="46.54997" lon="5.97668">
        <ele>1064.6</ele>
        <time>2021-11-09T08:51:08Z</time>
      </trkpt>
      <trkpt lat="46.54998" lon="5.97676">
        <ele>1062.6</ele>
        <time>2021-11-09T08:51:13Z</time>
      </trkpt>
      <trkpt lat="46.54996" lon="5.97683">
        <ele>1059</ele>
        <time>2021-11-09T08:51:21Z</time>
      </trkpt>
      <trkpt lat="46.54992" lon="5.97686">
        <ele>1057.6</ele>
        <time>2021-11-09T08:51:26Z</time>
      </trkpt>
      <trkpt lat="46.54988" lon="5.97688">
        <ele>1055.9</ele>
        <time>2021-11-09T08:51:32Z</time>
      </trkpt>
      <trkpt lat="46.54983" lon="5.97692">
        <ele>1054.7</ele>
        <time>2021-11-09T08:51:37Z</time>
      </trkpt>
      <trkpt lat="46.5498" lon="5.97698">
        <ele>1054</ele>
        <time>2021-11-09T08:51:42Z</time>
      </trkpt>
      <trkpt lat="46.54977" lon="5.97704">
        <ele>1053.9</ele>
        <time>2021-11-09T08:51:47Z</time>
      </trkpt>
      <trkpt lat="46.54974" lon="5.97709">
        <ele>1054.1</ele>
        <time>2021-11-09T08:51:52Z</time>
      </trkpt>
      <trkpt lat="46.5497" lon="5.97714">
        <ele>1054.2</ele>
        <time>2021-11-09T08:51:57Z</time>
      </trkpt>
      <trkpt lat="46.54967" lon="5.97719">
        <ele>1054.8</ele>
        <time>2021-11-09T08:52:03Z</time>
      </trkpt>
      <trkpt lat="46.54966" lon="5.97727">
        <ele>1055.3</ele>
        <time>2021-11-09T08:52:08Z</time>
      </trkpt>
      <trkpt lat="46.54965" lon="5.97734">
        <ele>1055.3</ele>
        <time>2021-11-09T08:52:13Z</time>
      </trkpt>
      <trkpt lat="46.54961" lon="5.97738">
        <ele>1055.5</ele>
        <time>2021-11-09T08:52:18Z</time>
      </trkpt>
      <trkpt lat="46.54957" lon="5.97743">
        <ele>1055.9</ele>
        <time>2021-11-09T08:52:22Z</time>
      </trkpt>
      <trkpt lat="46.54954" lon="5.97748">
        <ele>1056.2</ele>
        <time>2021-11-09T08:52:28Z</time>
      </trkpt>
      <trkpt lat="46.5495" lon="5.97752">
        <ele>1056.3</ele>
        <time>2021-11-09T08:52:33Z</time>
      </trkpt>
      <trkpt lat="46.54946" lon="5.97755">
        <ele>1056.8</ele>
        <time>2021-11-09T08:52:38Z</time>
      </trkpt>
      <trkpt lat="46.54943" lon="5.9776">
        <ele>1057.7</ele>
        <time>2021-11-09T08:52:44Z</time>
      </trkpt>
      <trkpt lat="46.54938" lon="5.97763">
        <ele>1059.4</ele>
        <time>2021-11-09T08:52:50Z</time>
      </trkpt>
      <trkpt lat="46.54934" lon="5.97766">
        <ele>1060.9</ele>
        <time>2021-11-09T08:52:55Z</time>
      </trkpt>
      <trkpt lat="46.54931" lon="5.97771">
        <ele>1061.7</ele>
        <time>2021-11-09T08:53:01Z</time>
      </trkpt>
      <trkpt lat="46.54928" lon="5.97776">
        <ele>1061.8</ele>
        <time>2021-11-09T08:53:06Z</time>
      </trkpt>
      <trkpt lat="46.54926" lon="5.97783">
        <ele>1061.6</ele>
        <time>2021-11-09T08:53:11Z</time>
      </trkpt>
      <trkpt lat="46.54923" lon="5.97789">
        <ele>1061</ele>
        <time>2021-11-09T08:53:17Z</time>
      </trkpt>
      <trkpt lat="46.5492" lon="5.97794">
        <ele>1060.4</ele>
        <time>2021-11-09T08:53:22Z</time>
      </trkpt>
      <trkpt lat="46.54916" lon="5.97798">
        <ele>1059.6</ele>
        <time>2021-11-09T08:53:28Z</time>
      </trkpt>
      <trkpt lat="46.54911" lon="5.97801">
        <ele>1059</ele>
        <time>2021-11-09T08:53:33Z</time>
      </trkpt>
      <trkpt lat="46.54907" lon="5.97805">
        <ele>1058.5</ele>
        <time>2021-11-09T08:53:37Z</time>
      </trkpt>
      <trkpt lat="46.54903" lon="5.9781">
        <ele>1058.6</ele>
        <time>2021-11-09T08:53:41Z</time>
      </trkpt>
      <trkpt lat="46.54901" lon="5.97816">
        <ele>1058.7</ele>
        <time>2021-11-09T08:53:46Z</time>
      </trkpt>
      <trkpt lat="46.54902" lon="5.97824">
        <ele>1058.7</ele>
        <time>2021-11-09T08:53:53Z</time>
      </trkpt>
      <trkpt lat="46.54904" lon="5.97831">
        <ele>1058</ele>
        <time>2021-11-09T08:53:58Z</time>
      </trkpt>
      <trkpt lat="46.54906" lon="5.97837">
        <ele>1057.4</ele>
        <time>2021-11-09T08:54:02Z</time>
      </trkpt>
      <trkpt lat="46.54906" lon="5.97843">
        <ele>1056.8</ele>
        <time>2021-11-09T08:54:07Z</time>
      </trkpt>
      <trkpt lat="46.54904" lon="5.97851">
        <ele>1056.5</ele>
        <time>2021-11-09T08:54:13Z</time>
      </trkpt>
      <trkpt lat="46.54902" lon="5.97858">
        <ele>1056.3</ele>
        <time>2021-11-09T08:54:18Z</time>
      </trkpt>
      <trkpt lat="46.549" lon="5.97866">
        <ele>1057</ele>
        <time>2021-11-09T08:54:24Z</time>
      </trkpt>
      <trkpt lat="46.549" lon="5.97873">
        <ele>1057.8</ele>
        <time>2021-11-09T08:54:29Z</time>
      </trkpt>
      <trkpt lat="46.54901" lon="5.97881">
        <ele>1059</ele>
        <time>2021-11-09T08:54:34Z</time>
      </trkpt>
      <trkpt lat="46.54903" lon="5.97888">
        <ele>1059.4</ele>
        <time>2021-11-09T08:54:39Z</time>
      </trkpt>
      <trkpt lat="46.54907" lon="5.97892">
        <ele>1059.2</ele>
        <time>2021-11-09T08:54:43Z</time>
      </trkpt>
      <trkpt lat="46.54911" lon="5.97896">
        <ele>1058.9</ele>
        <time>2021-11-09T08:54:47Z</time>
      </trkpt>
      <trkpt lat="46.54914" lon="5.97902">
        <ele>1059.4</ele>
        <time>2021-11-09T08:54:52Z</time>
      </trkpt>
      <trkpt lat="46.54917" lon="5.97908">
        <ele>1060.3</ele>
        <time>2021-11-09T08:54:57Z</time>
      </trkpt>
      <trkpt lat="46.54918" lon="5.97915">
        <ele>1060.4</ele>
        <time>2021-11-09T08:55:02Z</time>
      </trkpt>
      <trkpt lat="46.54919" lon="5.97923">
        <ele>1060.6</ele>
        <time>2021-11-09T08:55:08Z</time>
      </trkpt>
      <trkpt lat="46.54921" lon="5.97929">
        <ele>1061.1</ele>
        <time>2021-11-09T08:55:13Z</time>
      </trkpt>
      <trkpt lat="46.54921" lon="5.97937">
        <ele>1061</ele>
        <time>2021-11-09T08:55:18Z</time>
      </trkpt>
      <trkpt lat="46.54923" lon="5.97944">
        <ele>1061.2</ele>
        <time>2021-11-09T08:55:23Z</time>
      </trkpt>
      <trkpt lat="46.54924" lon="5.97951">
        <ele>1061.4</ele>
        <time>2021-11-09T08:55:28Z</time>
      </trkpt>
      <trkpt lat="46.54925" lon="5.97958">
        <ele>1061.6</ele>
        <time>2021-11-09T08:55:32Z</time>
      </trkpt>
      <trkpt lat="46.54924" lon="5.97965">
        <ele>1061.5</ele>
        <time>2021-11-09T08:55:35Z</time>
      </trkpt>
      <trkpt lat="46.54925" lon="5.97973">
        <ele>1061.4</ele>
        <time>2021-11-09T08:55:39Z</time>
      </trkpt>
      <trkpt lat="46.54926" lon="5.97979">
        <ele>1061.7</ele>
        <time>2021-11-09T08:55:43Z</time>
      </trkpt>
      <trkpt lat="46.54927" lon="5.97986">
        <ele>1062.2</ele>
        <time>2021-11-09T08:55:49Z</time>
      </trkpt>
      <trkpt lat="46.54929" lon="5.97992">
        <ele>1061.7</ele>
        <time>2021-11-09T08:55:54Z</time>
      </trkpt>
      <trkpt lat="46.54929" lon="5.98">
        <ele>1060.8</ele>
        <time>2021-11-09T08:55:59Z</time>
      </trkpt>
      <trkpt lat="46.5493" lon="5.98006">
        <ele>1059.9</ele>
        <time>2021-11-09T08:56:03Z</time>
      </trkpt>
      <trkpt lat="46.54933" lon="5.98012">
        <ele>1059.4</ele>
        <time>2021-11-09T08:56:07Z</time>
      </trkpt>
      <trkpt lat="46.54934" lon="5.98019">
        <ele>1058.9</ele>
        <time>2021-11-09T08:56:11Z</time>
      </trkpt>
      <trkpt lat="46.54936" lon="5.98025">
        <ele>1058.9</ele>
        <time>2021-11-09T08:56:15Z</time>
      </trkpt>
      <trkpt lat="46.54937" lon="5.98033">
        <ele>1059.2</ele>
        <time>2021-11-09T08:56:19Z</time>
      </trkpt>
      <trkpt lat="46.54939" lon="5.98039">
        <ele>1059.3</ele>
        <time>2021-11-09T08:56:24Z</time>
      </trkpt>
      <trkpt lat="46.54942" lon="5.98045">
        <ele>1059.2</ele>
        <time>2021-11-09T08:56:28Z</time>
      </trkpt>
      <trkpt lat="46.54946" lon="5.9805">
        <ele>1059.6</ele>
        <time>2021-11-09T08:56:32Z</time>
      </trkpt>
      <trkpt lat="46.5495" lon="5.98055">
        <ele>1060.4</ele>
        <time>2021-11-09T08:56:36Z</time>
      </trkpt>
      <trkpt lat="46.54953" lon="5.98059">
        <ele>1060.7</ele>
        <time>2021-11-09T08:56:40Z</time>
      </trkpt>
      <trkpt lat="46.54957" lon="5.98064">
        <ele>1060.6</ele>
        <time>2021-11-09T08:56:44Z</time>
      </trkpt>
      <trkpt lat="46.54961" lon="5.98069">
        <ele>1060.3</ele>
        <time>2021-11-09T08:56:48Z</time>
      </trkpt>
      <trkpt lat="46.54965" lon="5.98072">
        <ele>1059.8</ele>
        <time>2021-11-09T08:56:52Z</time>
      </trkpt>
      <trkpt lat="46.54967" lon="5.98079">
        <ele>1059.8</ele>
        <time>2021-11-09T08:56:57Z</time>
      </trkpt>
      <trkpt lat="46.5497" lon="5.98084">
        <ele>1059.9</ele>
        <time>2021-11-09T08:57:01Z</time>
      </trkpt>
      <trkpt lat="46.54974" lon="5.9809">
        <ele>1059.6</ele>
        <time>2021-11-09T08:57:05Z</time>
      </trkpt>
      <trkpt lat="46.54976" lon="5.98097">
        <ele>1059.1</ele>
        <time>2021-11-09T08:57:10Z</time>
      </trkpt>
      <trkpt lat="46.54978" lon="5.98104">
        <ele>1058.1</ele>
        <time>2021-11-09T08:57:15Z</time>
      </trkpt>
      <trkpt lat="46.54982" lon="5.98108">
        <ele>1055.7</ele>
        <time>2021-11-09T08:57:21Z</time>
      </trkpt>
      <trkpt lat="46.54984" lon="5.98115">
        <ele>1052.7</ele>
        <time>2021-11-09T08:57:27Z</time>
      </trkpt>
      <trkpt lat="46.54984" lon="5.98123">
        <ele>1050.5</ele>
        <time>2021-11-09T08:57:33Z</time>
      </trkpt>
      <trkpt lat="46.54987" lon="5.98129">
        <ele>1049.4</ele>
        <time>2021-11-09T08:57:38Z</time>
      </trkpt>
      <trkpt lat="46.5499" lon="5.98135">
        <ele>1049.4</ele>
        <time>2021-11-09T08:57:43Z</time>
      </trkpt>
      <trkpt lat="46.54994" lon="5.98141">
        <ele>1050.9</ele>
        <time>2021-11-09T08:57:48Z</time>
      </trkpt>
      <trkpt lat="46.54998" lon="5.98146">
        <ele>1052.9</ele>
        <time>2021-11-09T08:57:53Z</time>
      </trkpt>
      <trkpt lat="46.55001" lon="5.98151">
        <ele>1055.1</ele>
        <time>2021-11-09T08:57:58Z</time>
      </trkpt>
      <trkpt lat="46.55005" lon="5.98155">
        <ele>1056.7</ele>
        <time>2021-11-09T08:58:02Z</time>
      </trkpt>
      <trkpt lat="46.55009" lon="5.9816">
        <ele>1058</ele>
        <time>2021-11-09T08:58:06Z</time>
      </trkpt>
      <trkpt lat="46.5501" lon="5.98167">
        <ele>1059.1</ele>
        <time>2021-11-09T08:58:10Z</time>
      </trkpt>
      <trkpt lat="46.55012" lon="5.98174">
        <ele>1059.8</ele>
        <time>2021-11-09T08:58:14Z</time>
      </trkpt>
      <trkpt lat="46.55015" lon="5.9818">
        <ele>1060.4</ele>
        <time>2021-11-09T08:58:18Z</time>
      </trkpt>
      <trkpt lat="46.55018" lon="5.98186">
        <ele>1061.1</ele>
        <time>2021-11-09T08:58:22Z</time>
      </trkpt>
      <trkpt lat="46.5502" lon="5.98191">
        <ele>1061.7</ele>
        <time>2021-11-09T08:58:26Z</time>
      </trkpt>
      <trkpt lat="46.55022" lon="5.98198">
        <ele>1062.2</ele>
        <time>2021-11-09T08:58:31Z</time>
      </trkpt>
      <trkpt lat="46.55019" lon="5.98204">
        <ele>1061.5</ele>
        <time>2021-11-09T08:58:35Z</time>
      </trkpt>
      <trkpt lat="46.5502" lon="5.98211">
        <ele>1060.4</ele>
        <time>2021-11-09T08:58:41Z</time>
      </trkpt>
      <trkpt lat="46.55024" lon="5.98217">
        <ele>1060</ele>
        <time>2021-11-09T08:58:46Z</time>
      </trkpt>
      <trkpt lat="46.55026" lon="5.98222">
        <ele>1059.8</ele>
        <time>2021-11-09T08:58:50Z</time>
      </trkpt>
      <trkpt lat="46.55029" lon="5.98229">
        <ele>1059.8</ele>
        <time>2021-11-09T08:58:55Z</time>
      </trkpt>
      <trkpt lat="46.55032" lon="5.98234">
        <ele>1059.5</ele>
        <time>2021-11-09T08:59:00Z</time>
      </trkpt>
      <trkpt lat="46.55035" lon="5.9824">
        <ele>1059.1</ele>
        <time>2021-11-09T08:59:05Z</time>
      </trkpt>
      <trkpt lat="46.55036" lon="5.98247">
        <ele>1059</ele>
        <time>2021-11-09T08:59:10Z</time>
      </trkpt>
      <trkpt lat="46.55039" lon="5.98253">
        <ele>1059.7</ele>
        <time>2021-11-09T08:59:16Z</time>
      </trkpt>
      <trkpt lat="46.55042" lon="5.98258">
        <ele>1060.1</ele>
        <time>2021-11-09T08:59:20Z</time>
      </trkpt>
      <trkpt lat="46.55045" lon="5.98264">
        <ele>1060.8</ele>
        <time>2021-11-09T08:59:24Z</time>
      </trkpt>
      <trkpt lat="46.55046" lon="5.98271">
        <ele>1061</ele>
        <time>2021-11-09T08:59:28Z</time>
      </trkpt>
      <trkpt lat="46.55046" lon="5.98278">
        <ele>1061.3</ele>
        <time>2021-11-09T08:59:32Z</time>
      </trkpt>
      <trkpt lat="46.55047" lon="5.98284">
        <ele>1061.5</ele>
        <time>2021-11-09T08:59:36Z</time>
      </trkpt>
      <trkpt lat="46.55048" lon="5.98291">
        <ele>1062.2</ele>
        <time>2021-11-09T08:59:40Z</time>
      </trkpt>
      <trkpt lat="46.55049" lon="5.98298">
        <ele>1062.8</ele>
        <time>2021-11-09T08:59:45Z</time>
      </trkpt>
      <trkpt lat="46.55049" lon="5.98305">
        <ele>1062.8</ele>
        <time>2021-11-09T08:59:50Z</time>
      </trkpt>
      <trkpt lat="46.55048" lon="5.98312">
        <ele>1062.4</ele>
        <time>2021-11-09T08:59:55Z</time>
      </trkpt>
      <trkpt lat="46.55047" lon="5.98319">
        <ele>1061.7</ele>
        <time>2021-11-09T09:00:00Z</time>
      </trkpt>
      <trkpt lat="46.55046" lon="5.98326">
        <ele>1060.2</ele>
        <time>2021-11-09T09:00:06Z</time>
      </trkpt>
      <trkpt lat="46.55043" lon="5.98333">
        <ele>1059.2</ele>
        <time>2021-11-09T09:00:10Z</time>
      </trkpt>
      <trkpt lat="46.55041" lon="5.9834">
        <ele>1058.7</ele>
        <time>2021-11-09T09:00:14Z</time>
      </trkpt>
      <trkpt lat="46.55039" lon="5.98346">
        <ele>1058.3</ele>
        <time>2021-11-09T09:00:19Z</time>
      </trkpt>
      <trkpt lat="46.55037" lon="5.98353">
        <ele>1057.8</ele>
        <time>2021-11-09T09:00:23Z</time>
      </trkpt>
      <trkpt lat="46.55035" lon="5.98359">
        <ele>1057.3</ele>
        <time>2021-11-09T09:00:27Z</time>
      </trkpt>
      <trkpt lat="46.55034" lon="5.98365">
        <ele>1056.8</ele>
        <time>2021-11-09T09:00:31Z</time>
      </trkpt>
      <trkpt lat="46.55033" lon="5.98372">
        <ele>1056.4</ele>
        <time>2021-11-09T09:00:35Z</time>
      </trkpt>
      <trkpt lat="46.55031" lon="5.98379">
        <ele>1056.4</ele>
        <time>2021-11-09T09:00:39Z</time>
      </trkpt>
      <trkpt lat="46.55031" lon="5.98386">
        <ele>1057.1</ele>
        <time>2021-11-09T09:00:43Z</time>
      </trkpt>
      <trkpt lat="46.55031" lon="5.98393">
        <ele>1058.3</ele>
        <time>2021-11-09T09:00:47Z</time>
      </trkpt>
      <trkpt lat="46.55033" lon="5.98401">
        <ele>1059.8</ele>
        <time>2021-11-09T09:00:52Z</time>
      </trkpt>
      <trkpt lat="46.55034" lon="5.98408">
        <ele>1061</ele>
        <time>2021-11-09T09:00:56Z</time>
      </trkpt>
      <trkpt lat="46.55035" lon="5.98415">
        <ele>1062.3</ele>
        <time>2021-11-09T09:01:00Z</time>
      </trkpt>
      <trkpt lat="46.55036" lon="5.98421">
        <ele>1063.4</ele>
        <time>2021-11-09T09:01:04Z</time>
      </trkpt>
      <trkpt lat="46.55039" lon="5.98427">
        <ele>1064.1</ele>
        <time>2021-11-09T09:01:08Z</time>
      </trkpt>
      <trkpt lat="46.55041" lon="5.98434">
        <ele>1064.4</ele>
        <time>2021-11-09T09:01:13Z</time>
      </trkpt>
      <trkpt lat="46.55043" lon="5.9844">
        <ele>1064.7</ele>
        <time>2021-11-09T09:01:17Z</time>
      </trkpt>
      <trkpt lat="46.55045" lon="5.98446">
        <ele>1064.6</ele>
        <time>2021-11-09T09:01:21Z</time>
      </trkpt>
      <trkpt lat="46.55046" lon="5.98454">
        <ele>1063.7</ele>
        <time>2021-11-09T09:01:26Z</time>
      </trkpt>
      <trkpt lat="46.55046" lon="5.98461">
        <ele>1063.1</ele>
        <time>2021-11-09T09:01:31Z</time>
      </trkpt>
      <trkpt lat="46.55048" lon="5.98468">
        <ele>1062.9</ele>
        <time>2021-11-09T09:01:36Z</time>
      </trkpt>
      <trkpt lat="46.5505" lon="5.98475">
        <ele>1063</ele>
        <time>2021-11-09T09:01:41Z</time>
      </trkpt>
      <trkpt lat="46.55051" lon="5.98483">
        <ele>1063.1</ele>
        <time>2021-11-09T09:01:46Z</time>
      </trkpt>
      <trkpt lat="46.5505" lon="5.9849">
        <ele>1063.3</ele>
        <time>2021-11-09T09:01:51Z</time>
      </trkpt>
      <trkpt lat="46.5505" lon="5.98497">
        <ele>1063.5</ele>
        <time>2021-11-09T09:01:56Z</time>
      </trkpt>
      <trkpt lat="46.5505" lon="5.98504">
        <ele>1063.6</ele>
        <time>2021-11-09T09:02:00Z</time>
      </trkpt>
      <trkpt lat="46.55052" lon="5.98512">
        <ele>1064</ele>
        <time>2021-11-09T09:02:05Z</time>
      </trkpt>
      <trkpt lat="46.55053" lon="5.98519">
        <ele>1064.5</ele>
        <time>2021-11-09T09:02:09Z</time>
      </trkpt>
      <trkpt lat="46.55055" lon="5.98525">
        <ele>1065</ele>
        <time>2021-11-09T09:02:13Z</time>
      </trkpt>
      <trkpt lat="46.55056" lon="5.98533">
        <ele>1066.3</ele>
        <time>2021-11-09T09:02:18Z</time>
      </trkpt>
      <trkpt lat="46.55058" lon="5.98539">
        <ele>1067.9</ele>
        <time>2021-11-09T09:02:23Z</time>
      </trkpt>
      <trkpt lat="46.55059" lon="5.98546">
        <ele>1069.7</ele>
        <time>2021-11-09T09:02:28Z</time>
      </trkpt>
      <trkpt lat="46.55061" lon="5.98554">
        <ele>1070.6</ele>
        <time>2021-11-09T09:02:33Z</time>
      </trkpt>
      <trkpt lat="46.55063" lon="5.9856">
        <ele>1071.1</ele>
        <time>2021-11-09T09:02:38Z</time>
      </trkpt>
      <trkpt lat="46.55065" lon="5.98567">
        <ele>1070.6</ele>
        <time>2021-11-09T09:02:42Z</time>
      </trkpt>
      <trkpt lat="46.55067" lon="5.98574">
        <ele>1070.2</ele>
        <time>2021-11-09T09:02:46Z</time>
      </trkpt>
      <trkpt lat="46.55068" lon="5.9858">
        <ele>1070.3</ele>
        <time>2021-11-09T09:02:50Z</time>
      </trkpt>
      <trkpt lat="46.5507" lon="5.98587">
        <ele>1070.3</ele>
        <time>2021-11-09T09:02:55Z</time>
      </trkpt>
      <trkpt lat="46.55071" lon="5.98594">
        <ele>1070.1</ele>
        <time>2021-11-09T09:02:59Z</time>
      </trkpt>
      <trkpt lat="46.55072" lon="5.986">
        <ele>1070.4</ele>
        <time>2021-11-09T09:03:03Z</time>
      </trkpt>
      <trkpt lat="46.55073" lon="5.98607">
        <ele>1070.5</ele>
        <time>2021-11-09T09:03:08Z</time>
      </trkpt>
      <trkpt lat="46.55073" lon="5.98615">
        <ele>1070.2</ele>
        <time>2021-11-09T09:03:13Z</time>
      </trkpt>
      <trkpt lat="46.55072" lon="5.98622">
        <ele>1069.5</ele>
        <time>2021-11-09T09:03:18Z</time>
      </trkpt>
      <trkpt lat="46.55073" lon="5.98629">
        <ele>1068.4</ele>
        <time>2021-11-09T09:03:23Z</time>
      </trkpt>
      <trkpt lat="46.55073" lon="5.98636">
        <ele>1067.4</ele>
        <time>2021-11-09T09:03:27Z</time>
      </trkpt>
      <trkpt lat="46.55073" lon="5.98644">
        <ele>1066.9</ele>
        <time>2021-11-09T09:03:32Z</time>
      </trkpt>
      <trkpt lat="46.55072" lon="5.98652">
        <ele>1066.8</ele>
        <time>2021-11-09T09:03:37Z</time>
      </trkpt>
      <trkpt lat="46.55074" lon="5.98659">
        <ele>1066.5</ele>
        <time>2021-11-09T09:03:42Z</time>
      </trkpt>
      <trkpt lat="46.55074" lon="5.98666">
        <ele>1066.1</ele>
        <time>2021-11-09T09:03:47Z</time>
      </trkpt>
      <trkpt lat="46.55073" lon="5.98673">
        <ele>1065</ele>
        <time>2021-11-09T09:03:52Z</time>
      </trkpt>
      <trkpt lat="46.55068" lon="5.98676">
        <ele>1063.2</ele>
        <time>2021-11-09T09:04:01Z</time>
      </trkpt>
      <trkpt lat="46.55066" lon="5.98683">
        <ele>1062.5</ele>
        <time>2021-11-09T09:04:06Z</time>
      </trkpt>
      <trkpt lat="46.55064" lon="5.98691">
        <ele>1061.3</ele>
        <time>2021-11-09T09:04:11Z</time>
      </trkpt>
      <trkpt lat="46.55065" lon="5.98698">
        <ele>1060.1</ele>
        <time>2021-11-09T09:04:15Z</time>
      </trkpt>
      <trkpt lat="46.55064" lon="5.98706">
        <ele>1058.8</ele>
        <time>2021-11-09T09:04:19Z</time>
      </trkpt>
      <trkpt lat="46.55064" lon="5.98714">
        <ele>1057.8</ele>
        <time>2021-11-09T09:04:23Z</time>
      </trkpt>
      <trkpt lat="46.55068" lon="5.9872">
        <ele>1057.3</ele>
        <time>2021-11-09T09:04:26Z</time>
      </trkpt>
      <trkpt lat="46.55071" lon="5.98726">
        <ele>1056.8</ele>
        <time>2021-11-09T09:04:29Z</time>
      </trkpt>
      <trkpt lat="46.55073" lon="5.98732">
        <ele>1055.9</ele>
        <time>2021-11-09T09:04:33Z</time>
      </trkpt>
      <trkpt lat="46.55072" lon="5.98739">
        <ele>1053.9</ele>
        <time>2021-11-09T09:04:38Z</time>
      </trkpt>
      <trkpt lat="46.55077" lon="5.98741">
        <ele>1049.6</ele>
        <time>2021-11-09T09:04:47Z</time>
      </trkpt>
      <trkpt lat="46.55082" lon="5.98741">
        <ele>1048.2</ele>
        <time>2021-11-09T09:04:51Z</time>
      </trkpt>
      <trkpt lat="46.55086" lon="5.98746">
        <ele>1047.3</ele>
        <time>2021-11-09T09:04:55Z</time>
      </trkpt>
      <trkpt lat="46.5509" lon="5.98749">
        <ele>1047.6</ele>
        <time>2021-11-09T09:05:00Z</time>
      </trkpt>
      <trkpt lat="46.55095" lon="5.9875">
        <ele>1048.5</ele>
        <time>2021-11-09T09:05:05Z</time>
      </trkpt>
      <trkpt lat="46.551" lon="5.98749">
        <ele>1049.9</ele>
        <time>2021-11-09T09:05:11Z</time>
      </trkpt>
      <trkpt lat="46.55105" lon="5.98748">
        <ele>1051.2</ele>
        <time>2021-11-09T09:05:15Z</time>
      </trkpt>
      <trkpt lat="46.55109" lon="5.98744">
        <ele>1053.3</ele>
        <time>2021-11-09T09:05:23Z</time>
      </trkpt>
      <trkpt lat="46.55114" lon="5.98744">
        <ele>1053.2</ele>
        <time>2021-11-09T09:05:28Z</time>
      </trkpt>
      <trkpt lat="46.55113" lon="5.98751">
        <ele>1052.5</ele>
        <time>2021-11-09T09:05:45Z</time>
      </trkpt>
      <trkpt lat="46.55115" lon="5.98757">
        <ele>1054.2</ele>
        <time>2021-11-09T09:06:04Z</time>
      </trkpt>
      <trkpt lat="46.55119" lon="5.98759">
        <ele>1053.8</ele>
        <time>2021-11-09T09:06:08Z</time>
      </trkpt>
      <trkpt lat="46.55123" lon="5.98764">
        <ele>1053.7</ele>
        <time>2021-11-09T09:06:13Z</time>
      </trkpt>
      <trkpt lat="46.55126" lon="5.98769">
        <ele>1053.7</ele>
        <time>2021-11-09T09:06:17Z</time>
      </trkpt>
      <trkpt lat="46.55128" lon="5.98775">
        <ele>1053.5</ele>
        <time>2021-11-09T09:06:21Z</time>
      </trkpt>
      <trkpt lat="46.55129" lon="5.98783">
        <ele>1053.6</ele>
        <time>2021-11-09T09:06:25Z</time>
      </trkpt>
      <trkpt lat="46.55129" lon="5.98789">
        <ele>1053.6</ele>
        <time>2021-11-09T09:06:29Z</time>
      </trkpt>
      <trkpt lat="46.55128" lon="5.98796">
        <ele>1053.9</ele>
        <time>2021-11-09T09:06:35Z</time>
      </trkpt>
      <trkpt lat="46.5513" lon="5.98803">
        <ele>1054.3</ele>
        <time>2021-11-09T09:06:40Z</time>
      </trkpt>
      <trkpt lat="46.55133" lon="5.98809">
        <ele>1054.5</ele>
        <time>2021-11-09T09:06:45Z</time>
      </trkpt>
      <trkpt lat="46.55135" lon="5.98816">
        <ele>1055.3</ele>
        <time>2021-11-09T09:06:49Z</time>
      </trkpt>
      <trkpt lat="46.55136" lon="5.98823">
        <ele>1056.9</ele>
        <time>2021-11-09T09:06:53Z</time>
      </trkpt>
      <trkpt lat="46.55139" lon="5.98829">
        <ele>1058.5</ele>
        <time>2021-11-09T09:06:57Z</time>
      </trkpt>
      <trkpt lat="46.55143" lon="5.98832">
        <ele>1060.2</ele>
        <time>2021-11-09T09:07:01Z</time>
      </trkpt>
      <trkpt lat="46.55147" lon="5.98836">
        <ele>1062.4</ele>
        <time>2021-11-09T09:07:05Z</time>
      </trkpt>
      <trkpt lat="46.55149" lon="5.98843">
        <ele>1064.9</ele>
        <time>2021-11-09T09:07:10Z</time>
      </trkpt>
      <trkpt lat="46.55151" lon="5.98849">
        <ele>1066.7</ele>
        <time>2021-11-09T09:07:15Z</time>
      </trkpt>
      <trkpt lat="46.55152" lon="5.98856">
        <ele>1068.1</ele>
        <time>2021-11-09T09:07:21Z</time>
      </trkpt>
      <trkpt lat="46.55155" lon="5.98863">
        <ele>1068.1</ele>
        <time>2021-11-09T09:07:27Z</time>
      </trkpt>
      <trkpt lat="46.55157" lon="5.98869">
        <ele>1067.7</ele>
        <time>2021-11-09T09:07:32Z</time>
      </trkpt>
      <trkpt lat="46.55158" lon="5.98877">
        <ele>1067.7</ele>
        <time>2021-11-09T09:07:37Z</time>
      </trkpt>
      <trkpt lat="46.55159" lon="5.98884">
        <ele>1068.1</ele>
        <time>2021-11-09T09:07:42Z</time>
      </trkpt>
      <trkpt lat="46.55162" lon="5.9889">
        <ele>1068.5</ele>
        <time>2021-11-09T09:07:47Z</time>
      </trkpt>
      <trkpt lat="46.55167" lon="5.98895">
        <ele>1069.1</ele>
        <time>2021-11-09T09:07:52Z</time>
      </trkpt>
      <trkpt lat="46.5517" lon="5.98901">
        <ele>1069.9</ele>
        <time>2021-11-09T09:07:57Z</time>
      </trkpt>
      <trkpt lat="46.5517" lon="5.98908">
        <ele>1070.5</ele>
        <time>2021-11-09T09:08:02Z</time>
      </trkpt>
      <trkpt lat="46.55169" lon="5.98916">
        <ele>1070.6</ele>
        <time>2021-11-09T09:08:07Z</time>
      </trkpt>
      <trkpt lat="46.55168" lon="5.98924">
        <ele>1070.2</ele>
        <time>2021-11-09T09:08:11Z</time>
      </trkpt>
      <trkpt lat="46.55165" lon="5.98931">
        <ele>1069.7</ele>
        <time>2021-11-09T09:08:15Z</time>
      </trkpt>
      <trkpt lat="46.55162" lon="5.98936">
        <ele>1069.4</ele>
        <time>2021-11-09T09:08:18Z</time>
      </trkpt>
      <trkpt lat="46.55157" lon="5.98941">
        <ele>1068.9</ele>
        <time>2021-11-09T09:08:22Z</time>
      </trkpt>
      <trkpt lat="46.55154" lon="5.98946">
        <ele>1068.2</ele>
        <time>2021-11-09T09:08:26Z</time>
      </trkpt>
      <trkpt lat="46.55151" lon="5.98951">
        <ele>1067.5</ele>
        <time>2021-11-09T09:08:30Z</time>
      </trkpt>
      <trkpt lat="46.55148" lon="5.98956">
        <ele>1066.4</ele>
        <time>2021-11-09T09:08:34Z</time>
      </trkpt>
      <trkpt lat="46.55143" lon="5.9896">
        <ele>1064.6</ele>
        <time>2021-11-09T09:08:40Z</time>
      </trkpt>
      <trkpt lat="46.55138" lon="5.98963">
        <ele>1063.3</ele>
        <time>2021-11-09T09:08:45Z</time>
      </trkpt>
      <trkpt lat="46.55134" lon="5.98967">
        <ele>1062.4</ele>
        <time>2021-11-09T09:08:49Z</time>
      </trkpt>
      <trkpt lat="46.5513" lon="5.98971">
        <ele>1061.4</ele>
        <time>2021-11-09T09:08:53Z</time>
      </trkpt>
      <trkpt lat="46.55126" lon="5.98975">
        <ele>1060.4</ele>
        <time>2021-11-09T09:08:58Z</time>
      </trkpt>
      <trkpt lat="46.55122" lon="5.98979">
        <ele>1059.8</ele>
        <time>2021-11-09T09:09:02Z</time>
      </trkpt>
      <trkpt lat="46.55119" lon="5.98984">
        <ele>1059.7</ele>
        <time>2021-11-09T09:09:06Z</time>
      </trkpt>
      <trkpt lat="46.55116" lon="5.98991">
        <ele>1059.8</ele>
        <time>2021-11-09T09:09:10Z</time>
      </trkpt>
      <trkpt lat="46.55115" lon="5.98997">
        <ele>1060</ele>
        <time>2021-11-09T09:09:14Z</time>
      </trkpt>
      <trkpt lat="46.55115" lon="5.99005">
        <ele>1060.9</ele>
        <time>2021-11-09T09:09:19Z</time>
      </trkpt>
      <trkpt lat="46.55118" lon="5.99011">
        <ele>1063.6</ele>
        <time>2021-11-09T09:09:26Z</time>
      </trkpt>
      <trkpt lat="46.5512" lon="5.99017">
        <ele>1065</ele>
        <time>2021-11-09T09:09:30Z</time>
      </trkpt>
      <trkpt lat="46.55124" lon="5.99022">
        <ele>1066.2</ele>
        <time>2021-11-09T09:09:34Z</time>
      </trkpt>
      <trkpt lat="46.55127" lon="5.99027">
        <ele>1066.9</ele>
        <time>2021-11-09T09:09:39Z</time>
      </trkpt>
      <trkpt lat="46.55131" lon="5.99033">
        <ele>1067.1</ele>
        <time>2021-11-09T09:09:44Z</time>
      </trkpt>
      <trkpt lat="46.55131" lon="5.99041">
        <ele>1067</ele>
        <time>2021-11-09T09:09:49Z</time>
      </trkpt>
      <trkpt lat="46.5513" lon="5.99048">
        <ele>1065.8</ele>
        <time>2021-11-09T09:09:53Z</time>
      </trkpt>
      <trkpt lat="46.5513" lon="5.99056">
        <ele>1064</ele>
        <time>2021-11-09T09:09:58Z</time>
      </trkpt>
      <trkpt lat="46.55132" lon="5.99063">
        <ele>1063</ele>
        <time>2021-11-09T09:10:04Z</time>
      </trkpt>
      <trkpt lat="46.55136" lon="5.99068">
        <ele>1061</ele>
        <time>2021-11-09T09:10:11Z</time>
      </trkpt>
      <trkpt lat="46.55137" lon="5.99076">
        <ele>1059.3</ele>
        <time>2021-11-09T09:10:15Z</time>
      </trkpt>
      <trkpt lat="46.55138" lon="5.99083">
        <ele>1058</ele>
        <time>2021-11-09T09:10:18Z</time>
      </trkpt>
      <trkpt lat="46.55138" lon="5.99089">
        <ele>1056</ele>
        <time>2021-11-09T09:10:21Z</time>
      </trkpt>
      <trkpt lat="46.5514" lon="5.99097">
        <ele>1053.1</ele>
        <time>2021-11-09T09:10:25Z</time>
      </trkpt>
      <trkpt lat="46.55144" lon="5.99101">
        <ele>1051.7</ele>
        <time>2021-11-09T09:10:28Z</time>
      </trkpt>
      <trkpt lat="46.55147" lon="5.99108">
        <ele>1050.1</ele>
        <time>2021-11-09T09:10:32Z</time>
      </trkpt>
      <trkpt lat="46.5515" lon="5.99114">
        <ele>1049</ele>
        <time>2021-11-09T09:10:36Z</time>
      </trkpt>
      <trkpt lat="46.55151" lon="5.99122">
        <ele>1047.3</ele>
        <time>2021-11-09T09:10:41Z</time>
      </trkpt>
      <trkpt lat="46.55149" lon="5.9913">
        <ele>1046</ele>
        <time>2021-11-09T09:10:45Z</time>
      </trkpt>
      <trkpt lat="46.55147" lon="5.99136">
        <ele>1044.8</ele>
        <time>2021-11-09T09:10:49Z</time>
      </trkpt>
      <trkpt lat="46.55146" lon="5.99143">
        <ele>1044.2</ele>
        <time>2021-11-09T09:10:54Z</time>
      </trkpt>
      <trkpt lat="46.55144" lon="5.9915">
        <ele>1044.8</ele>
        <time>2021-11-09T09:10:59Z</time>
      </trkpt>
      <trkpt lat="46.55144" lon="5.99157">
        <ele>1045.7</ele>
        <time>2021-11-09T09:11:03Z</time>
      </trkpt>
      <trkpt lat="46.55143" lon="5.99163">
        <ele>1046.4</ele>
        <time>2021-11-09T09:11:06Z</time>
      </trkpt>
      <trkpt lat="46.55142" lon="5.99171">
        <ele>1047.4</ele>
        <time>2021-11-09T09:11:10Z</time>
      </trkpt>
      <trkpt lat="46.55142" lon="5.99178">
        <ele>1048.5</ele>
        <time>2021-11-09T09:11:14Z</time>
      </trkpt>
      <trkpt lat="46.55142" lon="5.99186">
        <ele>1049.6</ele>
        <time>2021-11-09T09:11:19Z</time>
      </trkpt>
      <trkpt lat="46.55142" lon="5.99193">
        <ele>1050</ele>
        <time>2021-11-09T09:11:24Z</time>
      </trkpt>
      <trkpt lat="46.55143" lon="5.992">
        <ele>1050</ele>
        <time>2021-11-09T09:11:29Z</time>
      </trkpt>
      <trkpt lat="46.55143" lon="5.99206">
        <ele>1050</ele>
        <time>2021-11-09T09:11:33Z</time>
      </trkpt>
      <trkpt lat="46.55145" lon="5.99213">
        <ele>1050</ele>
        <time>2021-11-09T09:11:40Z</time>
      </trkpt>
      <trkpt lat="46.55145" lon="5.99221">
        <ele>1049.1</ele>
        <time>2021-11-09T09:11:46Z</time>
      </trkpt>
      <trkpt lat="46.55145" lon="5.99228">
        <ele>1048.4</ele>
        <time>2021-11-09T09:11:51Z</time>
      </trkpt>
      <trkpt lat="46.55144" lon="5.99236">
        <ele>1048.2</ele>
        <time>2021-11-09T09:11:56Z</time>
      </trkpt>
      <trkpt lat="46.55145" lon="5.99243">
        <ele>1048.1</ele>
        <time>2021-11-09T09:12:00Z</time>
      </trkpt>
      <trkpt lat="46.55145" lon="5.9925">
        <ele>1048.2</ele>
        <time>2021-11-09T09:12:04Z</time>
      </trkpt>
      <trkpt lat="46.55146" lon="5.99257">
        <ele>1048.7</ele>
        <time>2021-11-09T09:12:10Z</time>
      </trkpt>
      <trkpt lat="46.55149" lon="5.99262">
        <ele>1049.1</ele>
        <time>2021-11-09T09:12:15Z</time>
      </trkpt>
      <trkpt lat="46.55151" lon="5.99269">
        <ele>1050</ele>
        <time>2021-11-09T09:12:20Z</time>
      </trkpt>
      <trkpt lat="46.55152" lon="5.99275">
        <ele>1051</ele>
        <time>2021-11-09T09:12:25Z</time>
      </trkpt>
      <trkpt lat="46.55152" lon="5.99283">
        <ele>1051.7</ele>
        <time>2021-11-09T09:12:30Z</time>
      </trkpt>
      <trkpt lat="46.55152" lon="5.9929">
        <ele>1052</ele>
        <time>2021-11-09T09:12:35Z</time>
      </trkpt>
      <trkpt lat="46.55154" lon="5.99296">
        <ele>1052.4</ele>
        <time>2021-11-09T09:12:40Z</time>
      </trkpt>
      <trkpt lat="46.55156" lon="5.99301">
        <ele>1052.8</ele>
        <time>2021-11-09T09:12:44Z</time>
      </trkpt>
      <trkpt lat="46.55159" lon="5.99307">
        <ele>1053.5</ele>
        <time>2021-11-09T09:12:48Z</time>
      </trkpt>
      <trkpt lat="46.55164" lon="5.99309">
        <ele>1054.2</ele>
        <time>2021-11-09T09:12:52Z</time>
      </trkpt>
      <trkpt lat="46.55168" lon="5.99309">
        <ele>1054.8</ele>
        <time>2021-11-09T09:12:56Z</time>
      </trkpt>
      <trkpt lat="46.55173" lon="5.99309">
        <ele>1054.9</ele>
        <time>2021-11-09T09:13:00Z</time>
      </trkpt>
      <trkpt lat="46.55178" lon="5.99309">
        <ele>1055.3</ele>
        <time>2021-11-09T09:13:04Z</time>
      </trkpt>
      <trkpt lat="46.55182" lon="5.99308">
        <ele>1056.1</ele>
        <time>2021-11-09T09:13:08Z</time>
      </trkpt>
      <trkpt lat="46.55187" lon="5.99307">
        <ele>1056.9</ele>
        <time>2021-11-09T09:13:12Z</time>
      </trkpt>
      <trkpt lat="46.55192" lon="5.99307">
        <ele>1057.8</ele>
        <time>2021-11-09T09:13:16Z</time>
      </trkpt>
      <trkpt lat="46.55197" lon="5.99309">
        <ele>1058.8</ele>
        <time>2021-11-09T09:13:20Z</time>
      </trkpt>
      <trkpt lat="46.552" lon="5.99312">
        <ele>1059.7</ele>
        <time>2021-11-09T09:13:25Z</time>
      </trkpt>
      <trkpt lat="46.55203" lon="5.99319">
        <ele>1060.2</ele>
        <time>2021-11-09T09:13:30Z</time>
      </trkpt>
      <trkpt lat="46.55204" lon="5.99326">
        <ele>1061.1</ele>
        <time>2021-11-09T09:13:35Z</time>
      </trkpt>
      <trkpt lat="46.55204" lon="5.99334">
        <ele>1061.7</ele>
        <time>2021-11-09T09:13:40Z</time>
      </trkpt>
      <trkpt lat="46.55206" lon="5.9934">
        <ele>1062</ele>
        <time>2021-11-09T09:13:44Z</time>
      </trkpt>
      <trkpt lat="46.55209" lon="5.99346">
        <ele>1062</ele>
        <time>2021-11-09T09:13:48Z</time>
      </trkpt>
      <trkpt lat="46.55213" lon="5.99352">
        <ele>1062.1</ele>
        <time>2021-11-09T09:13:52Z</time>
      </trkpt>
      <trkpt lat="46.55218" lon="5.99356">
        <ele>1062.2</ele>
        <time>2021-11-09T09:13:56Z</time>
      </trkpt>
      <trkpt lat="46.55224" lon="5.99359">
        <ele>1062.4</ele>
        <time>2021-11-09T09:14:00Z</time>
      </trkpt>
      <trkpt lat="46.55228" lon="5.99363">
        <ele>1062.9</ele>
        <time>2021-11-09T09:14:05Z</time>
      </trkpt>
      <trkpt lat="46.55233" lon="5.99367">
        <ele>1063.3</ele>
        <time>2021-11-09T09:14:11Z</time>
      </trkpt>
      <trkpt lat="46.55236" lon="5.99371">
        <ele>1063.5</ele>
        <time>2021-11-09T09:14:15Z</time>
      </trkpt>
      <trkpt lat="46.5524" lon="5.99376">
        <ele>1063.6</ele>
        <time>2021-11-09T09:14:20Z</time>
      </trkpt>
      <trkpt lat="46.55243" lon="5.99382">
        <ele>1064.2</ele>
        <time>2021-11-09T09:14:25Z</time>
      </trkpt>
      <trkpt lat="46.55245" lon="5.99388">
        <ele>1064.9</ele>
        <time>2021-11-09T09:14:29Z</time>
      </trkpt>
      <trkpt lat="46.55248" lon="5.99394">
        <ele>1065.5</ele>
        <time>2021-11-09T09:14:33Z</time>
      </trkpt>
      <trkpt lat="46.55253" lon="5.99399">
        <ele>1066.1</ele>
        <time>2021-11-09T09:14:37Z</time>
      </trkpt>
      <trkpt lat="46.55257" lon="5.99403">
        <ele>1066.6</ele>
        <time>2021-11-09T09:14:41Z</time>
      </trkpt>
      <trkpt lat="46.55261" lon="5.99408">
        <ele>1066.7</ele>
        <time>2021-11-09T09:14:45Z</time>
      </trkpt>
      <trkpt lat="46.55264" lon="5.99413">
        <ele>1066.6</ele>
        <time>2021-11-09T09:14:50Z</time>
      </trkpt>
      <trkpt lat="46.55265" lon="5.99421">
        <ele>1065.9</ele>
        <time>2021-11-09T09:14:56Z</time>
      </trkpt>
      <trkpt lat="46.55266" lon="5.99428">
        <ele>1065</ele>
        <time>2021-11-09T09:15:01Z</time>
      </trkpt>
      <trkpt lat="46.55268" lon="5.99435">
        <ele>1063.3</ele>
        <time>2021-11-09T09:15:07Z</time>
      </trkpt>
      <trkpt lat="46.55271" lon="5.99439">
        <ele>1062.3</ele>
        <time>2021-11-09T09:15:12Z</time>
      </trkpt>
      <trkpt lat="46.55275" lon="5.99443">
        <ele>1061.3</ele>
        <time>2021-11-09T09:15:16Z</time>
      </trkpt>
      <trkpt lat="46.55279" lon="5.99448">
        <ele>1059</ele>
        <time>2021-11-09T09:15:22Z</time>
      </trkpt>
      <trkpt lat="46.55283" lon="5.99454">
        <ele>1056.7</ele>
        <time>2021-11-09T09:15:29Z</time>
      </trkpt>
      <trkpt lat="46.55288" lon="5.99456">
        <ele>1056.2</ele>
        <time>2021-11-09T09:15:33Z</time>
      </trkpt>
      <trkpt lat="46.55293" lon="5.99458">
        <ele>1055.6</ele>
        <time>2021-11-09T09:15:37Z</time>
      </trkpt>
      <trkpt lat="46.55298" lon="5.99458">
        <ele>1054.4</ele>
        <time>2021-11-09T09:15:41Z</time>
      </trkpt>
      <trkpt lat="46.55293" lon="5.9946">
        <ele>1047.2</ele>
        <time>2021-11-09T09:16:42Z</time>
      </trkpt>
      <trkpt lat="46.55293" lon="5.99468">
        <ele>1046.5</ele>
        <time>2021-11-09T09:16:46Z</time>
      </trkpt>
      <trkpt lat="46.55297" lon="5.99472">
        <ele>1046.1</ele>
        <time>2021-11-09T09:16:50Z</time>
      </trkpt>
      <trkpt lat="46.55302" lon="5.99475">
        <ele>1045.9</ele>
        <time>2021-11-09T09:16:53Z</time>
      </trkpt>
      <trkpt lat="46.55306" lon="5.99478">
        <ele>1046</ele>
        <time>2021-11-09T09:16:56Z</time>
      </trkpt>
      <trkpt lat="46.55311" lon="5.99481">
        <ele>1046.2</ele>
        <time>2021-11-09T09:16:59Z</time>
      </trkpt>
      <trkpt lat="46.55315" lon="5.99485">
        <ele>1046.6</ele>
        <time>2021-11-09T09:17:02Z</time>
      </trkpt>
      <trkpt lat="46.5532" lon="5.99487">
        <ele>1047.1</ele>
        <time>2021-11-09T09:17:05Z</time>
      </trkpt>
      <trkpt lat="46.55325" lon="5.9949">
        <ele>1047.8</ele>
        <time>2021-11-09T09:17:09Z</time>
      </trkpt>
      <trkpt lat="46.55329" lon="5.99495">
        <ele>1048.6</ele>
        <time>2021-11-09T09:17:13Z</time>
      </trkpt>
      <trkpt lat="46.55334" lon="5.99498">
        <ele>1049.9</ele>
        <time>2021-11-09T09:17:18Z</time>
      </trkpt>
      <trkpt lat="46.55339" lon="5.995">
        <ele>1050</ele>
        <time>2021-11-09T09:17:23Z</time>
      </trkpt>
      <trkpt lat="46.55343" lon="5.99503">
        <ele>1049.3</ele>
        <time>2021-11-09T09:17:28Z</time>
      </trkpt>
      <trkpt lat="46.55348" lon="5.99506">
        <ele>1049.7</ele>
        <time>2021-11-09T09:17:33Z</time>
      </trkpt>
      <trkpt lat="46.55352" lon="5.99507">
        <ele>1050.2</ele>
        <time>2021-11-09T09:17:37Z</time>
      </trkpt>
      <trkpt lat="46.55357" lon="5.99508">
        <ele>1050.5</ele>
        <time>2021-11-09T09:17:41Z</time>
      </trkpt>
      <trkpt lat="46.55363" lon="5.99509">
        <ele>1050.5</ele>
        <time>2021-11-09T09:17:45Z</time>
      </trkpt>
      <trkpt lat="46.55368" lon="5.9951">
        <ele>1050.4</ele>
        <time>2021-11-09T09:17:49Z</time>
      </trkpt>
      <trkpt lat="46.55373" lon="5.99513">
        <ele>1050.1</ele>
        <time>2021-11-09T09:17:53Z</time>
      </trkpt>
      <trkpt lat="46.55377" lon="5.99516">
        <ele>1049.7</ele>
        <time>2021-11-09T09:17:57Z</time>
      </trkpt>
      <trkpt lat="46.5538" lon="5.99522">
        <ele>1049.8</ele>
        <time>2021-11-09T09:18:07Z</time>
      </trkpt>
      <trkpt lat="46.55383" lon="5.99528">
        <ele>1051.4</ele>
        <time>2021-11-09T09:18:13Z</time>
      </trkpt>
      <trkpt lat="46.55386" lon="5.99535">
        <ele>1053</ele>
        <time>2021-11-09T09:18:18Z</time>
      </trkpt>
      <trkpt lat="46.5539" lon="5.99541">
        <ele>1053.5</ele>
        <time>2021-11-09T09:18:22Z</time>
      </trkpt>
      <trkpt lat="46.55393" lon="5.99547">
        <ele>1053.4</ele>
        <time>2021-11-09T09:18:26Z</time>
      </trkpt>
      <trkpt lat="46.55396" lon="5.99551">
        <ele>1053.4</ele>
        <time>2021-11-09T09:18:30Z</time>
      </trkpt>
      <trkpt lat="46.55399" lon="5.99558">
        <ele>1053.7</ele>
        <time>2021-11-09T09:18:34Z</time>
      </trkpt>
      <trkpt lat="46.55403" lon="5.99562">
        <ele>1054</ele>
        <time>2021-11-09T09:18:37Z</time>
      </trkpt>
      <trkpt lat="46.55407" lon="5.99565">
        <ele>1054.2</ele>
        <time>2021-11-09T09:18:40Z</time>
      </trkpt>
      <trkpt lat="46.55411" lon="5.99568">
        <ele>1054.3</ele>
        <time>2021-11-09T09:18:43Z</time>
      </trkpt>
      <trkpt lat="46.55414" lon="5.99573">
        <ele>1053.5</ele>
        <time>2021-11-09T09:18:48Z</time>
      </trkpt>
      <trkpt lat="46.5542" lon="5.99574">
        <ele>1052.1</ele>
        <time>2021-11-09T09:18:53Z</time>
      </trkpt>
      <trkpt lat="46.55425" lon="5.99574">
        <ele>1051.4</ele>
        <time>2021-11-09T09:18:56Z</time>
      </trkpt>
      <trkpt lat="46.55431" lon="5.99575">
        <ele>1051</ele>
        <time>2021-11-09T09:18:59Z</time>
      </trkpt>
      <trkpt lat="46.55436" lon="5.99575">
        <ele>1051.3</ele>
        <time>2021-11-09T09:19:03Z</time>
      </trkpt>
      <trkpt lat="46.5544" lon="5.99572">
        <ele>1051.6</ele>
        <time>2021-11-09T09:19:10Z</time>
      </trkpt>
      <trkpt lat="46.55444" lon="5.99568">
        <ele>1051.4</ele>
        <time>2021-11-09T09:19:15Z</time>
      </trkpt>
      <trkpt lat="46.55449" lon="5.99564">
        <ele>1050.7</ele>
        <time>2021-11-09T09:19:19Z</time>
      </trkpt>
      <trkpt lat="46.55454" lon="5.9956">
        <ele>1049.7</ele>
        <time>2021-11-09T09:19:22Z</time>
      </trkpt>
      <trkpt lat="46.55458" lon="5.99557">
        <ele>1049.2</ele>
        <time>2021-11-09T09:19:26Z</time>
      </trkpt>
      <trkpt lat="46.55462" lon="5.99554">
        <ele>1049.5</ele>
        <time>2021-11-09T09:19:31Z</time>
      </trkpt>
      <trkpt lat="46.55467" lon="5.99551">
        <ele>1049.5</ele>
        <time>2021-11-09T09:19:35Z</time>
      </trkpt>
      <trkpt lat="46.55471" lon="5.9955">
        <ele>1049.6</ele>
        <time>2021-11-09T09:19:39Z</time>
      </trkpt>
      <trkpt lat="46.55476" lon="5.99547">
        <ele>1049.7</ele>
        <time>2021-11-09T09:19:44Z</time>
      </trkpt>
      <trkpt lat="46.55481" lon="5.99549">
        <ele>1049.4</ele>
        <time>2021-11-09T09:19:47Z</time>
      </trkpt>
      <trkpt lat="46.55486" lon="5.99549">
        <ele>1048.6</ele>
        <time>2021-11-09T09:19:51Z</time>
      </trkpt>
      <trkpt lat="46.55491" lon="5.99551">
        <ele>1047.8</ele>
        <time>2021-11-09T09:19:55Z</time>
      </trkpt>
      <trkpt lat="46.55494" lon="5.99557">
        <ele>1047.6</ele>
        <time>2021-11-09T09:19:59Z</time>
      </trkpt>
      <trkpt lat="46.55496" lon="5.99563">
        <ele>1047.6</ele>
        <time>2021-11-09T09:20:03Z</time>
      </trkpt>
      <trkpt lat="46.55497" lon="5.9957">
        <ele>1047.5</ele>
        <time>2021-11-09T09:20:07Z</time>
      </trkpt>
      <trkpt lat="46.555" lon="5.99575">
        <ele>1047.5</ele>
        <time>2021-11-09T09:20:11Z</time>
      </trkpt>
      <trkpt lat="46.55502" lon="5.99583">
        <ele>1048</ele>
        <time>2021-11-09T09:20:15Z</time>
      </trkpt>
      <trkpt lat="46.55505" lon="5.9959">
        <ele>1048.6</ele>
        <time>2021-11-09T09:20:18Z</time>
      </trkpt>
      <trkpt lat="46.55507" lon="5.99597">
        <ele>1049.5</ele>
        <time>2021-11-09T09:20:22Z</time>
      </trkpt>
      <trkpt lat="46.55511" lon="5.99603">
        <ele>1050.4</ele>
        <time>2021-11-09T09:20:26Z</time>
      </trkpt>
      <trkpt lat="46.55512" lon="5.9961">
        <ele>1051.5</ele>
        <time>2021-11-09T09:20:30Z</time>
      </trkpt>
      <trkpt lat="46.55512" lon="5.99617">
        <ele>1051.9</ele>
        <time>2021-11-09T09:20:34Z</time>
      </trkpt>
      <trkpt lat="46.55513" lon="5.99624">
        <ele>1051.7</ele>
        <time>2021-11-09T09:20:39Z</time>
      </trkpt>
      <trkpt lat="46.55515" lon="5.99631">
        <ele>1051.1</ele>
        <time>2021-11-09T09:20:43Z</time>
      </trkpt>
      <trkpt lat="46.55517" lon="5.99637">
        <ele>1050.3</ele>
        <time>2021-11-09T09:20:47Z</time>
      </trkpt>
      <trkpt lat="46.55518" lon="5.99644">
        <ele>1049.2</ele>
        <time>2021-11-09T09:20:51Z</time>
      </trkpt>
      <trkpt lat="46.55521" lon="5.99651">
        <ele>1048.1</ele>
        <time>2021-11-09T09:20:55Z</time>
      </trkpt>
      <trkpt lat="46.55524" lon="5.99657">
        <ele>1046.9</ele>
        <time>2021-11-09T09:20:58Z</time>
      </trkpt>
      <trkpt lat="46.55527" lon="5.99661">
        <ele>1045.9</ele>
        <time>2021-11-09T09:21:01Z</time>
      </trkpt>
      <trkpt lat="46.5553" lon="5.99667">
        <ele>1045.1</ele>
        <time>2021-11-09T09:21:04Z</time>
      </trkpt>
      <trkpt lat="46.55533" lon="5.99672">
        <ele>1044</ele>
        <time>2021-11-09T09:21:08Z</time>
      </trkpt>
      <trkpt lat="46.55536" lon="5.99677">
        <ele>1042.7</ele>
        <time>2021-11-09T09:21:12Z</time>
      </trkpt>
      <trkpt lat="46.5554" lon="5.99681">
        <ele>1041.2</ele>
        <time>2021-11-09T09:21:16Z</time>
      </trkpt>
      <trkpt lat="46.55544" lon="5.99683">
        <ele>1040.7</ele>
        <time>2021-11-09T09:21:19Z</time>
      </trkpt>
      <trkpt lat="46.55549" lon="5.99687">
        <ele>1040.5</ele>
        <time>2021-11-09T09:21:23Z</time>
      </trkpt>
      <trkpt lat="46.55555" lon="5.99689">
        <ele>1040.8</ele>
        <time>2021-11-09T09:21:27Z</time>
      </trkpt>
      <trkpt lat="46.55559" lon="5.99692">
        <ele>1040.6</ele>
        <time>2021-11-09T09:21:32Z</time>
      </trkpt>
      <trkpt lat="46.55563" lon="5.99695">
        <ele>1040.6</ele>
        <time>2021-11-09T09:21:36Z</time>
      </trkpt>
      <trkpt lat="46.55568" lon="5.99698">
        <ele>1040.7</ele>
        <time>2021-11-09T09:21:40Z</time>
      </trkpt>
      <trkpt lat="46.55572" lon="5.99701">
        <ele>1040.6</ele>
        <time>2021-11-09T09:21:44Z</time>
      </trkpt>
      <trkpt lat="46.55577" lon="5.99705">
        <ele>1040.9</ele>
        <time>2021-11-09T09:21:49Z</time>
      </trkpt>
      <trkpt lat="46.55582" lon="5.99707">
        <ele>1041.8</ele>
        <time>2021-11-09T09:21:53Z</time>
      </trkpt>
      <trkpt lat="46.55587" lon="5.99708">
        <ele>1042.7</ele>
        <time>2021-11-09T09:21:57Z</time>
      </trkpt>
      <trkpt lat="46.55593" lon="5.9971">
        <ele>1044.1</ele>
        <time>2021-11-09T09:22:02Z</time>
      </trkpt>
      <trkpt lat="46.55598" lon="5.99713">
        <ele>1044.9</ele>
        <time>2021-11-09T09:22:06Z</time>
      </trkpt>
      <trkpt lat="46.55602" lon="5.99719">
        <ele>1045.3</ele>
        <time>2021-11-09T09:22:11Z</time>
      </trkpt>
      <trkpt lat="46.55603" lon="5.99726">
        <ele>1045.7</ele>
        <time>2021-11-09T09:22:16Z</time>
      </trkpt>
      <trkpt lat="46.55606" lon="5.99732">
        <ele>1045.8</ele>
        <time>2021-11-09T09:22:20Z</time>
      </trkpt>
      <trkpt lat="46.5561" lon="5.99737">
        <ele>1046.2</ele>
        <time>2021-11-09T09:22:24Z</time>
      </trkpt>
      <trkpt lat="46.55614" lon="5.99742">
        <ele>1046.8</ele>
        <time>2021-11-09T09:22:28Z</time>
      </trkpt>
      <trkpt lat="46.55618" lon="5.99747">
        <ele>1047.5</ele>
        <time>2021-11-09T09:22:32Z</time>
      </trkpt>
      <trkpt lat="46.55621" lon="5.99753">
        <ele>1047.9</ele>
        <time>2021-11-09T09:22:35Z</time>
      </trkpt>
      <trkpt lat="46.55623" lon="5.9976">
        <ele>1048.4</ele>
        <time>2021-11-09T09:22:39Z</time>
      </trkpt>
      <trkpt lat="46.55625" lon="5.99766">
        <ele>1049.4</ele>
        <time>2021-11-09T09:22:44Z</time>
      </trkpt>
      <trkpt lat="46.55627" lon="5.99773">
        <ele>1050.4</ele>
        <time>2021-11-09T09:22:48Z</time>
      </trkpt>
      <trkpt lat="46.55627" lon="5.99779">
        <ele>1051.4</ele>
        <time>2021-11-09T09:22:52Z</time>
      </trkpt>
      <trkpt lat="46.55627" lon="5.99787">
        <ele>1052.3</ele>
        <time>2021-11-09T09:22:56Z</time>
      </trkpt>
      <trkpt lat="46.55627" lon="5.99794">
        <ele>1053.4</ele>
        <time>2021-11-09T09:23:01Z</time>
      </trkpt>
      <trkpt lat="46.55626" lon="5.99802">
        <ele>1054.6</ele>
        <time>2021-11-09T09:23:08Z</time>
      </trkpt>
      <trkpt lat="46.55627" lon="5.99809">
        <ele>1055.1</ele>
        <time>2021-11-09T09:23:13Z</time>
      </trkpt>
      <trkpt lat="46.55626" lon="5.99816">
        <ele>1054.7</ele>
        <time>2021-11-09T09:23:17Z</time>
      </trkpt>
      <trkpt lat="46.55626" lon="5.99824">
        <ele>1054.4</ele>
        <time>2021-11-09T09:23:22Z</time>
      </trkpt>
      <trkpt lat="46.55626" lon="5.99831">
        <ele>1054</ele>
        <time>2021-11-09T09:23:26Z</time>
      </trkpt>
      <trkpt lat="46.55627" lon="5.99838">
        <ele>1053.3</ele>
        <time>2021-11-09T09:23:30Z</time>
      </trkpt>
      <trkpt lat="46.55627" lon="5.99845">
        <ele>1052.1</ele>
        <time>2021-11-09T09:23:35Z</time>
      </trkpt>
      <trkpt lat="46.55628" lon="5.99853">
        <ele>1051.1</ele>
        <time>2021-11-09T09:23:41Z</time>
      </trkpt>
      <trkpt lat="46.55629" lon="5.99859">
        <ele>1050.6</ele>
        <time>2021-11-09T09:23:45Z</time>
      </trkpt>
      <trkpt lat="46.55629" lon="5.99867">
        <ele>1050.1</ele>
        <time>2021-11-09T09:23:50Z</time>
      </trkpt>
      <trkpt lat="46.55629" lon="5.99874">
        <ele>1049.7</ele>
        <time>2021-11-09T09:23:57Z</time>
      </trkpt>
      <trkpt lat="46.55628" lon="5.99881">
        <ele>1049.4</ele>
        <time>2021-11-09T09:24:02Z</time>
      </trkpt>
      <trkpt lat="46.55627" lon="5.99889">
        <ele>1048.9</ele>
        <time>2021-11-09T09:24:07Z</time>
      </trkpt>
      <trkpt lat="46.55626" lon="5.99897">
        <ele>1048.2</ele>
        <time>2021-11-09T09:24:11Z</time>
      </trkpt>
      <trkpt lat="46.55624" lon="5.99904">
        <ele>1047.5</ele>
        <time>2021-11-09T09:24:15Z</time>
      </trkpt>
      <trkpt lat="46.55623" lon="5.99911">
        <ele>1046.1</ele>
        <time>2021-11-09T09:24:21Z</time>
      </trkpt>
      <trkpt lat="46.55621" lon="5.99918">
        <ele>1045</ele>
        <time>2021-11-09T09:24:27Z</time>
      </trkpt>
      <trkpt lat="46.5562" lon="5.99925">
        <ele>1044.5</ele>
        <time>2021-11-09T09:24:34Z</time>
      </trkpt>
      <trkpt lat="46.55617" lon="5.99933">
        <ele>1044.4</ele>
        <time>2021-11-09T09:24:38Z</time>
      </trkpt>
      <trkpt lat="46.55616" lon="5.99939">
        <ele>1044.1</ele>
        <time>2021-11-09T09:24:42Z</time>
      </trkpt>
      <trkpt lat="46.55614" lon="5.99945">
        <ele>1043.5</ele>
        <time>2021-11-09T09:24:46Z</time>
      </trkpt>
      <trkpt lat="46.55611" lon="5.99951">
        <ele>1042.5</ele>
        <time>2021-11-09T09:24:51Z</time>
      </trkpt>
      <trkpt lat="46.55612" lon="5.99959">
        <ele>1041.4</ele>
        <time>2021-11-09T09:24:56Z</time>
      </trkpt>
      <trkpt lat="46.55611" lon="5.99966">
        <ele>1041.6</ele>
        <time>2021-11-09T09:25:01Z</time>
      </trkpt>
      <trkpt lat="46.55611" lon="5.99973">
        <ele>1041.8</ele>
        <time>2021-11-09T09:25:07Z</time>
      </trkpt>
      <trkpt lat="46.55612" lon="5.9998">
        <ele>1041.9</ele>
        <time>2021-11-09T09:25:13Z</time>
      </trkpt>
      <trkpt lat="46.55613" lon="5.99987">
        <ele>1041.3</ele>
        <time>2021-11-09T09:25:19Z</time>
      </trkpt>
      <trkpt lat="46.55612" lon="5.99995">
        <ele>1040.7</ele>
        <time>2021-11-09T09:25:25Z</time>
      </trkpt>
      <trkpt lat="46.55613" lon="6.00001">
        <ele>1040.1</ele>
        <time>2021-11-09T09:25:30Z</time>
      </trkpt>
      <trkpt lat="46.55614" lon="6.00008">
        <ele>1039.6</ele>
        <time>2021-11-09T09:25:35Z</time>
      </trkpt>
      <trkpt lat="46.55615" lon="6.00015">
        <ele>1039.3</ele>
        <time>2021-11-09T09:25:40Z</time>
      </trkpt>
      <trkpt lat="46.55618" lon="6.00021">
        <ele>1039</ele>
        <time>2021-11-09T09:25:45Z</time>
      </trkpt>
      <trkpt lat="46.55622" lon="6.00025">
        <ele>1038.6</ele>
        <time>2021-11-09T09:25:50Z</time>
      </trkpt>
      <trkpt lat="46.55626" lon="6.00031">
        <ele>1037.8</ele>
        <time>2021-11-09T09:25:55Z</time>
      </trkpt>
      <trkpt lat="46.55629" lon="6.00036">
        <ele>1037.2</ele>
        <time>2021-11-09T09:25:59Z</time>
      </trkpt>
      <trkpt lat="46.55631" lon="6.00041">
        <ele>1036.7</ele>
        <time>2021-11-09T09:26:04Z</time>
      </trkpt>
      <trkpt lat="46.55634" lon="6.00047">
        <ele>1036.5</ele>
        <time>2021-11-09T09:26:08Z</time>
      </trkpt>
      <trkpt lat="46.55638" lon="6.00051">
        <ele>1036.3</ele>
        <time>2021-11-09T09:26:12Z</time>
      </trkpt>
      <trkpt lat="46.55643" lon="6.00055">
        <ele>1035.9</ele>
        <time>2021-11-09T09:26:18Z</time>
      </trkpt>
      <trkpt lat="46.55648" lon="6.00052">
        <ele>1032.6</ele>
        <time>2021-11-09T09:26:39Z</time>
      </trkpt>
      <trkpt lat="46.55652" lon="6.00048">
        <ele>1032.4</ele>
        <time>2021-11-09T09:26:44Z</time>
      </trkpt>
      <trkpt lat="46.55658" lon="6.00047">
        <ele>1032</ele>
        <time>2021-11-09T09:26:53Z</time>
      </trkpt>
      <trkpt lat="46.55662" lon="6.00047">
        <ele>1031.7</ele>
        <time>2021-11-09T09:26:57Z</time>
      </trkpt>
      <trkpt lat="46.55667" lon="6.00046">
        <ele>1031.4</ele>
        <time>2021-11-09T09:27:01Z</time>
      </trkpt>
      <trkpt lat="46.55672" lon="6.00045">
        <ele>1031.3</ele>
        <time>2021-11-09T09:27:08Z</time>
      </trkpt>
      <trkpt lat="46.55676" lon="6.00044">
        <ele>1030.9</ele>
        <time>2021-11-09T09:27:13Z</time>
      </trkpt>
      <trkpt lat="46.55681" lon="6.00043">
        <ele>1031</ele>
        <time>2021-11-09T09:27:18Z</time>
      </trkpt>
      <trkpt lat="46.55685" lon="6.00042">
        <ele>1032</ele>
        <time>2021-11-09T09:27:23Z</time>
      </trkpt>
      <trkpt lat="46.55691" lon="6.00039">
        <ele>1032.5</ele>
        <time>2021-11-09T09:27:28Z</time>
      </trkpt>
      <trkpt lat="46.55695" lon="6.00036">
        <ele>1031.8</ele>
        <time>2021-11-09T09:27:35Z</time>
      </trkpt>
      <trkpt lat="46.55699" lon="6.00031">
        <ele>1031.1</ele>
        <time>2021-11-09T09:27:41Z</time>
      </trkpt>
      <trkpt lat="46.55703" lon="6.00027">
        <ele>1030.9</ele>
        <time>2021-11-09T09:27:45Z</time>
      </trkpt>
      <trkpt lat="46.55708" lon="6.00023">
        <ele>1031.3</ele>
        <time>2021-11-09T09:27:50Z</time>
      </trkpt>
      <trkpt lat="46.55711" lon="6.00017">
        <ele>1032.2</ele>
        <time>2021-11-09T09:27:55Z</time>
      </trkpt>
      <trkpt lat="46.55714" lon="6.00011">
        <ele>1032.5</ele>
        <time>2021-11-09T09:28:01Z</time>
      </trkpt>
      <trkpt lat="46.55718" lon="6.00006">
        <ele>1031.9</ele>
        <time>2021-11-09T09:28:09Z</time>
      </trkpt>
      <trkpt lat="46.5572" lon="5.99999">
        <ele>1032.2</ele>
        <time>2021-11-09T09:28:13Z</time>
      </trkpt>
      <trkpt lat="46.55722" lon="5.99992">
        <ele>1032.1</ele>
        <time>2021-11-09T09:28:17Z</time>
      </trkpt>
      <trkpt lat="46.55724" lon="5.99986">
        <ele>1032.1</ele>
        <time>2021-11-09T09:28:21Z</time>
      </trkpt>
      <trkpt lat="46.55726" lon="5.9998">
        <ele>1032</ele>
        <time>2021-11-09T09:28:26Z</time>
      </trkpt>
      <trkpt lat="46.55728" lon="5.99973">
        <ele>1031.7</ele>
        <time>2021-11-09T09:28:31Z</time>
      </trkpt>
      <trkpt lat="46.55731" lon="5.99968">
        <ele>1030.9</ele>
        <time>2021-11-09T09:28:36Z</time>
      </trkpt>
      <trkpt lat="46.55735" lon="5.99963">
        <ele>1030.2</ele>
        <time>2021-11-09T09:28:41Z</time>
      </trkpt>
      <trkpt lat="46.5574" lon="5.99959">
        <ele>1029</ele>
        <time>2021-11-09T09:28:46Z</time>
      </trkpt>
      <trkpt lat="46.55743" lon="5.99954">
        <ele>1027.8</ele>
        <time>2021-11-09T09:28:50Z</time>
      </trkpt>
      <trkpt lat="46.55746" lon="5.99949">
        <ele>1026.4</ele>
        <time>2021-11-09T09:28:55Z</time>
      </trkpt>
      <trkpt lat="46.5575" lon="5.99945">
        <ele>1025.4</ele>
        <time>2021-11-09T09:29:01Z</time>
      </trkpt>
      <trkpt lat="46.55753" lon="5.99939">
        <ele>1024.6</ele>
        <time>2021-11-09T09:29:07Z</time>
      </trkpt>
      <trkpt lat="46.55756" lon="5.99933">
        <ele>1024.4</ele>
        <time>2021-11-09T09:29:12Z</time>
      </trkpt>
      <trkpt lat="46.55758" lon="5.99928">
        <ele>1024.4</ele>
        <time>2021-11-09T09:29:17Z</time>
      </trkpt>
      <trkpt lat="46.55759" lon="5.99921">
        <ele>1024.1</ele>
        <time>2021-11-09T09:29:23Z</time>
      </trkpt>
      <trkpt lat="46.55762" lon="5.99915">
        <ele>1022.9</ele>
        <time>2021-11-09T09:29:31Z</time>
      </trkpt>
      <trkpt lat="46.55765" lon="5.9991">
        <ele>1022.4</ele>
        <time>2021-11-09T09:29:35Z</time>
      </trkpt>
      <trkpt lat="46.55769" lon="5.99906">
        <ele>1021.7</ele>
        <time>2021-11-09T09:29:39Z</time>
      </trkpt>
      <trkpt lat="46.55771" lon="5.999">
        <ele>1021.1</ele>
        <time>2021-11-09T09:29:43Z</time>
      </trkpt>
      <trkpt lat="46.55774" lon="5.99894">
        <ele>1019.7</ele>
        <time>2021-11-09T09:29:50Z</time>
      </trkpt>
      <trkpt lat="46.55777" lon="5.99889">
        <ele>1017.7</ele>
        <time>2021-11-09T09:29:56Z</time>
      </trkpt>
      <trkpt lat="46.5578" lon="5.99883">
        <ele>1016.2</ele>
        <time>2021-11-09T09:30:00Z</time>
      </trkpt>
      <trkpt lat="46.55783" lon="5.99875">
        <ele>1014.9</ele>
        <time>2021-11-09T09:30:04Z</time>
      </trkpt>
      <trkpt lat="46.55785" lon="5.99868">
        <ele>1014.3</ele>
        <time>2021-11-09T09:30:08Z</time>
      </trkpt>
      <trkpt lat="46.55788" lon="5.99861">
        <ele>1013.9</ele>
        <time>2021-11-09T09:30:12Z</time>
      </trkpt>
      <trkpt lat="46.5579" lon="5.99854">
        <ele>1014.2</ele>
        <time>2021-11-09T09:30:17Z</time>
      </trkpt>
      <trkpt lat="46.55792" lon="5.99848">
        <ele>1014.5</ele>
        <time>2021-11-09T09:30:21Z</time>
      </trkpt>
      <trkpt lat="46.55795" lon="5.99842">
        <ele>1014.7</ele>
        <time>2021-11-09T09:30:26Z</time>
      </trkpt>
      <trkpt lat="46.55799" lon="5.99838">
        <ele>1013.9</ele>
        <time>2021-11-09T09:30:32Z</time>
      </trkpt>
      <trkpt lat="46.55802" lon="5.99832">
        <ele>1012.6</ele>
        <time>2021-11-09T09:30:38Z</time>
      </trkpt>
      <trkpt lat="46.55802" lon="5.99825">
        <ele>1010.8</ele>
        <time>2021-11-09T09:30:44Z</time>
      </trkpt>
      <trkpt lat="46.55802" lon="5.99818">
        <ele>1009.7</ele>
        <time>2021-11-09T09:30:48Z</time>
      </trkpt>
      <trkpt lat="46.55803" lon="5.99811">
        <ele>1008.7</ele>
        <time>2021-11-09T09:30:52Z</time>
      </trkpt>
      <trkpt lat="46.55804" lon="5.99804">
        <ele>1007.6</ele>
        <time>2021-11-09T09:30:58Z</time>
      </trkpt>
      <trkpt lat="46.55805" lon="5.99796">
        <ele>1006.5</ele>
        <time>2021-11-09T09:31:04Z</time>
      </trkpt>
      <trkpt lat="46.55807" lon="5.9979">
        <ele>1005.1</ele>
        <time>2021-11-09T09:31:10Z</time>
      </trkpt>
      <trkpt lat="46.55808" lon="5.99783">
        <ele>1003.4</ele>
        <time>2021-11-09T09:31:16Z</time>
      </trkpt>
      <trkpt lat="46.55808" lon="5.99776">
        <ele>1002.2</ele>
        <time>2021-11-09T09:31:20Z</time>
      </trkpt>
      <trkpt lat="46.55808" lon="5.99769">
        <ele>1001.3</ele>
        <time>2021-11-09T09:31:24Z</time>
      </trkpt>
      <trkpt lat="46.55808" lon="5.99761">
        <ele>1001</ele>
        <time>2021-11-09T09:31:31Z</time>
      </trkpt>
      <trkpt lat="46.55809" lon="5.99753">
        <ele>1001.2</ele>
        <time>2021-11-09T09:31:37Z</time>
      </trkpt>
      <trkpt lat="46.5581" lon="5.99745">
        <ele>1001.5</ele>
        <time>2021-11-09T09:31:41Z</time>
      </trkpt>
      <trkpt lat="46.55811" lon="5.99739">
        <ele>1001.5</ele>
        <time>2021-11-09T09:31:45Z</time>
      </trkpt>
      <trkpt lat="46.55812" lon="5.99731">
        <ele>1001.4</ele>
        <time>2021-11-09T09:31:50Z</time>
      </trkpt>
      <trkpt lat="46.55812" lon="5.99725">
        <ele>1001.2</ele>
        <time>2021-11-09T09:31:55Z</time>
      </trkpt>
      <trkpt lat="46.55812" lon="5.99718">
        <ele>1001.1</ele>
        <time>2021-11-09T09:32:00Z</time>
      </trkpt>
      <trkpt lat="46.55813" lon="5.99711">
        <ele>1001.3</ele>
        <time>2021-11-09T09:32:06Z</time>
      </trkpt>
      <trkpt lat="46.55813" lon="5.99704">
        <ele>1001.7</ele>
        <time>2021-11-09T09:32:11Z</time>
      </trkpt>
      <trkpt lat="46.55813" lon="5.99696">
        <ele>1002.2</ele>
        <time>2021-11-09T09:32:16Z</time>
      </trkpt>
      <trkpt lat="46.55814" lon="5.99689">
        <ele>1002.7</ele>
        <time>2021-11-09T09:32:20Z</time>
      </trkpt>
      <trkpt lat="46.55815" lon="5.99681">
        <ele>1003.3</ele>
        <time>2021-11-09T09:32:24Z</time>
      </trkpt>
      <trkpt lat="46.55817" lon="5.99674">
        <ele>1003.8</ele>
        <time>2021-11-09T09:32:28Z</time>
      </trkpt>
      <trkpt lat="46.5582" lon="5.99669">
        <ele>1004</ele>
        <time>2021-11-09T09:32:32Z</time>
      </trkpt>
      <trkpt lat="46.55824" lon="5.99663">
        <ele>1004.1</ele>
        <time>2021-11-09T09:32:36Z</time>
      </trkpt>
      <trkpt lat="46.55827" lon="5.99659">
        <ele>1004.1</ele>
        <time>2021-11-09T09:32:40Z</time>
      </trkpt>
      <trkpt lat="46.55832" lon="5.99655">
        <ele>1004.4</ele>
        <time>2021-11-09T09:32:45Z</time>
      </trkpt>
      <trkpt lat="46.55836" lon="5.99651">
        <ele>1005.1</ele>
        <time>2021-11-09T09:32:49Z</time>
      </trkpt>
      <trkpt lat="46.55839" lon="5.99645">
        <ele>1006.1</ele>
        <time>2021-11-09T09:32:55Z</time>
      </trkpt>
      <trkpt lat="46.55843" lon="5.99639">
        <ele>1007.1</ele>
        <time>2021-11-09T09:33:01Z</time>
      </trkpt>
      <trkpt lat="46.55846" lon="5.99633">
        <ele>1007.5</ele>
        <time>2021-11-09T09:33:06Z</time>
      </trkpt>
      <trkpt lat="46.5585" lon="5.99628">
        <ele>1007.5</ele>
        <time>2021-11-09T09:33:10Z</time>
      </trkpt>
      <trkpt lat="46.55851" lon="5.99622">
        <ele>1007.5</ele>
        <time>2021-11-09T09:33:14Z</time>
      </trkpt>
      <trkpt lat="46.55852" lon="5.99614">
        <ele>1007.7</ele>
        <time>2021-11-09T09:33:19Z</time>
      </trkpt>
      <trkpt lat="46.55855" lon="5.99607">
        <ele>1007.7</ele>
        <time>2021-11-09T09:33:23Z</time>
      </trkpt>
      <trkpt lat="46.55857" lon="5.99601">
        <ele>1007.5</ele>
        <time>2021-11-09T09:33:28Z</time>
      </trkpt>
      <trkpt lat="46.55859" lon="5.99593">
        <ele>1007</ele>
        <time>2021-11-09T09:33:33Z</time>
      </trkpt>
      <trkpt lat="46.55861" lon="5.99588">
        <ele>1006.7</ele>
        <time>2021-11-09T09:33:37Z</time>
      </trkpt>
      <trkpt lat="46.55864" lon="5.99581">
        <ele>1006.2</ele>
        <time>2021-11-09T09:33:43Z</time>
      </trkpt>
      <trkpt lat="46.55866" lon="5.99575">
        <ele>1005.1</ele>
        <time>2021-11-09T09:33:48Z</time>
      </trkpt>
      <trkpt lat="46.55868" lon="5.99569">
        <ele>1004</ele>
        <time>2021-11-09T09:33:53Z</time>
      </trkpt>
      <trkpt lat="46.55871" lon="5.99563">
        <ele>1003</ele>
        <time>2021-11-09T09:33:58Z</time>
      </trkpt>
      <trkpt lat="46.55874" lon="5.99558">
        <ele>1002.6</ele>
        <time>2021-11-09T09:34:01Z</time>
      </trkpt>
      <trkpt lat="46.55877" lon="5.99553">
        <ele>1002.1</ele>
        <time>2021-11-09T09:34:05Z</time>
      </trkpt>
      <trkpt lat="46.55879" lon="5.99546">
        <ele>1002.4</ele>
        <time>2021-11-09T09:34:10Z</time>
      </trkpt>
      <trkpt lat="46.55883" lon="5.99541">
        <ele>1002.5</ele>
        <time>2021-11-09T09:34:14Z</time>
      </trkpt>
      <trkpt lat="46.55887" lon="5.99538">
        <ele>1002.4</ele>
        <time>2021-11-09T09:34:18Z</time>
      </trkpt>
      <trkpt lat="46.55891" lon="5.99534">
        <ele>1002</ele>
        <time>2021-11-09T09:34:25Z</time>
      </trkpt>
      <trkpt lat="46.55895" lon="5.9953">
        <ele>1001.6</ele>
        <time>2021-11-09T09:34:30Z</time>
      </trkpt>
      <trkpt lat="46.55899" lon="5.99526">
        <ele>1001.3</ele>
        <time>2021-11-09T09:34:35Z</time>
      </trkpt>
      <trkpt lat="46.55903" lon="5.99522">
        <ele>1001.4</ele>
        <time>2021-11-09T09:34:40Z</time>
      </trkpt>
      <trkpt lat="46.55906" lon="5.99516">
        <ele>1002</ele>
        <time>2021-11-09T09:34:44Z</time>
      </trkpt>
      <trkpt lat="46.55908" lon="5.9951">
        <ele>1002.7</ele>
        <time>2021-11-09T09:34:49Z</time>
      </trkpt>
      <trkpt lat="46.55909" lon="5.99503">
        <ele>1003.8</ele>
        <time>2021-11-09T09:34:53Z</time>
      </trkpt>
      <trkpt lat="46.55914" lon="5.99499">
        <ele>1004.7</ele>
        <time>2021-11-09T09:34:58Z</time>
      </trkpt>
      <trkpt lat="46.5592" lon="5.99497">
        <ele>1005.4</ele>
        <time>2021-11-09T09:35:02Z</time>
      </trkpt>
      <trkpt lat="46.55924" lon="5.99496">
        <ele>1005.7</ele>
        <time>2021-11-09T09:35:06Z</time>
      </trkpt>
      <trkpt lat="46.5593" lon="5.99496">
        <ele>1006.4</ele>
        <time>2021-11-09T09:35:11Z</time>
      </trkpt>
      <trkpt lat="46.55934" lon="5.99493">
        <ele>1006.9</ele>
        <time>2021-11-09T09:35:15Z</time>
      </trkpt>
      <trkpt lat="46.55939" lon="5.99491">
        <ele>1007.3</ele>
        <time>2021-11-09T09:35:20Z</time>
      </trkpt>
      <trkpt lat="46.55942" lon="5.99485">
        <ele>1007.7</ele>
        <time>2021-11-09T09:35:24Z</time>
      </trkpt>
      <trkpt lat="46.55946" lon="5.99484">
        <ele>1008.3</ele>
        <time>2021-11-09T09:35:32Z</time>
      </trkpt>
      <trkpt lat="46.5595" lon="5.9948">
        <ele>1009</ele>
        <time>2021-11-09T09:35:37Z</time>
      </trkpt>
      <trkpt lat="46.55955" lon="5.99478">
        <ele>1009.2</ele>
        <time>2021-11-09T09:35:40Z</time>
      </trkpt>
      <trkpt lat="46.55959" lon="5.99475">
        <ele>1009.8</ele>
        <time>2021-11-09T09:35:44Z</time>
      </trkpt>
      <trkpt lat="46.55965" lon="5.99475">
        <ele>1010.5</ele>
        <time>2021-11-09T09:35:50Z</time>
      </trkpt>
      <trkpt lat="46.5597" lon="5.99476">
        <ele>1011</ele>
        <time>2021-11-09T09:35:55Z</time>
      </trkpt>
      <trkpt lat="46.55974" lon="5.99474">
        <ele>1012.4</ele>
        <time>2021-11-09T09:36:07Z</time>
      </trkpt>
      <trkpt lat="46.55979" lon="5.99474">
        <ele>1012.7</ele>
        <time>2021-11-09T09:36:14Z</time>
      </trkpt>
      <trkpt lat="46.55984" lon="5.99475">
        <ele>1013</ele>
        <time>2021-11-09T09:36:20Z</time>
      </trkpt>
      <trkpt lat="46.55989" lon="5.99471">
        <ele>1012.8</ele>
        <time>2021-11-09T09:36:26Z</time>
      </trkpt>
      <trkpt lat="46.55994" lon="5.99469">
        <ele>1012.4</ele>
        <time>2021-11-09T09:36:31Z</time>
      </trkpt>
      <trkpt lat="46.55999" lon="5.99466">
        <ele>1011.1</ele>
        <time>2021-11-09T09:36:38Z</time>
      </trkpt>
      <trkpt lat="46.56003" lon="5.99462">
        <ele>1009.6</ele>
        <time>2021-11-09T09:36:44Z</time>
      </trkpt>
      <trkpt lat="46.56009" lon="5.9946">
        <ele>1008</ele>
        <time>2021-11-09T09:36:49Z</time>
      </trkpt>
      <trkpt lat="46.56013" lon="5.99458">
        <ele>1006.9</ele>
        <time>2021-11-09T09:36:52Z</time>
      </trkpt>
      <trkpt lat="46.56018" lon="5.99458">
        <ele>1005.7</ele>
        <time>2021-11-09T09:36:56Z</time>
      </trkpt>
      <trkpt lat="46.56022" lon="5.99455">
        <ele>1004.1</ele>
        <time>2021-11-09T09:37:02Z</time>
      </trkpt>
      <trkpt lat="46.56027" lon="5.99451">
        <ele>1004.4</ele>
        <time>2021-11-09T09:37:07Z</time>
      </trkpt>
      <trkpt lat="46.56031" lon="5.99451">
        <ele>1004.7</ele>
        <time>2021-11-09T09:37:12Z</time>
      </trkpt>
      <trkpt lat="46.56034" lon="5.99457">
        <ele>1005.2</ele>
        <time>2021-11-09T09:37:18Z</time>
      </trkpt>
      <trkpt lat="46.56039" lon="5.99459">
        <ele>1006.1</ele>
        <time>2021-11-09T09:37:27Z</time>
      </trkpt>
      <trkpt lat="46.56044" lon="5.9946">
        <ele>1006.7</ele>
        <time>2021-11-09T09:37:32Z</time>
      </trkpt>
      <trkpt lat="46.56048" lon="5.99461">
        <ele>1007.2</ele>
        <time>2021-11-09T09:37:36Z</time>
      </trkpt>
      <trkpt lat="46.56053" lon="5.99461">
        <ele>1008.2</ele>
        <time>2021-11-09T09:37:42Z</time>
      </trkpt>
      <trkpt lat="46.56058" lon="5.99464">
        <ele>1009.5</ele>
        <time>2021-11-09T09:37:51Z</time>
      </trkpt>
      <trkpt lat="46.56062" lon="5.9946">
        <ele>1009.6</ele>
        <time>2021-11-09T09:37:54Z</time>
      </trkpt>
      <trkpt lat="46.56066" lon="5.99456">
        <ele>1010.9</ele>
        <time>2021-11-09T09:38:01Z</time>
      </trkpt>
      <trkpt lat="46.56071" lon="5.99455">
        <ele>1011.6</ele>
        <time>2021-11-09T09:38:07Z</time>
      </trkpt>
      <trkpt lat="46.56075" lon="5.99451">
        <ele>1012</ele>
        <time>2021-11-09T09:38:12Z</time>
      </trkpt>
      <trkpt lat="46.56077" lon="5.99444">
        <ele>1011.7</ele>
        <time>2021-11-09T09:38:18Z</time>
      </trkpt>
      <trkpt lat="46.5608" lon="5.99437">
        <ele>1010.8</ele>
        <time>2021-11-09T09:38:22Z</time>
      </trkpt>
      <trkpt lat="46.56083" lon="5.99432">
        <ele>1009.8</ele>
        <time>2021-11-09T09:38:27Z</time>
      </trkpt>
      <trkpt lat="46.56087" lon="5.99427">
        <ele>1009.1</ele>
        <time>2021-11-09T09:38:31Z</time>
      </trkpt>
      <trkpt lat="46.56091" lon="5.99423">
        <ele>1008.6</ele>
        <time>2021-11-09T09:38:35Z</time>
      </trkpt>
      <trkpt lat="46.56096" lon="5.9942">
        <ele>1008.8</ele>
        <time>2021-11-09T09:38:40Z</time>
      </trkpt>
      <trkpt lat="46.56101" lon="5.99419">
        <ele>1009.9</ele>
        <time>2021-11-09T09:38:45Z</time>
      </trkpt>
      <trkpt lat="46.56106" lon="5.99424">
        <ele>1014</ele>
        <time>2021-11-09T09:38:55Z</time>
      </trkpt>
      <trkpt lat="46.5611" lon="5.99427">
        <ele>1016.4</ele>
        <time>2021-11-09T09:39:03Z</time>
      </trkpt>
      <trkpt lat="46.56112" lon="5.9942">
        <ele>1016.2</ele>
        <time>2021-11-09T09:39:10Z</time>
      </trkpt>
      <trkpt lat="46.56113" lon="5.99414">
        <ele>1015.9</ele>
        <time>2021-11-09T09:39:16Z</time>
      </trkpt>
      <trkpt lat="46.56112" lon="5.99407">
        <ele>1016.6</ele>
        <time>2021-11-09T09:39:34Z</time>
      </trkpt>
      <trkpt lat="46.56108" lon="5.99404">
        <ele>1021.6</ele>
        <time>2021-11-09T09:39:49Z</time>
      </trkpt>
      <trkpt lat="46.56106" lon="5.9941">
        <ele>1021.5</ele>
        <time>2021-11-09T09:39:53Z</time>
      </trkpt>
      <trkpt lat="46.56107" lon="5.99417">
        <ele>1020.8</ele>
        <time>2021-11-09T09:39:56Z</time>
      </trkpt>
      <trkpt lat="46.56108" lon="5.99425">
        <ele>1020.1</ele>
        <time>2021-11-09T09:39:59Z</time>
      </trkpt>
      <trkpt lat="46.5611" lon="5.99432">
        <ele>1019.4</ele>
        <time>2021-11-09T09:40:02Z</time>
      </trkpt>
      <trkpt lat="46.5611" lon="5.99439">
        <ele>1018.7</ele>
        <time>2021-11-09T09:40:05Z</time>
      </trkpt>
      <trkpt lat="46.5611" lon="5.99447">
        <ele>1018.2</ele>
        <time>2021-11-09T09:40:09Z</time>
      </trkpt>
      <trkpt lat="46.56112" lon="5.99453">
        <ele>1017.6</ele>
        <time>2021-11-09T09:40:12Z</time>
      </trkpt>
      <trkpt lat="46.56114" lon="5.99461">
        <ele>1017</ele>
        <time>2021-11-09T09:40:16Z</time>
      </trkpt>
      <trkpt lat="46.56114" lon="5.99469">
        <ele>1016.3</ele>
        <time>2021-11-09T09:40:20Z</time>
      </trkpt>
      <trkpt lat="46.56118" lon="5.99475">
        <ele>1015.8</ele>
        <time>2021-11-09T09:40:24Z</time>
      </trkpt>
      <trkpt lat="46.56123" lon="5.99479">
        <ele>1016</ele>
        <time>2021-11-09T09:40:27Z</time>
      </trkpt>
      <trkpt lat="46.56126" lon="5.99483">
        <ele>1016.2</ele>
        <time>2021-11-09T09:40:31Z</time>
      </trkpt>
      <trkpt lat="46.56129" lon="5.9949">
        <ele>1016.6</ele>
        <time>2021-11-09T09:40:36Z</time>
      </trkpt>
      <trkpt lat="46.56131" lon="5.99495">
        <ele>1016.7</ele>
        <time>2021-11-09T09:40:42Z</time>
      </trkpt>
      <trkpt lat="46.56137" lon="5.99498">
        <ele>1016.1</ele>
        <time>2021-11-09T09:40:46Z</time>
      </trkpt>
      <trkpt lat="46.56141" lon="5.99499">
        <ele>1015.7</ele>
        <time>2021-11-09T09:40:49Z</time>
      </trkpt>
      <trkpt lat="46.56146" lon="5.99504">
        <ele>1015.2</ele>
        <time>2021-11-09T09:40:53Z</time>
      </trkpt>
      <trkpt lat="46.56148" lon="5.9951">
        <ele>1014.8</ele>
        <time>2021-11-09T09:40:57Z</time>
      </trkpt>
      <trkpt lat="46.56147" lon="5.99518">
        <ele>1014.5</ele>
        <time>2021-11-09T09:41:01Z</time>
      </trkpt>
      <trkpt lat="46.56148" lon="5.99525">
        <ele>1013.8</ele>
        <time>2021-11-09T09:41:07Z</time>
      </trkpt>
      <trkpt lat="46.5615" lon="5.99532">
        <ele>1012.8</ele>
        <time>2021-11-09T09:41:11Z</time>
      </trkpt>
      <trkpt lat="46.56153" lon="5.99538">
        <ele>1011.3</ele>
        <time>2021-11-09T09:41:15Z</time>
      </trkpt>
      <trkpt lat="46.56156" lon="5.99544">
        <ele>1009.5</ele>
        <time>2021-11-09T09:41:19Z</time>
      </trkpt>
      <trkpt lat="46.56157" lon="5.99551">
        <ele>1006.7</ele>
        <time>2021-11-09T09:41:25Z</time>
      </trkpt>
      <trkpt lat="46.56159" lon="5.99559">
        <ele>1005.1</ele>
        <time>2021-11-09T09:41:29Z</time>
      </trkpt>
      <trkpt lat="46.56161" lon="5.99566">
        <ele>1003.7</ele>
        <time>2021-11-09T09:41:33Z</time>
      </trkpt>
      <trkpt lat="46.5616" lon="5.99573">
        <ele>1002</ele>
        <time>2021-11-09T09:41:38Z</time>
      </trkpt>
      <trkpt lat="46.56161" lon="5.99581">
        <ele>1000.5</ele>
        <time>2021-11-09T09:41:43Z</time>
      </trkpt>
      <trkpt lat="46.56161" lon="5.99588">
        <ele>999.6</ele>
        <time>2021-11-09T09:41:48Z</time>
      </trkpt>
      <trkpt lat="46.56163" lon="5.99595">
        <ele>999</ele>
        <time>2021-11-09T09:41:54Z</time>
      </trkpt>
      <trkpt lat="46.56165" lon="5.99601">
        <ele>998.9</ele>
        <time>2021-11-09T09:41:59Z</time>
      </trkpt>
      <trkpt lat="46.56165" lon="5.99609">
        <ele>998.1</ele>
        <time>2021-11-09T09:42:04Z</time>
      </trkpt>
      <trkpt lat="46.56167" lon="5.99615">
        <ele>996.9</ele>
        <time>2021-11-09T09:42:08Z</time>
      </trkpt>
      <trkpt lat="46.5617" lon="5.99622">
        <ele>994.6</ele>
        <time>2021-11-09T09:42:13Z</time>
      </trkpt>
      <trkpt lat="46.56173" lon="5.99627">
        <ele>993</ele>
        <time>2021-11-09T09:42:17Z</time>
      </trkpt>
      <trkpt lat="46.56176" lon="5.99631">
        <ele>991.1</ele>
        <time>2021-11-09T09:42:22Z</time>
      </trkpt>
      <trkpt lat="46.56179" lon="5.99638">
        <ele>989.2</ele>
        <time>2021-11-09T09:42:30Z</time>
      </trkpt>
      <trkpt lat="46.56182" lon="5.99642">
        <ele>988.8</ele>
        <time>2021-11-09T09:42:35Z</time>
      </trkpt>
      <trkpt lat="46.56184" lon="5.99649">
        <ele>988</ele>
        <time>2021-11-09T09:42:45Z</time>
      </trkpt>
      <trkpt lat="46.56188" lon="5.99653">
        <ele>987</ele>
        <time>2021-11-09T09:42:54Z</time>
      </trkpt>
      <trkpt lat="46.56192" lon="5.99659">
        <ele>985.7</ele>
        <time>2021-11-09T09:43:04Z</time>
      </trkpt>
      <trkpt lat="46.56194" lon="5.99664">
        <ele>986.8</ele>
        <time>2021-11-09T09:43:15Z</time>
      </trkpt>
      <trkpt lat="46.56195" lon="5.99671">
        <ele>987.5</ele>
        <time>2021-11-09T09:43:25Z</time>
      </trkpt>
      <trkpt lat="46.562" lon="5.99674">
        <ele>988.2</ele>
        <time>2021-11-09T09:43:34Z</time>
      </trkpt>
      <trkpt lat="46.56205" lon="5.99675">
        <ele>988.2</ele>
        <time>2021-11-09T09:43:40Z</time>
      </trkpt>
      <trkpt lat="46.56208" lon="5.9968">
        <ele>988.4</ele>
        <time>2021-11-09T09:43:46Z</time>
      </trkpt>
      <trkpt lat="46.56211" lon="5.99686">
        <ele>989.1</ele>
        <time>2021-11-09T09:43:51Z</time>
      </trkpt>
      <trkpt lat="46.56214" lon="5.99692">
        <ele>989.8</ele>
        <time>2021-11-09T09:43:56Z</time>
      </trkpt>
      <trkpt lat="46.56217" lon="5.99699">
        <ele>989.9</ele>
        <time>2021-11-09T09:44:02Z</time>
      </trkpt>
      <trkpt lat="46.56221" lon="5.99705">
        <ele>989.5</ele>
        <time>2021-11-09T09:44:05Z</time>
      </trkpt>
      <trkpt lat="46.56223" lon="5.9971">
        <ele>988.6</ele>
        <time>2021-11-09T09:44:10Z</time>
      </trkpt>
      <trkpt lat="46.56222" lon="5.99718">
        <ele>986</ele>
        <time>2021-11-09T09:44:16Z</time>
      </trkpt>
      <trkpt lat="46.56225" lon="5.99724">
        <ele>982.4</ele>
        <time>2021-11-09T09:44:22Z</time>
      </trkpt>
      <trkpt lat="46.56226" lon="5.9973">
        <ele>979.4</ele>
        <time>2021-11-09T09:44:28Z</time>
      </trkpt>
      <trkpt lat="46.56231" lon="5.99735">
        <ele>976.7</ele>
        <time>2021-11-09T09:44:33Z</time>
      </trkpt>
      <trkpt lat="46.56234" lon="5.9974">
        <ele>974.3</ele>
        <time>2021-11-09T09:44:37Z</time>
      </trkpt>
      <trkpt lat="46.56236" lon="5.99747">
        <ele>971.4</ele>
        <time>2021-11-09T09:44:42Z</time>
      </trkpt>
      <trkpt lat="46.56236" lon="5.99755">
        <ele>968.7</ele>
        <time>2021-11-09T09:44:47Z</time>
      </trkpt>
      <trkpt lat="46.56238" lon="5.99763">
        <ele>965.9</ele>
        <time>2021-11-09T09:44:52Z</time>
      </trkpt>
      <trkpt lat="46.56239" lon="5.99771">
        <ele>963.2</ele>
        <time>2021-11-09T09:44:57Z</time>
      </trkpt>
      <trkpt lat="46.56241" lon="5.99777">
        <ele>961</ele>
        <time>2021-11-09T09:45:01Z</time>
      </trkpt>
      <trkpt lat="46.56242" lon="5.99784">
        <ele>958.6</ele>
        <time>2021-11-09T09:45:08Z</time>
      </trkpt>
      <trkpt lat="46.56243" lon="5.99792">
        <ele>957.7</ele>
        <time>2021-11-09T09:45:14Z</time>
      </trkpt>
      <trkpt lat="46.56244" lon="5.998">
        <ele>957.7</ele>
        <time>2021-11-09T09:45:19Z</time>
      </trkpt>
      <trkpt lat="46.56247" lon="5.99806">
        <ele>957.9</ele>
        <time>2021-11-09T09:45:22Z</time>
      </trkpt>
      <trkpt lat="46.56248" lon="5.99813">
        <ele>958.3</ele>
        <time>2021-11-09T09:45:26Z</time>
      </trkpt>
      <trkpt lat="46.56246" lon="5.99819">
        <ele>958.3</ele>
        <time>2021-11-09T09:45:31Z</time>
      </trkpt>
      <trkpt lat="46.56242" lon="5.99824">
        <ele>958.1</ele>
        <time>2021-11-09T09:45:35Z</time>
      </trkpt>
      <trkpt lat="46.56239" lon="5.9983">
        <ele>957.7</ele>
        <time>2021-11-09T09:45:40Z</time>
      </trkpt>
      <trkpt lat="46.56236" lon="5.99836">
        <ele>958.5</ele>
        <time>2021-11-09T09:45:44Z</time>
      </trkpt>
      <trkpt lat="46.56233" lon="5.99841">
        <ele>960</ele>
        <time>2021-11-09T09:45:48Z</time>
      </trkpt>
      <trkpt lat="46.56227" lon="5.99844">
        <ele>961.2</ele>
        <time>2021-11-09T09:45:51Z</time>
      </trkpt>
      <trkpt lat="46.56224" lon="5.9985">
        <ele>962.5</ele>
        <time>2021-11-09T09:45:55Z</time>
      </trkpt>
      <trkpt lat="46.56221" lon="5.99854">
        <ele>962.9</ele>
        <time>2021-11-09T09:45:58Z</time>
      </trkpt>
      <trkpt lat="46.5622" lon="5.99862">
        <ele>963.3</ele>
        <time>2021-11-09T09:46:03Z</time>
      </trkpt>
      <trkpt lat="46.56221" lon="5.99869">
        <ele>964.1</ele>
        <time>2021-11-09T09:46:08Z</time>
      </trkpt>
      <trkpt lat="46.5622" lon="5.99877">
        <ele>964.5</ele>
        <time>2021-11-09T09:46:13Z</time>
      </trkpt>
      <trkpt lat="46.5622" lon="5.99885">
        <ele>964.3</ele>
        <time>2021-11-09T09:46:18Z</time>
      </trkpt>
      <trkpt lat="46.5622" lon="5.99892">
        <ele>964.6</ele>
        <time>2021-11-09T09:46:23Z</time>
      </trkpt>
      <trkpt lat="46.5622" lon="5.99898">
        <ele>965.1</ele>
        <time>2021-11-09T09:46:27Z</time>
      </trkpt>
      <trkpt lat="46.56221" lon="5.99905">
        <ele>965.7</ele>
        <time>2021-11-09T09:46:32Z</time>
      </trkpt>
      <trkpt lat="46.56224" lon="5.99911">
        <ele>966.1</ele>
        <time>2021-11-09T09:46:36Z</time>
      </trkpt>
      <trkpt lat="46.56224" lon="5.99919">
        <ele>967</ele>
        <time>2021-11-09T09:46:41Z</time>
      </trkpt>
      <trkpt lat="46.56222" lon="5.99926">
        <ele>967.7</ele>
        <time>2021-11-09T09:46:47Z</time>
      </trkpt>
      <trkpt lat="46.5622" lon="5.99933">
        <ele>967.9</ele>
        <time>2021-11-09T09:46:52Z</time>
      </trkpt>
      <trkpt lat="46.56219" lon="5.9994">
        <ele>968.1</ele>
        <time>2021-11-09T09:46:57Z</time>
      </trkpt>
      <trkpt lat="46.5622" lon="5.99948">
        <ele>969.1</ele>
        <time>2021-11-09T09:47:01Z</time>
      </trkpt>
      <trkpt lat="46.56223" lon="5.99954">
        <ele>969.7</ele>
        <time>2021-11-09T09:47:04Z</time>
      </trkpt>
      <trkpt lat="46.56225" lon="5.9996">
        <ele>970.8</ele>
        <time>2021-11-09T09:47:08Z</time>
      </trkpt>
      <trkpt lat="46.56228" lon="5.99965">
        <ele>971.2</ele>
        <time>2021-11-09T09:47:13Z</time>
      </trkpt>
      <trkpt lat="46.56228" lon="5.99971">
        <ele>971.1</ele>
        <time>2021-11-09T09:47:19Z</time>
      </trkpt>
      <trkpt lat="46.5623" lon="5.99977">
        <ele>971.1</ele>
        <time>2021-11-09T09:47:23Z</time>
      </trkpt>
      <trkpt lat="46.56234" lon="5.99982">
        <ele>971.8</ele>
        <time>2021-11-09T09:47:27Z</time>
      </trkpt>
      <trkpt lat="46.56237" lon="5.99988">
        <ele>972.1</ele>
        <time>2021-11-09T09:47:33Z</time>
      </trkpt>
      <trkpt lat="46.5624" lon="5.99995">
        <ele>971.6</ele>
        <time>2021-11-09T09:47:38Z</time>
      </trkpt>
      <trkpt lat="46.56244" lon="5.99998">
        <ele>970.7</ele>
        <time>2021-11-09T09:47:41Z</time>
      </trkpt>
      <trkpt lat="46.56245" lon="6.00006">
        <ele>968.9</ele>
        <time>2021-11-09T09:47:46Z</time>
      </trkpt>
      <trkpt lat="46.56245" lon="6.00014">
        <ele>967.3</ele>
        <time>2021-11-09T09:47:51Z</time>
      </trkpt>
      <trkpt lat="46.56247" lon="6.00021">
        <ele>966.5</ele>
        <time>2021-11-09T09:47:55Z</time>
      </trkpt>
      <trkpt lat="46.56249" lon="6.00029">
        <ele>965.9</ele>
        <time>2021-11-09T09:47:58Z</time>
      </trkpt>
      <trkpt lat="46.56248" lon="6.00035">
        <ele>965.8</ele>
        <time>2021-11-09T09:48:01Z</time>
      </trkpt>
      <trkpt lat="46.56245" lon="6.00042">
        <ele>966.3</ele>
        <time>2021-11-09T09:48:05Z</time>
      </trkpt>
      <trkpt lat="46.56243" lon="6.00048">
        <ele>967.3</ele>
        <time>2021-11-09T09:48:09Z</time>
      </trkpt>
      <trkpt lat="46.5624" lon="6.00053">
        <ele>968</ele>
        <time>2021-11-09T09:48:13Z</time>
      </trkpt>
      <trkpt lat="46.5624" lon="6.00061">
        <ele>968.5</ele>
        <time>2021-11-09T09:48:18Z</time>
      </trkpt>
      <trkpt lat="46.56243" lon="6.00067">
        <ele>968.8</ele>
        <time>2021-11-09T09:48:22Z</time>
      </trkpt>
      <trkpt lat="46.56246" lon="6.00073">
        <ele>969.3</ele>
        <time>2021-11-09T09:48:27Z</time>
      </trkpt>
      <trkpt lat="46.56247" lon="6.0008">
        <ele>969.6</ele>
        <time>2021-11-09T09:48:32Z</time>
      </trkpt>
      <trkpt lat="46.56248" lon="6.00086">
        <ele>971</ele>
        <time>2021-11-09T09:48:37Z</time>
      </trkpt>
      <trkpt lat="46.56249" lon="6.00095">
        <ele>972.2</ele>
        <time>2021-11-09T09:48:41Z</time>
      </trkpt>
      <trkpt lat="46.56252" lon="6.00102">
        <ele>973.3</ele>
        <time>2021-11-09T09:48:45Z</time>
      </trkpt>
      <trkpt lat="46.56253" lon="6.00109">
        <ele>974.2</ele>
        <time>2021-11-09T09:48:49Z</time>
      </trkpt>
      <trkpt lat="46.56255" lon="6.00115">
        <ele>975.2</ele>
        <time>2021-11-09T09:48:53Z</time>
      </trkpt>
      <trkpt lat="46.56258" lon="6.00121">
        <ele>975.9</ele>
        <time>2021-11-09T09:48:58Z</time>
      </trkpt>
      <trkpt lat="46.56261" lon="6.00126">
        <ele>976</ele>
        <time>2021-11-09T09:49:05Z</time>
      </trkpt>
      <trkpt lat="46.56258" lon="6.00132">
        <ele>975</ele>
        <time>2021-11-09T09:49:14Z</time>
      </trkpt>
      <trkpt lat="46.56254" lon="6.00137">
        <ele>974.1</ele>
        <time>2021-11-09T09:49:19Z</time>
      </trkpt>
      <trkpt lat="46.5625" lon="6.00142">
        <ele>973.2</ele>
        <time>2021-11-09T09:49:23Z</time>
      </trkpt>
      <trkpt lat="46.56249" lon="6.00149">
        <ele>972.3</ele>
        <time>2021-11-09T09:49:28Z</time>
      </trkpt>
      <trkpt lat="46.56249" lon="6.00157">
        <ele>972</ele>
        <time>2021-11-09T09:49:34Z</time>
      </trkpt>
      <trkpt lat="46.56249" lon="6.00164">
        <ele>972</ele>
        <time>2021-11-09T09:49:40Z</time>
      </trkpt>
      <trkpt lat="46.56246" lon="6.00171">
        <ele>971.9</ele>
        <time>2021-11-09T09:49:47Z</time>
      </trkpt>
      <trkpt lat="46.56243" lon="6.00175">
        <ele>971.7</ele>
        <time>2021-11-09T09:49:50Z</time>
      </trkpt>
      <trkpt lat="46.56241" lon="6.00182">
        <ele>971.1</ele>
        <time>2021-11-09T09:49:55Z</time>
      </trkpt>
      <trkpt lat="46.56243" lon="6.00188">
        <ele>970</ele>
        <time>2021-11-09T09:50:02Z</time>
      </trkpt>
      <trkpt lat="46.56241" lon="6.00195">
        <ele>970.8</ele>
        <time>2021-11-09T09:50:10Z</time>
      </trkpt>
      <trkpt lat="46.56239" lon="6.00201">
        <ele>971.8</ele>
        <time>2021-11-09T09:50:15Z</time>
      </trkpt>
      <trkpt lat="46.56237" lon="6.00208">
        <ele>972.8</ele>
        <time>2021-11-09T09:50:19Z</time>
      </trkpt>
      <trkpt lat="46.56233" lon="6.00214">
        <ele>973.3</ele>
        <time>2021-11-09T09:50:23Z</time>
      </trkpt>
      <trkpt lat="46.56232" lon="6.0022">
        <ele>975.9</ele>
        <time>2021-11-09T09:50:35Z</time>
      </trkpt>
      <trkpt lat="46.56228" lon="6.00223">
        <ele>980.3</ele>
        <time>2021-11-09T09:50:58Z</time>
      </trkpt>
      <trkpt lat="46.56234" lon="6.00224">
        <ele>983</ele>
        <time>2021-11-09T09:51:44Z</time>
      </trkpt>
      <trkpt lat="46.5623" lon="6.0022">
        <ele>977.2</ele>
        <time>2021-11-09T09:52:02Z</time>
      </trkpt>
      <trkpt lat="46.56233" lon="6.00226">
        <ele>977</ele>
        <time>2021-11-09T09:52:06Z</time>
      </trkpt>
      <trkpt lat="46.56228" lon="6.00228">
        <ele>976.9</ele>
        <time>2021-11-09T09:52:15Z</time>
      </trkpt>
      <trkpt lat="46.56223" lon="6.00232">
        <ele>977.8</ele>
        <time>2021-11-09T09:52:24Z</time>
      </trkpt>
      <trkpt lat="46.56218" lon="6.00233">
        <ele>977.1</ele>
        <time>2021-11-09T09:52:27Z</time>
      </trkpt>
      <trkpt lat="46.56213" lon="6.00235">
        <ele>976.6</ele>
        <time>2021-11-09T09:52:30Z</time>
      </trkpt>
      <trkpt lat="46.56207" lon="6.00238">
        <ele>976.5</ele>
        <time>2021-11-09T09:52:33Z</time>
      </trkpt>
      <trkpt lat="46.56202" lon="6.00242">
        <ele>976.8</ele>
        <time>2021-11-09T09:52:36Z</time>
      </trkpt>
      <trkpt lat="46.56199" lon="6.00246">
        <ele>977.3</ele>
        <time>2021-11-09T09:52:40Z</time>
      </trkpt>
      <trkpt lat="46.56199" lon="6.00253">
        <ele>976.8</ele>
        <time>2021-11-09T09:52:49Z</time>
      </trkpt>
      <trkpt lat="46.56204" lon="6.00256">
        <ele>975.1</ele>
        <time>2021-11-09T09:52:56Z</time>
      </trkpt>
      <trkpt lat="46.56206" lon="6.00262">
        <ele>974.3</ele>
        <time>2021-11-09T09:53:02Z</time>
      </trkpt>
      <trkpt lat="46.56204" lon="6.00268">
        <ele>973.8</ele>
        <time>2021-11-09T09:53:07Z</time>
      </trkpt>
      <trkpt lat="46.562" lon="6.00272">
        <ele>973.6</ele>
        <time>2021-11-09T09:53:11Z</time>
      </trkpt>
      <trkpt lat="46.56195" lon="6.00276">
        <ele>973.2</ele>
        <time>2021-11-09T09:53:15Z</time>
      </trkpt>
      <trkpt lat="46.56192" lon="6.00282">
        <ele>972.8</ele>
        <time>2021-11-09T09:53:19Z</time>
      </trkpt>
      <trkpt lat="46.56187" lon="6.00281">
        <ele>972.2</ele>
        <time>2021-11-09T09:53:28Z</time>
      </trkpt>
      <trkpt lat="46.56184" lon="6.00287">
        <ele>967.4</ele>
        <time>2021-11-09T09:54:01Z</time>
      </trkpt>
      <trkpt lat="46.56179" lon="6.00288">
        <ele>967.2</ele>
        <time>2021-11-09T09:54:06Z</time>
      </trkpt>
      <trkpt lat="46.56175" lon="6.00291">
        <ele>966.8</ele>
        <time>2021-11-09T09:54:11Z</time>
      </trkpt>
      <trkpt lat="46.5617" lon="6.00295">
        <ele>966.2</ele>
        <time>2021-11-09T09:54:17Z</time>
      </trkpt>
      <trkpt lat="46.56166" lon="6.00296">
        <ele>966.3</ele>
        <time>2021-11-09T09:54:22Z</time>
      </trkpt>
      <trkpt lat="46.56161" lon="6.00297">
        <ele>966.6</ele>
        <time>2021-11-09T09:54:27Z</time>
      </trkpt>
      <trkpt lat="46.56155" lon="6.00298">
        <ele>968.2</ele>
        <time>2021-11-09T09:54:35Z</time>
      </trkpt>
      <trkpt lat="46.56151" lon="6.003">
        <ele>969</ele>
        <time>2021-11-09T09:54:42Z</time>
      </trkpt>
      <trkpt lat="46.56146" lon="6.00303">
        <ele>969.6</ele>
        <time>2021-11-09T09:54:46Z</time>
      </trkpt>
      <trkpt lat="46.56144" lon="6.00309">
        <ele>969.6</ele>
        <time>2021-11-09T09:54:50Z</time>
      </trkpt>
      <trkpt lat="46.56142" lon="6.00316">
        <ele>968.9</ele>
        <time>2021-11-09T09:54:55Z</time>
      </trkpt>
      <trkpt lat="46.56143" lon="6.00324">
        <ele>968</ele>
        <time>2021-11-09T09:55:00Z</time>
      </trkpt>
      <trkpt lat="46.56145" lon="6.00332">
        <ele>967.5</ele>
        <time>2021-11-09T09:55:04Z</time>
      </trkpt>
      <trkpt lat="46.56148" lon="6.00337">
        <ele>966.6</ele>
        <time>2021-11-09T09:55:09Z</time>
      </trkpt>
      <trkpt lat="46.56149" lon="6.00344">
        <ele>965.1</ele>
        <time>2021-11-09T09:55:16Z</time>
      </trkpt>
      <trkpt lat="46.5615" lon="6.00351">
        <ele>964.3</ele>
        <time>2021-11-09T09:55:23Z</time>
      </trkpt>
      <trkpt lat="46.56148" lon="6.00358">
        <ele>964.7</ele>
        <time>2021-11-09T09:55:28Z</time>
      </trkpt>
      <trkpt lat="46.56145" lon="6.00365">
        <ele>965.2</ele>
        <time>2021-11-09T09:55:32Z</time>
      </trkpt>
      <trkpt lat="46.56143" lon="6.00372">
        <ele>966</ele>
        <time>2021-11-09T09:55:37Z</time>
      </trkpt>
      <trkpt lat="46.56141" lon="6.00379">
        <ele>967</ele>
        <time>2021-11-09T09:55:41Z</time>
      </trkpt>
      <trkpt lat="46.56138" lon="6.00384">
        <ele>968.3</ele>
        <time>2021-11-09T09:55:45Z</time>
      </trkpt>
      <trkpt lat="46.56134" lon="6.0039">
        <ele>970.4</ele>
        <time>2021-11-09T09:55:50Z</time>
      </trkpt>
      <trkpt lat="46.56132" lon="6.00396">
        <ele>971.1</ele>
        <time>2021-11-09T09:55:54Z</time>
      </trkpt>
      <trkpt lat="46.56129" lon="6.00403">
        <ele>972.1</ele>
        <time>2021-11-09T09:55:59Z</time>
      </trkpt>
      <trkpt lat="46.56127" lon="6.00409">
        <ele>973.1</ele>
        <time>2021-11-09T09:56:04Z</time>
      </trkpt>
      <trkpt lat="46.56126" lon="6.00416">
        <ele>974.3</ele>
        <time>2021-11-09T09:56:09Z</time>
      </trkpt>
      <trkpt lat="46.56123" lon="6.00421">
        <ele>975.1</ele>
        <time>2021-11-09T09:56:14Z</time>
      </trkpt>
      <trkpt lat="46.56119" lon="6.00426">
        <ele>975.6</ele>
        <time>2021-11-09T09:56:20Z</time>
      </trkpt>
      <trkpt lat="46.56119" lon="6.00434">
        <ele>977.2</ele>
        <time>2021-11-09T09:56:26Z</time>
      </trkpt>
      <trkpt lat="46.56115" lon="6.0044">
        <ele>978.3</ele>
        <time>2021-11-09T09:56:30Z</time>
      </trkpt>
      <trkpt lat="46.5611" lon="6.00444">
        <ele>979.5</ele>
        <time>2021-11-09T09:56:34Z</time>
      </trkpt>
      <trkpt lat="46.56108" lon="6.0045">
        <ele>980.2</ele>
        <time>2021-11-09T09:56:38Z</time>
      </trkpt>
      <trkpt lat="46.56105" lon="6.00455">
        <ele>980.5</ele>
        <time>2021-11-09T09:56:43Z</time>
      </trkpt>
      <trkpt lat="46.56101" lon="6.0046">
        <ele>980</ele>
        <time>2021-11-09T09:56:48Z</time>
      </trkpt>
      <trkpt lat="46.56098" lon="6.00466">
        <ele>978.8</ele>
        <time>2021-11-09T09:56:54Z</time>
      </trkpt>
      <trkpt lat="46.56096" lon="6.00472">
        <ele>977.8</ele>
        <time>2021-11-09T09:56:59Z</time>
      </trkpt>
      <trkpt lat="46.56093" lon="6.00478">
        <ele>977.3</ele>
        <time>2021-11-09T09:57:04Z</time>
      </trkpt>
      <trkpt lat="46.56091" lon="6.00485">
        <ele>976.4</ele>
        <time>2021-11-09T09:57:10Z</time>
      </trkpt>
      <trkpt lat="46.56087" lon="6.0049">
        <ele>976.4</ele>
        <time>2021-11-09T09:57:15Z</time>
      </trkpt>
      <trkpt lat="46.56084" lon="6.00496">
        <ele>976.9</ele>
        <time>2021-11-09T09:57:20Z</time>
      </trkpt>
      <trkpt lat="46.5608" lon="6.005">
        <ele>977</ele>
        <time>2021-11-09T09:57:25Z</time>
      </trkpt>
      <trkpt lat="46.56076" lon="6.00506">
        <ele>976.4</ele>
        <time>2021-11-09T09:57:31Z</time>
      </trkpt>
      <trkpt lat="46.56071" lon="6.00509">
        <ele>975.4</ele>
        <time>2021-11-09T09:57:37Z</time>
      </trkpt>
      <trkpt lat="46.56067" lon="6.00513">
        <ele>974.3</ele>
        <time>2021-11-09T09:57:42Z</time>
      </trkpt>
      <trkpt lat="46.56063" lon="6.00519">
        <ele>973.4</ele>
        <time>2021-11-09T09:57:47Z</time>
      </trkpt>
      <trkpt lat="46.56062" lon="6.00525">
        <ele>972.8</ele>
        <time>2021-11-09T09:57:52Z</time>
      </trkpt>
      <trkpt lat="46.56062" lon="6.00533">
        <ele>972.7</ele>
        <time>2021-11-09T09:57:57Z</time>
      </trkpt>
      <trkpt lat="46.56059" lon="6.00538">
        <ele>972.3</ele>
        <time>2021-11-09T09:58:04Z</time>
      </trkpt>
      <trkpt lat="46.56057" lon="6.00544">
        <ele>971.1</ele>
        <time>2021-11-09T09:58:10Z</time>
      </trkpt>
      <trkpt lat="46.56055" lon="6.00551">
        <ele>969.9</ele>
        <time>2021-11-09T09:58:16Z</time>
      </trkpt>
      <trkpt lat="46.56054" lon="6.00559">
        <ele>968.9</ele>
        <time>2021-11-09T09:58:21Z</time>
      </trkpt>
      <trkpt lat="46.56051" lon="6.00564">
        <ele>968.7</ele>
        <time>2021-11-09T09:58:25Z</time>
      </trkpt>
      <trkpt lat="46.56047" lon="6.00568">
        <ele>968.8</ele>
        <time>2021-11-09T09:58:28Z</time>
      </trkpt>
      <trkpt lat="46.56041" lon="6.0057">
        <ele>969.4</ele>
        <time>2021-11-09T09:58:32Z</time>
      </trkpt>
      <trkpt lat="46.56036" lon="6.00571">
        <ele>970.1</ele>
        <time>2021-11-09T09:58:37Z</time>
      </trkpt>
      <trkpt lat="46.56031" lon="6.00571">
        <ele>970.7</ele>
        <time>2021-11-09T09:58:42Z</time>
      </trkpt>
      <trkpt lat="46.56026" lon="6.00571">
        <ele>970.8</ele>
        <time>2021-11-09T09:58:47Z</time>
      </trkpt>
      <trkpt lat="46.56021" lon="6.00569">
        <ele>970.6</ele>
        <time>2021-11-09T09:58:52Z</time>
      </trkpt>
      <trkpt lat="46.56016" lon="6.00567">
        <ele>969.8</ele>
        <time>2021-11-09T09:58:58Z</time>
      </trkpt>
      <trkpt lat="46.56011" lon="6.00565">
        <ele>969.1</ele>
        <time>2021-11-09T09:59:04Z</time>
      </trkpt>
      <trkpt lat="46.56006" lon="6.00562">
        <ele>967.9</ele>
        <time>2021-11-09T09:59:12Z</time>
      </trkpt>
      <trkpt lat="46.56001" lon="6.00563">
        <ele>966.7</ele>
        <time>2021-11-09T09:59:18Z</time>
      </trkpt>
      <trkpt lat="46.55996" lon="6.00561">
        <ele>966</ele>
        <time>2021-11-09T09:59:23Z</time>
      </trkpt>
      <trkpt lat="46.55992" lon="6.00562">
        <ele>965.2</ele>
        <time>2021-11-09T09:59:28Z</time>
      </trkpt>
      <trkpt lat="46.55987" lon="6.00562">
        <ele>965.1</ele>
        <time>2021-11-09T09:59:33Z</time>
      </trkpt>
      <trkpt lat="46.55982" lon="6.00562">
        <ele>965.3</ele>
        <time>2021-11-09T09:59:39Z</time>
      </trkpt>
      <trkpt lat="46.55976" lon="6.00562">
        <ele>965.6</ele>
        <time>2021-11-09T09:59:45Z</time>
      </trkpt>
      <trkpt lat="46.55972" lon="6.00563">
        <ele>966</ele>
        <time>2021-11-09T09:59:51Z</time>
      </trkpt>
      <trkpt lat="46.55971" lon="6.00569">
        <ele>965.4</ele>
        <time>2021-11-09T09:59:59Z</time>
      </trkpt>
      <trkpt lat="46.55966" lon="6.00574">
        <ele>964.7</ele>
        <time>2021-11-09T10:00:04Z</time>
      </trkpt>
      <trkpt lat="46.55962" lon="6.00579">
        <ele>963</ele>
        <time>2021-11-09T10:00:11Z</time>
      </trkpt>
      <trkpt lat="46.55957" lon="6.00582">
        <ele>961.3</ele>
        <time>2021-11-09T10:00:16Z</time>
      </trkpt>
      <trkpt lat="46.55953" lon="6.00584">
        <ele>960.2</ele>
        <time>2021-11-09T10:00:20Z</time>
      </trkpt>
      <trkpt lat="46.55949" lon="6.00589">
        <ele>958.8</ele>
        <time>2021-11-09T10:00:25Z</time>
      </trkpt>
      <trkpt lat="46.55946" lon="6.00596">
        <ele>958.8</ele>
        <time>2021-11-09T10:00:30Z</time>
      </trkpt>
      <trkpt lat="46.55944" lon="6.00602">
        <ele>957.8</ele>
        <time>2021-11-09T10:00:37Z</time>
      </trkpt>
      <trkpt lat="46.5594" lon="6.00608">
        <ele>957.5</ele>
        <time>2021-11-09T10:00:44Z</time>
      </trkpt>
      <trkpt lat="46.55937" lon="6.00613">
        <ele>956.8</ele>
        <time>2021-11-09T10:00:50Z</time>
      </trkpt>
      <trkpt lat="46.55933" lon="6.00618">
        <ele>956.1</ele>
        <time>2021-11-09T10:00:55Z</time>
      </trkpt>
      <trkpt lat="46.55929" lon="6.00624">
        <ele>955</ele>
        <time>2021-11-09T10:01:01Z</time>
      </trkpt>
      <trkpt lat="46.55927" lon="6.00631">
        <ele>953.8</ele>
        <time>2021-11-09T10:01:06Z</time>
      </trkpt>
      <trkpt lat="46.55926" lon="6.00638">
        <ele>953</ele>
        <time>2021-11-09T10:01:10Z</time>
      </trkpt>
      <trkpt lat="46.55923" lon="6.00644">
        <ele>951.3</ele>
        <time>2021-11-09T10:01:19Z</time>
      </trkpt>
      <trkpt lat="46.55921" lon="6.00651">
        <ele>950.5</ele>
        <time>2021-11-09T10:01:26Z</time>
      </trkpt>
      <trkpt lat="46.5592" lon="6.00659">
        <ele>950.2</ele>
        <time>2021-11-09T10:01:31Z</time>
      </trkpt>
      <trkpt lat="46.5592" lon="6.00665">
        <ele>950.1</ele>
        <time>2021-11-09T10:01:35Z</time>
      </trkpt>
      <trkpt lat="46.5592" lon="6.00673">
        <ele>950.1</ele>
        <time>2021-11-09T10:01:43Z</time>
      </trkpt>
      <trkpt lat="46.55919" lon="6.0068">
        <ele>950.2</ele>
        <time>2021-11-09T10:01:48Z</time>
      </trkpt>
      <trkpt lat="46.55918" lon="6.00687">
        <ele>950.3</ele>
        <time>2021-11-09T10:01:53Z</time>
      </trkpt>
      <trkpt lat="46.55917" lon="6.00694">
        <ele>950.3</ele>
        <time>2021-11-09T10:01:58Z</time>
      </trkpt>
      <trkpt lat="46.55917" lon="6.00701">
        <ele>950</ele>
        <time>2021-11-09T10:02:04Z</time>
      </trkpt>
      <trkpt lat="46.55916" lon="6.00709">
        <ele>949.9</ele>
        <time>2021-11-09T10:02:09Z</time>
      </trkpt>
      <trkpt lat="46.55916" lon="6.00717">
        <ele>949.8</ele>
        <time>2021-11-09T10:02:14Z</time>
      </trkpt>
      <trkpt lat="46.55917" lon="6.00724">
        <ele>949.8</ele>
        <time>2021-11-09T10:02:19Z</time>
      </trkpt>
      <trkpt lat="46.55917" lon="6.00731">
        <ele>949.8</ele>
        <time>2021-11-09T10:02:23Z</time>
      </trkpt>
      <trkpt lat="46.55918" lon="6.00737">
        <ele>949.6</ele>
        <time>2021-11-09T10:02:27Z</time>
      </trkpt>
      <trkpt lat="46.55919" lon="6.00744">
        <ele>949.6</ele>
        <time>2021-11-09T10:02:33Z</time>
      </trkpt>
      <trkpt lat="46.55918" lon="6.00752">
        <ele>949.5</ele>
        <time>2021-11-09T10:02:39Z</time>
      </trkpt>
      <trkpt lat="46.55919" lon="6.00759">
        <ele>949.1</ele>
        <time>2021-11-09T10:02:44Z</time>
      </trkpt>
      <trkpt lat="46.5592" lon="6.00766">
        <ele>948.6</ele>
        <time>2021-11-09T10:02:50Z</time>
      </trkpt>
      <trkpt lat="46.55921" lon="6.00773">
        <ele>947.8</ele>
        <time>2021-11-09T10:03:00Z</time>
      </trkpt>
      <trkpt lat="46.55921" lon="6.00781">
        <ele>947.5</ele>
        <time>2021-11-09T10:03:05Z</time>
      </trkpt>
      <trkpt lat="46.55921" lon="6.00789">
        <ele>947.2</ele>
        <time>2021-11-09T10:03:10Z</time>
      </trkpt>
      <trkpt lat="46.5592" lon="6.00796">
        <ele>947</ele>
        <time>2021-11-09T10:03:15Z</time>
      </trkpt>
      <trkpt lat="46.55919" lon="6.00803">
        <ele>946.7</ele>
        <time>2021-11-09T10:03:22Z</time>
      </trkpt>
      <trkpt lat="46.55915" lon="6.00808">
        <ele>945.8</ele>
        <time>2021-11-09T10:03:29Z</time>
      </trkpt>
      <trkpt lat="46.55911" lon="6.00809">
        <ele>944.7</ele>
        <time>2021-11-09T10:03:35Z</time>
      </trkpt>
      <trkpt lat="46.55906" lon="6.00811">
        <ele>942.7</ele>
        <time>2021-11-09T10:03:42Z</time>
      </trkpt>
      <trkpt lat="46.55901" lon="6.00814">
        <ele>941.4</ele>
        <time>2021-11-09T10:03:47Z</time>
      </trkpt>
      <trkpt lat="46.55897" lon="6.00818">
        <ele>940.2</ele>
        <time>2021-11-09T10:03:52Z</time>
      </trkpt>
      <trkpt lat="46.55893" lon="6.00821">
        <ele>939.3</ele>
        <time>2021-11-09T10:03:56Z</time>
      </trkpt>
      <trkpt lat="46.55888" lon="6.00823">
        <ele>938.3</ele>
        <time>2021-11-09T10:04:00Z</time>
      </trkpt>
      <trkpt lat="46.55884" lon="6.00825">
        <ele>936.8</ele>
        <time>2021-11-09T10:04:06Z</time>
      </trkpt>
      <trkpt lat="46.55879" lon="6.00828">
        <ele>935.9</ele>
        <time>2021-11-09T10:04:11Z</time>
      </trkpt>
      <trkpt lat="46.55875" lon="6.0083">
        <ele>934.2</ele>
        <time>2021-11-09T10:04:19Z</time>
      </trkpt>
      <trkpt lat="46.55871" lon="6.00834">
        <ele>933.5</ele>
        <time>2021-11-09T10:04:23Z</time>
      </trkpt>
      <trkpt lat="46.55867" lon="6.00838">
        <ele>932.7</ele>
        <time>2021-11-09T10:04:27Z</time>
      </trkpt>
      <trkpt lat="46.55862" lon="6.00841">
        <ele>932</ele>
        <time>2021-11-09T10:04:31Z</time>
      </trkpt>
      <trkpt lat="46.55858" lon="6.00843">
        <ele>931.3</ele>
        <time>2021-11-09T10:04:35Z</time>
      </trkpt>
      <trkpt lat="46.55854" lon="6.00846">
        <ele>930.7</ele>
        <time>2021-11-09T10:04:39Z</time>
      </trkpt>
      <trkpt lat="46.5585" lon="6.0085">
        <ele>930.2</ele>
        <time>2021-11-09T10:04:44Z</time>
      </trkpt>
      <trkpt lat="46.55846" lon="6.00855">
        <ele>930.1</ele>
        <time>2021-11-09T10:04:48Z</time>
      </trkpt>
      <trkpt lat="46.55843" lon="6.0086">
        <ele>929.8</ele>
        <time>2021-11-09T10:04:53Z</time>
      </trkpt>
      <trkpt lat="46.55838" lon="6.00863">
        <ele>929.6</ele>
        <time>2021-11-09T10:04:57Z</time>
      </trkpt>
      <trkpt lat="46.55835" lon="6.00868">
        <ele>929.3</ele>
        <time>2021-11-09T10:05:01Z</time>
      </trkpt>
      <trkpt lat="46.5583" lon="6.00874">
        <ele>929.4</ele>
        <time>2021-11-09T10:05:05Z</time>
      </trkpt>
      <trkpt lat="46.55826" lon="6.00877">
        <ele>929.2</ele>
        <time>2021-11-09T10:05:10Z</time>
      </trkpt>
      <trkpt lat="46.55822" lon="6.00881">
        <ele>929.2</ele>
        <time>2021-11-09T10:05:15Z</time>
      </trkpt>
      <trkpt lat="46.55818" lon="6.00887">
        <ele>928.8</ele>
        <time>2021-11-09T10:05:21Z</time>
      </trkpt>
      <trkpt lat="46.55815" lon="6.00892">
        <ele>928.3</ele>
        <time>2021-11-09T10:05:27Z</time>
      </trkpt>
      <trkpt lat="46.55811" lon="6.00898">
        <ele>928.8</ele>
        <time>2021-11-09T10:05:31Z</time>
      </trkpt>
      <trkpt lat="46.55808" lon="6.00903">
        <ele>929.3</ele>
        <time>2021-11-09T10:05:34Z</time>
      </trkpt>
      <trkpt lat="46.55804" lon="6.00908">
        <ele>929.6</ele>
        <time>2021-11-09T10:05:38Z</time>
      </trkpt>
      <trkpt lat="46.55801" lon="6.00913">
        <ele>929.9</ele>
        <time>2021-11-09T10:05:42Z</time>
      </trkpt>
      <trkpt lat="46.55796" lon="6.00917">
        <ele>930.1</ele>
        <time>2021-11-09T10:05:47Z</time>
      </trkpt>
      <trkpt lat="46.55792" lon="6.00922">
        <ele>930.3</ele>
        <time>2021-11-09T10:05:52Z</time>
      </trkpt>
      <trkpt lat="46.55788" lon="6.00927">
        <ele>930.5</ele>
        <time>2021-11-09T10:05:57Z</time>
      </trkpt>
      <trkpt lat="46.55784" lon="6.00932">
        <ele>930.5</ele>
        <time>2021-11-09T10:06:02Z</time>
      </trkpt>
      <trkpt lat="46.5578" lon="6.00938">
        <ele>930.8</ele>
        <time>2021-11-09T10:06:07Z</time>
      </trkpt>
      <trkpt lat="46.55777" lon="6.00942">
        <ele>931</ele>
        <time>2021-11-09T10:06:12Z</time>
      </trkpt>
      <trkpt lat="46.55776" lon="6.00949">
        <ele>931.4</ele>
        <time>2021-11-09T10:06:17Z</time>
      </trkpt>
      <trkpt lat="46.55773" lon="6.00955">
        <ele>931.8</ele>
        <time>2021-11-09T10:06:21Z</time>
      </trkpt>
      <trkpt lat="46.5577" lon="6.0096">
        <ele>932.3</ele>
        <time>2021-11-09T10:06:25Z</time>
      </trkpt>
      <trkpt lat="46.55767" lon="6.00965">
        <ele>933.2</ele>
        <time>2021-11-09T10:06:31Z</time>
      </trkpt>
      <trkpt lat="46.55764" lon="6.0097">
        <ele>933.1</ele>
        <time>2021-11-09T10:06:39Z</time>
      </trkpt>
      <trkpt lat="46.5576" lon="6.00976">
        <ele>932.8</ele>
        <time>2021-11-09T10:06:44Z</time>
      </trkpt>
      <trkpt lat="46.55758" lon="6.00984">
        <ele>932.5</ele>
        <time>2021-11-09T10:06:48Z</time>
      </trkpt>
      <trkpt lat="46.55755" lon="6.0099">
        <ele>932.9</ele>
        <time>2021-11-09T10:06:51Z</time>
      </trkpt>
      <trkpt lat="46.55752" lon="6.00996">
        <ele>933.8</ele>
        <time>2021-11-09T10:06:55Z</time>
      </trkpt>
      <trkpt lat="46.55749" lon="6.01001">
        <ele>934.2</ele>
        <time>2021-11-09T10:06:59Z</time>
      </trkpt>
      <trkpt lat="46.55745" lon="6.01007">
        <ele>934.9</ele>
        <time>2021-11-09T10:07:04Z</time>
      </trkpt>
      <trkpt lat="46.55743" lon="6.01014">
        <ele>935.3</ele>
        <time>2021-11-09T10:07:09Z</time>
      </trkpt>
      <trkpt lat="46.55741" lon="6.0102">
        <ele>935.5</ele>
        <time>2021-11-09T10:07:13Z</time>
      </trkpt>
      <trkpt lat="46.5574" lon="6.01027">
        <ele>936.1</ele>
        <time>2021-11-09T10:07:18Z</time>
      </trkpt>
      <trkpt lat="46.55738" lon="6.01034">
        <ele>936.9</ele>
        <time>2021-11-09T10:07:23Z</time>
      </trkpt>
      <trkpt lat="46.55736" lon="6.01041">
        <ele>937.5</ele>
        <time>2021-11-09T10:07:28Z</time>
      </trkpt>
      <trkpt lat="46.55732" lon="6.01046">
        <ele>937.6</ele>
        <time>2021-11-09T10:07:34Z</time>
      </trkpt>
      <trkpt lat="46.55731" lon="6.01055">
        <ele>937.6</ele>
        <time>2021-11-09T10:07:39Z</time>
      </trkpt>
      <trkpt lat="46.55728" lon="6.01061">
        <ele>937.5</ele>
        <time>2021-11-09T10:07:44Z</time>
      </trkpt>
      <trkpt lat="46.55725" lon="6.01067">
        <ele>936.9</ele>
        <time>2021-11-09T10:07:49Z</time>
      </trkpt>
      <trkpt lat="46.55722" lon="6.01074">
        <ele>935.7</ele>
        <time>2021-11-09T10:07:55Z</time>
      </trkpt>
      <trkpt lat="46.5572" lon="6.01079">
        <ele>934.4</ele>
        <time>2021-11-09T10:08:01Z</time>
      </trkpt>
      <trkpt lat="46.55718" lon="6.01085">
        <ele>933.8</ele>
        <time>2021-11-09T10:08:06Z</time>
      </trkpt>
      <trkpt lat="46.55717" lon="6.01092">
        <ele>933.8</ele>
        <time>2021-11-09T10:08:10Z</time>
      </trkpt>
      <trkpt lat="46.55714" lon="6.01097">
        <ele>934.5</ele>
        <time>2021-11-09T10:08:14Z</time>
      </trkpt>
      <trkpt lat="46.55712" lon="6.01103">
        <ele>935.6</ele>
        <time>2021-11-09T10:08:19Z</time>
      </trkpt>
      <trkpt lat="46.55708" lon="6.01109">
        <ele>936.1</ele>
        <time>2021-11-09T10:08:23Z</time>
      </trkpt>
      <trkpt lat="46.55705" lon="6.01115">
        <ele>936.7</ele>
        <time>2021-11-09T10:08:27Z</time>
      </trkpt>
      <trkpt lat="46.557" lon="6.01117">
        <ele>937.5</ele>
        <time>2021-11-09T10:08:33Z</time>
      </trkpt>
      <trkpt lat="46.55695" lon="6.01116">
        <ele>937.5</ele>
        <time>2021-11-09T10:08:38Z</time>
      </trkpt>
      <trkpt lat="46.55691" lon="6.01112">
        <ele>936.9</ele>
        <time>2021-11-09T10:08:43Z</time>
      </trkpt>
      <trkpt lat="46.55687" lon="6.01108">
        <ele>936.4</ele>
        <time>2021-11-09T10:08:47Z</time>
      </trkpt>
      <trkpt lat="46.55684" lon="6.01103">
        <ele>935.3</ele>
        <time>2021-11-09T10:08:53Z</time>
      </trkpt>
      <trkpt lat="46.55682" lon="6.01097">
        <ele>935.1</ele>
        <time>2021-11-09T10:09:38Z</time>
      </trkpt>
      <trkpt lat="46.55679" lon="6.01102">
        <ele>934.9</ele>
        <time>2021-11-09T10:09:53Z</time>
      </trkpt>
      <trkpt lat="46.55676" lon="6.01096">
        <ele>934.3</ele>
        <time>2021-11-09T10:10:52Z</time>
      </trkpt>
      <trkpt lat="46.55672" lon="6.01092">
        <ele>934.6</ele>
        <time>2021-11-09T10:10:57Z</time>
      </trkpt>
      <trkpt lat="46.55668" lon="6.01088">
        <ele>935.5</ele>
        <time>2021-11-09T10:11:01Z</time>
      </trkpt>
      <trkpt lat="46.55665" lon="6.01083">
        <ele>937.1</ele>
        <time>2021-11-09T10:11:07Z</time>
      </trkpt>
      <trkpt lat="46.55661" lon="6.01078">
        <ele>938</ele>
        <time>2021-11-09T10:11:12Z</time>
      </trkpt>
      <trkpt lat="46.55657" lon="6.01074">
        <ele>939.6</ele>
        <time>2021-11-09T10:11:19Z</time>
      </trkpt>
      <trkpt lat="46.55653" lon="6.01069">
        <ele>941.1</ele>
        <time>2021-11-09T10:11:25Z</time>
      </trkpt>
      <trkpt lat="46.55649" lon="6.01065">
        <ele>943</ele>
        <time>2021-11-09T10:11:32Z</time>
      </trkpt>
      <trkpt lat="46.55646" lon="6.01059">
        <ele>943.8</ele>
        <time>2021-11-09T10:11:38Z</time>
      </trkpt>
      <trkpt lat="46.55642" lon="6.01056">
        <ele>943.3</ele>
        <time>2021-11-09T10:11:44Z</time>
      </trkpt>
      <trkpt lat="46.55637" lon="6.01054">
        <ele>943</ele>
        <time>2021-11-09T10:11:50Z</time>
      </trkpt>
      <trkpt lat="46.55632" lon="6.01052">
        <ele>943.1</ele>
        <time>2021-11-09T10:11:57Z</time>
      </trkpt>
      <trkpt lat="46.55627" lon="6.01054">
        <ele>942.8</ele>
        <time>2021-11-09T10:12:03Z</time>
      </trkpt>
      <trkpt lat="46.55625" lon="6.01048">
        <ele>940.8</ele>
        <time>2021-11-09T10:12:34Z</time>
      </trkpt>
      <trkpt lat="46.55624" lon="6.01041">
        <ele>940.1</ele>
        <time>2021-11-09T10:12:38Z</time>
      </trkpt>
      <trkpt lat="46.55623" lon="6.01033">
        <ele>939.4</ele>
        <time>2021-11-09T10:12:43Z</time>
      </trkpt>
      <trkpt lat="46.55621" lon="6.01026">
        <ele>939</ele>
        <time>2021-11-09T10:12:48Z</time>
      </trkpt>
      <trkpt lat="46.5562" lon="6.01018">
        <ele>939.5</ele>
        <time>2021-11-09T10:12:53Z</time>
      </trkpt>
      <trkpt lat="46.55618" lon="6.01012">
        <ele>940.6</ele>
        <time>2021-11-09T10:12:59Z</time>
      </trkpt>
      <trkpt lat="46.55617" lon="6.01005">
        <ele>941.1</ele>
        <time>2021-11-09T10:13:07Z</time>
      </trkpt>
      <trkpt lat="46.55615" lon="6.00997">
        <ele>941.3</ele>
        <time>2021-11-09T10:13:12Z</time>
      </trkpt>
      <trkpt lat="46.55615" lon="6.0099">
        <ele>941.2</ele>
        <time>2021-11-09T10:13:15Z</time>
      </trkpt>
      <trkpt lat="46.55614" lon="6.00984">
        <ele>941</ele>
        <time>2021-11-09T10:13:18Z</time>
      </trkpt>
      <trkpt lat="46.55613" lon="6.00977">
        <ele>940.7</ele>
        <time>2021-11-09T10:13:23Z</time>
      </trkpt>
      <trkpt lat="46.55611" lon="6.00969">
        <ele>941.1</ele>
        <time>2021-11-09T10:13:31Z</time>
      </trkpt>
      <trkpt lat="46.55612" lon="6.00963">
        <ele>941.2</ele>
        <time>2021-11-09T10:13:35Z</time>
      </trkpt>
      <trkpt lat="46.55614" lon="6.00957">
        <ele>941.1</ele>
        <time>2021-11-09T10:13:39Z</time>
      </trkpt>
      <trkpt lat="46.55616" lon="6.0095">
        <ele>941</ele>
        <time>2021-11-09T10:13:43Z</time>
      </trkpt>
      <trkpt lat="46.55617" lon="6.00944">
        <ele>941.2</ele>
        <time>2021-11-09T10:13:48Z</time>
      </trkpt>
      <trkpt lat="46.55617" lon="6.00937">
        <ele>941.5</ele>
        <time>2021-11-09T10:13:53Z</time>
      </trkpt>
      <trkpt lat="46.55618" lon="6.00931">
        <ele>942.4</ele>
        <time>2021-11-09T10:13:59Z</time>
      </trkpt>
      <trkpt lat="46.55621" lon="6.00925">
        <ele>943.2</ele>
        <time>2021-11-09T10:14:05Z</time>
      </trkpt>
      <trkpt lat="46.55625" lon="6.00921">
        <ele>943.3</ele>
        <time>2021-11-09T10:14:09Z</time>
      </trkpt>
      <trkpt lat="46.55628" lon="6.00916">
        <ele>942.7</ele>
        <time>2021-11-09T10:14:15Z</time>
      </trkpt>
      <trkpt lat="46.55631" lon="6.00909">
        <ele>941.9</ele>
        <time>2021-11-09T10:14:21Z</time>
      </trkpt>
      <trkpt lat="46.55634" lon="6.00904">
        <ele>940.9</ele>
        <time>2021-11-09T10:14:26Z</time>
      </trkpt>
      <trkpt lat="46.55638" lon="6.00898">
        <ele>940.2</ele>
        <time>2021-11-09T10:14:31Z</time>
      </trkpt>
      <trkpt lat="46.5564" lon="6.00892">
        <ele>939.8</ele>
        <time>2021-11-09T10:14:36Z</time>
      </trkpt>
      <trkpt lat="46.55641" lon="6.00885">
        <ele>938.9</ele>
        <time>2021-11-09T10:14:42Z</time>
      </trkpt>
      <trkpt lat="46.5564" lon="6.00879">
        <ele>938.5</ele>
        <time>2021-11-09T10:14:48Z</time>
      </trkpt>
      <trkpt lat="46.55639" lon="6.00871">
        <ele>938.2</ele>
        <time>2021-11-09T10:14:54Z</time>
      </trkpt>
      <trkpt lat="46.55637" lon="6.00864">
        <ele>938.6</ele>
        <time>2021-11-09T10:14:59Z</time>
      </trkpt>
      <trkpt lat="46.55635" lon="6.00858">
        <ele>938.8</ele>
        <time>2021-11-09T10:15:05Z</time>
      </trkpt>
      <trkpt lat="46.55632" lon="6.00852">
        <ele>938.2</ele>
        <time>2021-11-09T10:15:11Z</time>
      </trkpt>
      <trkpt lat="46.55631" lon="6.00845">
        <ele>937.7</ele>
        <time>2021-11-09T10:15:16Z</time>
      </trkpt>
      <trkpt lat="46.55629" lon="6.00838">
        <ele>937.5</ele>
        <time>2021-11-09T10:15:22Z</time>
      </trkpt>
      <trkpt lat="46.55627" lon="6.00832">
        <ele>937.1</ele>
        <time>2021-11-09T10:15:27Z</time>
      </trkpt>
      <trkpt lat="46.55626" lon="6.00825">
        <ele>936.2</ele>
        <time>2021-11-09T10:15:33Z</time>
      </trkpt>
      <trkpt lat="46.55624" lon="6.00818">
        <ele>935.4</ele>
        <time>2021-11-09T10:15:39Z</time>
      </trkpt>
      <trkpt lat="46.55621" lon="6.00813">
        <ele>935.1</ele>
        <time>2021-11-09T10:15:42Z</time>
      </trkpt>
      <trkpt lat="46.55618" lon="6.00807">
        <ele>934.5</ele>
        <time>2021-11-09T10:15:47Z</time>
      </trkpt>
      <trkpt lat="46.55613" lon="6.00803">
        <ele>934</ele>
        <time>2021-11-09T10:15:51Z</time>
      </trkpt>
      <trkpt lat="46.55608" lon="6.008">
        <ele>933.8</ele>
        <time>2021-11-09T10:15:55Z</time>
      </trkpt>
      <trkpt lat="46.55603" lon="6.00801">
        <ele>933.6</ele>
        <time>2021-11-09T10:16:02Z</time>
      </trkpt>
      <trkpt lat="46.55598" lon="6.00801">
        <ele>933.3</ele>
        <time>2021-11-09T10:16:07Z</time>
      </trkpt>
      <trkpt lat="46.55593" lon="6.00801">
        <ele>933.2</ele>
        <time>2021-11-09T10:16:12Z</time>
      </trkpt>
      <trkpt lat="46.55588" lon="6.00799">
        <ele>932</ele>
        <time>2021-11-09T10:16:21Z</time>
      </trkpt>
      <trkpt lat="46.55583" lon="6.008">
        <ele>931.1</ele>
        <time>2021-11-09T10:16:29Z</time>
      </trkpt>
      <trkpt lat="46.55579" lon="6.008">
        <ele>930.7</ele>
        <time>2021-11-09T10:16:34Z</time>
      </trkpt>
      <trkpt lat="46.55574" lon="6.00801">
        <ele>930.5</ele>
        <time>2021-11-09T10:16:40Z</time>
      </trkpt>
      <trkpt lat="46.55569" lon="6.00804">
        <ele>930.7</ele>
        <time>2021-11-09T10:16:45Z</time>
      </trkpt>
      <trkpt lat="46.55564" lon="6.00808">
        <ele>931</ele>
        <time>2021-11-09T10:16:49Z</time>
      </trkpt>
      <trkpt lat="46.55559" lon="6.00809">
        <ele>931.2</ele>
        <time>2021-11-09T10:16:56Z</time>
      </trkpt>
      <trkpt lat="46.55554" lon="6.00811">
        <ele>931</ele>
        <time>2021-11-09T10:17:02Z</time>
      </trkpt>
      <trkpt lat="46.55549" lon="6.00813">
        <ele>931</ele>
        <time>2021-11-09T10:17:07Z</time>
      </trkpt>
      <trkpt lat="46.55544" lon="6.00815">
        <ele>931.1</ele>
        <time>2021-11-09T10:17:12Z</time>
      </trkpt>
      <trkpt lat="46.5554" lon="6.00818">
        <ele>931</ele>
        <time>2021-11-09T10:17:17Z</time>
      </trkpt>
      <trkpt lat="46.55536" lon="6.00822">
        <ele>930.8</ele>
        <time>2021-11-09T10:17:24Z</time>
      </trkpt>
      <trkpt lat="46.55532" lon="6.00827">
        <ele>930.8</ele>
        <time>2021-11-09T10:17:28Z</time>
      </trkpt>
      <trkpt lat="46.55527" lon="6.0083">
        <ele>931.3</ele>
        <time>2021-11-09T10:17:34Z</time>
      </trkpt>
      <trkpt lat="46.55522" lon="6.00832">
        <ele>931.8</ele>
        <time>2021-11-09T10:17:40Z</time>
      </trkpt>
      <trkpt lat="46.55517" lon="6.00833">
        <ele>931.7</ele>
        <time>2021-11-09T10:17:46Z</time>
      </trkpt>
      <trkpt lat="46.55512" lon="6.00834">
        <ele>931.7</ele>
        <time>2021-11-09T10:17:51Z</time>
      </trkpt>
      <trkpt lat="46.55508" lon="6.00835">
        <ele>931.5</ele>
        <time>2021-11-09T10:17:55Z</time>
      </trkpt>
      <trkpt lat="46.55503" lon="6.00833">
        <ele>931.2</ele>
        <time>2021-11-09T10:18:00Z</time>
      </trkpt>
      <trkpt lat="46.55498" lon="6.00831">
        <ele>931.3</ele>
        <time>2021-11-09T10:18:06Z</time>
      </trkpt>
      <trkpt lat="46.55494" lon="6.00828">
        <ele>931.8</ele>
        <time>2021-11-09T10:18:11Z</time>
      </trkpt>
      <trkpt lat="46.5549" lon="6.00823">
        <ele>932.3</ele>
        <time>2021-11-09T10:18:17Z</time>
      </trkpt>
      <trkpt lat="46.55486" lon="6.0082">
        <ele>932.9</ele>
        <time>2021-11-09T10:18:22Z</time>
      </trkpt>
      <trkpt lat="46.55482" lon="6.0082">
        <ele>933.4</ele>
        <time>2021-11-09T10:18:29Z</time>
      </trkpt>
      <trkpt lat="46.55477" lon="6.00821">
        <ele>933.5</ele>
        <time>2021-11-09T10:18:36Z</time>
      </trkpt>
      <trkpt lat="46.55473" lon="6.00823">
        <ele>932.9</ele>
        <time>2021-11-09T10:18:44Z</time>
      </trkpt>
      <trkpt lat="46.55468" lon="6.00823">
        <ele>932.7</ele>
        <time>2021-11-09T10:18:49Z</time>
      </trkpt>
      <trkpt lat="46.55464" lon="6.00824">
        <ele>932.7</ele>
        <time>2021-11-09T10:18:53Z</time>
      </trkpt>
      <trkpt lat="46.5546" lon="6.00827">
        <ele>932.8</ele>
        <time>2021-11-09T10:18:57Z</time>
      </trkpt>
      <trkpt lat="46.55455" lon="6.00829">
        <ele>932</ele>
        <time>2021-11-09T10:19:02Z</time>
      </trkpt>
      <trkpt lat="46.5545" lon="6.00832">
        <ele>930.8</ele>
        <time>2021-11-09T10:19:10Z</time>
      </trkpt>
      <trkpt lat="46.55446" lon="6.00834">
        <ele>930.1</ele>
        <time>2021-11-09T10:19:17Z</time>
      </trkpt>
      <trkpt lat="46.55442" lon="6.00838">
        <ele>930</ele>
        <time>2021-11-09T10:19:23Z</time>
      </trkpt>
      <trkpt lat="46.55439" lon="6.00843">
        <ele>930.5</ele>
        <time>2021-11-09T10:19:27Z</time>
      </trkpt>
      <trkpt lat="46.55434" lon="6.00845">
        <ele>930.4</ele>
        <time>2021-11-09T10:19:34Z</time>
      </trkpt>
      <trkpt lat="46.5543" lon="6.00848">
        <ele>930.4</ele>
        <time>2021-11-09T10:19:41Z</time>
      </trkpt>
      <trkpt lat="46.55425" lon="6.0085">
        <ele>930.6</ele>
        <time>2021-11-09T10:19:47Z</time>
      </trkpt>
      <trkpt lat="46.5542" lon="6.00851">
        <ele>930.5</ele>
        <time>2021-11-09T10:19:55Z</time>
      </trkpt>
      <trkpt lat="46.55415" lon="6.00851">
        <ele>930.2</ele>
        <time>2021-11-09T10:20:02Z</time>
      </trkpt>
      <trkpt lat="46.5541" lon="6.00854">
        <ele>930</ele>
        <time>2021-11-09T10:20:11Z</time>
      </trkpt>
      <trkpt lat="46.55403" lon="6.00857">
        <ele>929.8</ele>
        <time>2021-11-09T10:20:14Z</time>
      </trkpt>
      <trkpt lat="46.55399" lon="6.00859">
        <ele>929.6</ele>
        <time>2021-11-09T10:20:17Z</time>
      </trkpt>
      <trkpt lat="46.55394" lon="6.0086">
        <ele>929.4</ele>
        <time>2021-11-09T10:20:21Z</time>
      </trkpt>
      <trkpt lat="46.55389" lon="6.00859">
        <ele>928.7</ele>
        <time>2021-11-09T10:20:28Z</time>
      </trkpt>
      <trkpt lat="46.55384" lon="6.00859">
        <ele>928.9</ele>
        <time>2021-11-09T10:20:34Z</time>
      </trkpt>
      <trkpt lat="46.5538" lon="6.0086">
        <ele>929.1</ele>
        <time>2021-11-09T10:20:43Z</time>
      </trkpt>
      <trkpt lat="46.55375" lon="6.00858">
        <ele>928.9</ele>
        <time>2021-11-09T10:20:51Z</time>
      </trkpt>
      <trkpt lat="46.5537" lon="6.00856">
        <ele>928.9</ele>
        <time>2021-11-09T10:20:56Z</time>
      </trkpt>
      <trkpt lat="46.55366" lon="6.00855">
        <ele>928.4</ele>
        <time>2021-11-09T10:21:02Z</time>
      </trkpt>
      <trkpt lat="46.55362" lon="6.00859">
        <ele>928.8</ele>
        <time>2021-11-09T10:21:15Z</time>
      </trkpt>
      <trkpt lat="46.55357" lon="6.00861">
        <ele>928.3</ele>
        <time>2021-11-09T10:24:28Z</time>
      </trkpt>
      <trkpt lat="46.55353" lon="6.00864">
        <ele>928.5</ele>
        <time>2021-11-09T10:24:32Z</time>
      </trkpt>
      <trkpt lat="46.55349" lon="6.00866">
        <ele>929.7</ele>
        <time>2021-11-09T10:24:39Z</time>
      </trkpt>
      <trkpt lat="46.55344" lon="6.00869">
        <ele>930.7</ele>
        <time>2021-11-09T10:24:48Z</time>
      </trkpt>
      <trkpt lat="46.55339" lon="6.00871">
        <ele>930.5</ele>
        <time>2021-11-09T10:24:54Z</time>
      </trkpt>
      <trkpt lat="46.55334" lon="6.00873">
        <ele>929.8</ele>
        <time>2021-11-09T10:25:00Z</time>
      </trkpt>
      <trkpt lat="46.5533" lon="6.00874">
        <ele>929.2</ele>
        <time>2021-11-09T10:25:06Z</time>
      </trkpt>
      <trkpt lat="46.55326" lon="6.00878">
        <ele>928.6</ele>
        <time>2021-11-09T10:25:13Z</time>
      </trkpt>
      <trkpt lat="46.55322" lon="6.00881">
        <ele>928.5</ele>
        <time>2021-11-09T10:25:19Z</time>
      </trkpt>
      <trkpt lat="46.55317" lon="6.00884">
        <ele>928.3</ele>
        <time>2021-11-09T10:25:27Z</time>
      </trkpt>
      <trkpt lat="46.55313" lon="6.00888">
        <ele>927.7</ele>
        <time>2021-11-09T10:25:35Z</time>
      </trkpt>
      <trkpt lat="46.5531" lon="6.00893">
        <ele>927</ele>
        <time>2021-11-09T10:25:41Z</time>
      </trkpt>
      <trkpt lat="46.55305" lon="6.00896">
        <ele>926.3</ele>
        <time>2021-11-09T10:25:47Z</time>
      </trkpt>
      <trkpt lat="46.55301" lon="6.00899">
        <ele>925.6</ele>
        <time>2021-11-09T10:25:54Z</time>
      </trkpt>
      <trkpt lat="46.55296" lon="6.00902">
        <ele>925.5</ele>
        <time>2021-11-09T10:25:59Z</time>
      </trkpt>
      <trkpt lat="46.55291" lon="6.00902">
        <ele>925</ele>
        <time>2021-11-09T10:26:05Z</time>
      </trkpt>
      <trkpt lat="46.55287" lon="6.00904">
        <ele>923.6</ele>
        <time>2021-11-09T10:26:19Z</time>
      </trkpt>
      <trkpt lat="46.55283" lon="6.00907">
        <ele>922.7</ele>
        <time>2021-11-09T10:26:23Z</time>
      </trkpt>
      <trkpt lat="46.5528" lon="6.00914">
        <ele>921.3</ele>
        <time>2021-11-09T10:26:29Z</time>
      </trkpt>
      <trkpt lat="46.55282" lon="6.0092">
        <ele>919.2</ele>
        <time>2021-11-09T10:26:38Z</time>
      </trkpt>
      <trkpt lat="46.55279" lon="6.00927">
        <ele>917</ele>
        <time>2021-11-09T10:26:46Z</time>
      </trkpt>
      <trkpt lat="46.55275" lon="6.00931">
        <ele>915.4</ele>
        <time>2021-11-09T10:26:52Z</time>
      </trkpt>
      <trkpt lat="46.55272" lon="6.00936">
        <ele>913</ele>
        <time>2021-11-09T10:27:01Z</time>
      </trkpt>
      <trkpt lat="46.55268" lon="6.00941">
        <ele>912.1</ele>
        <time>2021-11-09T10:27:07Z</time>
      </trkpt>
      <trkpt lat="46.55264" lon="6.00945">
        <ele>911.2</ele>
        <time>2021-11-09T10:27:14Z</time>
      </trkpt>
      <trkpt lat="46.55263" lon="6.00952">
        <ele>908.1</ele>
        <time>2021-11-09T10:27:25Z</time>
      </trkpt>
      <trkpt lat="46.55262" lon="6.00959">
        <ele>905.5</ele>
        <time>2021-11-09T10:27:34Z</time>
      </trkpt>
      <trkpt lat="46.55261" lon="6.00965">
        <ele>902.4</ele>
        <time>2021-11-09T10:27:42Z</time>
      </trkpt>
      <trkpt lat="46.55258" lon="6.00971">
        <ele>899.1</ele>
        <time>2021-11-09T10:27:51Z</time>
      </trkpt>
      <trkpt lat="46.55254" lon="6.00976">
        <ele>897.7</ele>
        <time>2021-11-09T10:27:57Z</time>
      </trkpt>
      <trkpt lat="46.5525" lon="6.00981">
        <ele>896.5</ele>
        <time>2021-11-09T10:28:03Z</time>
      </trkpt>
      <trkpt lat="46.55246" lon="6.00985">
        <ele>894.6</ele>
        <time>2021-11-09T10:28:09Z</time>
      </trkpt>
      <trkpt lat="46.55242" lon="6.00989">
        <ele>892.7</ele>
        <time>2021-11-09T10:28:15Z</time>
      </trkpt>
      <trkpt lat="46.5524" lon="6.00995">
        <ele>891.4</ele>
        <time>2021-11-09T10:28:21Z</time>
      </trkpt>
      <trkpt lat="46.55237" lon="6.01002">
        <ele>890.8</ele>
        <time>2021-11-09T10:28:26Z</time>
      </trkpt>
      <trkpt lat="46.55233" lon="6.01007">
        <ele>890.3</ele>
        <time>2021-11-09T10:28:31Z</time>
      </trkpt>
      <trkpt lat="46.5523" lon="6.01013">
        <ele>890</ele>
        <time>2021-11-09T10:28:37Z</time>
      </trkpt>
      <trkpt lat="46.55227" lon="6.01018">
        <ele>890.3</ele>
        <time>2021-11-09T10:28:42Z</time>
      </trkpt>
      <trkpt lat="46.55224" lon="6.01024">
        <ele>890.2</ele>
        <time>2021-11-09T10:28:47Z</time>
      </trkpt>
      <trkpt lat="46.55221" lon="6.01029">
        <ele>890.1</ele>
        <time>2021-11-09T10:28:53Z</time>
      </trkpt>
      <trkpt lat="46.55218" lon="6.01035">
        <ele>889.7</ele>
        <time>2021-11-09T10:28:59Z</time>
      </trkpt>
      <trkpt lat="46.55214" lon="6.0104">
        <ele>888.7</ele>
        <time>2021-11-09T10:29:04Z</time>
      </trkpt>
      <trkpt lat="46.55211" lon="6.01045">
        <ele>887.9</ele>
        <time>2021-11-09T10:29:09Z</time>
      </trkpt>
      <trkpt lat="46.55208" lon="6.0105">
        <ele>887.2</ele>
        <time>2021-11-09T10:29:14Z</time>
      </trkpt>
      <trkpt lat="46.55204" lon="6.01055">
        <ele>886.6</ele>
        <time>2021-11-09T10:29:19Z</time>
      </trkpt>
      <trkpt lat="46.55203" lon="6.01063">
        <ele>886.5</ele>
        <time>2021-11-09T10:29:24Z</time>
      </trkpt>
      <trkpt lat="46.552" lon="6.01069">
        <ele>886.4</ele>
        <time>2021-11-09T10:29:29Z</time>
      </trkpt>
      <trkpt lat="46.55197" lon="6.01074">
        <ele>885.9</ele>
        <time>2021-11-09T10:29:33Z</time>
      </trkpt>
      <trkpt lat="46.55195" lon="6.01081">
        <ele>885.2</ele>
        <time>2021-11-09T10:29:38Z</time>
      </trkpt>
      <trkpt lat="46.55192" lon="6.01088">
        <ele>884.3</ele>
        <time>2021-11-09T10:29:43Z</time>
      </trkpt>
      <trkpt lat="46.55188" lon="6.01092">
        <ele>883.3</ele>
        <time>2021-11-09T10:29:48Z</time>
      </trkpt>
      <trkpt lat="46.55184" lon="6.01095">
        <ele>882.4</ele>
        <time>2021-11-09T10:29:52Z</time>
      </trkpt>
      <trkpt lat="46.55179" lon="6.01098">
        <ele>881.3</ele>
        <time>2021-11-09T10:29:56Z</time>
      </trkpt>
      <trkpt lat="46.55176" lon="6.01102">
        <ele>880.4</ele>
        <time>2021-11-09T10:30:00Z</time>
      </trkpt>
      <trkpt lat="46.55172" lon="6.01107">
        <ele>879.5</ele>
        <time>2021-11-09T10:30:05Z</time>
      </trkpt>
      <trkpt lat="46.55167" lon="6.01112">
        <ele>878.6</ele>
        <time>2021-11-09T10:30:10Z</time>
      </trkpt>
      <trkpt lat="46.55165" lon="6.01118">
        <ele>878</ele>
        <time>2021-11-09T10:30:15Z</time>
      </trkpt>
      <trkpt lat="46.55163" lon="6.01124">
        <ele>877.7</ele>
        <time>2021-11-09T10:30:20Z</time>
      </trkpt>
      <trkpt lat="46.55159" lon="6.01131">
        <ele>877.5</ele>
        <time>2021-11-09T10:30:25Z</time>
      </trkpt>
      <trkpt lat="46.55157" lon="6.01137">
        <ele>877.5</ele>
        <time>2021-11-09T10:30:29Z</time>
      </trkpt>
      <trkpt lat="46.55155" lon="6.01142">
        <ele>877.7</ele>
        <time>2021-11-09T10:30:33Z</time>
      </trkpt>
      <trkpt lat="46.55151" lon="6.01148">
        <ele>878</ele>
        <time>2021-11-09T10:30:38Z</time>
      </trkpt>
      <trkpt lat="46.55148" lon="6.01153">
        <ele>878</ele>
        <time>2021-11-09T10:30:43Z</time>
      </trkpt>
      <trkpt lat="46.55145" lon="6.01159">
        <ele>878</ele>
        <time>2021-11-09T10:30:47Z</time>
      </trkpt>
      <trkpt lat="46.55142" lon="6.01165">
        <ele>878.1</ele>
        <time>2021-11-09T10:30:52Z</time>
      </trkpt>
      <trkpt lat="46.5514" lon="6.01171">
        <ele>878.6</ele>
        <time>2021-11-09T10:30:57Z</time>
      </trkpt>
      <trkpt lat="46.55137" lon="6.01176">
        <ele>879.3</ele>
        <time>2021-11-09T10:31:02Z</time>
      </trkpt>
      <trkpt lat="46.55133" lon="6.01181">
        <ele>880.3</ele>
        <time>2021-11-09T10:31:07Z</time>
      </trkpt>
      <trkpt lat="46.55129" lon="6.01185">
        <ele>881.4</ele>
        <time>2021-11-09T10:31:11Z</time>
      </trkpt>
      <trkpt lat="46.55126" lon="6.01191">
        <ele>882.7</ele>
        <time>2021-11-09T10:31:15Z</time>
      </trkpt>
      <trkpt lat="46.55123" lon="6.01197">
        <ele>883.8</ele>
        <time>2021-11-09T10:31:19Z</time>
      </trkpt>
      <trkpt lat="46.55119" lon="6.01202">
        <ele>884.3</ele>
        <time>2021-11-09T10:31:23Z</time>
      </trkpt>
      <trkpt lat="46.55116" lon="6.01207">
        <ele>884.5</ele>
        <time>2021-11-09T10:31:27Z</time>
      </trkpt>
      <trkpt lat="46.55113" lon="6.01213">
        <ele>884.7</ele>
        <time>2021-11-09T10:31:32Z</time>
      </trkpt>
      <trkpt lat="46.55111" lon="6.01219">
        <ele>885</ele>
        <time>2021-11-09T10:31:36Z</time>
      </trkpt>
      <trkpt lat="46.55108" lon="6.01224">
        <ele>884.5</ele>
        <time>2021-11-09T10:31:43Z</time>
      </trkpt>
      <trkpt lat="46.55107" lon="6.01231">
        <ele>886.4</ele>
        <time>2021-11-09T10:32:13Z</time>
      </trkpt>
      <trkpt lat="46.55103" lon="6.01235">
        <ele>886.2</ele>
        <time>2021-11-09T10:32:25Z</time>
      </trkpt>
      <trkpt lat="46.55098" lon="6.01237">
        <ele>885.7</ele>
        <time>2021-11-09T10:32:32Z</time>
      </trkpt>
      <trkpt lat="46.55094" lon="6.01241">
        <ele>885.7</ele>
        <time>2021-11-09T10:32:38Z</time>
      </trkpt>
      <trkpt lat="46.55091" lon="6.01247">
        <ele>885.8</ele>
        <time>2021-11-09T10:32:44Z</time>
      </trkpt>
      <trkpt lat="46.55087" lon="6.01252">
        <ele>885.6</ele>
        <time>2021-11-09T10:32:49Z</time>
      </trkpt>
      <trkpt lat="46.55082" lon="6.01256">
        <ele>885.5</ele>
        <time>2021-11-09T10:32:53Z</time>
      </trkpt>
      <trkpt lat="46.55079" lon="6.01261">
        <ele>885.5</ele>
        <time>2021-11-09T10:32:58Z</time>
      </trkpt>
      <trkpt lat="46.55076" lon="6.01266">
        <ele>885.3</ele>
        <time>2021-11-09T10:33:03Z</time>
      </trkpt>
      <trkpt lat="46.55071" lon="6.01269">
        <ele>885.2</ele>
        <time>2021-11-09T10:33:08Z</time>
      </trkpt>
      <trkpt lat="46.55066" lon="6.01272">
        <ele>885.1</ele>
        <time>2021-11-09T10:33:13Z</time>
      </trkpt>
      <trkpt lat="46.55062" lon="6.01274">
        <ele>885.2</ele>
        <time>2021-11-09T10:33:17Z</time>
      </trkpt>
      <trkpt lat="46.55057" lon="6.01277">
        <ele>885.1</ele>
        <time>2021-11-09T10:33:21Z</time>
      </trkpt>
      <trkpt lat="46.55053" lon="6.0128">
        <ele>885</ele>
        <time>2021-11-09T10:33:25Z</time>
      </trkpt>
      <trkpt lat="46.55049" lon="6.01283">
        <ele>884.2</ele>
        <time>2021-11-09T10:33:30Z</time>
      </trkpt>
      <trkpt lat="46.55044" lon="6.01286">
        <ele>882.3</ele>
        <time>2021-11-09T10:33:36Z</time>
      </trkpt>
      <trkpt lat="46.55039" lon="6.01288">
        <ele>881.1</ele>
        <time>2021-11-09T10:33:40Z</time>
      </trkpt>
      <trkpt lat="46.55037" lon="6.01294">
        <ele>878.4</ele>
        <time>2021-11-09T10:33:50Z</time>
      </trkpt>
      <trkpt lat="46.55033" lon="6.01298">
        <ele>877.1</ele>
        <time>2021-11-09T10:33:56Z</time>
      </trkpt>
      <trkpt lat="46.55028" lon="6.01301">
        <ele>876.1</ele>
        <time>2021-11-09T10:34:00Z</time>
      </trkpt>
      <trkpt lat="46.55024" lon="6.01305">
        <ele>875.2</ele>
        <time>2021-11-09T10:34:05Z</time>
      </trkpt>
      <trkpt lat="46.5502" lon="6.01308">
        <ele>874.2</ele>
        <time>2021-11-09T10:34:09Z</time>
      </trkpt>
      <trkpt lat="46.55018" lon="6.01314">
        <ele>873</ele>
        <time>2021-11-09T10:34:13Z</time>
      </trkpt>
      <trkpt lat="46.55017" lon="6.01321">
        <ele>871.6</ele>
        <time>2021-11-09T10:34:18Z</time>
      </trkpt>
      <trkpt lat="46.5502" lon="6.01326">
        <ele>874.8</ele>
        <time>2021-11-09T10:34:31Z</time>
      </trkpt>
      <trkpt lat="46.55023" lon="6.01332">
        <ele>876.6</ele>
        <time>2021-11-09T10:34:38Z</time>
      </trkpt>
      <trkpt lat="46.55027" lon="6.01337">
        <ele>878.1</ele>
        <time>2021-11-09T10:34:43Z</time>
      </trkpt>
      <trkpt lat="46.55032" lon="6.0134">
        <ele>879.6</ele>
        <time>2021-11-09T10:34:47Z</time>
      </trkpt>
      <trkpt lat="46.55036" lon="6.01345">
        <ele>881</ele>
        <time>2021-11-09T10:34:51Z</time>
      </trkpt>
      <trkpt lat="46.55041" lon="6.01349">
        <ele>881.9</ele>
        <time>2021-11-09T10:34:56Z</time>
      </trkpt>
      <trkpt lat="46.55045" lon="6.01351">
        <ele>882.3</ele>
        <time>2021-11-09T10:35:00Z</time>
      </trkpt>
      <trkpt lat="46.5505" lon="6.01355">
        <ele>882.7</ele>
        <time>2021-11-09T10:35:05Z</time>
      </trkpt>
      <trkpt lat="46.55054" lon="6.0136">
        <ele>883.1</ele>
        <time>2021-11-09T10:35:09Z</time>
      </trkpt>
      <trkpt lat="46.55058" lon="6.01365">
        <ele>883.7</ele>
        <time>2021-11-09T10:35:13Z</time>
      </trkpt>
      <trkpt lat="46.55062" lon="6.0137">
        <ele>884.3</ele>
        <time>2021-11-09T10:35:17Z</time>
      </trkpt>
      <trkpt lat="46.55065" lon="6.01376">
        <ele>885.2</ele>
        <time>2021-11-09T10:35:22Z</time>
      </trkpt>
      <trkpt lat="46.55069" lon="6.0138">
        <ele>885.7</ele>
        <time>2021-11-09T10:35:27Z</time>
      </trkpt>
      <trkpt lat="46.55073" lon="6.01384">
        <ele>885.8</ele>
        <time>2021-11-09T10:35:32Z</time>
      </trkpt>
      <trkpt lat="46.55078" lon="6.01387">
        <ele>885.9</ele>
        <time>2021-11-09T10:35:37Z</time>
      </trkpt>
      <trkpt lat="46.55082" lon="6.01391">
        <ele>886.4</ele>
        <time>2021-11-09T10:35:41Z</time>
      </trkpt>
      <trkpt lat="46.55087" lon="6.01395">
        <ele>887</ele>
        <time>2021-11-09T10:35:45Z</time>
      </trkpt>
      <trkpt lat="46.55092" lon="6.01399">
        <ele>887.7</ele>
        <time>2021-11-09T10:35:49Z</time>
      </trkpt>
      <trkpt lat="46.55097" lon="6.01403">
        <ele>888.3</ele>
        <time>2021-11-09T10:35:53Z</time>
      </trkpt>
      <trkpt lat="46.551" lon="6.01408">
        <ele>888.9</ele>
        <time>2021-11-09T10:35:57Z</time>
      </trkpt>
      <trkpt lat="46.55102" lon="6.01415">
        <ele>889.1</ele>
        <time>2021-11-09T10:36:02Z</time>
      </trkpt>
      <trkpt lat="46.55106" lon="6.01421">
        <ele>888.8</ele>
        <time>2021-11-09T10:36:07Z</time>
      </trkpt>
      <trkpt lat="46.55109" lon="6.01426">
        <ele>888.6</ele>
        <time>2021-11-09T10:36:11Z</time>
      </trkpt>
      <trkpt lat="46.55113" lon="6.01431">
        <ele>888.4</ele>
        <time>2021-11-09T10:36:16Z</time>
      </trkpt>
      <trkpt lat="46.55114" lon="6.01437">
        <ele>887.8</ele>
        <time>2021-11-09T10:36:22Z</time>
      </trkpt>
      <trkpt lat="46.55117" lon="6.01445">
        <ele>887.4</ele>
        <time>2021-11-09T10:36:27Z</time>
      </trkpt>
      <trkpt lat="46.55118" lon="6.01452">
        <ele>886.9</ele>
        <time>2021-11-09T10:36:32Z</time>
      </trkpt>
      <trkpt lat="46.55121" lon="6.0146">
        <ele>886.8</ele>
        <time>2021-11-09T10:36:36Z</time>
      </trkpt>
      <trkpt lat="46.55124" lon="6.01465">
        <ele>886.8</ele>
        <time>2021-11-09T10:36:40Z</time>
      </trkpt>
      <trkpt lat="46.55127" lon="6.01472">
        <ele>887</ele>
        <time>2021-11-09T10:36:47Z</time>
      </trkpt>
      <trkpt lat="46.5513" lon="6.01477">
        <ele>886.5</ele>
        <time>2021-11-09T10:36:52Z</time>
      </trkpt>
      <trkpt lat="46.55133" lon="6.01482">
        <ele>885.8</ele>
        <time>2021-11-09T10:36:56Z</time>
      </trkpt>
      <trkpt lat="46.55138" lon="6.01485">
        <ele>885.2</ele>
        <time>2021-11-09T10:37:01Z</time>
      </trkpt>
      <trkpt lat="46.55142" lon="6.01489">
        <ele>884.8</ele>
        <time>2021-11-09T10:37:06Z</time>
      </trkpt>
      <trkpt lat="46.55147" lon="6.01492">
        <ele>884.9</ele>
        <time>2021-11-09T10:37:12Z</time>
      </trkpt>
      <trkpt lat="46.55151" lon="6.01494">
        <ele>885.1</ele>
        <time>2021-11-09T10:37:16Z</time>
      </trkpt>
      <trkpt lat="46.55156" lon="6.01496">
        <ele>886.1</ele>
        <time>2021-11-09T10:37:28Z</time>
      </trkpt>
      <trkpt lat="46.55161" lon="6.01497">
        <ele>886.5</ele>
        <time>2021-11-09T10:37:33Z</time>
      </trkpt>
      <trkpt lat="46.55166" lon="6.01498">
        <ele>887.3</ele>
        <time>2021-11-09T10:37:38Z</time>
      </trkpt>
      <trkpt lat="46.55171" lon="6.015">
        <ele>887.5</ele>
        <time>2021-11-09T10:37:43Z</time>
      </trkpt>
      <trkpt lat="46.55176" lon="6.01503">
        <ele>887.1</ele>
        <time>2021-11-09T10:37:49Z</time>
      </trkpt>
      <trkpt lat="46.55181" lon="6.01507">
        <ele>886.5</ele>
        <time>2021-11-09T10:37:54Z</time>
      </trkpt>
      <trkpt lat="46.55185" lon="6.01508">
        <ele>887</ele>
        <time>2021-11-09T10:37:59Z</time>
      </trkpt>
      <trkpt lat="46.55191" lon="6.01509">
        <ele>889.1</ele>
        <time>2021-11-09T10:38:04Z</time>
      </trkpt>
      <trkpt lat="46.55196" lon="6.01512">
        <ele>891.4</ele>
        <time>2021-11-09T10:38:09Z</time>
      </trkpt>
      <trkpt lat="46.552" lon="6.01515">
        <ele>892.8</ele>
        <time>2021-11-09T10:38:14Z</time>
      </trkpt>
      <trkpt lat="46.55206" lon="6.01516">
        <ele>893.1</ele>
        <time>2021-11-09T10:38:20Z</time>
      </trkpt>
      <trkpt lat="46.55211" lon="6.01518">
        <ele>893.4</ele>
        <time>2021-11-09T10:38:25Z</time>
      </trkpt>
      <trkpt lat="46.55215" lon="6.01522">
        <ele>893.8</ele>
        <time>2021-11-09T10:38:29Z</time>
      </trkpt>
      <trkpt lat="46.5522" lon="6.01525">
        <ele>894.4</ele>
        <time>2021-11-09T10:38:34Z</time>
      </trkpt>
      <trkpt lat="46.55224" lon="6.01529">
        <ele>895</ele>
        <time>2021-11-09T10:38:39Z</time>
      </trkpt>
      <trkpt lat="46.55229" lon="6.01533">
        <ele>895.4</ele>
        <time>2021-11-09T10:38:44Z</time>
      </trkpt>
      <trkpt lat="46.55233" lon="6.01537">
        <ele>896</ele>
        <time>2021-11-09T10:38:48Z</time>
      </trkpt>
      <trkpt lat="46.55238" lon="6.0154">
        <ele>896.7</ele>
        <time>2021-11-09T10:38:53Z</time>
      </trkpt>
      <trkpt lat="46.55242" lon="6.01544">
        <ele>897.2</ele>
        <time>2021-11-09T10:38:58Z</time>
      </trkpt>
      <trkpt lat="46.55246" lon="6.01549">
        <ele>897.7</ele>
        <time>2021-11-09T10:39:03Z</time>
      </trkpt>
      <trkpt lat="46.5525" lon="6.01552">
        <ele>898</ele>
        <time>2021-11-09T10:39:07Z</time>
      </trkpt>
      <trkpt lat="46.55254" lon="6.01556">
        <ele>898.1</ele>
        <time>2021-11-09T10:39:12Z</time>
      </trkpt>
      <trkpt lat="46.55259" lon="6.0156">
        <ele>897.9</ele>
        <time>2021-11-09T10:39:17Z</time>
      </trkpt>
      <trkpt lat="46.55262" lon="6.01565">
        <ele>897.7</ele>
        <time>2021-11-09T10:39:22Z</time>
      </trkpt>
      <trkpt lat="46.55267" lon="6.01568">
        <ele>896.9</ele>
        <time>2021-11-09T10:39:28Z</time>
      </trkpt>
      <trkpt lat="46.55271" lon="6.01572">
        <ele>896</ele>
        <time>2021-11-09T10:39:34Z</time>
      </trkpt>
      <trkpt lat="46.55275" lon="6.01576">
        <ele>895.5</ele>
        <time>2021-11-09T10:39:39Z</time>
      </trkpt>
      <trkpt lat="46.55279" lon="6.0158">
        <ele>895.7</ele>
        <time>2021-11-09T10:39:43Z</time>
      </trkpt>
      <trkpt lat="46.55283" lon="6.01585">
        <ele>896.2</ele>
        <time>2021-11-09T10:39:47Z</time>
      </trkpt>
      <trkpt lat="46.55287" lon="6.01589">
        <ele>896.7</ele>
        <time>2021-11-09T10:39:51Z</time>
      </trkpt>
      <trkpt lat="46.55291" lon="6.01593">
        <ele>897.3</ele>
        <time>2021-11-09T10:39:56Z</time>
      </trkpt>
      <trkpt lat="46.55295" lon="6.01598">
        <ele>898</ele>
        <time>2021-11-09T10:40:01Z</time>
      </trkpt>
      <trkpt lat="46.55298" lon="6.01603">
        <ele>898.6</ele>
        <time>2021-11-09T10:40:06Z</time>
      </trkpt>
      <trkpt lat="46.55301" lon="6.01609">
        <ele>898.9</ele>
        <time>2021-11-09T10:40:11Z</time>
      </trkpt>
      <trkpt lat="46.55304" lon="6.01614">
        <ele>898.7</ele>
        <time>2021-11-09T10:40:17Z</time>
      </trkpt>
      <trkpt lat="46.55308" lon="6.01617">
        <ele>898.1</ele>
        <time>2021-11-09T10:40:23Z</time>
      </trkpt>
      <trkpt lat="46.55313" lon="6.01618">
        <ele>897.6</ele>
        <time>2021-11-09T10:40:28Z</time>
      </trkpt>
      <trkpt lat="46.55318" lon="6.01619">
        <ele>897.2</ele>
        <time>2021-11-09T10:40:33Z</time>
      </trkpt>
      <trkpt lat="46.55322" lon="6.01624">
        <ele>897.3</ele>
        <time>2021-11-09T10:40:37Z</time>
      </trkpt>
      <trkpt lat="46.55327" lon="6.01626">
        <ele>898</ele>
        <time>2021-11-09T10:40:41Z</time>
      </trkpt>
      <trkpt lat="46.55331" lon="6.01629">
        <ele>898.5</ele>
        <time>2021-11-09T10:40:46Z</time>
      </trkpt>
      <trkpt lat="46.55335" lon="6.01634">
        <ele>898.4</ele>
        <time>2021-11-09T10:40:51Z</time>
      </trkpt>
      <trkpt lat="46.55338" lon="6.01639">
        <ele>898.5</ele>
        <time>2021-11-09T10:40:56Z</time>
      </trkpt>
      <trkpt lat="46.55341" lon="6.01645">
        <ele>898.1</ele>
        <time>2021-11-09T10:41:01Z</time>
      </trkpt>
      <trkpt lat="46.55344" lon="6.0165">
        <ele>897.8</ele>
        <time>2021-11-09T10:41:07Z</time>
      </trkpt>
      <trkpt lat="46.55348" lon="6.01654">
        <ele>898.1</ele>
        <time>2021-11-09T10:41:11Z</time>
      </trkpt>
      <trkpt lat="46.55352" lon="6.01659">
        <ele>898.5</ele>
        <time>2021-11-09T10:41:15Z</time>
      </trkpt>
      <trkpt lat="46.55356" lon="6.01664">
        <ele>899.1</ele>
        <time>2021-11-09T10:41:19Z</time>
      </trkpt>
      <trkpt lat="46.5536" lon="6.01668">
        <ele>899.6</ele>
        <time>2021-11-09T10:41:23Z</time>
      </trkpt>
      <trkpt lat="46.55364" lon="6.01674">
        <ele>899.9</ele>
        <time>2021-11-09T10:41:27Z</time>
      </trkpt>
      <trkpt lat="46.55367" lon="6.01679">
        <ele>900.3</ele>
        <time>2021-11-09T10:41:31Z</time>
      </trkpt>
      <trkpt lat="46.55372" lon="6.01682">
        <ele>900.9</ele>
        <time>2021-11-09T10:41:35Z</time>
      </trkpt>
      <trkpt lat="46.55377" lon="6.01684">
        <ele>901.4</ele>
        <time>2021-11-09T10:41:38Z</time>
      </trkpt>
      <trkpt lat="46.55382" lon="6.01687">
        <ele>901.4</ele>
        <time>2021-11-09T10:41:43Z</time>
      </trkpt>
      <trkpt lat="46.55385" lon="6.01692">
        <ele>901.4</ele>
        <time>2021-11-09T10:41:49Z</time>
      </trkpt>
      <trkpt lat="46.55387" lon="6.01698">
        <ele>902.3</ele>
        <time>2021-11-09T10:41:56Z</time>
      </trkpt>
      <trkpt lat="46.55392" lon="6.01699">
        <ele>903.7</ele>
        <time>2021-11-09T10:42:03Z</time>
      </trkpt>
      <trkpt lat="46.55397" lon="6.01697">
        <ele>904.4</ele>
        <time>2021-11-09T10:42:08Z</time>
      </trkpt>
      <trkpt lat="46.55401" lon="6.01695">
        <ele>904.9</ele>
        <time>2021-11-09T10:42:12Z</time>
      </trkpt>
      <trkpt lat="46.55406" lon="6.01698">
        <ele>906.7</ele>
        <time>2021-11-09T10:42:23Z</time>
      </trkpt>
      <trkpt lat="46.55411" lon="6.017">
        <ele>907.8</ele>
        <time>2021-11-09T10:42:34Z</time>
      </trkpt>
      <trkpt lat="46.55415" lon="6.01703">
        <ele>908.5</ele>
        <time>2021-11-09T10:42:41Z</time>
      </trkpt>
      <trkpt lat="46.55419" lon="6.01707">
        <ele>909.1</ele>
        <time>2021-11-09T10:42:49Z</time>
      </trkpt>
      <trkpt lat="46.55423" lon="6.0171">
        <ele>909.9</ele>
        <time>2021-11-09T10:42:55Z</time>
      </trkpt>
      <trkpt lat="46.55428" lon="6.01711">
        <ele>910.1</ele>
        <time>2021-11-09T10:43:00Z</time>
      </trkpt>
      <trkpt lat="46.55433" lon="6.01713">
        <ele>910.2</ele>
        <time>2021-11-09T10:43:06Z</time>
      </trkpt>
      <trkpt lat="46.55438" lon="6.01716">
        <ele>910.6</ele>
        <time>2021-11-09T10:43:11Z</time>
      </trkpt>
      <trkpt lat="46.55442" lon="6.01718">
        <ele>911.2</ele>
        <time>2021-11-09T10:43:18Z</time>
      </trkpt>
      <trkpt lat="46.55444" lon="6.01724">
        <ele>912</ele>
        <time>2021-11-09T10:43:33Z</time>
      </trkpt>
      <trkpt lat="46.55447" lon="6.0173">
        <ele>911.9</ele>
        <time>2021-11-09T10:43:40Z</time>
      </trkpt>
      <trkpt lat="46.5545" lon="6.01735">
        <ele>912</ele>
        <time>2021-11-09T10:43:46Z</time>
      </trkpt>
      <trkpt lat="46.55453" lon="6.01741">
        <ele>912.5</ele>
        <time>2021-11-09T10:43:52Z</time>
      </trkpt>
      <trkpt lat="46.55455" lon="6.01748">
        <ele>913.6</ele>
        <time>2021-11-09T10:43:58Z</time>
      </trkpt>
      <trkpt lat="46.55458" lon="6.01754">
        <ele>915.3</ele>
        <time>2021-11-09T10:44:04Z</time>
      </trkpt>
      <trkpt lat="46.55463" lon="6.01758">
        <ele>916.5</ele>
        <time>2021-11-09T10:44:09Z</time>
      </trkpt>
      <trkpt lat="46.55466" lon="6.01764">
        <ele>917.6</ele>
        <time>2021-11-09T10:44:15Z</time>
      </trkpt>
      <trkpt lat="46.55468" lon="6.0177">
        <ele>918.5</ele>
        <time>2021-11-09T10:44:25Z</time>
      </trkpt>
      <trkpt lat="46.55472" lon="6.01774">
        <ele>918.6</ele>
        <time>2021-11-09T10:44:35Z</time>
      </trkpt>
      <trkpt lat="46.55476" lon="6.01778">
        <ele>918.7</ele>
        <time>2021-11-09T10:44:41Z</time>
      </trkpt>
      <trkpt lat="46.5548" lon="6.01782">
        <ele>919.2</ele>
        <time>2021-11-09T10:44:47Z</time>
      </trkpt>
      <trkpt lat="46.55484" lon="6.01787">
        <ele>919.8</ele>
        <time>2021-11-09T10:44:52Z</time>
      </trkpt>
      <trkpt lat="46.55487" lon="6.01792">
        <ele>921</ele>
        <time>2021-11-09T10:44:57Z</time>
      </trkpt>
      <trkpt lat="46.55491" lon="6.01797">
        <ele>923.2</ele>
        <time>2021-11-09T10:45:04Z</time>
      </trkpt>
      <trkpt lat="46.55495" lon="6.01801">
        <ele>924.9</ele>
        <time>2021-11-09T10:45:10Z</time>
      </trkpt>
      <trkpt lat="46.55499" lon="6.01805">
        <ele>926.1</ele>
        <time>2021-11-09T10:45:16Z</time>
      </trkpt>
      <trkpt lat="46.55502" lon="6.0181">
        <ele>927.2</ele>
        <time>2021-11-09T10:45:22Z</time>
      </trkpt>
      <trkpt lat="46.55504" lon="6.01816">
        <ele>928.1</ele>
        <time>2021-11-09T10:45:28Z</time>
      </trkpt>
      <trkpt lat="46.55507" lon="6.01823">
        <ele>928.9</ele>
        <time>2021-11-09T10:45:34Z</time>
      </trkpt>
      <trkpt lat="46.5551" lon="6.01828">
        <ele>929.8</ele>
        <time>2021-11-09T10:45:39Z</time>
      </trkpt>
      <trkpt lat="46.55513" lon="6.01833">
        <ele>930.9</ele>
        <time>2021-11-09T10:45:45Z</time>
      </trkpt>
      <trkpt lat="46.55517" lon="6.01838">
        <ele>931.2</ele>
        <time>2021-11-09T10:45:51Z</time>
      </trkpt>
      <trkpt lat="46.55521" lon="6.01843">
        <ele>931.1</ele>
        <time>2021-11-09T10:45:57Z</time>
      </trkpt>
      <trkpt lat="46.55525" lon="6.01847">
        <ele>930.8</ele>
        <time>2021-11-09T10:46:03Z</time>
      </trkpt>
      <trkpt lat="46.55528" lon="6.01853">
        <ele>930.4</ele>
        <time>2021-11-09T10:46:10Z</time>
      </trkpt>
      <trkpt lat="46.55531" lon="6.01859">
        <ele>930.3</ele>
        <time>2021-11-09T10:46:15Z</time>
      </trkpt>
      <trkpt lat="46.55535" lon="6.01864">
        <ele>930.4</ele>
        <time>2021-11-09T10:46:20Z</time>
      </trkpt>
      <trkpt lat="46.55537" lon="6.01869">
        <ele>930.4</ele>
        <time>2021-11-09T10:46:26Z</time>
      </trkpt>
      <trkpt lat="46.55541" lon="6.01874">
        <ele>930.3</ele>
        <time>2021-11-09T10:46:33Z</time>
      </trkpt>
      <trkpt lat="46.55544" lon="6.01879">
        <ele>929.4</ele>
        <time>2021-11-09T10:47:14Z</time>
      </trkpt>
      <trkpt lat="46.55548" lon="6.01884">
        <ele>929.8</ele>
        <time>2021-11-09T10:47:19Z</time>
      </trkpt>
      <trkpt lat="46.55552" lon="6.01889">
        <ele>930.6</ele>
        <time>2021-11-09T10:47:24Z</time>
      </trkpt>
      <trkpt lat="46.55555" lon="6.01894">
        <ele>931.7</ele>
        <time>2021-11-09T10:47:29Z</time>
      </trkpt>
      <trkpt lat="46.5556" lon="6.01898">
        <ele>932.7</ele>
        <time>2021-11-09T10:47:34Z</time>
      </trkpt>
      <trkpt lat="46.55564" lon="6.01902">
        <ele>933.9</ele>
        <time>2021-11-09T10:47:39Z</time>
      </trkpt>
      <trkpt lat="46.55567" lon="6.01908">
        <ele>933.5</ele>
        <time>2021-11-09T10:47:46Z</time>
      </trkpt>
      <trkpt lat="46.55571" lon="6.01912">
        <ele>932.8</ele>
        <time>2021-11-09T10:47:52Z</time>
      </trkpt>
      <trkpt lat="46.55575" lon="6.01915">
        <ele>932.8</ele>
        <time>2021-11-09T10:47:57Z</time>
      </trkpt>
      <trkpt lat="46.55579" lon="6.01919">
        <ele>933</ele>
        <time>2021-11-09T10:48:03Z</time>
      </trkpt>
      <trkpt lat="46.55583" lon="6.01922">
        <ele>933.2</ele>
        <time>2021-11-09T10:48:08Z</time>
      </trkpt>
      <trkpt lat="46.55588" lon="6.01925">
        <ele>933.4</ele>
        <time>2021-11-09T10:48:13Z</time>
      </trkpt>
      <trkpt lat="46.55592" lon="6.01927">
        <ele>933.3</ele>
        <time>2021-11-09T10:48:17Z</time>
      </trkpt>
      <trkpt lat="46.55597" lon="6.0193">
        <ele>933.4</ele>
        <time>2021-11-09T10:48:22Z</time>
      </trkpt>
      <trkpt lat="46.55602" lon="6.01932">
        <ele>933.6</ele>
        <time>2021-11-09T10:48:26Z</time>
      </trkpt>
      <trkpt lat="46.55607" lon="6.01936">
        <ele>933.9</ele>
        <time>2021-11-09T10:48:31Z</time>
      </trkpt>
      <trkpt lat="46.55611" lon="6.0194">
        <ele>934.2</ele>
        <time>2021-11-09T10:48:36Z</time>
      </trkpt>
      <trkpt lat="46.55615" lon="6.01944">
        <ele>934.3</ele>
        <time>2021-11-09T10:48:41Z</time>
      </trkpt>
      <trkpt lat="46.5562" lon="6.01947">
        <ele>934.2</ele>
        <time>2021-11-09T10:48:46Z</time>
      </trkpt>
      <trkpt lat="46.55624" lon="6.01952">
        <ele>933.9</ele>
        <time>2021-11-09T10:48:51Z</time>
      </trkpt>
      <trkpt lat="46.55627" lon="6.01956">
        <ele>933.5</ele>
        <time>2021-11-09T10:48:56Z</time>
      </trkpt>
      <trkpt lat="46.55631" lon="6.0196">
        <ele>933.1</ele>
        <time>2021-11-09T10:49:01Z</time>
      </trkpt>
      <trkpt lat="46.55636" lon="6.01964">
        <ele>932.5</ele>
        <time>2021-11-09T10:49:06Z</time>
      </trkpt>
      <trkpt lat="46.55639" lon="6.01968">
        <ele>931.8</ele>
        <time>2021-11-09T10:49:11Z</time>
      </trkpt>
      <trkpt lat="46.55644" lon="6.01972">
        <ele>931.3</ele>
        <time>2021-11-09T10:49:16Z</time>
      </trkpt>
      <trkpt lat="46.55649" lon="6.01975">
        <ele>931.3</ele>
        <time>2021-11-09T10:49:20Z</time>
      </trkpt>
      <trkpt lat="46.55653" lon="6.01979">
        <ele>931.4</ele>
        <time>2021-11-09T10:49:24Z</time>
      </trkpt>
      <trkpt lat="46.55657" lon="6.01983">
        <ele>931.2</ele>
        <time>2021-11-09T10:49:29Z</time>
      </trkpt>
      <trkpt lat="46.5566" lon="6.01988">
        <ele>930.8</ele>
        <time>2021-11-09T10:49:35Z</time>
      </trkpt>
      <trkpt lat="46.55664" lon="6.01991">
        <ele>930.9</ele>
        <time>2021-11-09T10:49:39Z</time>
      </trkpt>
      <trkpt lat="46.55668" lon="6.01995">
        <ele>931.1</ele>
        <time>2021-11-09T10:49:43Z</time>
      </trkpt>
      <trkpt lat="46.55673" lon="6.01997">
        <ele>931.2</ele>
        <time>2021-11-09T10:49:47Z</time>
      </trkpt>
      <trkpt lat="46.55677" lon="6.02">
        <ele>931.1</ele>
        <time>2021-11-09T10:49:51Z</time>
      </trkpt>
      <trkpt lat="46.55681" lon="6.02005">
        <ele>930.9</ele>
        <time>2021-11-09T10:49:56Z</time>
      </trkpt>
      <trkpt lat="46.55685" lon="6.02009">
        <ele>929.7</ele>
        <time>2021-11-09T10:50:02Z</time>
      </trkpt>
      <trkpt lat="46.55689" lon="6.02013">
        <ele>928.5</ele>
        <time>2021-11-09T10:50:08Z</time>
      </trkpt>
      <trkpt lat="46.55693" lon="6.02016">
        <ele>927.4</ele>
        <time>2021-11-09T10:50:13Z</time>
      </trkpt>
      <trkpt lat="46.55697" lon="6.02019">
        <ele>927</ele>
        <time>2021-11-09T10:50:18Z</time>
      </trkpt>
      <trkpt lat="46.55702" lon="6.02023">
        <ele>927</ele>
        <time>2021-11-09T10:50:23Z</time>
      </trkpt>
      <trkpt lat="46.55706" lon="6.02026">
        <ele>926.9</ele>
        <time>2021-11-09T10:50:27Z</time>
      </trkpt>
      <trkpt lat="46.55711" lon="6.0203">
        <ele>926.5</ele>
        <time>2021-11-09T10:50:32Z</time>
      </trkpt>
      <trkpt lat="46.55715" lon="6.02034">
        <ele>926.4</ele>
        <time>2021-11-09T10:50:37Z</time>
      </trkpt>
      <trkpt lat="46.5572" lon="6.02037">
        <ele>926.1</ele>
        <time>2021-11-09T10:50:42Z</time>
      </trkpt>
      <trkpt lat="46.55725" lon="6.02041">
        <ele>926.2</ele>
        <time>2021-11-09T10:50:47Z</time>
      </trkpt>
      <trkpt lat="46.55729" lon="6.02046">
        <ele>926.8</ele>
        <time>2021-11-09T10:50:53Z</time>
      </trkpt>
      <trkpt lat="46.55733" lon="6.02049">
        <ele>927.4</ele>
        <time>2021-11-09T10:50:57Z</time>
      </trkpt>
      <trkpt lat="46.55738" lon="6.02052">
        <ele>927.9</ele>
        <time>2021-11-09T10:51:02Z</time>
      </trkpt>
      <trkpt lat="46.55742" lon="6.02055">
        <ele>928.1</ele>
        <time>2021-11-09T10:51:08Z</time>
      </trkpt>
      <trkpt lat="46.55746" lon="6.02057">
        <ele>928.2</ele>
        <time>2021-11-09T10:51:14Z</time>
      </trkpt>
      <trkpt lat="46.55751" lon="6.0206">
        <ele>927.3</ele>
        <time>2021-11-09T10:51:21Z</time>
      </trkpt>
      <trkpt lat="46.55754" lon="6.02067">
        <ele>927</ele>
        <time>2021-11-09T10:51:26Z</time>
      </trkpt>
      <trkpt lat="46.55755" lon="6.02073">
        <ele>927.2</ele>
        <time>2021-11-09T10:51:31Z</time>
      </trkpt>
      <trkpt lat="46.55756" lon="6.02081">
        <ele>927.5</ele>
        <time>2021-11-09T10:51:36Z</time>
      </trkpt>
      <trkpt lat="46.55755" lon="6.02088">
        <ele>928</ele>
        <time>2021-11-09T10:51:42Z</time>
      </trkpt>
      <trkpt lat="46.55753" lon="6.02095">
        <ele>928.4</ele>
        <time>2021-11-09T10:51:48Z</time>
      </trkpt>
      <trkpt lat="46.5575" lon="6.021">
        <ele>928.6</ele>
        <time>2021-11-09T10:51:53Z</time>
      </trkpt>
      <trkpt lat="46.55747" lon="6.02106">
        <ele>928.7</ele>
        <time>2021-11-09T10:51:57Z</time>
      </trkpt>
      <trkpt lat="46.55744" lon="6.02111">
        <ele>928.6</ele>
        <time>2021-11-09T10:52:02Z</time>
      </trkpt>
      <trkpt lat="46.55741" lon="6.02117">
        <ele>928.5</ele>
        <time>2021-11-09T10:52:07Z</time>
      </trkpt>
      <trkpt lat="46.55738" lon="6.02122">
        <ele>928.3</ele>
        <time>2021-11-09T10:52:12Z</time>
      </trkpt>
      <trkpt lat="46.55735" lon="6.02129">
        <ele>928.3</ele>
        <time>2021-11-09T10:52:17Z</time>
      </trkpt>
      <trkpt lat="46.55732" lon="6.02136">
        <ele>928.6</ele>
        <time>2021-11-09T10:52:22Z</time>
      </trkpt>
      <trkpt lat="46.5573" lon="6.02143">
        <ele>928.7</ele>
        <time>2021-11-09T10:52:27Z</time>
      </trkpt>
      <trkpt lat="46.55727" lon="6.02149">
        <ele>928.9</ele>
        <time>2021-11-09T10:52:31Z</time>
      </trkpt>
      <trkpt lat="46.55724" lon="6.02155">
        <ele>928.5</ele>
        <time>2021-11-09T10:52:35Z</time>
      </trkpt>
      <trkpt lat="46.55721" lon="6.02161">
        <ele>927.9</ele>
        <time>2021-11-09T10:52:40Z</time>
      </trkpt>
      <trkpt lat="46.55718" lon="6.02166">
        <ele>927.5</ele>
        <time>2021-11-09T10:52:44Z</time>
      </trkpt>
      <trkpt lat="46.55715" lon="6.02173">
        <ele>927.3</ele>
        <time>2021-11-09T10:52:48Z</time>
      </trkpt>
      <trkpt lat="46.55713" lon="6.02179">
        <ele>927.1</ele>
        <time>2021-11-09T10:52:52Z</time>
      </trkpt>
      <trkpt lat="46.5571" lon="6.02185">
        <ele>926.9</ele>
        <time>2021-11-09T10:52:58Z</time>
      </trkpt>
      <trkpt lat="46.55707" lon="6.02191">
        <ele>926.5</ele>
        <time>2021-11-09T10:53:03Z</time>
      </trkpt>
      <trkpt lat="46.55705" lon="6.02198">
        <ele>925.7</ele>
        <time>2021-11-09T10:53:08Z</time>
      </trkpt>
      <trkpt lat="46.55703" lon="6.02205">
        <ele>924.9</ele>
        <time>2021-11-09T10:53:13Z</time>
      </trkpt>
      <trkpt lat="46.557" lon="6.02211">
        <ele>924.4</ele>
        <time>2021-11-09T10:53:18Z</time>
      </trkpt>
      <trkpt lat="46.55698" lon="6.02217">
        <ele>924.1</ele>
        <time>2021-11-09T10:53:22Z</time>
      </trkpt>
      <trkpt lat="46.55695" lon="6.02223">
        <ele>923.8</ele>
        <time>2021-11-09T10:53:26Z</time>
      </trkpt>
      <trkpt lat="46.55693" lon="6.0223">
        <ele>923.5</ele>
        <time>2021-11-09T10:53:30Z</time>
      </trkpt>
      <trkpt lat="46.55691" lon="6.02236">
        <ele>923.1</ele>
        <time>2021-11-09T10:53:34Z</time>
      </trkpt>
      <trkpt lat="46.5569" lon="6.02243">
        <ele>922.7</ele>
        <time>2021-11-09T10:53:38Z</time>
      </trkpt>
      <trkpt lat="46.55687" lon="6.02248">
        <ele>922.4</ele>
        <time>2021-11-09T10:53:43Z</time>
      </trkpt>
      <trkpt lat="46.55685" lon="6.02255">
        <ele>922.5</ele>
        <time>2021-11-09T10:53:48Z</time>
      </trkpt>
      <trkpt lat="46.55684" lon="6.02262">
        <ele>922.5</ele>
        <time>2021-11-09T10:53:53Z</time>
      </trkpt>
      <trkpt lat="46.55684" lon="6.02269">
        <ele>922.5</ele>
        <time>2021-11-09T10:53:59Z</time>
      </trkpt>
      <trkpt lat="46.5568" lon="6.02274">
        <ele>922.1</ele>
        <time>2021-11-09T10:54:09Z</time>
      </trkpt>
      <trkpt lat="46.55675" lon="6.02274">
        <ele>921.8</ele>
        <time>2021-11-09T10:54:14Z</time>
      </trkpt>
      <trkpt lat="46.5567" lon="6.02275">
        <ele>921.7</ele>
        <time>2021-11-09T10:54:19Z</time>
      </trkpt>
      <trkpt lat="46.55666" lon="6.02277">
        <ele>922.2</ele>
        <time>2021-11-09T10:54:26Z</time>
      </trkpt>
      <trkpt lat="46.55662" lon="6.02282">
        <ele>923.2</ele>
        <time>2021-11-09T10:54:34Z</time>
      </trkpt>
      <trkpt lat="46.55659" lon="6.02286">
        <ele>923.7</ele>
        <time>2021-11-09T10:55:03Z</time>
      </trkpt>
      <trkpt lat="46.55654" lon="6.02289">
        <ele>924.1</ele>
        <time>2021-11-09T10:55:09Z</time>
      </trkpt>
      <trkpt lat="46.55658" lon="6.02283">
        <ele>925.3</ele>
        <time>2021-11-09T10:57:52Z</time>
      </trkpt>
      <trkpt lat="46.55666" lon="6.02285">
        <ele>923.2</ele>
        <time>2021-11-09T11:30:08Z</time>
      </trkpt>
      <trkpt lat="46.55662" lon="6.02289">
        <ele>924.1</ele>
        <time>2021-11-09T11:32:21Z</time>
      </trkpt>
      <trkpt lat="46.55661" lon="6.02283">
        <ele>923.3</ele>
        <time>2021-11-09T11:33:01Z</time>
      </trkpt>
      <trkpt lat="46.55666" lon="6.02281">
        <ele>920.6</ele>
        <time>2021-11-09T11:33:35Z</time>
      </trkpt>
      <trkpt lat="46.5567" lon="6.02278">
        <ele>919.1</ele>
        <time>2021-11-09T11:33:44Z</time>
      </trkpt>
      <trkpt lat="46.55675" lon="6.02276">
        <ele>918.9</ele>
        <time>2021-11-09T11:33:49Z</time>
      </trkpt>
      <trkpt lat="46.55679" lon="6.02278">
        <ele>918.5</ele>
        <time>2021-11-09T11:33:54Z</time>
      </trkpt>
      <trkpt lat="46.55684" lon="6.02276">
        <ele>918.3</ele>
        <time>2021-11-09T11:34:00Z</time>
      </trkpt>
      <trkpt lat="46.55688" lon="6.02272">
        <ele>918</ele>
        <time>2021-11-09T11:34:06Z</time>
      </trkpt>
      <trkpt lat="46.5569" lon="6.02265">
        <ele>917.1</ele>
        <time>2021-11-09T11:34:12Z</time>
      </trkpt>
      <trkpt lat="46.55692" lon="6.02258">
        <ele>917</ele>
        <time>2021-11-09T11:34:17Z</time>
      </trkpt>
      <trkpt lat="46.55694" lon="6.02252">
        <ele>916.5</ele>
        <time>2021-11-09T11:34:21Z</time>
      </trkpt>
      <trkpt lat="46.55696" lon="6.02245">
        <ele>916.3</ele>
        <time>2021-11-09T11:34:25Z</time>
      </trkpt>
      <trkpt lat="46.55697" lon="6.02239">
        <ele>916.2</ele>
        <time>2021-11-09T11:34:30Z</time>
      </trkpt>
      <trkpt lat="46.55701" lon="6.02233">
        <ele>915.8</ele>
        <time>2021-11-09T11:34:36Z</time>
      </trkpt>
      <trkpt lat="46.55704" lon="6.02228">
        <ele>915.3</ele>
        <time>2021-11-09T11:34:41Z</time>
      </trkpt>
      <trkpt lat="46.55707" lon="6.02222">
        <ele>915.2</ele>
        <time>2021-11-09T11:34:45Z</time>
      </trkpt>
      <trkpt lat="46.55709" lon="6.02216">
        <ele>915.8</ele>
        <time>2021-11-09T11:34:49Z</time>
      </trkpt>
      <trkpt lat="46.55711" lon="6.02209">
        <ele>917</ele>
        <time>2021-11-09T11:34:53Z</time>
      </trkpt>
      <trkpt lat="46.55713" lon="6.02203">
        <ele>918</ele>
        <time>2021-11-09T11:34:57Z</time>
      </trkpt>
      <trkpt lat="46.55716" lon="6.02198">
        <ele>918.7</ele>
        <time>2021-11-09T11:35:01Z</time>
      </trkpt>
      <trkpt lat="46.55719" lon="6.02192">
        <ele>918.9</ele>
        <time>2021-11-09T11:35:07Z</time>
      </trkpt>
      <trkpt lat="46.55721" lon="6.02186">
        <ele>918.1</ele>
        <time>2021-11-09T11:35:12Z</time>
      </trkpt>
      <trkpt lat="46.55724" lon="6.0218">
        <ele>916.3</ele>
        <time>2021-11-09T11:35:17Z</time>
      </trkpt>
      <trkpt lat="46.55726" lon="6.02173">
        <ele>915.1</ele>
        <time>2021-11-09T11:35:22Z</time>
      </trkpt>
      <trkpt lat="46.55727" lon="6.02167">
        <ele>914.9</ele>
        <time>2021-11-09T11:35:26Z</time>
      </trkpt>
      <trkpt lat="46.5573" lon="6.0216">
        <ele>914.9</ele>
        <time>2021-11-09T11:35:31Z</time>
      </trkpt>
      <trkpt lat="46.55732" lon="6.02154">
        <ele>915.2</ele>
        <time>2021-11-09T11:35:36Z</time>
      </trkpt>
      <trkpt lat="46.55736" lon="6.02148">
        <ele>915.4</ele>
        <time>2021-11-09T11:35:41Z</time>
      </trkpt>
      <trkpt lat="46.55738" lon="6.02141">
        <ele>916</ele>
        <time>2021-11-09T11:35:45Z</time>
      </trkpt>
      <trkpt lat="46.55742" lon="6.02136">
        <ele>916.3</ele>
        <time>2021-11-09T11:35:50Z</time>
      </trkpt>
      <trkpt lat="46.55745" lon="6.0213">
        <ele>917</ele>
        <time>2021-11-09T11:35:54Z</time>
      </trkpt>
      <trkpt lat="46.55748" lon="6.02125">
        <ele>917.5</ele>
        <time>2021-11-09T11:35:58Z</time>
      </trkpt>
      <trkpt lat="46.55751" lon="6.02119">
        <ele>917.7</ele>
        <time>2021-11-09T11:36:04Z</time>
      </trkpt>
      <trkpt lat="46.55753" lon="6.02113">
        <ele>917.2</ele>
        <time>2021-11-09T11:36:09Z</time>
      </trkpt>
      <trkpt lat="46.55756" lon="6.02107">
        <ele>916.6</ele>
        <time>2021-11-09T11:36:14Z</time>
      </trkpt>
      <trkpt lat="46.55759" lon="6.02101">
        <ele>916.3</ele>
        <time>2021-11-09T11:36:18Z</time>
      </trkpt>
      <trkpt lat="46.55763" lon="6.02097">
        <ele>915.7</ele>
        <time>2021-11-09T11:36:22Z</time>
      </trkpt>
      <trkpt lat="46.55767" lon="6.02092">
        <ele>915.1</ele>
        <time>2021-11-09T11:36:28Z</time>
      </trkpt>
      <trkpt lat="46.5577" lon="6.02087">
        <ele>914.1</ele>
        <time>2021-11-09T11:36:34Z</time>
      </trkpt>
      <trkpt lat="46.55775" lon="6.02086">
        <ele>913.8</ele>
        <time>2021-11-09T11:36:39Z</time>
      </trkpt>
      <trkpt lat="46.5578" lon="6.02089">
        <ele>914.3</ele>
        <time>2021-11-09T11:36:44Z</time>
      </trkpt>
      <trkpt lat="46.55784" lon="6.02091">
        <ele>914.3</ele>
        <time>2021-11-09T11:36:49Z</time>
      </trkpt>
      <trkpt lat="46.55789" lon="6.02092">
        <ele>914.6</ele>
        <time>2021-11-09T11:36:53Z</time>
      </trkpt>
      <trkpt lat="46.55794" lon="6.02095">
        <ele>915.1</ele>
        <time>2021-11-09T11:36:57Z</time>
      </trkpt>
      <trkpt lat="46.55798" lon="6.02099">
        <ele>915.2</ele>
        <time>2021-11-09T11:37:02Z</time>
      </trkpt>
      <trkpt lat="46.55803" lon="6.02102">
        <ele>914.7</ele>
        <time>2021-11-09T11:37:07Z</time>
      </trkpt>
      <trkpt lat="46.55807" lon="6.02105">
        <ele>913.4</ele>
        <time>2021-11-09T11:37:12Z</time>
      </trkpt>
      <trkpt lat="46.5581" lon="6.0211">
        <ele>912.6</ele>
        <time>2021-11-09T11:37:17Z</time>
      </trkpt>
      <trkpt lat="46.55816" lon="6.02113">
        <ele>912.6</ele>
        <time>2021-11-09T11:37:22Z</time>
      </trkpt>
      <trkpt lat="46.5582" lon="6.02115">
        <ele>912.7</ele>
        <time>2021-11-09T11:37:26Z</time>
      </trkpt>
      <trkpt lat="46.55825" lon="6.02118">
        <ele>913.2</ele>
        <time>2021-11-09T11:37:31Z</time>
      </trkpt>
      <trkpt lat="46.5583" lon="6.02121">
        <ele>914.1</ele>
        <time>2021-11-09T11:37:36Z</time>
      </trkpt>
      <trkpt lat="46.55834" lon="6.02124">
        <ele>914.6</ele>
        <time>2021-11-09T11:37:40Z</time>
      </trkpt>
      <trkpt lat="46.55838" lon="6.02127">
        <ele>914.9</ele>
        <time>2021-11-09T11:37:45Z</time>
      </trkpt>
      <trkpt lat="46.55843" lon="6.0213">
        <ele>914.8</ele>
        <time>2021-11-09T11:37:50Z</time>
      </trkpt>
      <trkpt lat="46.55848" lon="6.02133">
        <ele>915</ele>
        <time>2021-11-09T11:37:55Z</time>
      </trkpt>
      <trkpt lat="46.55853" lon="6.02136">
        <ele>915.1</ele>
        <time>2021-11-09T11:37:59Z</time>
      </trkpt>
      <trkpt lat="46.55857" lon="6.0214">
        <ele>915.5</ele>
        <time>2021-11-09T11:38:05Z</time>
      </trkpt>
      <trkpt lat="46.55862" lon="6.02143">
        <ele>915.2</ele>
        <time>2021-11-09T11:38:09Z</time>
      </trkpt>
      <trkpt lat="46.55866" lon="6.02145">
        <ele>915.1</ele>
        <time>2021-11-09T11:38:13Z</time>
      </trkpt>
      <trkpt lat="46.55871" lon="6.02149">
        <ele>915.1</ele>
        <time>2021-11-09T11:38:17Z</time>
      </trkpt>
      <trkpt lat="46.55875" lon="6.02152">
        <ele>915.2</ele>
        <time>2021-11-09T11:38:22Z</time>
      </trkpt>
      <trkpt lat="46.5588" lon="6.02155">
        <ele>915.3</ele>
        <time>2021-11-09T11:38:27Z</time>
      </trkpt>
      <trkpt lat="46.55885" lon="6.02157">
        <ele>915.9</ele>
        <time>2021-11-09T11:38:31Z</time>
      </trkpt>
      <trkpt lat="46.55889" lon="6.0216">
        <ele>916.3</ele>
        <time>2021-11-09T11:38:35Z</time>
      </trkpt>
      <trkpt lat="46.55894" lon="6.02163">
        <ele>916</ele>
        <time>2021-11-09T11:38:40Z</time>
      </trkpt>
      <trkpt lat="46.55898" lon="6.02167">
        <ele>916.1</ele>
        <time>2021-11-09T11:38:45Z</time>
      </trkpt>
      <trkpt lat="46.55903" lon="6.02169">
        <ele>916.2</ele>
        <time>2021-11-09T11:38:50Z</time>
      </trkpt>
      <trkpt lat="46.55907" lon="6.02172">
        <ele>916.2</ele>
        <time>2021-11-09T11:38:56Z</time>
      </trkpt>
      <trkpt lat="46.55912" lon="6.02176">
        <ele>916.3</ele>
        <time>2021-11-09T11:39:01Z</time>
      </trkpt>
      <trkpt lat="46.55916" lon="6.02178">
        <ele>916.5</ele>
        <time>2021-11-09T11:39:05Z</time>
      </trkpt>
      <trkpt lat="46.55921" lon="6.0218">
        <ele>917.4</ele>
        <time>2021-11-09T11:39:10Z</time>
      </trkpt>
      <trkpt lat="46.55926" lon="6.02181">
        <ele>918.3</ele>
        <time>2021-11-09T11:39:15Z</time>
      </trkpt>
      <trkpt lat="46.5593" lon="6.02177">
        <ele>919</ele>
        <time>2021-11-09T11:39:22Z</time>
      </trkpt>
      <trkpt lat="46.55935" lon="6.02178">
        <ele>916.6</ele>
        <time>2021-11-09T11:39:47Z</time>
      </trkpt>
      <trkpt lat="46.55938" lon="6.02184">
        <ele>915.6</ele>
        <time>2021-11-09T11:39:53Z</time>
      </trkpt>
      <trkpt lat="46.55943" lon="6.02188">
        <ele>915.4</ele>
        <time>2021-11-09T11:39:58Z</time>
      </trkpt>
      <trkpt lat="46.55947" lon="6.0219">
        <ele>915.9</ele>
        <time>2021-11-09T11:40:02Z</time>
      </trkpt>
      <trkpt lat="46.55952" lon="6.02192">
        <ele>916.5</ele>
        <time>2021-11-09T11:40:06Z</time>
      </trkpt>
      <trkpt lat="46.55958" lon="6.02195">
        <ele>916.8</ele>
        <time>2021-11-09T11:40:10Z</time>
      </trkpt>
      <trkpt lat="46.55962" lon="6.02198">
        <ele>917.1</ele>
        <time>2021-11-09T11:40:14Z</time>
      </trkpt>
      <trkpt lat="46.55967" lon="6.02202">
        <ele>917.8</ele>
        <time>2021-11-09T11:40:19Z</time>
      </trkpt>
      <trkpt lat="46.55971" lon="6.02205">
        <ele>918.2</ele>
        <time>2021-11-09T11:40:23Z</time>
      </trkpt>
      <trkpt lat="46.55976" lon="6.02208">
        <ele>918.2</ele>
        <time>2021-11-09T11:40:28Z</time>
      </trkpt>
      <trkpt lat="46.55981" lon="6.0221">
        <ele>918.2</ele>
        <time>2021-11-09T11:40:32Z</time>
      </trkpt>
      <trkpt lat="46.55985" lon="6.02213">
        <ele>918.3</ele>
        <time>2021-11-09T11:40:36Z</time>
      </trkpt>
      <trkpt lat="46.5599" lon="6.02216">
        <ele>918.4</ele>
        <time>2021-11-09T11:40:40Z</time>
      </trkpt>
      <trkpt lat="46.55995" lon="6.0222">
        <ele>918.5</ele>
        <time>2021-11-09T11:40:45Z</time>
      </trkpt>
      <trkpt lat="46.55999" lon="6.02223">
        <ele>918.5</ele>
        <time>2021-11-09T11:40:49Z</time>
      </trkpt>
      <trkpt lat="46.56003" lon="6.02226">
        <ele>918.4</ele>
        <time>2021-11-09T11:40:54Z</time>
      </trkpt>
      <trkpt lat="46.56008" lon="6.02228">
        <ele>917.9</ele>
        <time>2021-11-09T11:40:59Z</time>
      </trkpt>
      <trkpt lat="46.56013" lon="6.0223">
        <ele>917.4</ele>
        <time>2021-11-09T11:41:03Z</time>
      </trkpt>
      <trkpt lat="46.56018" lon="6.02234">
        <ele>917</ele>
        <time>2021-11-09T11:41:07Z</time>
      </trkpt>
      <trkpt lat="46.56022" lon="6.02238">
        <ele>917</ele>
        <time>2021-11-09T11:41:11Z</time>
      </trkpt>
      <trkpt lat="46.56026" lon="6.02242">
        <ele>917.6</ele>
        <time>2021-11-09T11:41:15Z</time>
      </trkpt>
      <trkpt lat="46.56031" lon="6.02244">
        <ele>917.7</ele>
        <time>2021-11-09T11:41:20Z</time>
      </trkpt>
      <trkpt lat="46.56036" lon="6.02247">
        <ele>917.4</ele>
        <time>2021-11-09T11:41:24Z</time>
      </trkpt>
      <trkpt lat="46.56041" lon="6.0225">
        <ele>917.1</ele>
        <time>2021-11-09T11:41:28Z</time>
      </trkpt>
      <trkpt lat="46.56045" lon="6.02253">
        <ele>917.1</ele>
        <time>2021-11-09T11:41:32Z</time>
      </trkpt>
      <trkpt lat="46.56049" lon="6.02257">
        <ele>917.7</ele>
        <time>2021-11-09T11:41:36Z</time>
      </trkpt>
      <trkpt lat="46.56053" lon="6.02261">
        <ele>918.6</ele>
        <time>2021-11-09T11:41:41Z</time>
      </trkpt>
      <trkpt lat="46.56058" lon="6.02264">
        <ele>919.5</ele>
        <time>2021-11-09T11:41:45Z</time>
      </trkpt>
      <trkpt lat="46.56062" lon="6.02267">
        <ele>920.3</ele>
        <time>2021-11-09T11:41:49Z</time>
      </trkpt>
      <trkpt lat="46.56067" lon="6.02271">
        <ele>921.4</ele>
        <time>2021-11-09T11:41:55Z</time>
      </trkpt>
      <trkpt lat="46.56071" lon="6.02275">
        <ele>921.4</ele>
        <time>2021-11-09T11:42:00Z</time>
      </trkpt>
      <trkpt lat="46.56075" lon="6.02278">
        <ele>922.4</ele>
        <time>2021-11-09T11:42:05Z</time>
      </trkpt>
      <trkpt lat="46.5608" lon="6.0228">
        <ele>923.3</ele>
        <time>2021-11-09T11:42:10Z</time>
      </trkpt>
      <trkpt lat="46.56085" lon="6.02282">
        <ele>924</ele>
        <time>2021-11-09T11:42:14Z</time>
      </trkpt>
      <trkpt lat="46.56089" lon="6.02283">
        <ele>924.5</ele>
        <time>2021-11-09T11:42:18Z</time>
      </trkpt>
      <trkpt lat="46.56094" lon="6.02285">
        <ele>925.2</ele>
        <time>2021-11-09T11:42:24Z</time>
      </trkpt>
      <trkpt lat="46.56099" lon="6.02287">
        <ele>925.2</ele>
        <time>2021-11-09T11:42:28Z</time>
      </trkpt>
      <trkpt lat="46.56104" lon="6.02289">
        <ele>924.6</ele>
        <time>2021-11-09T11:42:32Z</time>
      </trkpt>
      <trkpt lat="46.56108" lon="6.0229">
        <ele>923</ele>
        <time>2021-11-09T11:42:39Z</time>
      </trkpt>
      <trkpt lat="46.56113" lon="6.02291">
        <ele>922.6</ele>
        <time>2021-11-09T11:42:45Z</time>
      </trkpt>
      <trkpt lat="46.56118" lon="6.02293">
        <ele>922</ele>
        <time>2021-11-09T11:42:51Z</time>
      </trkpt>
      <trkpt lat="46.56124" lon="6.02293">
        <ele>921.7</ele>
        <time>2021-11-09T11:42:56Z</time>
      </trkpt>
      <trkpt lat="46.56129" lon="6.02293">
        <ele>921.8</ele>
        <time>2021-11-09T11:43:00Z</time>
      </trkpt>
      <trkpt lat="46.56134" lon="6.02294">
        <ele>921.9</ele>
        <time>2021-11-09T11:43:04Z</time>
      </trkpt>
      <trkpt lat="46.5614" lon="6.02294">
        <ele>922</ele>
        <time>2021-11-09T11:43:09Z</time>
      </trkpt>
      <trkpt lat="46.56144" lon="6.02293">
        <ele>922.5</ele>
        <time>2021-11-09T11:43:13Z</time>
      </trkpt>
      <trkpt lat="46.56149" lon="6.02294">
        <ele>923.6</ele>
        <time>2021-11-09T11:43:18Z</time>
      </trkpt>
      <trkpt lat="46.56154" lon="6.02294">
        <ele>923.4</ele>
        <time>2021-11-09T11:43:24Z</time>
      </trkpt>
      <trkpt lat="46.56159" lon="6.02295">
        <ele>923</ele>
        <time>2021-11-09T11:43:29Z</time>
      </trkpt>
      <trkpt lat="46.56164" lon="6.02293">
        <ele>923.1</ele>
        <time>2021-11-09T11:43:34Z</time>
      </trkpt>
      <trkpt lat="46.56168" lon="6.02293">
        <ele>923.3</ele>
        <time>2021-11-09T11:43:38Z</time>
      </trkpt>
      <trkpt lat="46.56173" lon="6.02292">
        <ele>923.7</ele>
        <time>2021-11-09T11:43:42Z</time>
      </trkpt>
      <trkpt lat="46.56178" lon="6.02291">
        <ele>924</ele>
        <time>2021-11-09T11:43:46Z</time>
      </trkpt>
      <trkpt lat="46.56184" lon="6.0229">
        <ele>924.7</ele>
        <time>2021-11-09T11:43:51Z</time>
      </trkpt>
      <trkpt lat="46.56189" lon="6.02289">
        <ele>925.4</ele>
        <time>2021-11-09T11:43:56Z</time>
      </trkpt>
      <trkpt lat="46.56194" lon="6.02289">
        <ele>925.7</ele>
        <time>2021-11-09T11:44:01Z</time>
      </trkpt>
      <trkpt lat="46.56199" lon="6.02289">
        <ele>925.3</ele>
        <time>2021-11-09T11:44:05Z</time>
      </trkpt>
      <trkpt lat="46.56204" lon="6.0229">
        <ele>925.6</ele>
        <time>2021-11-09T11:44:09Z</time>
      </trkpt>
      <trkpt lat="46.56209" lon="6.0229">
        <ele>925.9</ele>
        <time>2021-11-09T11:44:14Z</time>
      </trkpt>
      <trkpt lat="46.56214" lon="6.02291">
        <ele>925.7</ele>
        <time>2021-11-09T11:44:19Z</time>
      </trkpt>
      <trkpt lat="46.56219" lon="6.02293">
        <ele>925.3</ele>
        <time>2021-11-09T11:44:24Z</time>
      </trkpt>
      <trkpt lat="46.56224" lon="6.02294">
        <ele>925.6</ele>
        <time>2021-11-09T11:44:29Z</time>
      </trkpt>
      <trkpt lat="46.56228" lon="6.02295">
        <ele>926.1</ele>
        <time>2021-11-09T11:44:34Z</time>
      </trkpt>
      <trkpt lat="46.56233" lon="6.02295">
        <ele>926.4</ele>
        <time>2021-11-09T11:44:40Z</time>
      </trkpt>
      <trkpt lat="46.56238" lon="6.02295">
        <ele>926.5</ele>
        <time>2021-11-09T11:44:44Z</time>
      </trkpt>
      <trkpt lat="46.56243" lon="6.02294">
        <ele>926.5</ele>
        <time>2021-11-09T11:44:48Z</time>
      </trkpt>
      <trkpt lat="46.56248" lon="6.02293">
        <ele>927</ele>
        <time>2021-11-09T11:44:52Z</time>
      </trkpt>
      <trkpt lat="46.56253" lon="6.02292">
        <ele>927.7</ele>
        <time>2021-11-09T11:44:57Z</time>
      </trkpt>
      <trkpt lat="46.56258" lon="6.02291">
        <ele>928.6</ele>
        <time>2021-11-09T11:45:02Z</time>
      </trkpt>
      <trkpt lat="46.56263" lon="6.02291">
        <ele>929.8</ele>
        <time>2021-11-09T11:45:07Z</time>
      </trkpt>
      <trkpt lat="46.56267" lon="6.02288">
        <ele>930.9</ele>
        <time>2021-11-09T11:45:13Z</time>
      </trkpt>
      <trkpt lat="46.56272" lon="6.02287">
        <ele>931.5</ele>
        <time>2021-11-09T11:45:17Z</time>
      </trkpt>
      <trkpt lat="46.56277" lon="6.02285">
        <ele>931.9</ele>
        <time>2021-11-09T11:45:22Z</time>
      </trkpt>
      <trkpt lat="46.56282" lon="6.02286">
        <ele>932.9</ele>
        <time>2021-11-09T11:45:28Z</time>
      </trkpt>
      <trkpt lat="46.56286" lon="6.02288">
        <ele>933.6</ele>
        <time>2021-11-09T11:45:32Z</time>
      </trkpt>
      <trkpt lat="46.5629" lon="6.02291">
        <ele>933.7</ele>
        <time>2021-11-09T11:45:38Z</time>
      </trkpt>
      <trkpt lat="46.56295" lon="6.02295">
        <ele>933.2</ele>
        <time>2021-11-09T11:45:44Z</time>
      </trkpt>
      <trkpt lat="46.56299" lon="6.023">
        <ele>932.4</ele>
        <time>2021-11-09T11:45:49Z</time>
      </trkpt>
      <trkpt lat="46.56303" lon="6.02305">
        <ele>931.7</ele>
        <time>2021-11-09T11:45:54Z</time>
      </trkpt>
      <trkpt lat="46.56306" lon="6.02311">
        <ele>931.5</ele>
        <time>2021-11-09T11:45:59Z</time>
      </trkpt>
      <trkpt lat="46.56308" lon="6.02319">
        <ele>931.9</ele>
        <time>2021-11-09T11:46:05Z</time>
      </trkpt>
      <trkpt lat="46.56308" lon="6.02326">
        <ele>931.9</ele>
        <time>2021-11-09T11:46:10Z</time>
      </trkpt>
      <trkpt lat="46.5631" lon="6.02333">
        <ele>931.7</ele>
        <time>2021-11-09T11:46:15Z</time>
      </trkpt>
      <trkpt lat="46.5631" lon="6.02341">
        <ele>931.5</ele>
        <time>2021-11-09T11:46:20Z</time>
      </trkpt>
      <trkpt lat="46.56312" lon="6.02348">
        <ele>931.5</ele>
        <time>2021-11-09T11:46:24Z</time>
      </trkpt>
      <trkpt lat="46.56314" lon="6.02354">
        <ele>931.5</ele>
        <time>2021-11-09T11:46:28Z</time>
      </trkpt>
      <trkpt lat="46.56315" lon="6.02361">
        <ele>931.3</ele>
        <time>2021-11-09T11:46:32Z</time>
      </trkpt>
      <trkpt lat="46.56316" lon="6.02368">
        <ele>931.4</ele>
        <time>2021-11-09T11:46:36Z</time>
      </trkpt>
      <trkpt lat="46.56316" lon="6.02375">
        <ele>932.1</ele>
        <time>2021-11-09T11:46:41Z</time>
      </trkpt>
      <trkpt lat="46.56317" lon="6.02383">
        <ele>932.5</ele>
        <time>2021-11-09T11:46:46Z</time>
      </trkpt>
      <trkpt lat="46.56317" lon="6.02389">
        <ele>932.7</ele>
        <time>2021-11-09T11:46:50Z</time>
      </trkpt>
      <trkpt lat="46.56318" lon="6.02396">
        <ele>933.9</ele>
        <time>2021-11-09T11:46:55Z</time>
      </trkpt>
      <trkpt lat="46.56319" lon="6.02403">
        <ele>934.8</ele>
        <time>2021-11-09T11:47:02Z</time>
      </trkpt>
      <trkpt lat="46.5632" lon="6.02409">
        <ele>934.8</ele>
        <time>2021-11-09T11:47:07Z</time>
      </trkpt>
      <trkpt lat="46.56321" lon="6.02416">
        <ele>935.1</ele>
        <time>2021-11-09T11:47:12Z</time>
      </trkpt>
      <trkpt lat="46.56321" lon="6.02423">
        <ele>935.2</ele>
        <time>2021-11-09T11:47:19Z</time>
      </trkpt>
      <trkpt lat="46.5632" lon="6.0243">
        <ele>935.3</ele>
        <time>2021-11-09T11:47:24Z</time>
      </trkpt>
      <trkpt lat="46.5632" lon="6.02436">
        <ele>935.2</ele>
        <time>2021-11-09T11:47:30Z</time>
      </trkpt>
      <trkpt lat="46.5632" lon="6.02443">
        <ele>935.8</ele>
        <time>2021-11-09T11:47:34Z</time>
      </trkpt>
      <trkpt lat="46.56322" lon="6.0245">
        <ele>936.3</ele>
        <time>2021-11-09T11:47:38Z</time>
      </trkpt>
      <trkpt lat="46.56324" lon="6.02457">
        <ele>937.4</ele>
        <time>2021-11-09T11:47:43Z</time>
      </trkpt>
      <trkpt lat="46.56325" lon="6.02463">
        <ele>938.9</ele>
        <time>2021-11-09T11:47:48Z</time>
      </trkpt>
      <trkpt lat="46.56326" lon="6.0247">
        <ele>940.2</ele>
        <time>2021-11-09T11:47:53Z</time>
      </trkpt>
      <trkpt lat="46.56327" lon="6.02477">
        <ele>940.6</ele>
        <time>2021-11-09T11:47:58Z</time>
      </trkpt>
      <trkpt lat="46.56329" lon="6.02484">
        <ele>940.7</ele>
        <time>2021-11-09T11:48:04Z</time>
      </trkpt>
      <trkpt lat="46.56332" lon="6.02489">
        <ele>940.3</ele>
        <time>2021-11-09T11:48:09Z</time>
      </trkpt>
      <trkpt lat="46.56334" lon="6.02496">
        <ele>939.7</ele>
        <time>2021-11-09T11:48:15Z</time>
      </trkpt>
      <trkpt lat="46.56336" lon="6.02502">
        <ele>939.5</ele>
        <time>2021-11-09T11:48:20Z</time>
      </trkpt>
      <trkpt lat="46.5634" lon="6.02507">
        <ele>939.4</ele>
        <time>2021-11-09T11:48:25Z</time>
      </trkpt>
      <trkpt lat="46.56342" lon="6.02514">
        <ele>939.5</ele>
        <time>2021-11-09T11:48:31Z</time>
      </trkpt>
      <trkpt lat="46.56346" lon="6.02519">
        <ele>939.5</ele>
        <time>2021-11-09T11:48:37Z</time>
      </trkpt>
      <trkpt lat="46.56351" lon="6.02523">
        <ele>939.9</ele>
        <time>2021-11-09T11:48:42Z</time>
      </trkpt>
      <trkpt lat="46.56355" lon="6.02526">
        <ele>940.8</ele>
        <time>2021-11-09T11:48:47Z</time>
      </trkpt>
      <trkpt lat="46.56358" lon="6.0253">
        <ele>941.9</ele>
        <time>2021-11-09T11:48:52Z</time>
      </trkpt>
      <trkpt lat="46.56362" lon="6.02535">
        <ele>942.9</ele>
        <time>2021-11-09T11:48:56Z</time>
      </trkpt>
      <trkpt lat="46.56366" lon="6.0254">
        <ele>943.4</ele>
        <time>2021-11-09T11:49:00Z</time>
      </trkpt>
      <trkpt lat="46.5637" lon="6.02544">
        <ele>943.8</ele>
        <time>2021-11-09T11:49:05Z</time>
      </trkpt>
      <trkpt lat="46.56373" lon="6.0255">
        <ele>944.1</ele>
        <time>2021-11-09T11:49:11Z</time>
      </trkpt>
      <trkpt lat="46.56376" lon="6.02555">
        <ele>944.4</ele>
        <time>2021-11-09T11:49:17Z</time>
      </trkpt>
      <trkpt lat="46.5638" lon="6.02559">
        <ele>945.2</ele>
        <time>2021-11-09T11:49:22Z</time>
      </trkpt>
      <trkpt lat="46.56384" lon="6.02562">
        <ele>946.6</ele>
        <time>2021-11-09T11:49:27Z</time>
      </trkpt>
      <trkpt lat="46.56389" lon="6.02565">
        <ele>948.5</ele>
        <time>2021-11-09T11:49:33Z</time>
      </trkpt>
      <trkpt lat="46.56393" lon="6.02567">
        <ele>950.2</ele>
        <time>2021-11-09T11:49:38Z</time>
      </trkpt>
      <trkpt lat="46.56397" lon="6.0257">
        <ele>952.2</ele>
        <time>2021-11-09T11:49:45Z</time>
      </trkpt>
      <trkpt lat="46.56401" lon="6.02575">
        <ele>953.4</ele>
        <time>2021-11-09T11:49:51Z</time>
      </trkpt>
      <trkpt lat="46.56405" lon="6.02578">
        <ele>954</ele>
        <time>2021-11-09T11:49:55Z</time>
      </trkpt>
      <trkpt lat="46.56409" lon="6.02582">
        <ele>954.9</ele>
        <time>2021-11-09T11:50:01Z</time>
      </trkpt>
      <trkpt lat="46.56413" lon="6.02585">
        <ele>956.3</ele>
        <time>2021-11-09T11:50:08Z</time>
      </trkpt>
      <trkpt lat="46.56418" lon="6.02588">
        <ele>956.7</ele>
        <time>2021-11-09T11:50:13Z</time>
      </trkpt>
      <trkpt lat="46.56423" lon="6.0259">
        <ele>957.2</ele>
        <time>2021-11-09T11:50:17Z</time>
      </trkpt>
      <trkpt lat="46.56429" lon="6.02591">
        <ele>957.5</ele>
        <time>2021-11-09T11:50:21Z</time>
      </trkpt>
      <trkpt lat="46.56434" lon="6.02593">
        <ele>958</ele>
        <time>2021-11-09T11:50:25Z</time>
      </trkpt>
      <trkpt lat="46.56439" lon="6.02595">
        <ele>958.2</ele>
        <time>2021-11-09T11:50:30Z</time>
      </trkpt>
      <trkpt lat="46.56443" lon="6.02596">
        <ele>958.3</ele>
        <time>2021-11-09T11:50:35Z</time>
      </trkpt>
      <trkpt lat="46.56448" lon="6.02596">
        <ele>958</ele>
        <time>2021-11-09T11:50:42Z</time>
      </trkpt>
      <trkpt lat="46.56453" lon="6.02597">
        <ele>957.3</ele>
        <time>2021-11-09T11:50:48Z</time>
      </trkpt>
      <trkpt lat="46.56457" lon="6.026">
        <ele>956.6</ele>
        <time>2021-11-09T11:50:53Z</time>
      </trkpt>
      <trkpt lat="46.56462" lon="6.02602">
        <ele>956.4</ele>
        <time>2021-11-09T11:50:59Z</time>
      </trkpt>
      <trkpt lat="46.56466" lon="6.02605">
        <ele>956.6</ele>
        <time>2021-11-09T11:51:04Z</time>
      </trkpt>
      <trkpt lat="46.56471" lon="6.02608">
        <ele>956.8</ele>
        <time>2021-11-09T11:51:08Z</time>
      </trkpt>
      <trkpt lat="46.56474" lon="6.02614">
        <ele>956.7</ele>
        <time>2021-11-09T11:51:14Z</time>
      </trkpt>
      <trkpt lat="46.56476" lon="6.0262">
        <ele>956.4</ele>
        <time>2021-11-09T11:51:19Z</time>
      </trkpt>
      <trkpt lat="46.56479" lon="6.02626">
        <ele>956.4</ele>
        <time>2021-11-09T11:51:24Z</time>
      </trkpt>
      <trkpt lat="46.56479" lon="6.02633">
        <ele>956.2</ele>
        <time>2021-11-09T11:51:30Z</time>
      </trkpt>
      <trkpt lat="46.5648" lon="6.0264">
        <ele>955.8</ele>
        <time>2021-11-09T11:51:35Z</time>
      </trkpt>
      <trkpt lat="46.56482" lon="6.02647">
        <ele>955.9</ele>
        <time>2021-11-09T11:51:40Z</time>
      </trkpt>
      <trkpt lat="46.56484" lon="6.02653">
        <ele>956.5</ele>
        <time>2021-11-09T11:51:46Z</time>
      </trkpt>
      <trkpt lat="46.56484" lon="6.0266">
        <ele>957.7</ele>
        <time>2021-11-09T11:51:53Z</time>
      </trkpt>
      <trkpt lat="46.56486" lon="6.02667">
        <ele>958.3</ele>
        <time>2021-11-09T11:51:59Z</time>
      </trkpt>
      <trkpt lat="46.56488" lon="6.02673">
        <ele>959.5</ele>
        <time>2021-11-09T11:52:05Z</time>
      </trkpt>
      <trkpt lat="46.5649" lon="6.0268">
        <ele>960.5</ele>
        <time>2021-11-09T11:52:10Z</time>
      </trkpt>
      <trkpt lat="46.56492" lon="6.02686">
        <ele>961.5</ele>
        <time>2021-11-09T11:52:15Z</time>
      </trkpt>
      <trkpt lat="46.56494" lon="6.02692">
        <ele>962.2</ele>
        <time>2021-11-09T11:52:22Z</time>
      </trkpt>
      <trkpt lat="46.56497" lon="6.02698">
        <ele>962.6</ele>
        <time>2021-11-09T11:52:27Z</time>
      </trkpt>
      <trkpt lat="46.56501" lon="6.02702">
        <ele>963.4</ele>
        <time>2021-11-09T11:52:31Z</time>
      </trkpt>
      <trkpt lat="46.56504" lon="6.02707">
        <ele>964.5</ele>
        <time>2021-11-09T11:52:36Z</time>
      </trkpt>
      <trkpt lat="46.56507" lon="6.02712">
        <ele>965.4</ele>
        <time>2021-11-09T11:52:43Z</time>
      </trkpt>
      <trkpt lat="46.56511" lon="6.02716">
        <ele>965.8</ele>
        <time>2021-11-09T11:52:48Z</time>
      </trkpt>
      <trkpt lat="46.56516" lon="6.02718">
        <ele>966.1</ele>
        <time>2021-11-09T11:52:55Z</time>
      </trkpt>
      <trkpt lat="46.5652" lon="6.02719">
        <ele>965.9</ele>
        <time>2021-11-09T11:53:00Z</time>
      </trkpt>
      <trkpt lat="46.56525" lon="6.02721">
        <ele>965.6</ele>
        <time>2021-11-09T11:53:06Z</time>
      </trkpt>
      <trkpt lat="46.5653" lon="6.02725">
        <ele>965.1</ele>
        <time>2021-11-09T11:53:12Z</time>
      </trkpt>
      <trkpt lat="46.56534" lon="6.02727">
        <ele>965</ele>
        <time>2021-11-09T11:53:17Z</time>
      </trkpt>
      <trkpt lat="46.56539" lon="6.02728">
        <ele>965.8</ele>
        <time>2021-11-09T11:53:23Z</time>
      </trkpt>
      <trkpt lat="46.56544" lon="6.02727">
        <ele>966.4</ele>
        <time>2021-11-09T11:53:29Z</time>
      </trkpt>
      <trkpt lat="46.56549" lon="6.02728">
        <ele>966</ele>
        <time>2021-11-09T11:53:34Z</time>
      </trkpt>
      <trkpt lat="46.56555" lon="6.02729">
        <ele>965.9</ele>
        <time>2021-11-09T11:53:39Z</time>
      </trkpt>
      <trkpt lat="46.5656" lon="6.02729">
        <ele>966.2</ele>
        <time>2021-11-09T11:53:44Z</time>
      </trkpt>
      <trkpt lat="46.56565" lon="6.02732">
        <ele>967.1</ele>
        <time>2021-11-09T11:53:49Z</time>
      </trkpt>
      <trkpt lat="46.5657" lon="6.02734">
        <ele>967.8</ele>
        <time>2021-11-09T11:53:54Z</time>
      </trkpt>
      <trkpt lat="46.56574" lon="6.02739">
        <ele>967.7</ele>
        <time>2021-11-09T11:54:00Z</time>
      </trkpt>
      <trkpt lat="46.56578" lon="6.02744">
        <ele>966.8</ele>
        <time>2021-11-09T11:54:05Z</time>
      </trkpt>
      <trkpt lat="46.56582" lon="6.02748">
        <ele>967</ele>
        <time>2021-11-09T11:54:09Z</time>
      </trkpt>
      <trkpt lat="46.56585" lon="6.02753">
        <ele>967.3</ele>
        <time>2021-11-09T11:54:14Z</time>
      </trkpt>
      <trkpt lat="46.56589" lon="6.02759">
        <ele>967.6</ele>
        <time>2021-11-09T11:54:19Z</time>
      </trkpt>
      <trkpt lat="46.56592" lon="6.02765">
        <ele>967.8</ele>
        <time>2021-11-09T11:54:24Z</time>
      </trkpt>
      <trkpt lat="46.56596" lon="6.02771">
        <ele>968.2</ele>
        <time>2021-11-09T11:54:29Z</time>
      </trkpt>
      <trkpt lat="46.56599" lon="6.02777">
        <ele>967.9</ele>
        <time>2021-11-09T11:54:34Z</time>
      </trkpt>
      <trkpt lat="46.56601" lon="6.02782">
        <ele>967.6</ele>
        <time>2021-11-09T11:54:39Z</time>
      </trkpt>
      <trkpt lat="46.56605" lon="6.02787">
        <ele>967.6</ele>
        <time>2021-11-09T11:54:44Z</time>
      </trkpt>
      <trkpt lat="46.56609" lon="6.02792">
        <ele>967.6</ele>
        <time>2021-11-09T11:54:49Z</time>
      </trkpt>
      <trkpt lat="46.56612" lon="6.02797">
        <ele>967.9</ele>
        <time>2021-11-09T11:54:53Z</time>
      </trkpt>
      <trkpt lat="46.56615" lon="6.02801">
        <ele>968.4</ele>
        <time>2021-11-09T11:54:57Z</time>
      </trkpt>
      <trkpt lat="46.56618" lon="6.02807">
        <ele>968.8</ele>
        <time>2021-11-09T11:55:02Z</time>
      </trkpt>
      <trkpt lat="46.56622" lon="6.02811">
        <ele>968.5</ele>
        <time>2021-11-09T11:55:07Z</time>
      </trkpt>
      <trkpt lat="46.56627" lon="6.02816">
        <ele>967</ele>
        <time>2021-11-09T11:55:13Z</time>
      </trkpt>
      <trkpt lat="46.5663" lon="6.02822">
        <ele>966.5</ele>
        <time>2021-11-09T11:55:18Z</time>
      </trkpt>
      <trkpt lat="46.56635" lon="6.02826">
        <ele>966.7</ele>
        <time>2021-11-09T11:55:23Z</time>
      </trkpt>
      <trkpt lat="46.56639" lon="6.02828">
        <ele>967</ele>
        <time>2021-11-09T11:55:28Z</time>
      </trkpt>
      <trkpt lat="46.56643" lon="6.02829">
        <ele>967.5</ele>
        <time>2021-11-09T11:55:39Z</time>
      </trkpt>
      <trkpt lat="46.56646" lon="6.02835">
        <ele>966.6</ele>
        <time>2021-11-09T11:56:16Z</time>
      </trkpt>
      <trkpt lat="46.56651" lon="6.02837">
        <ele>966.4</ele>
        <time>2021-11-09T11:56:20Z</time>
      </trkpt>
      <trkpt lat="46.56655" lon="6.0284">
        <ele>966.5</ele>
        <time>2021-11-09T11:56:25Z</time>
      </trkpt>
      <trkpt lat="46.5666" lon="6.02843">
        <ele>967.1</ele>
        <time>2021-11-09T11:56:30Z</time>
      </trkpt>
      <trkpt lat="46.56664" lon="6.02846">
        <ele>968</ele>
        <time>2021-11-09T11:56:34Z</time>
      </trkpt>
      <trkpt lat="46.56667" lon="6.0285">
        <ele>968.9</ele>
        <time>2021-11-09T11:56:39Z</time>
      </trkpt>
      <trkpt lat="46.56671" lon="6.02853">
        <ele>969.1</ele>
        <time>2021-11-09T11:56:43Z</time>
      </trkpt>
      <trkpt lat="46.56676" lon="6.02858">
        <ele>969.1</ele>
        <time>2021-11-09T11:56:48Z</time>
      </trkpt>
      <trkpt lat="46.56681" lon="6.02862">
        <ele>969.1</ele>
        <time>2021-11-09T11:56:53Z</time>
      </trkpt>
      <trkpt lat="46.56685" lon="6.02866">
        <ele>969.2</ele>
        <time>2021-11-09T11:56:58Z</time>
      </trkpt>
      <trkpt lat="46.56689" lon="6.02869">
        <ele>969.6</ele>
        <time>2021-11-09T11:57:03Z</time>
      </trkpt>
      <trkpt lat="46.56694" lon="6.02873">
        <ele>969.4</ele>
        <time>2021-11-09T11:57:08Z</time>
      </trkpt>
      <trkpt lat="46.56699" lon="6.02876">
        <ele>969.5</ele>
        <time>2021-11-09T11:57:13Z</time>
      </trkpt>
      <trkpt lat="46.56704" lon="6.02877">
        <ele>969.8</ele>
        <time>2021-11-09T11:57:17Z</time>
      </trkpt>
      <trkpt lat="46.56708" lon="6.02879">
        <ele>969.9</ele>
        <time>2021-11-09T11:57:21Z</time>
      </trkpt>
      <trkpt lat="46.56713" lon="6.0288">
        <ele>969.9</ele>
        <time>2021-11-09T11:57:26Z</time>
      </trkpt>
      <trkpt lat="46.56719" lon="6.0288">
        <ele>969.2</ele>
        <time>2021-11-09T11:57:31Z</time>
      </trkpt>
      <trkpt lat="46.56724" lon="6.0288">
        <ele>969</ele>
        <time>2021-11-09T11:57:35Z</time>
      </trkpt>
      <trkpt lat="46.56728" lon="6.02878">
        <ele>968.7</ele>
        <time>2021-11-09T11:57:40Z</time>
      </trkpt>
      <trkpt lat="46.56733" lon="6.02879">
        <ele>968.7</ele>
        <time>2021-11-09T11:57:45Z</time>
      </trkpt>
      <trkpt lat="46.56738" lon="6.02879">
        <ele>969.2</ele>
        <time>2021-11-09T11:57:50Z</time>
      </trkpt>
      <trkpt lat="46.56743" lon="6.0288">
        <ele>970.3</ele>
        <time>2021-11-09T11:57:55Z</time>
      </trkpt>
      <trkpt lat="46.56747" lon="6.02882">
        <ele>971.3</ele>
        <time>2021-11-09T11:58:00Z</time>
      </trkpt>
      <trkpt lat="46.56752" lon="6.02885">
        <ele>971.6</ele>
        <time>2021-11-09T11:58:05Z</time>
      </trkpt>
      <trkpt lat="46.56758" lon="6.02883">
        <ele>971.6</ele>
        <time>2021-11-09T11:58:10Z</time>
      </trkpt>
      <trkpt lat="46.56762" lon="6.02879">
        <ele>971.6</ele>
        <time>2021-11-09T11:58:14Z</time>
      </trkpt>
      <trkpt lat="46.56764" lon="6.02873">
        <ele>971.6</ele>
        <time>2021-11-09T11:58:19Z</time>
      </trkpt>
      <trkpt lat="46.56768" lon="6.02869">
        <ele>971.6</ele>
        <time>2021-11-09T11:58:25Z</time>
      </trkpt>
      <trkpt lat="46.56771" lon="6.02875">
        <ele>971.7</ele>
        <time>2021-11-09T11:59:15Z</time>
      </trkpt>
      <trkpt lat="46.5677" lon="6.02882">
        <ele>971.4</ele>
        <time>2021-11-09T11:59:20Z</time>
      </trkpt>
      <trkpt lat="46.5677" lon="6.02889">
        <ele>970.7</ele>
        <time>2021-11-09T11:59:24Z</time>
      </trkpt>
      <trkpt lat="46.56772" lon="6.02896">
        <ele>970.1</ele>
        <time>2021-11-09T11:59:29Z</time>
      </trkpt>
      <trkpt lat="46.56777" lon="6.02899">
        <ele>970.1</ele>
        <time>2021-11-09T11:59:34Z</time>
      </trkpt>
      <trkpt lat="46.56782" lon="6.02901">
        <ele>970.8</ele>
        <time>2021-11-09T11:59:39Z</time>
      </trkpt>
      <trkpt lat="46.56788" lon="6.02902">
        <ele>971.4</ele>
        <time>2021-11-09T11:59:43Z</time>
      </trkpt>
      <trkpt lat="46.56793" lon="6.02903">
        <ele>971.8</ele>
        <time>2021-11-09T11:59:47Z</time>
      </trkpt>
      <trkpt lat="46.56798" lon="6.02905">
        <ele>971.8</ele>
        <time>2021-11-09T11:59:51Z</time>
      </trkpt>
      <trkpt lat="46.56803" lon="6.02906">
        <ele>972.4</ele>
        <time>2021-11-09T11:59:56Z</time>
      </trkpt>
      <trkpt lat="46.56808" lon="6.02906">
        <ele>972.8</ele>
        <time>2021-11-09T12:00:00Z</time>
      </trkpt>
      <trkpt lat="46.56814" lon="6.02904">
        <ele>972.9</ele>
        <time>2021-11-09T12:00:04Z</time>
      </trkpt>
      <trkpt lat="46.56819" lon="6.02901">
        <ele>972.6</ele>
        <time>2021-11-09T12:00:08Z</time>
      </trkpt>
      <trkpt lat="46.56823" lon="6.02898">
        <ele>972.4</ele>
        <time>2021-11-09T12:00:11Z</time>
      </trkpt>
      <trkpt lat="46.56827" lon="6.02895">
        <ele>972.2</ele>
        <time>2021-11-09T12:00:14Z</time>
      </trkpt>
      <trkpt lat="46.56833" lon="6.02892">
        <ele>972.1</ele>
        <time>2021-11-09T12:00:18Z</time>
      </trkpt>
      <trkpt lat="46.56838" lon="6.02891">
        <ele>971.8</ele>
        <time>2021-11-09T12:00:23Z</time>
      </trkpt>
      <trkpt lat="46.56843" lon="6.02888">
        <ele>971.5</ele>
        <time>2021-11-09T12:00:28Z</time>
      </trkpt>
      <trkpt lat="46.56848" lon="6.02886">
        <ele>971.1</ele>
        <time>2021-11-09T12:00:32Z</time>
      </trkpt>
      <trkpt lat="46.56853" lon="6.02884">
        <ele>970.7</ele>
        <time>2021-11-09T12:00:35Z</time>
      </trkpt>
      <trkpt lat="46.56858" lon="6.02884">
        <ele>970.3</ele>
        <time>2021-11-09T12:00:38Z</time>
      </trkpt>
      <trkpt lat="46.56863" lon="6.02882">
        <ele>969.4</ele>
        <time>2021-11-09T12:00:42Z</time>
      </trkpt>
      <trkpt lat="46.56868" lon="6.02882">
        <ele>968.8</ele>
        <time>2021-11-09T12:00:46Z</time>
      </trkpt>
      <trkpt lat="46.56873" lon="6.02882">
        <ele>968.4</ele>
        <time>2021-11-09T12:00:50Z</time>
      </trkpt>
      <trkpt lat="46.56879" lon="6.02882">
        <ele>967.8</ele>
        <time>2021-11-09T12:00:54Z</time>
      </trkpt>
      <trkpt lat="46.56885" lon="6.02882">
        <ele>967.5</ele>
        <time>2021-11-09T12:00:58Z</time>
      </trkpt>
      <trkpt lat="46.5689" lon="6.02882">
        <ele>967.5</ele>
        <time>2021-11-09T12:01:02Z</time>
      </trkpt>
      <trkpt lat="46.56895" lon="6.0288">
        <ele>967.2</ele>
        <time>2021-11-09T12:01:06Z</time>
      </trkpt>
      <trkpt lat="46.569" lon="6.02878">
        <ele>967.4</ele>
        <time>2021-11-09T12:01:10Z</time>
      </trkpt>
      <trkpt lat="46.56906" lon="6.02878">
        <ele>967.6</ele>
        <time>2021-11-09T12:01:14Z</time>
      </trkpt>
      <trkpt lat="46.56911" lon="6.02877">
        <ele>967.7</ele>
        <time>2021-11-09T12:01:18Z</time>
      </trkpt>
      <trkpt lat="46.56917" lon="6.02876">
        <ele>967.9</ele>
        <time>2021-11-09T12:01:23Z</time>
      </trkpt>
      <trkpt lat="46.56921" lon="6.02876">
        <ele>968.5</ele>
        <time>2021-11-09T12:01:27Z</time>
      </trkpt>
      <trkpt lat="46.56926" lon="6.02878">
        <ele>968.7</ele>
        <time>2021-11-09T12:01:30Z</time>
      </trkpt>
      <trkpt lat="46.56931" lon="6.0288">
        <ele>969</ele>
        <time>2021-11-09T12:01:34Z</time>
      </trkpt>
      <trkpt lat="46.56936" lon="6.02882">
        <ele>969.5</ele>
        <time>2021-11-09T12:01:38Z</time>
      </trkpt>
      <trkpt lat="46.56941" lon="6.02885">
        <ele>969.8</ele>
        <time>2021-11-09T12:01:43Z</time>
      </trkpt>
      <trkpt lat="46.56946" lon="6.02888">
        <ele>970</ele>
        <time>2021-11-09T12:01:47Z</time>
      </trkpt>
      <trkpt lat="46.56951" lon="6.02892">
        <ele>970.1</ele>
        <time>2021-11-09T12:01:51Z</time>
      </trkpt>
      <trkpt lat="46.56956" lon="6.02896">
        <ele>969.9</ele>
        <time>2021-11-09T12:01:55Z</time>
      </trkpt>
      <trkpt lat="46.5696" lon="6.02901">
        <ele>969.6</ele>
        <time>2021-11-09T12:01:59Z</time>
      </trkpt>
      <trkpt lat="46.56963" lon="6.02905">
        <ele>969.5</ele>
        <time>2021-11-09T12:02:03Z</time>
      </trkpt>
      <trkpt lat="46.56968" lon="6.0291">
        <ele>969.3</ele>
        <time>2021-11-09T12:02:07Z</time>
      </trkpt>
      <trkpt lat="46.56972" lon="6.02915">
        <ele>969.2</ele>
        <time>2021-11-09T12:02:11Z</time>
      </trkpt>
      <trkpt lat="46.56974" lon="6.02922">
        <ele>969.4</ele>
        <time>2021-11-09T12:02:15Z</time>
      </trkpt>
      <trkpt lat="46.56976" lon="6.02929">
        <ele>969.6</ele>
        <time>2021-11-09T12:02:20Z</time>
      </trkpt>
      <trkpt lat="46.56978" lon="6.02935">
        <ele>970.2</ele>
        <time>2021-11-09T12:02:25Z</time>
      </trkpt>
      <trkpt lat="46.5698" lon="6.02941">
        <ele>970.6</ele>
        <time>2021-11-09T12:02:29Z</time>
      </trkpt>
      <trkpt lat="46.56985" lon="6.02944">
        <ele>971.1</ele>
        <time>2021-11-09T12:02:33Z</time>
      </trkpt>
      <trkpt lat="46.5699" lon="6.02946">
        <ele>971.8</ele>
        <time>2021-11-09T12:02:37Z</time>
      </trkpt>
      <trkpt lat="46.56995" lon="6.02947">
        <ele>972.4</ele>
        <time>2021-11-09T12:02:41Z</time>
      </trkpt>
      <trkpt lat="46.57" lon="6.02949">
        <ele>972.7</ele>
        <time>2021-11-09T12:02:45Z</time>
      </trkpt>
      <trkpt lat="46.57005" lon="6.02951">
        <ele>972.4</ele>
        <time>2021-11-09T12:02:49Z</time>
      </trkpt>
      <trkpt lat="46.5701" lon="6.02948">
        <ele>971.9</ele>
        <time>2021-11-09T12:02:54Z</time>
      </trkpt>
      <trkpt lat="46.57013" lon="6.02944">
        <ele>971.1</ele>
        <time>2021-11-09T12:02:58Z</time>
      </trkpt>
      <trkpt lat="46.57018" lon="6.02939">
        <ele>970.4</ele>
        <time>2021-11-09T12:03:02Z</time>
      </trkpt>
      <trkpt lat="46.57021" lon="6.02932">
        <ele>970</ele>
        <time>2021-11-09T12:03:06Z</time>
      </trkpt>
      <trkpt lat="46.57025" lon="6.02927">
        <ele>969.6</ele>
        <time>2021-11-09T12:03:10Z</time>
      </trkpt>
      <trkpt lat="46.57029" lon="6.02921">
        <ele>969</ele>
        <time>2021-11-09T12:03:15Z</time>
      </trkpt>
      <trkpt lat="46.57032" lon="6.02916">
        <ele>968.6</ele>
        <time>2021-11-09T12:03:19Z</time>
      </trkpt>
      <trkpt lat="46.57037" lon="6.02912">
        <ele>968.3</ele>
        <time>2021-11-09T12:03:23Z</time>
      </trkpt>
      <trkpt lat="46.57041" lon="6.02907">
        <ele>968.6</ele>
        <time>2021-11-09T12:03:28Z</time>
      </trkpt>
      <trkpt lat="46.57043" lon="6.02901">
        <ele>969.3</ele>
        <time>2021-11-09T12:03:38Z</time>
      </trkpt>
      <trkpt lat="46.57048" lon="6.02901">
        <ele>970.5</ele>
        <time>2021-11-09T12:04:24Z</time>
      </trkpt>
      <trkpt lat="46.57053" lon="6.02903">
        <ele>971.4</ele>
        <time>2021-11-09T12:04:30Z</time>
      </trkpt>
      <trkpt lat="46.57058" lon="6.02905">
        <ele>972</ele>
        <time>2021-11-09T12:04:35Z</time>
      </trkpt>
      <trkpt lat="46.57062" lon="6.02905">
        <ele>972.2</ele>
        <time>2021-11-09T12:04:38Z</time>
      </trkpt>
      <trkpt lat="46.57067" lon="6.02907">
        <ele>973.2</ele>
        <time>2021-11-09T12:04:42Z</time>
      </trkpt>
      <trkpt lat="46.57072" lon="6.02909">
        <ele>974.2</ele>
        <time>2021-11-09T12:04:47Z</time>
      </trkpt>
      <trkpt lat="46.57077" lon="6.0291">
        <ele>976</ele>
        <time>2021-11-09T12:05:03Z</time>
      </trkpt>
      <trkpt lat="46.57072" lon="6.02909">
        <ele>975.9</ele>
        <time>2021-11-09T12:05:18Z</time>
      </trkpt>
      <trkpt lat="46.57067" lon="6.02906">
        <ele>976</ele>
        <time>2021-11-09T12:05:24Z</time>
      </trkpt>
      <trkpt lat="46.57063" lon="6.02902">
        <ele>975.9</ele>
        <time>2021-11-09T12:05:28Z</time>
      </trkpt>
      <trkpt lat="46.57059" lon="6.02901">
        <ele>975.5</ele>
        <time>2021-11-09T12:05:32Z</time>
      </trkpt>
      <trkpt lat="46.57054" lon="6.02901">
        <ele>974.7</ele>
        <time>2021-11-09T12:05:37Z</time>
      </trkpt>
      <trkpt lat="46.5705" lon="6.029">
        <ele>973.6</ele>
        <time>2021-11-09T12:05:42Z</time>
      </trkpt>
      <trkpt lat="46.57045" lon="6.02899">
        <ele>971.1</ele>
        <time>2021-11-09T12:06:04Z</time>
      </trkpt>
      <trkpt lat="46.57043" lon="6.02892">
        <ele>970.7</ele>
        <time>2021-11-09T12:06:11Z</time>
      </trkpt>
      <trkpt lat="46.57041" lon="6.02886">
        <ele>969.8</ele>
        <time>2021-11-09T12:06:16Z</time>
      </trkpt>
      <trkpt lat="46.57038" lon="6.02879">
        <ele>968.5</ele>
        <time>2021-11-09T12:06:22Z</time>
      </trkpt>
      <trkpt lat="46.57038" lon="6.02872">
        <ele>967.7</ele>
        <time>2021-11-09T12:06:26Z</time>
      </trkpt>
      <trkpt lat="46.57037" lon="6.02865">
        <ele>967.3</ele>
        <time>2021-11-09T12:06:30Z</time>
      </trkpt>
      <trkpt lat="46.57035" lon="6.02859">
        <ele>967.2</ele>
        <time>2021-11-09T12:06:34Z</time>
      </trkpt>
      <trkpt lat="46.57033" lon="6.02853">
        <ele>967.4</ele>
        <time>2021-11-09T12:06:37Z</time>
      </trkpt>
      <trkpt lat="46.57031" lon="6.02846">
        <ele>968</ele>
        <time>2021-11-09T12:06:41Z</time>
      </trkpt>
      <trkpt lat="46.57029" lon="6.02839">
        <ele>969.3</ele>
        <time>2021-11-09T12:06:46Z</time>
      </trkpt>
      <trkpt lat="46.57027" lon="6.02832">
        <ele>970.9</ele>
        <time>2021-11-09T12:06:51Z</time>
      </trkpt>
      <trkpt lat="46.57026" lon="6.02826">
        <ele>972.3</ele>
        <time>2021-11-09T12:06:57Z</time>
      </trkpt>
      <trkpt lat="46.57025" lon="6.02818">
        <ele>971.7</ele>
        <time>2021-11-09T12:07:03Z</time>
      </trkpt>
      <trkpt lat="46.57023" lon="6.02812">
        <ele>971.1</ele>
        <time>2021-11-09T12:07:08Z</time>
      </trkpt>
      <trkpt lat="46.57022" lon="6.02804">
        <ele>970.9</ele>
        <time>2021-11-09T12:07:13Z</time>
      </trkpt>
      <trkpt lat="46.5702" lon="6.02797">
        <ele>970.7</ele>
        <time>2021-11-09T12:07:18Z</time>
      </trkpt>
      <trkpt lat="46.57019" lon="6.0279">
        <ele>970.7</ele>
        <time>2021-11-09T12:07:22Z</time>
      </trkpt>
      <trkpt lat="46.57018" lon="6.02784">
        <ele>970.6</ele>
        <time>2021-11-09T12:07:27Z</time>
      </trkpt>
      <trkpt lat="46.57016" lon="6.02777">
        <ele>970.5</ele>
        <time>2021-11-09T12:07:32Z</time>
      </trkpt>
      <trkpt lat="46.57015" lon="6.02771">
        <ele>970.3</ele>
        <time>2021-11-09T12:07:36Z</time>
      </trkpt>
      <trkpt lat="46.57014" lon="6.02764">
        <ele>970.2</ele>
        <time>2021-11-09T12:07:40Z</time>
      </trkpt>
      <trkpt lat="46.57013" lon="6.02758">
        <ele>970.5</ele>
        <time>2021-11-09T12:07:44Z</time>
      </trkpt>
      <trkpt lat="46.57011" lon="6.0275">
        <ele>971</ele>
        <time>2021-11-09T12:07:49Z</time>
      </trkpt>
      <trkpt lat="46.5701" lon="6.02744">
        <ele>971.8</ele>
        <time>2021-11-09T12:07:53Z</time>
      </trkpt>
      <trkpt lat="46.57008" lon="6.02736">
        <ele>972.7</ele>
        <time>2021-11-09T12:07:58Z</time>
      </trkpt>
      <trkpt lat="46.57007" lon="6.0273">
        <ele>973.4</ele>
        <time>2021-11-09T12:08:02Z</time>
      </trkpt>
      <trkpt lat="46.57005" lon="6.02722">
        <ele>973.8</ele>
        <time>2021-11-09T12:08:07Z</time>
      </trkpt>
      <trkpt lat="46.57004" lon="6.02715">
        <ele>973.6</ele>
        <time>2021-11-09T12:08:12Z</time>
      </trkpt>
      <trkpt lat="46.57002" lon="6.02708">
        <ele>973.8</ele>
        <time>2021-11-09T12:08:17Z</time>
      </trkpt>
      <trkpt lat="46.57001" lon="6.02701">
        <ele>973.9</ele>
        <time>2021-11-09T12:08:21Z</time>
      </trkpt>
      <trkpt lat="46.57" lon="6.02694">
        <ele>973.7</ele>
        <time>2021-11-09T12:08:26Z</time>
      </trkpt>
      <trkpt lat="46.56999" lon="6.02687">
        <ele>974.2</ele>
        <time>2021-11-09T12:08:30Z</time>
      </trkpt>
      <trkpt lat="46.56998" lon="6.0268">
        <ele>975.3</ele>
        <time>2021-11-09T12:08:35Z</time>
      </trkpt>
      <trkpt lat="46.56997" lon="6.02673">
        <ele>975.5</ele>
        <time>2021-11-09T12:08:40Z</time>
      </trkpt>
      <trkpt lat="46.56995" lon="6.02666">
        <ele>975.8</ele>
        <time>2021-11-09T12:08:45Z</time>
      </trkpt>
      <trkpt lat="46.56993" lon="6.0266">
        <ele>976.6</ele>
        <time>2021-11-09T12:08:50Z</time>
      </trkpt>
      <trkpt lat="46.56991" lon="6.02652">
        <ele>977.6</ele>
        <time>2021-11-09T12:08:55Z</time>
      </trkpt>
      <trkpt lat="46.5699" lon="6.02645">
        <ele>978.6</ele>
        <time>2021-11-09T12:09:00Z</time>
      </trkpt>
      <trkpt lat="46.56988" lon="6.02638">
        <ele>979.6</ele>
        <time>2021-11-09T12:09:04Z</time>
      </trkpt>
      <trkpt lat="46.56987" lon="6.02631">
        <ele>980.4</ele>
        <time>2021-11-09T12:09:09Z</time>
      </trkpt>
      <trkpt lat="46.56986" lon="6.02625">
        <ele>981.1</ele>
        <time>2021-11-09T12:09:14Z</time>
      </trkpt>
      <trkpt lat="46.56984" lon="6.02617">
        <ele>981.5</ele>
        <time>2021-11-09T12:09:19Z</time>
      </trkpt>
      <trkpt lat="46.56983" lon="6.02611">
        <ele>981.2</ele>
        <time>2021-11-09T12:09:23Z</time>
      </trkpt>
      <trkpt lat="46.56981" lon="6.02604">
        <ele>980.1</ele>
        <time>2021-11-09T12:09:28Z</time>
      </trkpt>
      <trkpt lat="46.5698" lon="6.02597">
        <ele>979.5</ele>
        <time>2021-11-09T12:09:32Z</time>
      </trkpt>
      <trkpt lat="46.56979" lon="6.02589">
        <ele>979.1</ele>
        <time>2021-11-09T12:09:37Z</time>
      </trkpt>
      <trkpt lat="46.56978" lon="6.02582">
        <ele>979.1</ele>
        <time>2021-11-09T12:09:42Z</time>
      </trkpt>
      <trkpt lat="46.56976" lon="6.02576">
        <ele>979.4</ele>
        <time>2021-11-09T12:09:47Z</time>
      </trkpt>
      <trkpt lat="46.56974" lon="6.02568">
        <ele>980.5</ele>
        <time>2021-11-09T12:09:53Z</time>
      </trkpt>
      <trkpt lat="46.56973" lon="6.02562">
        <ele>980.9</ele>
        <time>2021-11-09T12:09:57Z</time>
      </trkpt>
      <trkpt lat="46.56972" lon="6.02554">
        <ele>981.7</ele>
        <time>2021-11-09T12:10:03Z</time>
      </trkpt>
      <trkpt lat="46.56972" lon="6.02547">
        <ele>982.1</ele>
        <time>2021-11-09T12:10:08Z</time>
      </trkpt>
      <trkpt lat="46.56969" lon="6.02541">
        <ele>981.7</ele>
        <time>2021-11-09T12:10:12Z</time>
      </trkpt>
      <trkpt lat="46.56968" lon="6.02533">
        <ele>981</ele>
        <time>2021-11-09T12:10:16Z</time>
      </trkpt>
      <trkpt lat="46.56966" lon="6.02525">
        <ele>980.4</ele>
        <time>2021-11-09T12:10:20Z</time>
      </trkpt>
      <trkpt lat="46.56965" lon="6.02519">
        <ele>979.7</ele>
        <time>2021-11-09T12:10:24Z</time>
      </trkpt>
      <trkpt lat="46.56965" lon="6.02512">
        <ele>979.8</ele>
        <time>2021-11-09T12:10:28Z</time>
      </trkpt>
      <trkpt lat="46.56964" lon="6.02505">
        <ele>980.7</ele>
        <time>2021-11-09T12:10:33Z</time>
      </trkpt>
      <trkpt lat="46.56962" lon="6.02498">
        <ele>982.1</ele>
        <time>2021-11-09T12:10:38Z</time>
      </trkpt>
      <trkpt lat="46.5696" lon="6.02492">
        <ele>983</ele>
        <time>2021-11-09T12:10:42Z</time>
      </trkpt>
      <trkpt lat="46.56959" lon="6.02485">
        <ele>983.3</ele>
        <time>2021-11-09T12:10:46Z</time>
      </trkpt>
      <trkpt lat="46.56958" lon="6.02477">
        <ele>983.4</ele>
        <time>2021-11-09T12:10:51Z</time>
      </trkpt>
      <trkpt lat="46.56958" lon="6.02469">
        <ele>983.6</ele>
        <time>2021-11-09T12:10:55Z</time>
      </trkpt>
      <trkpt lat="46.56957" lon="6.02462">
        <ele>984.3</ele>
        <time>2021-11-09T12:11:00Z</time>
      </trkpt>
      <trkpt lat="46.56955" lon="6.02454">
        <ele>984.8</ele>
        <time>2021-11-09T12:11:06Z</time>
      </trkpt>
      <trkpt lat="46.56955" lon="6.02446">
        <ele>984.3</ele>
        <time>2021-11-09T12:11:11Z</time>
      </trkpt>
      <trkpt lat="46.56954" lon="6.0244">
        <ele>984.4</ele>
        <time>2021-11-09T12:11:15Z</time>
      </trkpt>
      <trkpt lat="46.56953" lon="6.02431">
        <ele>985.3</ele>
        <time>2021-11-09T12:11:20Z</time>
      </trkpt>
      <trkpt lat="46.56952" lon="6.02425">
        <ele>986.1</ele>
        <time>2021-11-09T12:11:24Z</time>
      </trkpt>
      <trkpt lat="46.5695" lon="6.02418">
        <ele>986.8</ele>
        <time>2021-11-09T12:11:29Z</time>
      </trkpt>
      <trkpt lat="46.56949" lon="6.0241">
        <ele>986.7</ele>
        <time>2021-11-09T12:11:34Z</time>
      </trkpt>
      <trkpt lat="46.56948" lon="6.02404">
        <ele>986.5</ele>
        <time>2021-11-09T12:11:39Z</time>
      </trkpt>
      <trkpt lat="46.56947" lon="6.02396">
        <ele>986.6</ele>
        <time>2021-11-09T12:11:44Z</time>
      </trkpt>
      <trkpt lat="46.56946" lon="6.0239">
        <ele>986.9</ele>
        <time>2021-11-09T12:11:48Z</time>
      </trkpt>
      <trkpt lat="46.56945" lon="6.02382">
        <ele>987.2</ele>
        <time>2021-11-09T12:11:53Z</time>
      </trkpt>
      <trkpt lat="46.56944" lon="6.02375">
        <ele>987.5</ele>
        <time>2021-11-09T12:11:58Z</time>
      </trkpt>
      <trkpt lat="46.56943" lon="6.02368">
        <ele>987.4</ele>
        <time>2021-11-09T12:12:02Z</time>
      </trkpt>
      <trkpt lat="46.56943" lon="6.0236">
        <ele>986.9</ele>
        <time>2021-11-09T12:12:07Z</time>
      </trkpt>
      <trkpt lat="46.56941" lon="6.02354">
        <ele>986.3</ele>
        <time>2021-11-09T12:12:12Z</time>
      </trkpt>
      <trkpt lat="46.56942" lon="6.02347">
        <ele>985.5</ele>
        <time>2021-11-09T12:12:18Z</time>
      </trkpt>
      <trkpt lat="46.56943" lon="6.0234">
        <ele>985.2</ele>
        <time>2021-11-09T12:12:23Z</time>
      </trkpt>
      <trkpt lat="46.56945" lon="6.02335">
        <ele>985.1</ele>
        <time>2021-11-09T12:12:29Z</time>
      </trkpt>
      <trkpt lat="46.56948" lon="6.02329">
        <ele>985.1</ele>
        <time>2021-11-09T12:12:34Z</time>
      </trkpt>
      <trkpt lat="46.56949" lon="6.02322">
        <ele>985.2</ele>
        <time>2021-11-09T12:12:38Z</time>
      </trkpt>
      <trkpt lat="46.5695" lon="6.02315">
        <ele>985.3</ele>
        <time>2021-11-09T12:12:42Z</time>
      </trkpt>
      <trkpt lat="46.56952" lon="6.02309">
        <ele>985.9</ele>
        <time>2021-11-09T12:12:46Z</time>
      </trkpt>
      <trkpt lat="46.56954" lon="6.02303">
        <ele>987</ele>
        <time>2021-11-09T12:12:52Z</time>
      </trkpt>
      <trkpt lat="46.56954" lon="6.02296">
        <ele>987.5</ele>
        <time>2021-11-09T12:12:57Z</time>
      </trkpt>
      <trkpt lat="46.56954" lon="6.02289">
        <ele>988.1</ele>
        <time>2021-11-09T12:13:02Z</time>
      </trkpt>
      <trkpt lat="46.56953" lon="6.02282">
        <ele>988.8</ele>
        <time>2021-11-09T12:13:07Z</time>
      </trkpt>
      <trkpt lat="46.56954" lon="6.02275">
        <ele>989.7</ele>
        <time>2021-11-09T12:13:13Z</time>
      </trkpt>
      <trkpt lat="46.56955" lon="6.02268">
        <ele>990.3</ele>
        <time>2021-11-09T12:13:18Z</time>
      </trkpt>
      <trkpt lat="46.56955" lon="6.02261">
        <ele>991</ele>
        <time>2021-11-09T12:13:24Z</time>
      </trkpt>
      <trkpt lat="46.56955" lon="6.02254">
        <ele>990.9</ele>
        <time>2021-11-09T12:13:28Z</time>
      </trkpt>
      <trkpt lat="46.56956" lon="6.02247">
        <ele>990.7</ele>
        <time>2021-11-09T12:13:32Z</time>
      </trkpt>
      <trkpt lat="46.56957" lon="6.0224">
        <ele>990.5</ele>
        <time>2021-11-09T12:13:37Z</time>
      </trkpt>
      <trkpt lat="46.56957" lon="6.02232">
        <ele>990.2</ele>
        <time>2021-11-09T12:13:42Z</time>
      </trkpt>
      <trkpt lat="46.56959" lon="6.02226">
        <ele>989.9</ele>
        <time>2021-11-09T12:13:47Z</time>
      </trkpt>
      <trkpt lat="46.56962" lon="6.02221">
        <ele>989</ele>
        <time>2021-11-09T12:13:53Z</time>
      </trkpt>
      <trkpt lat="46.56967" lon="6.02215">
        <ele>988.3</ele>
        <time>2021-11-09T12:15:00Z</time>
      </trkpt>
      <trkpt lat="46.56968" lon="6.02209">
        <ele>990</ele>
        <time>2021-11-09T12:15:05Z</time>
      </trkpt>
      <trkpt lat="46.56969" lon="6.02202">
        <ele>990.4</ele>
        <time>2021-11-09T12:15:10Z</time>
      </trkpt>
      <trkpt lat="46.5697" lon="6.02195">
        <ele>990.4</ele>
        <time>2021-11-09T12:15:16Z</time>
      </trkpt>
      <trkpt lat="46.56972" lon="6.02189">
        <ele>989.9</ele>
        <time>2021-11-09T12:15:22Z</time>
      </trkpt>
      <trkpt lat="46.56974" lon="6.02182">
        <ele>989.5</ele>
        <time>2021-11-09T12:15:27Z</time>
      </trkpt>
      <trkpt lat="46.56974" lon="6.02176">
        <ele>989.4</ele>
        <time>2021-11-09T12:15:31Z</time>
      </trkpt>
      <trkpt lat="46.56973" lon="6.02169">
        <ele>989.7</ele>
        <time>2021-11-09T12:15:36Z</time>
      </trkpt>
      <trkpt lat="46.56972" lon="6.02162">
        <ele>990.2</ele>
        <time>2021-11-09T12:15:41Z</time>
      </trkpt>
      <trkpt lat="46.56973" lon="6.02156">
        <ele>990.6</ele>
        <time>2021-11-09T12:15:47Z</time>
      </trkpt>
      <trkpt lat="46.56977" lon="6.0215">
        <ele>990.6</ele>
        <time>2021-11-09T12:15:52Z</time>
      </trkpt>
      <trkpt lat="46.56982" lon="6.02146">
        <ele>990.6</ele>
        <time>2021-11-09T12:15:56Z</time>
      </trkpt>
      <trkpt lat="46.56986" lon="6.02143">
        <ele>990.5</ele>
        <time>2021-11-09T12:16:00Z</time>
      </trkpt>
      <trkpt lat="46.56989" lon="6.02138">
        <ele>990.7</ele>
        <time>2021-11-09T12:16:05Z</time>
      </trkpt>
      <trkpt lat="46.56991" lon="6.02132">
        <ele>990.2</ele>
        <time>2021-11-09T12:16:13Z</time>
      </trkpt>
      <trkpt lat="46.56995" lon="6.02126">
        <ele>989.6</ele>
        <time>2021-11-09T12:16:19Z</time>
      </trkpt>
      <trkpt lat="46.56997" lon="6.02119">
        <ele>989.4</ele>
        <time>2021-11-09T12:16:24Z</time>
      </trkpt>
      <trkpt lat="46.57" lon="6.02113">
        <ele>990</ele>
        <time>2021-11-09T12:16:30Z</time>
      </trkpt>
      <trkpt lat="46.57003" lon="6.02108">
        <ele>990.8</ele>
        <time>2021-11-09T12:16:34Z</time>
      </trkpt>
      <trkpt lat="46.57005" lon="6.02101">
        <ele>991.4</ele>
        <time>2021-11-09T12:16:38Z</time>
      </trkpt>
      <trkpt lat="46.57008" lon="6.02095">
        <ele>991.6</ele>
        <time>2021-11-09T12:16:43Z</time>
      </trkpt>
      <trkpt lat="46.57011" lon="6.0209">
        <ele>991.5</ele>
        <time>2021-11-09T12:16:48Z</time>
      </trkpt>
      <trkpt lat="46.57015" lon="6.02084">
        <ele>991.2</ele>
        <time>2021-11-09T12:16:53Z</time>
      </trkpt>
      <trkpt lat="46.57019" lon="6.02079">
        <ele>990.8</ele>
        <time>2021-11-09T12:16:58Z</time>
      </trkpt>
      <trkpt lat="46.57023" lon="6.02074">
        <ele>989.9</ele>
        <time>2021-11-09T12:17:03Z</time>
      </trkpt>
      <trkpt lat="46.57026" lon="6.02069">
        <ele>989.2</ele>
        <time>2021-11-09T12:17:07Z</time>
      </trkpt>
      <trkpt lat="46.57028" lon="6.02063">
        <ele>988.1</ele>
        <time>2021-11-09T12:17:12Z</time>
      </trkpt>
      <trkpt lat="46.5703" lon="6.02055">
        <ele>987.4</ele>
        <time>2021-11-09T12:17:16Z</time>
      </trkpt>
      <trkpt lat="46.57033" lon="6.0205">
        <ele>986.8</ele>
        <time>2021-11-09T12:17:20Z</time>
      </trkpt>
      <trkpt lat="46.57035" lon="6.02044">
        <ele>985.9</ele>
        <time>2021-11-09T12:17:25Z</time>
      </trkpt>
      <trkpt lat="46.57039" lon="6.02039">
        <ele>985.3</ele>
        <time>2021-11-09T12:17:30Z</time>
      </trkpt>
      <trkpt lat="46.57042" lon="6.02034">
        <ele>985.2</ele>
        <time>2021-11-09T12:17:34Z</time>
      </trkpt>
      <trkpt lat="46.57046" lon="6.02028">
        <ele>985.2</ele>
        <time>2021-11-09T12:17:39Z</time>
      </trkpt>
      <trkpt lat="46.5705" lon="6.02024">
        <ele>985.2</ele>
        <time>2021-11-09T12:17:43Z</time>
      </trkpt>
      <trkpt lat="46.57053" lon="6.02018">
        <ele>985.1</ele>
        <time>2021-11-09T12:17:47Z</time>
      </trkpt>
      <trkpt lat="46.57054" lon="6.02011">
        <ele>985.3</ele>
        <time>2021-11-09T12:17:50Z</time>
      </trkpt>
      <trkpt lat="46.57055" lon="6.02003">
        <ele>985.6</ele>
        <time>2021-11-09T12:17:54Z</time>
      </trkpt>
      <trkpt lat="46.57057" lon="6.01997">
        <ele>985.8</ele>
        <time>2021-11-09T12:18:00Z</time>
      </trkpt>
      <trkpt lat="46.5706" lon="6.01992">
        <ele>986.3</ele>
        <time>2021-11-09T12:18:05Z</time>
      </trkpt>
      <trkpt lat="46.57064" lon="6.01986">
        <ele>987</ele>
        <time>2021-11-09T12:18:10Z</time>
      </trkpt>
      <trkpt lat="46.57066" lon="6.0198">
        <ele>987.5</ele>
        <time>2021-11-09T12:18:14Z</time>
      </trkpt>
      <trkpt lat="46.5707" lon="6.01975">
        <ele>987.6</ele>
        <time>2021-11-09T12:18:18Z</time>
      </trkpt>
      <trkpt lat="46.57075" lon="6.01974">
        <ele>987.7</ele>
        <time>2021-11-09T12:18:22Z</time>
      </trkpt>
      <trkpt lat="46.5708" lon="6.01973">
        <ele>988.7</ele>
        <time>2021-11-09T12:18:27Z</time>
      </trkpt>
      <trkpt lat="46.57085" lon="6.01973">
        <ele>990.3</ele>
        <time>2021-11-09T12:18:33Z</time>
      </trkpt>
      <trkpt lat="46.5709" lon="6.01972">
        <ele>991.2</ele>
        <time>2021-11-09T12:18:37Z</time>
      </trkpt>
      <trkpt lat="46.57095" lon="6.01969">
        <ele>992.1</ele>
        <time>2021-11-09T12:18:41Z</time>
      </trkpt>
      <trkpt lat="46.57099" lon="6.01965">
        <ele>993.5</ele>
        <time>2021-11-09T12:18:45Z</time>
      </trkpt>
      <trkpt lat="46.57103" lon="6.0196">
        <ele>995.1</ele>
        <time>2021-11-09T12:18:50Z</time>
      </trkpt>
      <trkpt lat="46.57103" lon="6.01953">
        <ele>996.2</ele>
        <time>2021-11-09T12:18:57Z</time>
      </trkpt>
      <trkpt lat="46.57105" lon="6.01946">
        <ele>997</ele>
        <time>2021-11-09T12:19:02Z</time>
      </trkpt>
      <trkpt lat="46.57106" lon="6.01939">
        <ele>998.3</ele>
        <time>2021-11-09T12:19:06Z</time>
      </trkpt>
      <trkpt lat="46.57105" lon="6.01931">
        <ele>999.7</ele>
        <time>2021-11-09T12:19:10Z</time>
      </trkpt>
      <trkpt lat="46.57104" lon="6.01924">
        <ele>1000.9</ele>
        <time>2021-11-09T12:19:15Z</time>
      </trkpt>
      <trkpt lat="46.57103" lon="6.01916">
        <ele>1001.8</ele>
        <time>2021-11-09T12:19:21Z</time>
      </trkpt>
      <trkpt lat="46.57102" lon="6.01909">
        <ele>1002.5</ele>
        <time>2021-11-09T12:19:26Z</time>
      </trkpt>
      <trkpt lat="46.57102" lon="6.01901">
        <ele>1003.3</ele>
        <time>2021-11-09T12:19:32Z</time>
      </trkpt>
      <trkpt lat="46.57104" lon="6.01894">
        <ele>1003.8</ele>
        <time>2021-11-09T12:19:37Z</time>
      </trkpt>
      <trkpt lat="46.57106" lon="6.01888">
        <ele>1004</ele>
        <time>2021-11-09T12:19:41Z</time>
      </trkpt>
      <trkpt lat="46.57109" lon="6.01882">
        <ele>1004.8</ele>
        <time>2021-11-09T12:19:46Z</time>
      </trkpt>
      <trkpt lat="46.57112" lon="6.01877">
        <ele>1005.2</ele>
        <time>2021-11-09T12:19:50Z</time>
      </trkpt>
      <trkpt lat="46.57112" lon="6.0187">
        <ele>1005.6</ele>
        <time>2021-11-09T12:19:55Z</time>
      </trkpt>
      <trkpt lat="46.57112" lon="6.01862">
        <ele>1005.8</ele>
        <time>2021-11-09T12:20:00Z</time>
      </trkpt>
      <trkpt lat="46.57112" lon="6.01855">
        <ele>1005.5</ele>
        <time>2021-11-09T12:20:04Z</time>
      </trkpt>
      <trkpt lat="46.57113" lon="6.01848">
        <ele>1003.9</ele>
        <time>2021-11-09T12:20:12Z</time>
      </trkpt>
      <trkpt lat="46.57116" lon="6.01843">
        <ele>1003</ele>
        <time>2021-11-09T12:20:16Z</time>
      </trkpt>
      <trkpt lat="46.5712" lon="6.01837">
        <ele>1002.3</ele>
        <time>2021-11-09T12:20:19Z</time>
      </trkpt>
      <trkpt lat="46.57122" lon="6.01831">
        <ele>1001.9</ele>
        <time>2021-11-09T12:20:22Z</time>
      </trkpt>
      <trkpt lat="46.57125" lon="6.01825">
        <ele>1001.4</ele>
        <time>2021-11-09T12:20:26Z</time>
      </trkpt>
      <trkpt lat="46.5713" lon="6.01821">
        <ele>1001.3</ele>
        <time>2021-11-09T12:20:30Z</time>
      </trkpt>
      <trkpt lat="46.57134" lon="6.01817">
        <ele>1001.7</ele>
        <time>2021-11-09T12:20:35Z</time>
      </trkpt>
      <trkpt lat="46.57138" lon="6.01812">
        <ele>1002</ele>
        <time>2021-11-09T12:20:39Z</time>
      </trkpt>
      <trkpt lat="46.57142" lon="6.01809">
        <ele>1002.1</ele>
        <time>2021-11-09T12:20:43Z</time>
      </trkpt>
      <trkpt lat="46.57146" lon="6.01803">
        <ele>1002.3</ele>
        <time>2021-11-09T12:20:48Z</time>
      </trkpt>
      <trkpt lat="46.57149" lon="6.01799">
        <ele>1002</ele>
        <time>2021-11-09T12:20:54Z</time>
      </trkpt>
      <trkpt lat="46.57153" lon="6.01794">
        <ele>1001.8</ele>
        <time>2021-11-09T12:20:59Z</time>
      </trkpt>
      <trkpt lat="46.57157" lon="6.01788">
        <ele>1001.6</ele>
        <time>2021-11-09T12:21:04Z</time>
      </trkpt>
      <trkpt lat="46.5716" lon="6.01784">
        <ele>1001.3</ele>
        <time>2021-11-09T12:21:09Z</time>
      </trkpt>
      <trkpt lat="46.57165" lon="6.0178">
        <ele>1001</ele>
        <time>2021-11-09T12:21:15Z</time>
      </trkpt>
      <trkpt lat="46.57169" lon="6.01776">
        <ele>1001.2</ele>
        <time>2021-11-09T12:21:23Z</time>
      </trkpt>
      <trkpt lat="46.57174" lon="6.01773">
        <ele>1001.7</ele>
        <time>2021-11-09T12:21:27Z</time>
      </trkpt>
      <trkpt lat="46.57178" lon="6.01771">
        <ele>1002.2</ele>
        <time>2021-11-09T12:21:30Z</time>
      </trkpt>
      <trkpt lat="46.57183" lon="6.01766">
        <ele>1002.9</ele>
        <time>2021-11-09T12:21:34Z</time>
      </trkpt>
      <trkpt lat="46.57186" lon="6.01761">
        <ele>1003.8</ele>
        <time>2021-11-09T12:21:39Z</time>
      </trkpt>
      <trkpt lat="46.57191" lon="6.01759">
        <ele>1004</ele>
        <time>2021-11-09T12:21:47Z</time>
      </trkpt>
      <trkpt lat="46.57196" lon="6.01759">
        <ele>1003.8</ele>
        <time>2021-11-09T12:21:53Z</time>
      </trkpt>
      <trkpt lat="46.572" lon="6.01755">
        <ele>1002.9</ele>
        <time>2021-11-09T12:21:59Z</time>
      </trkpt>
      <trkpt lat="46.57202" lon="6.01748">
        <ele>1002.2</ele>
        <time>2021-11-09T12:22:03Z</time>
      </trkpt>
      <trkpt lat="46.57205" lon="6.01741">
        <ele>1001.5</ele>
        <time>2021-11-09T12:22:09Z</time>
      </trkpt>
      <trkpt lat="46.57208" lon="6.01737">
        <ele>1000.5</ele>
        <time>2021-11-09T12:22:16Z</time>
      </trkpt>
      <trkpt lat="46.57212" lon="6.01732">
        <ele>999.8</ele>
        <time>2021-11-09T12:22:21Z</time>
      </trkpt>
      <trkpt lat="46.57214" lon="6.01725">
        <ele>999.7</ele>
        <time>2021-11-09T12:22:24Z</time>
      </trkpt>
      <trkpt lat="46.57216" lon="6.01717">
        <ele>999.8</ele>
        <time>2021-11-09T12:22:27Z</time>
      </trkpt>
      <trkpt lat="46.57219" lon="6.01711">
        <ele>1000.1</ele>
        <time>2021-11-09T12:22:31Z</time>
      </trkpt>
      <trkpt lat="46.57222" lon="6.01704">
        <ele>999.7</ele>
        <time>2021-11-09T12:22:36Z</time>
      </trkpt>
      <trkpt lat="46.57225" lon="6.01698">
        <ele>999</ele>
        <time>2021-11-09T12:22:41Z</time>
      </trkpt>
      <trkpt lat="46.57228" lon="6.01693">
        <ele>999</ele>
        <time>2021-11-09T12:22:44Z</time>
      </trkpt>
      <trkpt lat="46.57232" lon="6.01688">
        <ele>998.8</ele>
        <time>2021-11-09T12:22:47Z</time>
      </trkpt>
      <trkpt lat="46.57236" lon="6.01683">
        <ele>997.9</ele>
        <time>2021-11-09T12:22:52Z</time>
      </trkpt>
      <trkpt lat="46.5724" lon="6.01679">
        <ele>996.5</ele>
        <time>2021-11-09T12:22:58Z</time>
      </trkpt>
      <trkpt lat="46.57243" lon="6.01675">
        <ele>996.3</ele>
        <time>2021-11-09T12:23:01Z</time>
      </trkpt>
      <trkpt lat="46.57246" lon="6.01667">
        <ele>996.7</ele>
        <time>2021-11-09T12:23:04Z</time>
      </trkpt>
      <trkpt lat="46.57248" lon="6.01659">
        <ele>997.8</ele>
        <time>2021-11-09T12:23:08Z</time>
      </trkpt>
      <trkpt lat="46.57251" lon="6.01653">
        <ele>999</ele>
        <time>2021-11-09T12:23:12Z</time>
      </trkpt>
      <trkpt lat="46.57253" lon="6.01647">
        <ele>1001.1</ele>
        <time>2021-11-09T12:23:17Z</time>
      </trkpt>
      <trkpt lat="46.57256" lon="6.0164">
        <ele>1003.4</ele>
        <time>2021-11-09T12:23:23Z</time>
      </trkpt>
      <trkpt lat="46.57261" lon="6.01639">
        <ele>1004.7</ele>
        <time>2021-11-09T12:23:29Z</time>
      </trkpt>
      <trkpt lat="46.57266" lon="6.01639">
        <ele>1005.2</ele>
        <time>2021-11-09T12:23:33Z</time>
      </trkpt>
      <trkpt lat="46.57272" lon="6.01638">
        <ele>1005.8</ele>
        <time>2021-11-09T12:23:37Z</time>
      </trkpt>
      <trkpt lat="46.57277" lon="6.01638">
        <ele>1006.7</ele>
        <time>2021-11-09T12:23:44Z</time>
      </trkpt>
      <trkpt lat="46.57282" lon="6.01636">
        <ele>1007.6</ele>
        <time>2021-11-09T12:23:50Z</time>
      </trkpt>
      <trkpt lat="46.57287" lon="6.01633">
        <ele>1008.4</ele>
        <time>2021-11-09T12:23:55Z</time>
      </trkpt>
      <trkpt lat="46.57291" lon="6.01631">
        <ele>1009</ele>
        <time>2021-11-09T12:24:00Z</time>
      </trkpt>
      <trkpt lat="46.57296" lon="6.01629">
        <ele>1009.1</ele>
        <time>2021-11-09T12:24:07Z</time>
      </trkpt>
      <trkpt lat="46.57301" lon="6.01626">
        <ele>1008.4</ele>
        <time>2021-11-09T12:24:12Z</time>
      </trkpt>
      <trkpt lat="46.57305" lon="6.01623">
        <ele>1007.9</ele>
        <time>2021-11-09T12:24:16Z</time>
      </trkpt>
      <trkpt lat="46.5731" lon="6.0162">
        <ele>1007.8</ele>
        <time>2021-11-09T12:24:22Z</time>
      </trkpt>
      <trkpt lat="46.57314" lon="6.01618">
        <ele>1008.3</ele>
        <time>2021-11-09T12:24:29Z</time>
      </trkpt>
      <trkpt lat="46.57318" lon="6.01614">
        <ele>1008.7</ele>
        <time>2021-11-09T12:24:35Z</time>
      </trkpt>
      <trkpt lat="46.57322" lon="6.0161">
        <ele>1008.5</ele>
        <time>2021-11-09T12:24:43Z</time>
      </trkpt>
      <trkpt lat="46.57326" lon="6.01606">
        <ele>1007.7</ele>
        <time>2021-11-09T12:24:48Z</time>
      </trkpt>
      <trkpt lat="46.5733" lon="6.01602">
        <ele>1007.3</ele>
        <time>2021-11-09T12:24:53Z</time>
      </trkpt>
      <trkpt lat="46.57335" lon="6.01599">
        <ele>1007.6</ele>
        <time>2021-11-09T12:24:59Z</time>
      </trkpt>
      <trkpt lat="46.57338" lon="6.01595">
        <ele>1007.5</ele>
        <time>2021-11-09T12:25:04Z</time>
      </trkpt>
      <trkpt lat="46.57342" lon="6.01591">
        <ele>1006.9</ele>
        <time>2021-11-09T12:25:08Z</time>
      </trkpt>
      <trkpt lat="46.57347" lon="6.01587">
        <ele>1006.1</ele>
        <time>2021-11-09T12:25:13Z</time>
      </trkpt>
      <trkpt lat="46.57352" lon="6.01583">
        <ele>1004.7</ele>
        <time>2021-11-09T12:25:19Z</time>
      </trkpt>
      <trkpt lat="46.57356" lon="6.0158">
        <ele>1003</ele>
        <time>2021-11-09T12:25:25Z</time>
      </trkpt>
      <trkpt lat="46.5736" lon="6.01575">
        <ele>1001.2</ele>
        <time>2021-11-09T12:25:31Z</time>
      </trkpt>
      <trkpt lat="46.57363" lon="6.0157">
        <ele>1000.2</ele>
        <time>2021-11-09T12:25:35Z</time>
      </trkpt>
      <trkpt lat="46.57367" lon="6.01564">
        <ele>999.6</ele>
        <time>2021-11-09T12:25:40Z</time>
      </trkpt>
      <trkpt lat="46.5737" lon="6.01558">
        <ele>999.3</ele>
        <time>2021-11-09T12:25:44Z</time>
      </trkpt>
      <trkpt lat="46.57372" lon="6.01552">
        <ele>999.2</ele>
        <time>2021-11-09T12:25:50Z</time>
      </trkpt>
      <trkpt lat="46.57376" lon="6.01548">
        <ele>1000.1</ele>
        <time>2021-11-09T12:25:57Z</time>
      </trkpt>
      <trkpt lat="46.57381" lon="6.01545">
        <ele>1001.5</ele>
        <time>2021-11-09T12:26:01Z</time>
      </trkpt>
      <trkpt lat="46.57385" lon="6.01541">
        <ele>1003.1</ele>
        <time>2021-11-09T12:26:06Z</time>
      </trkpt>
      <trkpt lat="46.5739" lon="6.01538">
        <ele>1004.6</ele>
        <time>2021-11-09T12:26:11Z</time>
      </trkpt>
      <trkpt lat="46.57392" lon="6.01533">
        <ele>1006.4</ele>
        <time>2021-11-09T12:26:18Z</time>
      </trkpt>
      <trkpt lat="46.57396" lon="6.01527">
        <ele>1008</ele>
        <time>2021-11-09T12:26:23Z</time>
      </trkpt>
      <trkpt lat="46.57399" lon="6.01521">
        <ele>1009.6</ele>
        <time>2021-11-09T12:26:27Z</time>
      </trkpt>
      <trkpt lat="46.57402" lon="6.01516">
        <ele>1011.6</ele>
        <time>2021-11-09T12:26:32Z</time>
      </trkpt>
      <trkpt lat="46.57406" lon="6.01514">
        <ele>1012.8</ele>
        <time>2021-11-09T12:26:38Z</time>
      </trkpt>
      <trkpt lat="46.57411" lon="6.0151">
        <ele>1013.7</ele>
        <time>2021-11-09T12:26:42Z</time>
      </trkpt>
      <trkpt lat="46.57417" lon="6.01508">
        <ele>1014.6</ele>
        <time>2021-11-09T12:26:46Z</time>
      </trkpt>
      <trkpt lat="46.57421" lon="6.01507">
        <ele>1015.4</ele>
        <time>2021-11-09T12:26:49Z</time>
      </trkpt>
      <trkpt lat="46.57427" lon="6.01507">
        <ele>1016.3</ele>
        <time>2021-11-09T12:26:53Z</time>
      </trkpt>
      <trkpt lat="46.57432" lon="6.01506">
        <ele>1017.2</ele>
        <time>2021-11-09T12:26:57Z</time>
      </trkpt>
      <trkpt lat="46.57437" lon="6.01507">
        <ele>1017.7</ele>
        <time>2021-11-09T12:27:01Z</time>
      </trkpt>
      <trkpt lat="46.57442" lon="6.01508">
        <ele>1017.5</ele>
        <time>2021-11-09T12:27:05Z</time>
      </trkpt>
      <trkpt lat="46.57446" lon="6.01506">
        <ele>1016.9</ele>
        <time>2021-11-09T12:27:09Z</time>
      </trkpt>
      <trkpt lat="46.5745" lon="6.01503">
        <ele>1016.2</ele>
        <time>2021-11-09T12:27:13Z</time>
      </trkpt>
      <trkpt lat="46.57454" lon="6.015">
        <ele>1015.2</ele>
        <time>2021-11-09T12:27:16Z</time>
      </trkpt>
      <trkpt lat="46.57459" lon="6.01498">
        <ele>1013.5</ele>
        <time>2021-11-09T12:27:21Z</time>
      </trkpt>
      <trkpt lat="46.57464" lon="6.01495">
        <ele>1011.7</ele>
        <time>2021-11-09T12:27:30Z</time>
      </trkpt>
      <trkpt lat="46.57468" lon="6.01492">
        <ele>1011.3</ele>
        <time>2021-11-09T12:27:34Z</time>
      </trkpt>
      <trkpt lat="46.57472" lon="6.01489">
        <ele>1010.9</ele>
        <time>2021-11-09T12:27:40Z</time>
      </trkpt>
      <trkpt lat="46.57477" lon="6.01485">
        <ele>1010.3</ele>
        <time>2021-11-09T12:27:51Z</time>
      </trkpt>
      <trkpt lat="46.57481" lon="6.01479">
        <ele>1009.8</ele>
        <time>2021-11-09T12:27:56Z</time>
      </trkpt>
      <trkpt lat="46.57485" lon="6.01475">
        <ele>1009.3</ele>
        <time>2021-11-09T12:28:01Z</time>
      </trkpt>
      <trkpt lat="46.57488" lon="6.0147">
        <ele>1008.2</ele>
        <time>2021-11-09T12:28:07Z</time>
      </trkpt>
      <trkpt lat="46.57491" lon="6.01464">
        <ele>1007</ele>
        <time>2021-11-09T12:28:12Z</time>
      </trkpt>
      <trkpt lat="46.57495" lon="6.0146">
        <ele>1005.1</ele>
        <time>2021-11-09T12:28:18Z</time>
      </trkpt>
      <trkpt lat="46.57499" lon="6.01456">
        <ele>1003.4</ele>
        <time>2021-11-09T12:28:23Z</time>
      </trkpt>
      <trkpt lat="46.57504" lon="6.01452">
        <ele>1002.6</ele>
        <time>2021-11-09T12:28:28Z</time>
      </trkpt>
      <trkpt lat="46.57508" lon="6.01449">
        <ele>1002.7</ele>
        <time>2021-11-09T12:28:33Z</time>
      </trkpt>
      <trkpt lat="46.57512" lon="6.01445">
        <ele>1003.2</ele>
        <time>2021-11-09T12:28:37Z</time>
      </trkpt>
      <trkpt lat="46.57517" lon="6.01443">
        <ele>1003.8</ele>
        <time>2021-11-09T12:28:42Z</time>
      </trkpt>
      <trkpt lat="46.57521" lon="6.01439">
        <ele>1004.3</ele>
        <time>2021-11-09T12:28:47Z</time>
      </trkpt>
      <trkpt lat="46.57524" lon="6.01431">
        <ele>1005.2</ele>
        <time>2021-11-09T12:28:51Z</time>
      </trkpt>
      <trkpt lat="46.57526" lon="6.01425">
        <ele>1005.9</ele>
        <time>2021-11-09T12:28:55Z</time>
      </trkpt>
      <trkpt lat="46.5753" lon="6.0142">
        <ele>1006.1</ele>
        <time>2021-11-09T12:29:00Z</time>
      </trkpt>
      <trkpt lat="46.57533" lon="6.01414">
        <ele>1005.7</ele>
        <time>2021-11-09T12:29:07Z</time>
      </trkpt>
      <trkpt lat="46.57532" lon="6.01407">
        <ele>1005.2</ele>
        <time>2021-11-09T12:29:12Z</time>
      </trkpt>
      <trkpt lat="46.57531" lon="6.014">
        <ele>1005</ele>
        <time>2021-11-09T12:29:16Z</time>
      </trkpt>
      <trkpt lat="46.57532" lon="6.01393">
        <ele>1004.9</ele>
        <time>2021-11-09T12:29:21Z</time>
      </trkpt>
      <trkpt lat="46.57536" lon="6.01389">
        <ele>1004.7</ele>
        <time>2021-11-09T12:29:26Z</time>
      </trkpt>
      <trkpt lat="46.57539" lon="6.01382">
        <ele>1004.4</ele>
        <time>2021-11-09T12:29:32Z</time>
      </trkpt>
      <trkpt lat="46.57539" lon="6.01376">
        <ele>1003.9</ele>
        <time>2021-11-09T12:29:38Z</time>
      </trkpt>
      <trkpt lat="46.5754" lon="6.01368">
        <ele>1003.6</ele>
        <time>2021-11-09T12:29:43Z</time>
      </trkpt>
      <trkpt lat="46.57544" lon="6.01363">
        <ele>1003.4</ele>
        <time>2021-11-09T12:29:48Z</time>
      </trkpt>
      <trkpt lat="46.57545" lon="6.01356">
        <ele>1003.6</ele>
        <time>2021-11-09T12:29:52Z</time>
      </trkpt>
      <trkpt lat="46.57548" lon="6.01349">
        <ele>1004.1</ele>
        <time>2021-11-09T12:29:56Z</time>
      </trkpt>
      <trkpt lat="46.57552" lon="6.01346">
        <ele>1004.4</ele>
        <time>2021-11-09T12:29:59Z</time>
      </trkpt>
      <trkpt lat="46.57556" lon="6.01341">
        <ele>1004.8</ele>
        <time>2021-11-09T12:30:03Z</time>
      </trkpt>
      <trkpt lat="46.57558" lon="6.01335">
        <ele>1005.1</ele>
        <time>2021-11-09T12:30:08Z</time>
      </trkpt>
      <trkpt lat="46.57558" lon="6.01328">
        <ele>1004.6</ele>
        <time>2021-11-09T12:30:15Z</time>
      </trkpt>
      <trkpt lat="46.57557" lon="6.01321">
        <ele>1003.7</ele>
        <time>2021-11-09T12:30:21Z</time>
      </trkpt>
      <trkpt lat="46.57558" lon="6.01313">
        <ele>1002.8</ele>
        <time>2021-11-09T12:30:28Z</time>
      </trkpt>
      <trkpt lat="46.57561" lon="6.01308">
        <ele>1002.6</ele>
        <time>2021-11-09T12:30:31Z</time>
      </trkpt>
      <trkpt lat="46.57565" lon="6.01303">
        <ele>1002</ele>
        <time>2021-11-09T12:30:35Z</time>
      </trkpt>
      <trkpt lat="46.57566" lon="6.01296">
        <ele>1001.6</ele>
        <time>2021-11-09T12:30:41Z</time>
      </trkpt>
      <trkpt lat="46.57568" lon="6.01289">
        <ele>1001.8</ele>
        <time>2021-11-09T12:30:46Z</time>
      </trkpt>
      <trkpt lat="46.57566" lon="6.01282">
        <ele>1001.8</ele>
        <time>2021-11-09T12:30:51Z</time>
      </trkpt>
      <trkpt lat="46.57564" lon="6.01276">
        <ele>1001.4</ele>
        <time>2021-11-09T12:30:55Z</time>
      </trkpt>
      <trkpt lat="46.57561" lon="6.01269">
        <ele>1000.2</ele>
        <time>2021-11-09T12:31:00Z</time>
      </trkpt>
      <trkpt lat="46.57562" lon="6.01263">
        <ele>997.8</ele>
        <time>2021-11-09T12:31:07Z</time>
      </trkpt>
      <trkpt lat="46.57561" lon="6.01256">
        <ele>993.7</ele>
        <time>2021-11-09T12:31:17Z</time>
      </trkpt>
      <trkpt lat="46.57559" lon="6.0125">
        <ele>991.2</ele>
        <time>2021-11-09T12:31:23Z</time>
      </trkpt>
      <trkpt lat="46.57558" lon="6.01243">
        <ele>989.3</ele>
        <time>2021-11-09T12:31:30Z</time>
      </trkpt>
      <trkpt lat="46.57558" lon="6.01236">
        <ele>987.9</ele>
        <time>2021-11-09T12:31:35Z</time>
      </trkpt>
      <trkpt lat="46.57558" lon="6.01229">
        <ele>985.9</ele>
        <time>2021-11-09T12:31:41Z</time>
      </trkpt>
      <trkpt lat="46.57559" lon="6.01223">
        <ele>984.4</ele>
        <time>2021-11-09T12:31:46Z</time>
      </trkpt>
      <trkpt lat="46.57562" lon="6.01217">
        <ele>983.1</ele>
        <time>2021-11-09T12:31:51Z</time>
      </trkpt>
      <trkpt lat="46.57565" lon="6.0121">
        <ele>981.6</ele>
        <time>2021-11-09T12:31:55Z</time>
      </trkpt>
      <trkpt lat="46.57566" lon="6.01203">
        <ele>980.2</ele>
        <time>2021-11-09T12:32:00Z</time>
      </trkpt>
      <trkpt lat="46.57565" lon="6.01196">
        <ele>979.9</ele>
        <time>2021-11-09T12:32:05Z</time>
      </trkpt>
      <trkpt lat="46.57567" lon="6.01189">
        <ele>979.1</ele>
        <time>2021-11-09T12:32:12Z</time>
      </trkpt>
      <trkpt lat="46.57571" lon="6.01184">
        <ele>978.1</ele>
        <time>2021-11-09T12:32:17Z</time>
      </trkpt>
      <trkpt lat="46.57574" lon="6.01176">
        <ele>976.7</ele>
        <time>2021-11-09T12:32:24Z</time>
      </trkpt>
      <trkpt lat="46.57576" lon="6.01171">
        <ele>976.7</ele>
        <time>2021-11-09T12:32:28Z</time>
      </trkpt>
      <trkpt lat="46.5758" lon="6.01164">
        <ele>977</ele>
        <time>2021-11-09T12:32:32Z</time>
      </trkpt>
      <trkpt lat="46.57582" lon="6.01158">
        <ele>977.6</ele>
        <time>2021-11-09T12:32:35Z</time>
      </trkpt>
      <trkpt lat="46.57584" lon="6.0115">
        <ele>979</ele>
        <time>2021-11-09T12:32:39Z</time>
      </trkpt>
      <trkpt lat="46.57588" lon="6.01147">
        <ele>980.5</ele>
        <time>2021-11-09T12:32:45Z</time>
      </trkpt>
      <trkpt lat="46.57591" lon="6.01141">
        <ele>982.2</ele>
        <time>2021-11-09T12:32:50Z</time>
      </trkpt>
      <trkpt lat="46.57595" lon="6.01137">
        <ele>983</ele>
        <time>2021-11-09T12:32:56Z</time>
      </trkpt>
      <trkpt lat="46.57599" lon="6.01135">
        <ele>982.4</ele>
        <time>2021-11-09T12:33:07Z</time>
      </trkpt>
      <trkpt lat="46.57601" lon="6.01127">
        <ele>980.8</ele>
        <time>2021-11-09T12:33:14Z</time>
      </trkpt>
      <trkpt lat="46.57602" lon="6.01119">
        <ele>980.5</ele>
        <time>2021-11-09T12:33:17Z</time>
      </trkpt>
      <trkpt lat="46.57603" lon="6.0111">
        <ele>980.3</ele>
        <time>2021-11-09T12:33:21Z</time>
      </trkpt>
      <trkpt lat="46.57603" lon="6.01103">
        <ele>980.5</ele>
        <time>2021-11-09T12:33:24Z</time>
      </trkpt>
      <trkpt lat="46.57604" lon="6.01095">
        <ele>980.8</ele>
        <time>2021-11-09T12:33:28Z</time>
      </trkpt>
      <trkpt lat="46.57606" lon="6.01088">
        <ele>981</ele>
        <time>2021-11-09T12:33:32Z</time>
      </trkpt>
      <trkpt lat="46.57608" lon="6.01081">
        <ele>980.9</ele>
        <time>2021-11-09T12:33:38Z</time>
      </trkpt>
      <trkpt lat="46.57608" lon="6.01074">
        <ele>980.5</ele>
        <time>2021-11-09T12:33:44Z</time>
      </trkpt>
      <trkpt lat="46.57609" lon="6.01067">
        <ele>980.3</ele>
        <time>2021-11-09T12:33:49Z</time>
      </trkpt>
      <trkpt lat="46.57606" lon="6.01062">
        <ele>980.1</ele>
        <time>2021-11-09T12:33:53Z</time>
      </trkpt>
      <trkpt lat="46.57606" lon="6.01055">
        <ele>979.9</ele>
        <time>2021-11-09T12:34:00Z</time>
      </trkpt>
      <trkpt lat="46.57609" lon="6.01049">
        <ele>979.5</ele>
        <time>2021-11-09T12:34:06Z</time>
      </trkpt>
      <trkpt lat="46.57612" lon="6.01043">
        <ele>978.9</ele>
        <time>2021-11-09T12:34:12Z</time>
      </trkpt>
      <trkpt lat="46.57614" lon="6.01035">
        <ele>978.9</ele>
        <time>2021-11-09T12:34:17Z</time>
      </trkpt>
      <trkpt lat="46.57617" lon="6.01031">
        <ele>978.9</ele>
        <time>2021-11-09T12:34:21Z</time>
      </trkpt>
      <trkpt lat="46.57618" lon="6.01024">
        <ele>978.7</ele>
        <time>2021-11-09T12:34:26Z</time>
      </trkpt>
      <trkpt lat="46.5762" lon="6.01018">
        <ele>978.7</ele>
        <time>2021-11-09T12:34:32Z</time>
      </trkpt>
      <trkpt lat="46.57622" lon="6.01011">
        <ele>978.6</ele>
        <time>2021-11-09T12:34:37Z</time>
      </trkpt>
      <trkpt lat="46.57626" lon="6.01005">
        <ele>978.4</ele>
        <time>2021-11-09T12:34:45Z</time>
      </trkpt>
      <trkpt lat="46.5763" lon="6.00999">
        <ele>978.4</ele>
        <time>2021-11-09T12:34:48Z</time>
      </trkpt>
      <trkpt lat="46.57633" lon="6.00993">
        <ele>978.7</ele>
        <time>2021-11-09T12:34:52Z</time>
      </trkpt>
      <trkpt lat="46.57635" lon="6.00986">
        <ele>979.2</ele>
        <time>2021-11-09T12:34:57Z</time>
      </trkpt>
      <trkpt lat="46.57637" lon="6.0098">
        <ele>978.9</ele>
        <time>2021-11-09T12:35:03Z</time>
      </trkpt>
      <trkpt lat="46.57641" lon="6.00975">
        <ele>978</ele>
        <time>2021-11-09T12:35:09Z</time>
      </trkpt>
      <trkpt lat="46.57644" lon="6.0097">
        <ele>977.6</ele>
        <time>2021-11-09T12:35:13Z</time>
      </trkpt>
      <trkpt lat="46.57646" lon="6.00964">
        <ele>977.6</ele>
        <time>2021-11-09T12:35:17Z</time>
      </trkpt>
      <trkpt lat="46.57648" lon="6.00958">
        <ele>978</ele>
        <time>2021-11-09T12:35:21Z</time>
      </trkpt>
      <trkpt lat="46.57648" lon="6.00951">
        <ele>978.2</ele>
        <time>2021-11-09T12:35:33Z</time>
      </trkpt>
      <trkpt lat="46.57651" lon="6.00945">
        <ele>978.2</ele>
        <time>2021-11-09T12:35:38Z</time>
      </trkpt>
      <trkpt lat="46.57653" lon="6.00938">
        <ele>978.4</ele>
        <time>2021-11-09T12:35:44Z</time>
      </trkpt>
      <trkpt lat="46.57655" lon="6.00931">
        <ele>978.5</ele>
        <time>2021-11-09T12:35:48Z</time>
      </trkpt>
      <trkpt lat="46.57658" lon="6.00926">
        <ele>978.5</ele>
        <time>2021-11-09T12:35:52Z</time>
      </trkpt>
      <trkpt lat="46.57662" lon="6.00921">
        <ele>978.6</ele>
        <time>2021-11-09T12:35:57Z</time>
      </trkpt>
      <trkpt lat="46.57665" lon="6.00916">
        <ele>978.7</ele>
        <time>2021-11-09T12:36:04Z</time>
      </trkpt>
      <trkpt lat="46.57667" lon="6.00909">
        <ele>978.6</ele>
        <time>2021-11-09T12:36:11Z</time>
      </trkpt>
      <trkpt lat="46.57671" lon="6.00904">
        <ele>978.9</ele>
        <time>2021-11-09T12:36:16Z</time>
      </trkpt>
      <trkpt lat="46.57675" lon="6.00898">
        <ele>979.4</ele>
        <time>2021-11-09T12:36:20Z</time>
      </trkpt>
      <trkpt lat="46.57676" lon="6.0089">
        <ele>980.3</ele>
        <time>2021-11-09T12:36:23Z</time>
      </trkpt>
      <trkpt lat="46.57675" lon="6.00883">
        <ele>981.8</ele>
        <time>2021-11-09T12:36:26Z</time>
      </trkpt>
      <trkpt lat="46.57675" lon="6.00876">
        <ele>983.8</ele>
        <time>2021-11-09T12:36:31Z</time>
      </trkpt>
      <trkpt lat="46.57678" lon="6.00869">
        <ele>984.9</ele>
        <time>2021-11-09T12:36:36Z</time>
      </trkpt>
      <trkpt lat="46.57682" lon="6.00866">
        <ele>985.2</ele>
        <time>2021-11-09T12:36:40Z</time>
      </trkpt>
      <trkpt lat="46.57683" lon="6.00859">
        <ele>985</ele>
        <time>2021-11-09T12:36:47Z</time>
      </trkpt>
      <trkpt lat="46.57684" lon="6.00852">
        <ele>984.5</ele>
        <time>2021-11-09T12:36:53Z</time>
      </trkpt>
      <trkpt lat="46.57688" lon="6.00848">
        <ele>984.1</ele>
        <time>2021-11-09T12:36:58Z</time>
      </trkpt>
      <trkpt lat="46.5769" lon="6.00841">
        <ele>983.7</ele>
        <time>2021-11-09T12:37:02Z</time>
      </trkpt>
      <trkpt lat="46.57692" lon="6.00834">
        <ele>983.6</ele>
        <time>2021-11-09T12:37:05Z</time>
      </trkpt>
      <trkpt lat="46.57693" lon="6.00828">
        <ele>983.7</ele>
        <time>2021-11-09T12:37:10Z</time>
      </trkpt>
      <trkpt lat="46.57695" lon="6.00821">
        <ele>983.7</ele>
        <time>2021-11-09T12:37:15Z</time>
      </trkpt>
      <trkpt lat="46.57698" lon="6.00814">
        <ele>983.8</ele>
        <time>2021-11-09T12:37:19Z</time>
      </trkpt>
      <trkpt lat="46.577" lon="6.00808">
        <ele>984.3</ele>
        <time>2021-11-09T12:37:24Z</time>
      </trkpt>
      <trkpt lat="46.57701" lon="6.00801">
        <ele>985.3</ele>
        <time>2021-11-09T12:37:28Z</time>
      </trkpt>
      <trkpt lat="46.57705" lon="6.00796">
        <ele>985.9</ele>
        <time>2021-11-09T12:37:35Z</time>
      </trkpt>
      <trkpt lat="46.57706" lon="6.0079">
        <ele>986.2</ele>
        <time>2021-11-09T12:37:41Z</time>
      </trkpt>
      <trkpt lat="46.57706" lon="6.00783">
        <ele>986.8</ele>
        <time>2021-11-09T12:37:53Z</time>
      </trkpt>
      <trkpt lat="46.57711" lon="6.00781">
        <ele>987.1</ele>
        <time>2021-11-09T12:37:59Z</time>
      </trkpt>
      <trkpt lat="46.57715" lon="6.00778">
        <ele>986.2</ele>
        <time>2021-11-09T12:38:07Z</time>
      </trkpt>
      <trkpt lat="46.57715" lon="6.0077">
        <ele>985.6</ele>
        <time>2021-11-09T12:38:12Z</time>
      </trkpt>
      <trkpt lat="46.57718" lon="6.00764">
        <ele>985.1</ele>
        <time>2021-11-09T12:38:16Z</time>
      </trkpt>
      <trkpt lat="46.57722" lon="6.00759">
        <ele>984.5</ele>
        <time>2021-11-09T12:38:21Z</time>
      </trkpt>
      <trkpt lat="46.57725" lon="6.00753">
        <ele>983.7</ele>
        <time>2021-11-09T12:38:27Z</time>
      </trkpt>
      <trkpt lat="46.57729" lon="6.00747">
        <ele>983.4</ele>
        <time>2021-11-09T12:38:31Z</time>
      </trkpt>
      <trkpt lat="46.57731" lon="6.00741">
        <ele>983.6</ele>
        <time>2021-11-09T12:38:35Z</time>
      </trkpt>
      <trkpt lat="46.57732" lon="6.00733">
        <ele>984.4</ele>
        <time>2021-11-09T12:38:39Z</time>
      </trkpt>
      <trkpt lat="46.57732" lon="6.00725">
        <ele>985.9</ele>
        <time>2021-11-09T12:38:44Z</time>
      </trkpt>
      <trkpt lat="46.57732" lon="6.00718">
        <ele>987.7</ele>
        <time>2021-11-09T12:38:49Z</time>
      </trkpt>
      <trkpt lat="46.57734" lon="6.00711">
        <ele>989.6</ele>
        <time>2021-11-09T12:38:55Z</time>
      </trkpt>
      <trkpt lat="46.57738" lon="6.00707">
        <ele>990.3</ele>
        <time>2021-11-09T12:39:01Z</time>
      </trkpt>
      <trkpt lat="46.57741" lon="6.00701">
        <ele>990.3</ele>
        <time>2021-11-09T12:39:07Z</time>
      </trkpt>
      <trkpt lat="46.57745" lon="6.00695">
        <ele>990.1</ele>
        <time>2021-11-09T12:39:12Z</time>
      </trkpt>
      <trkpt lat="46.57744" lon="6.00688">
        <ele>990.3</ele>
        <time>2021-11-09T12:39:19Z</time>
      </trkpt>
      <trkpt lat="46.57747" lon="6.00682">
        <ele>990.9</ele>
        <time>2021-11-09T12:39:24Z</time>
      </trkpt>
      <trkpt lat="46.57749" lon="6.00676">
        <ele>991.5</ele>
        <time>2021-11-09T12:39:28Z</time>
      </trkpt>
      <trkpt lat="46.57751" lon="6.0067">
        <ele>992.3</ele>
        <time>2021-11-09T12:39:32Z</time>
      </trkpt>
      <trkpt lat="46.57751" lon="6.00662">
        <ele>993</ele>
        <time>2021-11-09T12:39:38Z</time>
      </trkpt>
      <trkpt lat="46.57753" lon="6.00656">
        <ele>993.8</ele>
        <time>2021-11-09T12:39:46Z</time>
      </trkpt>
      <trkpt lat="46.57756" lon="6.00651">
        <ele>993.1</ele>
        <time>2021-11-09T12:39:55Z</time>
      </trkpt>
      <trkpt lat="46.57758" lon="6.00644">
        <ele>991.3</ele>
        <time>2021-11-09T12:40:05Z</time>
      </trkpt>
      <trkpt lat="46.57759" lon="6.00637">
        <ele>990</ele>
        <time>2021-11-09T12:40:10Z</time>
      </trkpt>
      <trkpt lat="46.57762" lon="6.0063">
        <ele>988.8</ele>
        <time>2021-11-09T12:40:15Z</time>
      </trkpt>
      <trkpt lat="46.57765" lon="6.00625">
        <ele>987.7</ele>
        <time>2021-11-09T12:40:21Z</time>
      </trkpt>
      <trkpt lat="46.57766" lon="6.00619">
        <ele>987.7</ele>
        <time>2021-11-09T12:40:30Z</time>
      </trkpt>
      <trkpt lat="46.57765" lon="6.00611">
        <ele>987.9</ele>
        <time>2021-11-09T12:40:34Z</time>
      </trkpt>
      <trkpt lat="46.57764" lon="6.00604">
        <ele>988.2</ele>
        <time>2021-11-09T12:40:39Z</time>
      </trkpt>
      <trkpt lat="46.57765" lon="6.00597">
        <ele>987.8</ele>
        <time>2021-11-09T12:40:45Z</time>
      </trkpt>
      <trkpt lat="46.57766" lon="6.0059">
        <ele>986.3</ele>
        <time>2021-11-09T12:40:51Z</time>
      </trkpt>
      <trkpt lat="46.57767" lon="6.00582">
        <ele>985.3</ele>
        <time>2021-11-09T12:40:57Z</time>
      </trkpt>
      <trkpt lat="46.57766" lon="6.00575">
        <ele>984.3</ele>
        <time>2021-11-09T12:41:02Z</time>
      </trkpt>
      <trkpt lat="46.57766" lon="6.00569">
        <ele>983.1</ele>
        <time>2021-11-09T12:41:08Z</time>
      </trkpt>
      <trkpt lat="46.57767" lon="6.00562">
        <ele>983</ele>
        <time>2021-11-09T12:41:14Z</time>
      </trkpt>
      <trkpt lat="46.57768" lon="6.00554">
        <ele>984</ele>
        <time>2021-11-09T12:41:18Z</time>
      </trkpt>
      <trkpt lat="46.57769" lon="6.00547">
        <ele>985.5</ele>
        <time>2021-11-09T12:41:21Z</time>
      </trkpt>
      <trkpt lat="46.5777" lon="6.0054">
        <ele>988.1</ele>
        <time>2021-11-09T12:41:25Z</time>
      </trkpt>
      <trkpt lat="46.5777" lon="6.00532">
        <ele>990.9</ele>
        <time>2021-11-09T12:41:31Z</time>
      </trkpt>
      <trkpt lat="46.57766" lon="6.00528">
        <ele>992.6</ele>
        <time>2021-11-09T12:41:35Z</time>
      </trkpt>
      <trkpt lat="46.57764" lon="6.00522">
        <ele>994.3</ele>
        <time>2021-11-09T12:41:39Z</time>
      </trkpt>
      <trkpt lat="46.57763" lon="6.00514">
        <ele>997.1</ele>
        <time>2021-11-09T12:41:45Z</time>
      </trkpt>
      <trkpt lat="46.57766" lon="6.00509">
        <ele>998.2</ele>
        <time>2021-11-09T12:41:50Z</time>
      </trkpt>
      <trkpt lat="46.57766" lon="6.00502">
        <ele>998.2</ele>
        <time>2021-11-09T12:41:56Z</time>
      </trkpt>
      <trkpt lat="46.57767" lon="6.00496">
        <ele>998</ele>
        <time>2021-11-09T12:42:01Z</time>
      </trkpt>
      <trkpt lat="46.57769" lon="6.0049">
        <ele>997.6</ele>
        <time>2021-11-09T12:42:05Z</time>
      </trkpt>
      <trkpt lat="46.57766" lon="6.00484">
        <ele>994.2</ele>
        <time>2021-11-09T12:42:14Z</time>
      </trkpt>
      <trkpt lat="46.57764" lon="6.00477">
        <ele>992.7</ele>
        <time>2021-11-09T12:42:20Z</time>
      </trkpt>
      <trkpt lat="46.57766" lon="6.0047">
        <ele>991.8</ele>
        <time>2021-11-09T12:42:25Z</time>
      </trkpt>
      <trkpt lat="46.57766" lon="6.00463">
        <ele>990.5</ele>
        <time>2021-11-09T12:42:29Z</time>
      </trkpt>
      <trkpt lat="46.57766" lon="6.00457">
        <ele>987.7</ele>
        <time>2021-11-09T12:42:37Z</time>
      </trkpt>
      <trkpt lat="46.57763" lon="6.00452">
        <ele>987</ele>
        <time>2021-11-09T12:42:43Z</time>
      </trkpt>
      <trkpt lat="46.57759" lon="6.00448">
        <ele>987.2</ele>
        <time>2021-11-09T12:42:47Z</time>
      </trkpt>
      <trkpt lat="46.57755" lon="6.00444">
        <ele>987.7</ele>
        <time>2021-11-09T12:42:51Z</time>
      </trkpt>
      <trkpt lat="46.57756" lon="6.00438">
        <ele>989</ele>
        <time>2021-11-09T12:43:00Z</time>
      </trkpt>
      <trkpt lat="46.57758" lon="6.00431">
        <ele>991.7</ele>
        <time>2021-11-09T12:43:12Z</time>
      </trkpt>
      <trkpt lat="46.57756" lon="6.00436">
        <ele>992.7</ele>
        <time>2021-11-09T12:43:41Z</time>
      </trkpt>
      <trkpt lat="46.57751" lon="6.00437">
        <ele>993.1</ele>
        <time>2021-11-09T12:43:44Z</time>
      </trkpt>
      <trkpt lat="46.57752" lon="6.0043">
        <ele>993.6</ele>
        <time>2021-11-09T12:43:58Z</time>
      </trkpt>
      <trkpt lat="46.5776" lon="6.0043">
        <ele>993.7</ele>
        <time>2021-11-09T12:44:05Z</time>
      </trkpt>
      <trkpt lat="46.57764" lon="6.00432">
        <ele>993.3</ele>
        <time>2021-11-09T12:44:10Z</time>
      </trkpt>
      <trkpt lat="46.57769" lon="6.00433">
        <ele>991.2</ele>
        <time>2021-11-09T12:44:21Z</time>
      </trkpt>
      <trkpt lat="46.57764" lon="6.00429">
        <ele>985.2</ele>
        <time>2021-11-09T12:44:33Z</time>
      </trkpt>
      <trkpt lat="46.57759" lon="6.00426">
        <ele>982.6</ele>
        <time>2021-11-09T12:44:38Z</time>
      </trkpt>
      <trkpt lat="46.57754" lon="6.00425">
        <ele>981.7</ele>
        <time>2021-11-09T12:44:43Z</time>
      </trkpt>
      <trkpt lat="46.57752" lon="6.00419">
        <ele>979.6</ele>
        <time>2021-11-09T12:45:06Z</time>
      </trkpt>
      <trkpt lat="46.57757" lon="6.00422">
        <ele>979.4</ele>
        <time>2021-11-09T12:45:18Z</time>
      </trkpt>
      <trkpt lat="46.57763" lon="6.00422">
        <ele>979.5</ele>
        <time>2021-11-09T12:45:23Z</time>
      </trkpt>
      <trkpt lat="46.57758" lon="6.00423">
        <ele>982.9</ele>
        <time>2021-11-09T12:45:45Z</time>
      </trkpt>
      <trkpt lat="46.57757" lon="6.00416">
        <ele>982.8</ele>
        <time>2021-11-09T12:46:08Z</time>
      </trkpt>
      <trkpt lat="46.5776" lon="6.00409">
        <ele>981.7</ele>
        <time>2021-11-09T12:46:14Z</time>
      </trkpt>
      <trkpt lat="46.5776" lon="6.00402">
        <ele>981.2</ele>
        <time>2021-11-09T12:46:19Z</time>
      </trkpt>
      <trkpt lat="46.57762" lon="6.00396">
        <ele>980.4</ele>
        <time>2021-11-09T12:46:24Z</time>
      </trkpt>
      <trkpt lat="46.57763" lon="6.00389">
        <ele>979.4</ele>
        <time>2021-11-09T12:46:29Z</time>
      </trkpt>
      <trkpt lat="46.57762" lon="6.00381">
        <ele>978</ele>
        <time>2021-11-09T12:46:35Z</time>
      </trkpt>
      <trkpt lat="46.57759" lon="6.00374">
        <ele>977.1</ele>
        <time>2021-11-09T12:46:39Z</time>
      </trkpt>
      <trkpt lat="46.57756" lon="6.00368">
        <ele>976.4</ele>
        <time>2021-11-09T12:46:43Z</time>
      </trkpt>
      <trkpt lat="46.57754" lon="6.00361">
        <ele>976.2</ele>
        <time>2021-11-09T12:46:48Z</time>
      </trkpt>
      <trkpt lat="46.57756" lon="6.00354">
        <ele>977.2</ele>
        <time>2021-11-09T12:46:53Z</time>
      </trkpt>
      <trkpt lat="46.57758" lon="6.00347">
        <ele>978</ele>
        <time>2021-11-09T12:46:58Z</time>
      </trkpt>
      <trkpt lat="46.57757" lon="6.00339">
        <ele>979.2</ele>
        <time>2021-11-09T12:47:02Z</time>
      </trkpt>
      <trkpt lat="46.57755" lon="6.00332">
        <ele>980.9</ele>
        <time>2021-11-09T12:47:07Z</time>
      </trkpt>
      <trkpt lat="46.57757" lon="6.00326">
        <ele>981.9</ele>
        <time>2021-11-09T12:47:12Z</time>
      </trkpt>
      <trkpt lat="46.5776" lon="6.0032">
        <ele>982.9</ele>
        <time>2021-11-09T12:47:18Z</time>
      </trkpt>
      <trkpt lat="46.57758" lon="6.00313">
        <ele>983.5</ele>
        <time>2021-11-09T12:47:25Z</time>
      </trkpt>
      <trkpt lat="46.57753" lon="6.00309">
        <ele>983.2</ele>
        <time>2021-11-09T12:47:29Z</time>
      </trkpt>
      <trkpt lat="46.57748" lon="6.00305">
        <ele>982.7</ele>
        <time>2021-11-09T12:47:33Z</time>
      </trkpt>
      <trkpt lat="46.5775" lon="6.00298">
        <ele>979.8</ele>
        <time>2021-11-09T12:47:40Z</time>
      </trkpt>
      <trkpt lat="46.57749" lon="6.00292">
        <ele>977.7</ele>
        <time>2021-11-09T12:47:46Z</time>
      </trkpt>
      <trkpt lat="46.57748" lon="6.00284">
        <ele>976</ele>
        <time>2021-11-09T12:47:52Z</time>
      </trkpt>
      <trkpt lat="46.57748" lon="6.00278">
        <ele>974.6</ele>
        <time>2021-11-09T12:47:57Z</time>
      </trkpt>
      <trkpt lat="46.57745" lon="6.00271">
        <ele>972.7</ele>
        <time>2021-11-09T12:48:02Z</time>
      </trkpt>
      <trkpt lat="46.57741" lon="6.00266">
        <ele>970.7</ele>
        <time>2021-11-09T12:48:07Z</time>
      </trkpt>
      <trkpt lat="46.57741" lon="6.00259">
        <ele>968.5</ele>
        <time>2021-11-09T12:48:15Z</time>
      </trkpt>
      <trkpt lat="46.57739" lon="6.00252">
        <ele>967.5</ele>
        <time>2021-11-09T12:48:20Z</time>
      </trkpt>
      <trkpt lat="46.57739" lon="6.00246">
        <ele>966.1</ele>
        <time>2021-11-09T12:48:27Z</time>
      </trkpt>
      <trkpt lat="46.57738" lon="6.00239">
        <ele>965</ele>
        <time>2021-11-09T12:48:36Z</time>
      </trkpt>
      <trkpt lat="46.57737" lon="6.00232">
        <ele>964.8</ele>
        <time>2021-11-09T12:48:41Z</time>
      </trkpt>
      <trkpt lat="46.57738" lon="6.00225">
        <ele>964.9</ele>
        <time>2021-11-09T12:48:47Z</time>
      </trkpt>
      <trkpt lat="46.57735" lon="6.00219">
        <ele>964.4</ele>
        <time>2021-11-09T12:48:54Z</time>
      </trkpt>
      <trkpt lat="46.57733" lon="6.00212">
        <ele>964.4</ele>
        <time>2021-11-09T12:48:58Z</time>
      </trkpt>
      <trkpt lat="46.57733" lon="6.00204">
        <ele>964.6</ele>
        <time>2021-11-09T12:49:01Z</time>
      </trkpt>
      <trkpt lat="46.57732" lon="6.00195">
        <ele>965.5</ele>
        <time>2021-11-09T12:49:04Z</time>
      </trkpt>
      <trkpt lat="46.57734" lon="6.00189">
        <ele>966.7</ele>
        <time>2021-11-09T12:49:08Z</time>
      </trkpt>
      <trkpt lat="46.57736" lon="6.00182">
        <ele>968</ele>
        <time>2021-11-09T12:49:11Z</time>
      </trkpt>
      <trkpt lat="46.57737" lon="6.00175">
        <ele>970</ele>
        <time>2021-11-09T12:49:15Z</time>
      </trkpt>
      <trkpt lat="46.57739" lon="6.00167">
        <ele>972</ele>
        <time>2021-11-09T12:49:20Z</time>
      </trkpt>
      <trkpt lat="46.57741" lon="6.0016">
        <ele>973.8</ele>
        <time>2021-11-09T12:49:25Z</time>
      </trkpt>
      <trkpt lat="46.57739" lon="6.00153">
        <ele>974.7</ele>
        <time>2021-11-09T12:49:29Z</time>
      </trkpt>
      <trkpt lat="46.57739" lon="6.00146">
        <ele>975.5</ele>
        <time>2021-11-09T12:49:33Z</time>
      </trkpt>
      <trkpt lat="46.57741" lon="6.00139">
        <ele>976.1</ele>
        <time>2021-11-09T12:49:37Z</time>
      </trkpt>
      <trkpt lat="46.57741" lon="6.00132">
        <ele>976.5</ele>
        <time>2021-11-09T12:49:41Z</time>
      </trkpt>
      <trkpt lat="46.57743" lon="6.00125">
        <ele>977</ele>
        <time>2021-11-09T12:49:47Z</time>
      </trkpt>
      <trkpt lat="46.57747" lon="6.0012">
        <ele>977.4</ele>
        <time>2021-11-09T12:49:52Z</time>
      </trkpt>
      <trkpt lat="46.5775" lon="6.00116">
        <ele>978</ele>
        <time>2021-11-09T12:49:55Z</time>
      </trkpt>
      <trkpt lat="46.57754" lon="6.00111">
        <ele>978.3</ele>
        <time>2021-11-09T12:49:59Z</time>
      </trkpt>
      <trkpt lat="46.57758" lon="6.00105">
        <ele>978.7</ele>
        <time>2021-11-09T12:50:04Z</time>
      </trkpt>
      <trkpt lat="46.57762" lon="6.001">
        <ele>978.6</ele>
        <time>2021-11-09T12:50:09Z</time>
      </trkpt>
      <trkpt lat="46.57762" lon="6.00093">
        <ele>976.3</ele>
        <time>2021-11-09T12:50:23Z</time>
      </trkpt>
      <trkpt lat="46.5776" lon="6.00086">
        <ele>975.5</ele>
        <time>2021-11-09T12:50:30Z</time>
      </trkpt>
      <trkpt lat="46.57759" lon="6.00079">
        <ele>974.9</ele>
        <time>2021-11-09T12:50:34Z</time>
      </trkpt>
      <trkpt lat="46.57759" lon="6.00071">
        <ele>974.1</ele>
        <time>2021-11-09T12:50:38Z</time>
      </trkpt>
      <trkpt lat="46.57761" lon="6.00065">
        <ele>973.1</ele>
        <time>2021-11-09T12:50:41Z</time>
      </trkpt>
      <trkpt lat="46.57764" lon="6.00059">
        <ele>972.2</ele>
        <time>2021-11-09T12:50:44Z</time>
      </trkpt>
      <trkpt lat="46.57764" lon="6.00052">
        <ele>970.8</ele>
        <time>2021-11-09T12:50:49Z</time>
      </trkpt>
      <trkpt lat="46.57764" lon="6.00045">
        <ele>969.7</ele>
        <time>2021-11-09T12:50:54Z</time>
      </trkpt>
      <trkpt lat="46.57765" lon="6.00038">
        <ele>968.9</ele>
        <time>2021-11-09T12:50:58Z</time>
      </trkpt>
      <trkpt lat="46.57767" lon="6.00032">
        <ele>968.3</ele>
        <time>2021-11-09T12:51:03Z</time>
      </trkpt>
      <trkpt lat="46.57767" lon="6.00024">
        <ele>967.8</ele>
        <time>2021-11-09T12:51:09Z</time>
      </trkpt>
      <trkpt lat="46.57766" lon="6.00017">
        <ele>967.7</ele>
        <time>2021-11-09T12:51:13Z</time>
      </trkpt>
      <trkpt lat="46.57766" lon="6.0001">
        <ele>967.4</ele>
        <time>2021-11-09T12:51:19Z</time>
      </trkpt>
      <trkpt lat="46.57768" lon="6.00003">
        <ele>967.3</ele>
        <time>2021-11-09T12:51:24Z</time>
      </trkpt>
      <trkpt lat="46.57766" lon="5.99997">
        <ele>966.8</ele>
        <time>2021-11-09T12:51:30Z</time>
      </trkpt>
      <trkpt lat="46.57764" lon="5.99991">
        <ele>966.3</ele>
        <time>2021-11-09T12:51:34Z</time>
      </trkpt>
      <trkpt lat="46.57764" lon="5.99983">
        <ele>965.5</ele>
        <time>2021-11-09T12:51:40Z</time>
      </trkpt>
      <trkpt lat="46.57767" lon="5.99977">
        <ele>965</ele>
        <time>2021-11-09T12:51:44Z</time>
      </trkpt>
      <trkpt lat="46.57769" lon="5.9997">
        <ele>963.7</ele>
        <time>2021-11-09T12:51:52Z</time>
      </trkpt>
      <trkpt lat="46.57771" lon="5.99964">
        <ele>963.1</ele>
        <time>2021-11-09T12:51:56Z</time>
      </trkpt>
      <trkpt lat="46.57774" lon="5.99956">
        <ele>962.9</ele>
        <time>2021-11-09T12:52:00Z</time>
      </trkpt>
      <trkpt lat="46.57777" lon="5.99949">
        <ele>963.1</ele>
        <time>2021-11-09T12:52:04Z</time>
      </trkpt>
      <trkpt lat="46.57779" lon="5.99942">
        <ele>963.8</ele>
        <time>2021-11-09T12:52:09Z</time>
      </trkpt>
      <trkpt lat="46.57781" lon="5.99934">
        <ele>964.3</ele>
        <time>2021-11-09T12:52:13Z</time>
      </trkpt>
      <trkpt lat="46.57781" lon="5.99927">
        <ele>965</ele>
        <time>2021-11-09T12:52:18Z</time>
      </trkpt>
      <trkpt lat="46.57782" lon="5.9992">
        <ele>965.7</ele>
        <time>2021-11-09T12:52:23Z</time>
      </trkpt>
      <trkpt lat="46.57786" lon="5.99916">
        <ele>966.2</ele>
        <time>2021-11-09T12:52:27Z</time>
      </trkpt>
      <trkpt lat="46.5779" lon="5.99912">
        <ele>966.6</ele>
        <time>2021-11-09T12:52:31Z</time>
      </trkpt>
      <trkpt lat="46.57795" lon="5.99908">
        <ele>966.6</ele>
        <time>2021-11-09T12:52:36Z</time>
      </trkpt>
      <trkpt lat="46.57798" lon="5.99903">
        <ele>967.1</ele>
        <time>2021-11-09T12:52:41Z</time>
      </trkpt>
      <trkpt lat="46.57803" lon="5.999">
        <ele>967.7</ele>
        <time>2021-11-09T12:52:46Z</time>
      </trkpt>
      <trkpt lat="46.57805" lon="5.99894">
        <ele>968.3</ele>
        <time>2021-11-09T12:52:51Z</time>
      </trkpt>
      <trkpt lat="46.57808" lon="5.99888">
        <ele>968.2</ele>
        <time>2021-11-09T12:52:55Z</time>
      </trkpt>
      <trkpt lat="46.5781" lon="5.99881">
        <ele>967.8</ele>
        <time>2021-11-09T12:52:59Z</time>
      </trkpt>
      <trkpt lat="46.57813" lon="5.99875">
        <ele>967.4</ele>
        <time>2021-11-09T12:53:03Z</time>
      </trkpt>
      <trkpt lat="46.57814" lon="5.99868">
        <ele>967</ele>
        <time>2021-11-09T12:53:07Z</time>
      </trkpt>
      <trkpt lat="46.57816" lon="5.99861">
        <ele>967</ele>
        <time>2021-11-09T12:53:11Z</time>
      </trkpt>
      <trkpt lat="46.57819" lon="5.99856">
        <ele>967.8</ele>
        <time>2021-11-09T12:53:15Z</time>
      </trkpt>
      <trkpt lat="46.57821" lon="5.99849">
        <ele>969.7</ele>
        <time>2021-11-09T12:53:21Z</time>
      </trkpt>
      <trkpt lat="46.57824" lon="5.99843">
        <ele>970.9</ele>
        <time>2021-11-09T12:53:26Z</time>
      </trkpt>
      <trkpt lat="46.57827" lon="5.99837">
        <ele>971.9</ele>
        <time>2021-11-09T12:53:30Z</time>
      </trkpt>
      <trkpt lat="46.57831" lon="5.99831">
        <ele>973</ele>
        <time>2021-11-09T12:53:33Z</time>
      </trkpt>
      <trkpt lat="46.57833" lon="5.99825">
        <ele>974.4</ele>
        <time>2021-11-09T12:53:38Z</time>
      </trkpt>
      <trkpt lat="46.57835" lon="5.99818">
        <ele>974</ele>
        <time>2021-11-09T12:53:46Z</time>
      </trkpt>
      <trkpt lat="46.57834" lon="5.99811">
        <ele>973.8</ele>
        <time>2021-11-09T12:53:52Z</time>
      </trkpt>
      <trkpt lat="46.57833" lon="5.99803">
        <ele>973.6</ele>
        <time>2021-11-09T12:53:57Z</time>
      </trkpt>
      <trkpt lat="46.57834" lon="5.99796">
        <ele>973.5</ele>
        <time>2021-11-09T12:54:00Z</time>
      </trkpt>
      <trkpt lat="46.57837" lon="5.99788">
        <ele>973.3</ele>
        <time>2021-11-09T12:54:03Z</time>
      </trkpt>
      <trkpt lat="46.57842" lon="5.99784">
        <ele>973.1</ele>
        <time>2021-11-09T12:54:07Z</time>
      </trkpt>
      <trkpt lat="46.57846" lon="5.99781">
        <ele>973</ele>
        <time>2021-11-09T12:54:11Z</time>
      </trkpt>
      <trkpt lat="46.57849" lon="5.99774">
        <ele>973.1</ele>
        <time>2021-11-09T12:54:16Z</time>
      </trkpt>
      <trkpt lat="46.5785" lon="5.99767">
        <ele>973.7</ele>
        <time>2021-11-09T12:54:21Z</time>
      </trkpt>
      <trkpt lat="46.57849" lon="5.9976">
        <ele>973.8</ele>
        <time>2021-11-09T12:54:27Z</time>
      </trkpt>
      <trkpt lat="46.57847" lon="5.99754">
        <ele>973.9</ele>
        <time>2021-11-09T12:54:32Z</time>
      </trkpt>
      <trkpt lat="46.57845" lon="5.99747">
        <ele>973.6</ele>
        <time>2021-11-09T12:54:39Z</time>
      </trkpt>
      <trkpt lat="46.57845" lon="5.9974">
        <ele>972.8</ele>
        <time>2021-11-09T12:54:48Z</time>
      </trkpt>
      <trkpt lat="46.5785" lon="5.99738">
        <ele>972</ele>
        <time>2021-11-09T12:54:53Z</time>
      </trkpt>
      <trkpt lat="46.57853" lon="5.99732">
        <ele>971.3</ele>
        <time>2021-11-09T12:54:59Z</time>
      </trkpt>
      <trkpt lat="46.57853" lon="5.99724">
        <ele>971.2</ele>
        <time>2021-11-09T12:55:03Z</time>
      </trkpt>
      <trkpt lat="46.57854" lon="5.99717">
        <ele>971.4</ele>
        <time>2021-11-09T12:55:06Z</time>
      </trkpt>
      <trkpt lat="46.57855" lon="5.9971">
        <ele>971.3</ele>
        <time>2021-11-09T12:55:10Z</time>
      </trkpt>
      <trkpt lat="46.57856" lon="5.99702">
        <ele>971.3</ele>
        <time>2021-11-09T12:55:16Z</time>
      </trkpt>
      <trkpt lat="46.57858" lon="5.99694">
        <ele>971.7</ele>
        <time>2021-11-09T12:55:20Z</time>
      </trkpt>
      <trkpt lat="46.57859" lon="5.99686">
        <ele>972</ele>
        <time>2021-11-09T12:55:24Z</time>
      </trkpt>
      <trkpt lat="46.57859" lon="5.99678">
        <ele>972.6</ele>
        <time>2021-11-09T12:55:28Z</time>
      </trkpt>
      <trkpt lat="46.57861" lon="5.99672">
        <ele>973.7</ele>
        <time>2021-11-09T12:55:35Z</time>
      </trkpt>
      <trkpt lat="46.57865" lon="5.99668">
        <ele>973.2</ele>
        <time>2021-11-09T12:55:40Z</time>
      </trkpt>
      <trkpt lat="46.57866" lon="5.99662">
        <ele>972.3</ele>
        <time>2021-11-09T12:55:44Z</time>
      </trkpt>
      <trkpt lat="46.57868" lon="5.99655">
        <ele>971.1</ele>
        <time>2021-11-09T12:55:48Z</time>
      </trkpt>
      <trkpt lat="46.5787" lon="5.99648">
        <ele>969.7</ele>
        <time>2021-11-09T12:55:53Z</time>
      </trkpt>
      <trkpt lat="46.5787" lon="5.99641">
        <ele>967.3</ele>
        <time>2021-11-09T12:56:00Z</time>
      </trkpt>
      <trkpt lat="46.5787" lon="5.99634">
        <ele>965.5</ele>
        <time>2021-11-09T12:56:05Z</time>
      </trkpt>
      <trkpt lat="46.57872" lon="5.99627">
        <ele>964.1</ele>
        <time>2021-11-09T12:56:09Z</time>
      </trkpt>
      <trkpt lat="46.57875" lon="5.99622">
        <ele>962.2</ele>
        <time>2021-11-09T12:56:14Z</time>
      </trkpt>
      <trkpt lat="46.57876" lon="5.99614">
        <ele>960.4</ele>
        <time>2021-11-09T12:56:20Z</time>
      </trkpt>
      <trkpt lat="46.57878" lon="5.99607">
        <ele>958.7</ele>
        <time>2021-11-09T12:56:25Z</time>
      </trkpt>
      <trkpt lat="46.57875" lon="5.99599">
        <ele>957.4</ele>
        <time>2021-11-09T12:56:29Z</time>
      </trkpt>
      <trkpt lat="46.57872" lon="5.99593">
        <ele>956.3</ele>
        <time>2021-11-09T12:56:33Z</time>
      </trkpt>
      <trkpt lat="46.5787" lon="5.99586">
        <ele>955.3</ele>
        <time>2021-11-09T12:56:37Z</time>
      </trkpt>
      <trkpt lat="46.57869" lon="5.99577">
        <ele>954.8</ele>
        <time>2021-11-09T12:56:41Z</time>
      </trkpt>
      <trkpt lat="46.57867" lon="5.9957">
        <ele>955.1</ele>
        <time>2021-11-09T12:56:44Z</time>
      </trkpt>
      <trkpt lat="46.57864" lon="5.99564">
        <ele>956.1</ele>
        <time>2021-11-09T12:56:48Z</time>
      </trkpt>
      <trkpt lat="46.57863" lon="5.99557">
        <ele>957.6</ele>
        <time>2021-11-09T12:56:55Z</time>
      </trkpt>
      <trkpt lat="46.5786" lon="5.99551">
        <ele>958.6</ele>
        <time>2021-11-09T12:57:02Z</time>
      </trkpt>
      <trkpt lat="46.5786" lon="5.99544">
        <ele>958</ele>
        <time>2021-11-09T12:57:10Z</time>
      </trkpt>
      <trkpt lat="46.57858" lon="5.99537">
        <ele>957.5</ele>
        <time>2021-11-09T12:57:15Z</time>
      </trkpt>
      <trkpt lat="46.57856" lon="5.99531">
        <ele>957.5</ele>
        <time>2021-11-09T12:57:19Z</time>
      </trkpt>
      <trkpt lat="46.5785" lon="5.99528">
        <ele>957.2</ele>
        <time>2021-11-09T12:57:22Z</time>
      </trkpt>
      <trkpt lat="46.57854" lon="5.99523">
        <ele>956.3</ele>
        <time>2021-11-09T12:57:28Z</time>
      </trkpt>
      <trkpt lat="46.57861" lon="5.99519">
        <ele>955.5</ele>
        <time>2021-11-09T12:57:31Z</time>
      </trkpt>
      <trkpt lat="46.57866" lon="5.99516">
        <ele>954.6</ele>
        <time>2021-11-09T12:57:34Z</time>
      </trkpt>
      <trkpt lat="46.5787" lon="5.9951">
        <ele>953.7</ele>
        <time>2021-11-09T12:57:38Z</time>
      </trkpt>
      <trkpt lat="46.5787" lon="5.99503">
        <ele>954.2</ele>
        <time>2021-11-09T12:57:41Z</time>
      </trkpt>
      <trkpt lat="46.57871" lon="5.99494">
        <ele>955.1</ele>
        <time>2021-11-09T12:57:46Z</time>
      </trkpt>
      <trkpt lat="46.57872" lon="5.99487">
        <ele>956.5</ele>
        <time>2021-11-09T12:57:49Z</time>
      </trkpt>
      <trkpt lat="46.57872" lon="5.99477">
        <ele>958.3</ele>
        <time>2021-11-09T12:57:52Z</time>
      </trkpt>
      <trkpt lat="46.57872" lon="5.99469">
        <ele>960.6</ele>
        <time>2021-11-09T12:57:56Z</time>
      </trkpt>
      <trkpt lat="46.57876" lon="5.99465">
        <ele>963.6</ele>
        <time>2021-11-09T12:58:01Z</time>
      </trkpt>
      <trkpt lat="46.5788" lon="5.99462">
        <ele>965.7</ele>
        <time>2021-11-09T12:58:05Z</time>
      </trkpt>
      <trkpt lat="46.57884" lon="5.99457">
        <ele>968.1</ele>
        <time>2021-11-09T12:58:09Z</time>
      </trkpt>
      <trkpt lat="46.57883" lon="5.99451">
        <ele>970</ele>
        <time>2021-11-09T12:58:13Z</time>
      </trkpt>
      <trkpt lat="46.57884" lon="5.99443">
        <ele>972.5</ele>
        <time>2021-11-09T12:58:19Z</time>
      </trkpt>
      <trkpt lat="46.57884" lon="5.99435">
        <ele>974.3</ele>
        <time>2021-11-09T12:58:24Z</time>
      </trkpt>
      <trkpt lat="46.57883" lon="5.99429">
        <ele>974.9</ele>
        <time>2021-11-09T12:58:28Z</time>
      </trkpt>
      <trkpt lat="46.57884" lon="5.99422">
        <ele>975.4</ele>
        <time>2021-11-09T12:58:33Z</time>
      </trkpt>
      <trkpt lat="46.57885" lon="5.99416">
        <ele>976.2</ele>
        <time>2021-11-09T12:58:39Z</time>
      </trkpt>
      <trkpt lat="46.57888" lon="5.9941">
        <ele>976.6</ele>
        <time>2021-11-09T12:58:44Z</time>
      </trkpt>
      <trkpt lat="46.57892" lon="5.99407">
        <ele>976.7</ele>
        <time>2021-11-09T12:58:47Z</time>
      </trkpt>
      <trkpt lat="46.57897" lon="5.99404">
        <ele>976.4</ele>
        <time>2021-11-09T12:58:51Z</time>
      </trkpt>
      <trkpt lat="46.57901" lon="5.99399">
        <ele>975.9</ele>
        <time>2021-11-09T12:58:55Z</time>
      </trkpt>
      <trkpt lat="46.57905" lon="5.99394">
        <ele>975.8</ele>
        <time>2021-11-09T12:58:58Z</time>
      </trkpt>
      <trkpt lat="46.5791" lon="5.99392">
        <ele>976</ele>
        <time>2021-11-09T12:59:03Z</time>
      </trkpt>
      <trkpt lat="46.57914" lon="5.99387">
        <ele>976.5</ele>
        <time>2021-11-09T12:59:09Z</time>
      </trkpt>
      <trkpt lat="46.57918" lon="5.99382">
        <ele>976.7</ele>
        <time>2021-11-09T12:59:14Z</time>
      </trkpt>
      <trkpt lat="46.57919" lon="5.99376">
        <ele>976.4</ele>
        <time>2021-11-09T12:59:20Z</time>
      </trkpt>
      <trkpt lat="46.57921" lon="5.9937">
        <ele>976.5</ele>
        <time>2021-11-09T12:59:26Z</time>
      </trkpt>
      <trkpt lat="46.57926" lon="5.99367">
        <ele>976.5</ele>
        <time>2021-11-09T12:59:30Z</time>
      </trkpt>
      <trkpt lat="46.57931" lon="5.99364">
        <ele>976.5</ele>
        <time>2021-11-09T12:59:34Z</time>
      </trkpt>
      <trkpt lat="46.57936" lon="5.99361">
        <ele>976.4</ele>
        <time>2021-11-09T12:59:39Z</time>
      </trkpt>
      <trkpt lat="46.57941" lon="5.99358">
        <ele>976.4</ele>
        <time>2021-11-09T12:59:44Z</time>
      </trkpt>
      <trkpt lat="46.57943" lon="5.99351">
        <ele>976.1</ele>
        <time>2021-11-09T12:59:50Z</time>
      </trkpt>
      <trkpt lat="46.57946" lon="5.99344">
        <ele>976.1</ele>
        <time>2021-11-09T12:59:54Z</time>
      </trkpt>
      <trkpt lat="46.57949" lon="5.9934">
        <ele>975.7</ele>
        <time>2021-11-09T12:59:58Z</time>
      </trkpt>
      <trkpt lat="46.57949" lon="5.99333">
        <ele>974.7</ele>
        <time>2021-11-09T13:00:04Z</time>
      </trkpt>
      <trkpt lat="46.57949" lon="5.99325">
        <ele>974.4</ele>
        <time>2021-11-09T13:00:09Z</time>
      </trkpt>
      <trkpt lat="46.5795" lon="5.99318">
        <ele>973.9</ele>
        <time>2021-11-09T13:00:13Z</time>
      </trkpt>
      <trkpt lat="46.57955" lon="5.99313">
        <ele>973.5</ele>
        <time>2021-11-09T13:00:16Z</time>
      </trkpt>
      <trkpt lat="46.5796" lon="5.99309">
        <ele>972.9</ele>
        <time>2021-11-09T13:00:19Z</time>
      </trkpt>
      <trkpt lat="46.57966" lon="5.99305">
        <ele>972.3</ele>
        <time>2021-11-09T13:00:22Z</time>
      </trkpt>
      <trkpt lat="46.57972" lon="5.99301">
        <ele>971.8</ele>
        <time>2021-11-09T13:00:25Z</time>
      </trkpt>
      <trkpt lat="46.57976" lon="5.99298">
        <ele>971.3</ele>
        <time>2021-11-09T13:00:28Z</time>
      </trkpt>
      <trkpt lat="46.5798" lon="5.99293">
        <ele>969.7</ele>
        <time>2021-11-09T13:00:38Z</time>
      </trkpt>
      <trkpt lat="46.57986" lon="5.99289">
        <ele>968.5</ele>
        <time>2021-11-09T13:00:45Z</time>
      </trkpt>
      <trkpt lat="46.57991" lon="5.99288">
        <ele>967.8</ele>
        <time>2021-11-09T13:00:49Z</time>
      </trkpt>
      <trkpt lat="46.57995" lon="5.99283">
        <ele>966.6</ele>
        <time>2021-11-09T13:00:54Z</time>
      </trkpt>
      <trkpt lat="46.57997" lon="5.99277">
        <ele>964</ele>
        <time>2021-11-09T13:01:00Z</time>
      </trkpt>
      <trkpt lat="46.58001" lon="5.99274">
        <ele>961</ele>
        <time>2021-11-09T13:01:07Z</time>
      </trkpt>
      <trkpt lat="46.58006" lon="5.99274">
        <ele>957.9</ele>
        <time>2021-11-09T13:01:14Z</time>
      </trkpt>
      <trkpt lat="46.58008" lon="5.99267">
        <ele>955.2</ele>
        <time>2021-11-09T13:01:19Z</time>
      </trkpt>
      <trkpt lat="46.58011" lon="5.9926">
        <ele>952.5</ele>
        <time>2021-11-09T13:01:24Z</time>
      </trkpt>
      <trkpt lat="46.58014" lon="5.99255">
        <ele>950.4</ele>
        <time>2021-11-09T13:01:29Z</time>
      </trkpt>
      <trkpt lat="46.58017" lon="5.99249">
        <ele>948.1</ele>
        <time>2021-11-09T13:01:34Z</time>
      </trkpt>
      <trkpt lat="46.5802" lon="5.99243">
        <ele>945.4</ele>
        <time>2021-11-09T13:01:39Z</time>
      </trkpt>
      <trkpt lat="46.58025" lon="5.99238">
        <ele>942.5</ele>
        <time>2021-11-09T13:01:44Z</time>
      </trkpt>
      <trkpt lat="46.58029" lon="5.99236">
        <ele>940.7</ele>
        <time>2021-11-09T13:01:48Z</time>
      </trkpt>
      <trkpt lat="46.58031" lon="5.99229">
        <ele>938.2</ele>
        <time>2021-11-09T13:01:55Z</time>
      </trkpt>
      <trkpt lat="46.58033" lon="5.99222">
        <ele>937</ele>
        <time>2021-11-09T13:01:59Z</time>
      </trkpt>
      <trkpt lat="46.58034" lon="5.99214">
        <ele>935.6</ele>
        <time>2021-11-09T13:02:04Z</time>
      </trkpt>
      <trkpt lat="46.58037" lon="5.99208">
        <ele>934.7</ele>
        <time>2021-11-09T13:02:08Z</time>
      </trkpt>
      <trkpt lat="46.58039" lon="5.99202">
        <ele>934</ele>
        <time>2021-11-09T13:02:12Z</time>
      </trkpt>
      <trkpt lat="46.58042" lon="5.99196">
        <ele>932.9</ele>
        <time>2021-11-09T13:02:20Z</time>
      </trkpt>
      <trkpt lat="46.58043" lon="5.9919">
        <ele>932.1</ele>
        <time>2021-11-09T13:02:25Z</time>
      </trkpt>
      <trkpt lat="46.58046" lon="5.99185">
        <ele>931.4</ele>
        <time>2021-11-09T13:02:29Z</time>
      </trkpt>
      <trkpt lat="46.58049" lon="5.99179">
        <ele>930.4</ele>
        <time>2021-11-09T13:02:34Z</time>
      </trkpt>
      <trkpt lat="46.58049" lon="5.99173">
        <ele>930</ele>
        <time>2021-11-09T13:02:37Z</time>
      </trkpt>
      <trkpt lat="46.5805" lon="5.99165">
        <ele>929.6</ele>
        <time>2021-11-09T13:02:41Z</time>
      </trkpt>
      <trkpt lat="46.58054" lon="5.99161">
        <ele>929</ele>
        <time>2021-11-09T13:02:44Z</time>
      </trkpt>
      <trkpt lat="46.58058" lon="5.99158">
        <ele>928.6</ele>
        <time>2021-11-09T13:02:47Z</time>
      </trkpt>
      <trkpt lat="46.5806" lon="5.9915">
        <ele>928.2</ele>
        <time>2021-11-09T13:02:52Z</time>
      </trkpt>
      <trkpt lat="46.58062" lon="5.99144">
        <ele>928.3</ele>
        <time>2021-11-09T13:02:56Z</time>
      </trkpt>
      <trkpt lat="46.58066" lon="5.99138">
        <ele>928.9</ele>
        <time>2021-11-09T13:03:00Z</time>
      </trkpt>
      <trkpt lat="46.58069" lon="5.99132">
        <ele>929.7</ele>
        <time>2021-11-09T13:03:04Z</time>
      </trkpt>
      <trkpt lat="46.58072" lon="5.99127">
        <ele>931.2</ele>
        <time>2021-11-09T13:03:10Z</time>
      </trkpt>
      <trkpt lat="46.58073" lon="5.9912">
        <ele>933.1</ele>
        <time>2021-11-09T13:03:15Z</time>
      </trkpt>
      <trkpt lat="46.58074" lon="5.99113">
        <ele>934.9</ele>
        <time>2021-11-09T13:03:19Z</time>
      </trkpt>
      <trkpt lat="46.58077" lon="5.99106">
        <ele>936.8</ele>
        <time>2021-11-09T13:03:23Z</time>
      </trkpt>
      <trkpt lat="46.5808" lon="5.991">
        <ele>938.4</ele>
        <time>2021-11-09T13:03:28Z</time>
      </trkpt>
      <trkpt lat="46.58081" lon="5.99093">
        <ele>940</ele>
        <time>2021-11-09T13:03:34Z</time>
      </trkpt>
      <trkpt lat="46.58084" lon="5.99088">
        <ele>940.7</ele>
        <time>2021-11-09T13:03:40Z</time>
      </trkpt>
      <trkpt lat="46.5809" lon="5.99086">
        <ele>940.5</ele>
        <time>2021-11-09T13:03:45Z</time>
      </trkpt>
      <trkpt lat="46.58094" lon="5.99083">
        <ele>940.2</ele>
        <time>2021-11-09T13:03:49Z</time>
      </trkpt>
      <trkpt lat="46.58097" lon="5.99078">
        <ele>939.9</ele>
        <time>2021-11-09T13:03:53Z</time>
      </trkpt>
      <trkpt lat="46.58101" lon="5.99073">
        <ele>939.7</ele>
        <time>2021-11-09T13:03:57Z</time>
      </trkpt>
      <trkpt lat="46.58105" lon="5.99069">
        <ele>939.6</ele>
        <time>2021-11-09T13:04:01Z</time>
      </trkpt>
      <trkpt lat="46.5811" lon="5.99068">
        <ele>939.5</ele>
        <time>2021-11-09T13:04:05Z</time>
      </trkpt>
      <trkpt lat="46.58115" lon="5.99068">
        <ele>939.3</ele>
        <time>2021-11-09T13:04:10Z</time>
      </trkpt>
      <trkpt lat="46.58119" lon="5.99064">
        <ele>939.2</ele>
        <time>2021-11-09T13:04:15Z</time>
      </trkpt>
      <trkpt lat="46.58121" lon="5.99058">
        <ele>938.2</ele>
        <time>2021-11-09T13:04:21Z</time>
      </trkpt>
      <trkpt lat="46.58126" lon="5.99057">
        <ele>937.1</ele>
        <time>2021-11-09T13:04:27Z</time>
      </trkpt>
      <trkpt lat="46.58128" lon="5.99051">
        <ele>935.7</ele>
        <time>2021-11-09T13:04:33Z</time>
      </trkpt>
      <trkpt lat="46.58131" lon="5.99043">
        <ele>934.7</ele>
        <time>2021-11-09T13:04:38Z</time>
      </trkpt>
      <trkpt lat="46.58131" lon="5.99036">
        <ele>933.9</ele>
        <time>2021-11-09T13:04:42Z</time>
      </trkpt>
      <trkpt lat="46.58134" lon="5.99029">
        <ele>932.6</ele>
        <time>2021-11-09T13:04:47Z</time>
      </trkpt>
      <trkpt lat="46.58138" lon="5.99025">
        <ele>931.5</ele>
        <time>2021-11-09T13:04:52Z</time>
      </trkpt>
      <trkpt lat="46.58142" lon="5.9902">
        <ele>930.2</ele>
        <time>2021-11-09T13:04:59Z</time>
      </trkpt>
      <trkpt lat="46.58145" lon="5.99014">
        <ele>929.4</ele>
        <time>2021-11-09T13:05:04Z</time>
      </trkpt>
      <trkpt lat="46.58149" lon="5.99011">
        <ele>928.6</ele>
        <time>2021-11-09T13:05:08Z</time>
      </trkpt>
      <trkpt lat="46.58154" lon="5.99007">
        <ele>927.7</ele>
        <time>2021-11-09T13:05:12Z</time>
      </trkpt>
      <trkpt lat="46.58158" lon="5.99004">
        <ele>926.8</ele>
        <time>2021-11-09T13:05:16Z</time>
      </trkpt>
      <trkpt lat="46.58161" lon="5.98998">
        <ele>925.3</ele>
        <time>2021-11-09T13:05:22Z</time>
      </trkpt>
      <trkpt lat="46.58164" lon="5.98992">
        <ele>924.4</ele>
        <time>2021-11-09T13:05:27Z</time>
      </trkpt>
      <trkpt lat="46.58167" lon="5.98987">
        <ele>923.8</ele>
        <time>2021-11-09T13:05:32Z</time>
      </trkpt>
      <trkpt lat="46.58167" lon="5.9898">
        <ele>922.8</ele>
        <time>2021-11-09T13:05:37Z</time>
      </trkpt>
      <trkpt lat="46.58169" lon="5.98973">
        <ele>922</ele>
        <time>2021-11-09T13:05:42Z</time>
      </trkpt>
      <trkpt lat="46.58169" lon="5.98966">
        <ele>922.1</ele>
        <time>2021-11-09T13:05:45Z</time>
      </trkpt>
      <trkpt lat="46.5817" lon="5.98957">
        <ele>922.5</ele>
        <time>2021-11-09T13:05:49Z</time>
      </trkpt>
      <trkpt lat="46.5817" lon="5.9895">
        <ele>922.9</ele>
        <time>2021-11-09T13:05:53Z</time>
      </trkpt>
      <trkpt lat="46.5817" lon="5.98944">
        <ele>923.5</ele>
        <time>2021-11-09T13:05:57Z</time>
      </trkpt>
      <trkpt lat="46.58166" lon="5.98938">
        <ele>923.4</ele>
        <time>2021-11-09T13:06:02Z</time>
      </trkpt>
      <trkpt lat="46.58162" lon="5.98934">
        <ele>923</ele>
        <time>2021-11-09T13:06:07Z</time>
      </trkpt>
      <trkpt lat="46.58158" lon="5.98933">
        <ele>922.4</ele>
        <time>2021-11-09T13:06:14Z</time>
      </trkpt>
      <trkpt lat="46.58152" lon="5.98934">
        <ele>922.2</ele>
        <time>2021-11-09T13:06:17Z</time>
      </trkpt>
      <trkpt lat="46.58149" lon="5.98939">
        <ele>920.7</ele>
        <time>2021-11-09T13:06:28Z</time>
      </trkpt>
      <trkpt lat="46.58144" lon="5.98937">
        <ele>919.1</ele>
        <time>2021-11-09T13:06:42Z</time>
      </trkpt>
      <trkpt lat="46.58139" lon="5.98936">
        <ele>921.8</ele>
        <time>2021-11-09T13:07:12Z</time>
      </trkpt>
      <trkpt lat="46.58134" lon="5.98936">
        <ele>922.9</ele>
        <time>2021-11-09T13:07:16Z</time>
      </trkpt>
      <trkpt lat="46.58131" lon="5.98941">
        <ele>925.1</ele>
        <time>2021-11-09T13:07:27Z</time>
      </trkpt>
      <trkpt lat="46.58126" lon="5.98944">
        <ele>924.5</ele>
        <time>2021-11-09T13:07:33Z</time>
      </trkpt>
      <trkpt lat="46.58121" lon="5.98944">
        <ele>924.4</ele>
        <time>2021-11-09T13:07:36Z</time>
      </trkpt>
      <trkpt lat="46.58116" lon="5.98947">
        <ele>926.5</ele>
        <time>2021-11-09T13:07:44Z</time>
      </trkpt>
      <trkpt lat="46.58111" lon="5.98946">
        <ele>927.7</ele>
        <time>2021-11-09T13:07:48Z</time>
      </trkpt>
      <trkpt lat="46.58106" lon="5.98947">
        <ele>929.9</ele>
        <time>2021-11-09T13:07:54Z</time>
      </trkpt>
      <trkpt lat="46.58101" lon="5.98948">
        <ele>932.8</ele>
        <time>2021-11-09T13:08:00Z</time>
      </trkpt>
      <trkpt lat="46.58098" lon="5.98953">
        <ele>934.4</ele>
        <time>2021-11-09T13:08:05Z</time>
      </trkpt>
      <trkpt lat="46.58094" lon="5.98957">
        <ele>935.5</ele>
        <time>2021-11-09T13:08:09Z</time>
      </trkpt>
      <trkpt lat="46.58088" lon="5.98958">
        <ele>935.9</ele>
        <time>2021-11-09T13:08:13Z</time>
      </trkpt>
      <trkpt lat="46.58082" lon="5.98961">
        <ele>935.8</ele>
        <time>2021-11-09T13:08:17Z</time>
      </trkpt>
      <trkpt lat="46.58077" lon="5.98964">
        <ele>935.7</ele>
        <time>2021-11-09T13:08:20Z</time>
      </trkpt>
      <trkpt lat="46.58073" lon="5.98968">
        <ele>935.8</ele>
        <time>2021-11-09T13:08:23Z</time>
      </trkpt>
      <trkpt lat="46.58069" lon="5.98971">
        <ele>935.8</ele>
        <time>2021-11-09T13:08:27Z</time>
      </trkpt>
      <trkpt lat="46.58066" lon="5.98976">
        <ele>935</ele>
        <time>2021-11-09T13:08:35Z</time>
      </trkpt>
      <trkpt lat="46.58067" lon="5.98983">
        <ele>934.7</ele>
        <time>2021-11-09T13:08:40Z</time>
      </trkpt>
      <trkpt lat="46.58062" lon="5.98985">
        <ele>934.7</ele>
        <time>2021-11-09T13:08:46Z</time>
      </trkpt>
      <trkpt lat="46.58057" lon="5.98985">
        <ele>934.2</ele>
        <time>2021-11-09T13:08:53Z</time>
      </trkpt>
      <trkpt lat="46.58052" lon="5.98982">
        <ele>933.2</ele>
        <time>2021-11-09T13:08:57Z</time>
      </trkpt>
      <trkpt lat="46.58048" lon="5.98985">
        <ele>931.3</ele>
        <time>2021-11-09T13:09:02Z</time>
      </trkpt>
      <trkpt lat="46.58045" lon="5.98991">
        <ele>929.5</ele>
        <time>2021-11-09T13:09:07Z</time>
      </trkpt>
      <trkpt lat="46.58041" lon="5.98994">
        <ele>928.3</ele>
        <time>2021-11-09T13:09:12Z</time>
      </trkpt>
      <trkpt lat="46.58039" lon="5.99002">
        <ele>928</ele>
        <time>2021-11-09T13:09:18Z</time>
      </trkpt>
      <trkpt lat="46.58034" lon="5.99005">
        <ele>927.8</ele>
        <time>2021-11-09T13:09:23Z</time>
      </trkpt>
      <trkpt lat="46.5803" lon="5.99008">
        <ele>927.8</ele>
        <time>2021-11-09T13:09:26Z</time>
      </trkpt>
      <trkpt lat="46.58025" lon="5.99011">
        <ele>927.7</ele>
        <time>2021-11-09T13:09:29Z</time>
      </trkpt>
      <trkpt lat="46.58021" lon="5.99015">
        <ele>927.5</ele>
        <time>2021-11-09T13:09:32Z</time>
      </trkpt>
      <trkpt lat="46.58018" lon="5.9902">
        <ele>927.5</ele>
        <time>2021-11-09T13:09:36Z</time>
      </trkpt>
      <trkpt lat="46.58019" lon="5.99029">
        <ele>928.7</ele>
        <time>2021-11-09T13:09:41Z</time>
      </trkpt>
      <trkpt lat="46.58017" lon="5.99035">
        <ele>932.4</ele>
        <time>2021-11-09T13:09:50Z</time>
      </trkpt>
      <trkpt lat="46.58011" lon="5.99038">
        <ele>934</ele>
        <time>2021-11-09T13:09:54Z</time>
      </trkpt>
      <trkpt lat="46.58007" lon="5.99043">
        <ele>935.3</ele>
        <time>2021-11-09T13:09:58Z</time>
      </trkpt>
      <trkpt lat="46.58002" lon="5.99046">
        <ele>936.1</ele>
        <time>2021-11-09T13:10:02Z</time>
      </trkpt>
      <trkpt lat="46.57997" lon="5.99047">
        <ele>936.7</ele>
        <time>2021-11-09T13:10:06Z</time>
      </trkpt>
      <trkpt lat="46.57991" lon="5.99049">
        <ele>937.3</ele>
        <time>2021-11-09T13:10:10Z</time>
      </trkpt>
      <trkpt lat="46.57985" lon="5.9905">
        <ele>937.8</ele>
        <time>2021-11-09T13:10:14Z</time>
      </trkpt>
      <trkpt lat="46.57981" lon="5.99052">
        <ele>938.2</ele>
        <time>2021-11-09T13:10:18Z</time>
      </trkpt>
      <trkpt lat="46.57976" lon="5.99053">
        <ele>938.6</ele>
        <time>2021-11-09T13:10:24Z</time>
      </trkpt>
      <trkpt lat="46.57971" lon="5.99056">
        <ele>938.9</ele>
        <time>2021-11-09T13:10:31Z</time>
      </trkpt>
      <trkpt lat="46.57966" lon="5.99055">
        <ele>938.6</ele>
        <time>2021-11-09T13:10:35Z</time>
      </trkpt>
      <trkpt lat="46.5796" lon="5.99053">
        <ele>938.3</ele>
        <time>2021-11-09T13:10:38Z</time>
      </trkpt>
      <trkpt lat="46.57954" lon="5.99051">
        <ele>938.1</ele>
        <time>2021-11-09T13:10:41Z</time>
      </trkpt>
      <trkpt lat="46.5795" lon="5.99052">
        <ele>937.7</ele>
        <time>2021-11-09T13:10:44Z</time>
      </trkpt>
      <trkpt lat="46.57945" lon="5.99053">
        <ele>937.6</ele>
        <time>2021-11-09T13:10:47Z</time>
      </trkpt>
      <trkpt lat="46.5794" lon="5.99055">
        <ele>937.5</ele>
        <time>2021-11-09T13:10:50Z</time>
      </trkpt>
      <trkpt lat="46.57936" lon="5.99057">
        <ele>936.8</ele>
        <time>2021-11-09T13:10:54Z</time>
      </trkpt>
      <trkpt lat="46.57932" lon="5.99061">
        <ele>936.1</ele>
        <time>2021-11-09T13:10:59Z</time>
      </trkpt>
      <trkpt lat="46.57928" lon="5.99064">
        <ele>935.8</ele>
        <time>2021-11-09T13:11:07Z</time>
      </trkpt>
      <trkpt lat="46.57924" lon="5.9906">
        <ele>935.4</ele>
        <time>2021-11-09T13:11:11Z</time>
      </trkpt>
      <trkpt lat="46.57921" lon="5.99055">
        <ele>934.6</ele>
        <time>2021-11-09T13:11:14Z</time>
      </trkpt>
      <trkpt lat="46.57918" lon="5.99051">
        <ele>934</ele>
        <time>2021-11-09T13:11:17Z</time>
      </trkpt>
      <trkpt lat="46.57913" lon="5.99046">
        <ele>933.6</ele>
        <time>2021-11-09T13:11:20Z</time>
      </trkpt>
      <trkpt lat="46.5791" lon="5.99042">
        <ele>933</ele>
        <time>2021-11-09T13:11:24Z</time>
      </trkpt>
      <trkpt lat="46.57907" lon="5.99036">
        <ele>932.4</ele>
        <time>2021-11-09T13:11:30Z</time>
      </trkpt>
      <trkpt lat="46.57904" lon="5.9903">
        <ele>932</ele>
        <time>2021-11-09T13:11:34Z</time>
      </trkpt>
      <trkpt lat="46.57901" lon="5.99024">
        <ele>931.5</ele>
        <time>2021-11-09T13:11:38Z</time>
      </trkpt>
      <trkpt lat="46.579" lon="5.99018">
        <ele>930.5</ele>
        <time>2021-11-09T13:11:45Z</time>
      </trkpt>
      <trkpt lat="46.57897" lon="5.99011">
        <ele>928.6</ele>
        <time>2021-11-09T13:11:53Z</time>
      </trkpt>
      <trkpt lat="46.57896" lon="5.99005">
        <ele>927.4</ele>
        <time>2021-11-09T13:11:58Z</time>
      </trkpt>
      <trkpt lat="46.57895" lon="5.98997">
        <ele>926.4</ele>
        <time>2021-11-09T13:12:03Z</time>
      </trkpt>
      <trkpt lat="46.57895" lon="5.9899">
        <ele>925.7</ele>
        <time>2021-11-09T13:12:07Z</time>
      </trkpt>
      <trkpt lat="46.57893" lon="5.98984">
        <ele>924.3</ele>
        <time>2021-11-09T13:12:14Z</time>
      </trkpt>
      <trkpt lat="46.57889" lon="5.9898">
        <ele>923.3</ele>
        <time>2021-11-09T13:12:19Z</time>
      </trkpt>
      <trkpt lat="46.57887" lon="5.98973">
        <ele>923</ele>
        <time>2021-11-09T13:12:22Z</time>
      </trkpt>
      <trkpt lat="46.57886" lon="5.98965">
        <ele>923</ele>
        <time>2021-11-09T13:12:25Z</time>
      </trkpt>
      <trkpt lat="46.57886" lon="5.98957">
        <ele>923.1</ele>
        <time>2021-11-09T13:12:29Z</time>
      </trkpt>
      <trkpt lat="46.57886" lon="5.9895">
        <ele>923.8</ele>
        <time>2021-11-09T13:12:33Z</time>
      </trkpt>
      <trkpt lat="46.57886" lon="5.98942">
        <ele>924.9</ele>
        <time>2021-11-09T13:12:38Z</time>
      </trkpt>
      <trkpt lat="46.57885" lon="5.98935">
        <ele>925.7</ele>
        <time>2021-11-09T13:12:43Z</time>
      </trkpt>
      <trkpt lat="46.57885" lon="5.98927">
        <ele>926.5</ele>
        <time>2021-11-09T13:12:49Z</time>
      </trkpt>
      <trkpt lat="46.57884" lon="5.98919">
        <ele>927.1</ele>
        <time>2021-11-09T13:12:53Z</time>
      </trkpt>
      <trkpt lat="46.57884" lon="5.98913">
        <ele>927.6</ele>
        <time>2021-11-09T13:12:57Z</time>
      </trkpt>
      <trkpt lat="46.57884" lon="5.98906">
        <ele>928.2</ele>
        <time>2021-11-09T13:13:04Z</time>
      </trkpt>
      <trkpt lat="46.57886" lon="5.98898">
        <ele>928.5</ele>
        <time>2021-11-09T13:13:08Z</time>
      </trkpt>
      <trkpt lat="46.57888" lon="5.98891">
        <ele>928.9</ele>
        <time>2021-11-09T13:13:11Z</time>
      </trkpt>
      <trkpt lat="46.5789" lon="5.98885">
        <ele>929.5</ele>
        <time>2021-11-09T13:13:15Z</time>
      </trkpt>
      <trkpt lat="46.57891" lon="5.98878">
        <ele>930.4</ele>
        <time>2021-11-09T13:13:19Z</time>
      </trkpt>
      <trkpt lat="46.57894" lon="5.98873">
        <ele>930.7</ele>
        <time>2021-11-09T13:13:23Z</time>
      </trkpt>
      <trkpt lat="46.57898" lon="5.98869">
        <ele>930.1</ele>
        <time>2021-11-09T13:13:28Z</time>
      </trkpt>
      <trkpt lat="46.57899" lon="5.98861">
        <ele>930</ele>
        <time>2021-11-09T13:13:34Z</time>
      </trkpt>
      <trkpt lat="46.57898" lon="5.98853">
        <ele>929.9</ele>
        <time>2021-11-09T13:13:39Z</time>
      </trkpt>
      <trkpt lat="46.57896" lon="5.98846">
        <ele>929.1</ele>
        <time>2021-11-09T13:13:44Z</time>
      </trkpt>
      <trkpt lat="46.57895" lon="5.98837">
        <ele>927.5</ele>
        <time>2021-11-09T13:13:48Z</time>
      </trkpt>
      <trkpt lat="46.57897" lon="5.98829">
        <ele>926.2</ele>
        <time>2021-11-09T13:13:52Z</time>
      </trkpt>
      <trkpt lat="46.57899" lon="5.98823">
        <ele>925.4</ele>
        <time>2021-11-09T13:13:56Z</time>
      </trkpt>
      <trkpt lat="46.579" lon="5.98816">
        <ele>924.7</ele>
        <time>2021-11-09T13:14:03Z</time>
      </trkpt>
      <trkpt lat="46.579" lon="5.98808">
        <ele>924.1</ele>
        <time>2021-11-09T13:14:10Z</time>
      </trkpt>
      <trkpt lat="46.579" lon="5.988">
        <ele>924</ele>
        <time>2021-11-09T13:14:14Z</time>
      </trkpt>
      <trkpt lat="46.57899" lon="5.98792">
        <ele>924</ele>
        <time>2021-11-09T13:14:18Z</time>
      </trkpt>
      <trkpt lat="46.57896" lon="5.98783">
        <ele>924.2</ele>
        <time>2021-11-09T13:14:21Z</time>
      </trkpt>
      <trkpt lat="46.57893" lon="5.98779">
        <ele>924.1</ele>
        <time>2021-11-09T13:14:24Z</time>
      </trkpt>
      <trkpt lat="46.5789" lon="5.98774">
        <ele>923.4</ele>
        <time>2021-11-09T13:14:29Z</time>
      </trkpt>
      <trkpt lat="46.57888" lon="5.98767">
        <ele>922.6</ele>
        <time>2021-11-09T13:14:35Z</time>
      </trkpt>
      <trkpt lat="46.57886" lon="5.9876">
        <ele>921.6</ele>
        <time>2021-11-09T13:14:41Z</time>
      </trkpt>
      <trkpt lat="46.57882" lon="5.98755">
        <ele>920.2</ele>
        <time>2021-11-09T13:14:46Z</time>
      </trkpt>
      <trkpt lat="46.57877" lon="5.98752">
        <ele>918.9</ele>
        <time>2021-11-09T13:14:50Z</time>
      </trkpt>
      <trkpt lat="46.57874" lon="5.98745">
        <ele>918.4</ele>
        <time>2021-11-09T13:14:54Z</time>
      </trkpt>
      <trkpt lat="46.57871" lon="5.98739">
        <ele>918.4</ele>
        <time>2021-11-09T13:14:58Z</time>
      </trkpt>
      <trkpt lat="46.57867" lon="5.98734">
        <ele>918.2</ele>
        <time>2021-11-09T13:15:03Z</time>
      </trkpt>
      <trkpt lat="46.57862" lon="5.98731">
        <ele>918.6</ele>
        <time>2021-11-09T13:15:09Z</time>
      </trkpt>
      <trkpt lat="46.57859" lon="5.98726">
        <ele>918.3</ele>
        <time>2021-11-09T13:15:14Z</time>
      </trkpt>
      <trkpt lat="46.57857" lon="5.98719">
        <ele>917.5</ele>
        <time>2021-11-09T13:15:20Z</time>
      </trkpt>
      <trkpt lat="46.57856" lon="5.98711">
        <ele>916.3</ele>
        <time>2021-11-09T13:15:25Z</time>
      </trkpt>
      <trkpt lat="46.57854" lon="5.98704">
        <ele>915.7</ele>
        <time>2021-11-09T13:15:29Z</time>
      </trkpt>
      <trkpt lat="46.57851" lon="5.98697">
        <ele>915.4</ele>
        <time>2021-11-09T13:15:33Z</time>
      </trkpt>
      <trkpt lat="46.5785" lon="5.9869">
        <ele>915.3</ele>
        <time>2021-11-09T13:15:38Z</time>
      </trkpt>
      <trkpt lat="46.57848" lon="5.98683">
        <ele>915.2</ele>
        <time>2021-11-09T13:15:43Z</time>
      </trkpt>
      <trkpt lat="46.57845" lon="5.98677">
        <ele>915</ele>
        <time>2021-11-09T13:15:47Z</time>
      </trkpt>
      <trkpt lat="46.57842" lon="5.98671">
        <ele>914.7</ele>
        <time>2021-11-09T13:15:50Z</time>
      </trkpt>
      <trkpt lat="46.57839" lon="5.98665">
        <ele>914.4</ele>
        <time>2021-11-09T13:15:54Z</time>
      </trkpt>
      <trkpt lat="46.57838" lon="5.98658">
        <ele>914.4</ele>
        <time>2021-11-09T13:15:58Z</time>
      </trkpt>
      <trkpt lat="46.57836" lon="5.98652">
        <ele>914.2</ele>
        <time>2021-11-09T13:16:02Z</time>
      </trkpt>
      <trkpt lat="46.57833" lon="5.98646">
        <ele>913.8</ele>
        <time>2021-11-09T13:16:08Z</time>
      </trkpt>
      <trkpt lat="46.57832" lon="5.98639">
        <ele>913</ele>
        <time>2021-11-09T13:16:15Z</time>
      </trkpt>
      <trkpt lat="46.57827" lon="5.98636">
        <ele>912.2</ele>
        <time>2021-11-09T13:16:20Z</time>
      </trkpt>
      <trkpt lat="46.57822" lon="5.98633">
        <ele>910.8</ele>
        <time>2021-11-09T13:16:26Z</time>
      </trkpt>
      <trkpt lat="46.57818" lon="5.98628">
        <ele>909.9</ele>
        <time>2021-11-09T13:16:30Z</time>
      </trkpt>
      <trkpt lat="46.57814" lon="5.98624">
        <ele>909.1</ele>
        <time>2021-11-09T13:16:34Z</time>
      </trkpt>
      <trkpt lat="46.5781" lon="5.9862">
        <ele>908.2</ele>
        <time>2021-11-09T13:16:38Z</time>
      </trkpt>
      <trkpt lat="46.57807" lon="5.98615">
        <ele>907.1</ele>
        <time>2021-11-09T13:16:43Z</time>
      </trkpt>
      <trkpt lat="46.57804" lon="5.9861">
        <ele>906.1</ele>
        <time>2021-11-09T13:16:48Z</time>
      </trkpt>
      <trkpt lat="46.57801" lon="5.98604">
        <ele>905.2</ele>
        <time>2021-11-09T13:16:53Z</time>
      </trkpt>
      <trkpt lat="46.57799" lon="5.98598">
        <ele>904.8</ele>
        <time>2021-11-09T13:16:57Z</time>
      </trkpt>
      <trkpt lat="46.57796" lon="5.98592">
        <ele>903.2</ele>
        <time>2021-11-09T13:17:04Z</time>
      </trkpt>
      <trkpt lat="46.57793" lon="5.98587">
        <ele>902.5</ele>
        <time>2021-11-09T13:17:08Z</time>
      </trkpt>
      <trkpt lat="46.57789" lon="5.98583">
        <ele>902.2</ele>
        <time>2021-11-09T13:17:11Z</time>
      </trkpt>
      <trkpt lat="46.57785" lon="5.98579">
        <ele>902.2</ele>
        <time>2021-11-09T13:17:14Z</time>
      </trkpt>
      <trkpt lat="46.5778" lon="5.98574">
        <ele>902.9</ele>
        <time>2021-11-09T13:17:18Z</time>
      </trkpt>
      <trkpt lat="46.57777" lon="5.98568">
        <ele>904.1</ele>
        <time>2021-11-09T13:17:22Z</time>
      </trkpt>
      <trkpt lat="46.57774" lon="5.98564">
        <ele>905.3</ele>
        <time>2021-11-09T13:17:28Z</time>
      </trkpt>
      <trkpt lat="46.57769" lon="5.9856">
        <ele>906.2</ele>
        <time>2021-11-09T13:17:32Z</time>
      </trkpt>
      <trkpt lat="46.57765" lon="5.98557">
        <ele>907</ele>
        <time>2021-11-09T13:17:36Z</time>
      </trkpt>
      <trkpt lat="46.57761" lon="5.98553">
        <ele>908.4</ele>
        <time>2021-11-09T13:17:42Z</time>
      </trkpt>
      <trkpt lat="46.57757" lon="5.98549">
        <ele>909.4</ele>
        <time>2021-11-09T13:17:48Z</time>
      </trkpt>
      <trkpt lat="46.57753" lon="5.98546">
        <ele>909.9</ele>
        <time>2021-11-09T13:17:53Z</time>
      </trkpt>
      <trkpt lat="46.57747" lon="5.98543">
        <ele>910.7</ele>
        <time>2021-11-09T13:17:59Z</time>
      </trkpt>
      <trkpt lat="46.57743" lon="5.98541">
        <ele>910.6</ele>
        <time>2021-11-09T13:18:02Z</time>
      </trkpt>
      <trkpt lat="46.57738" lon="5.98537">
        <ele>910.3</ele>
        <time>2021-11-09T13:18:05Z</time>
      </trkpt>
      <trkpt lat="46.57733" lon="5.98531">
        <ele>910</ele>
        <time>2021-11-09T13:18:08Z</time>
      </trkpt>
      <trkpt lat="46.57729" lon="5.98527">
        <ele>910</ele>
        <time>2021-11-09T13:18:11Z</time>
      </trkpt>
      <trkpt lat="46.57725" lon="5.98523">
        <ele>909.5</ele>
        <time>2021-11-09T13:18:16Z</time>
      </trkpt>
      <trkpt lat="46.57723" lon="5.98516">
        <ele>908.5</ele>
        <time>2021-11-09T13:18:22Z</time>
      </trkpt>
      <trkpt lat="46.57721" lon="5.98509">
        <ele>907.1</ele>
        <time>2021-11-09T13:18:27Z</time>
      </trkpt>
      <trkpt lat="46.57717" lon="5.98503">
        <ele>906</ele>
        <time>2021-11-09T13:18:31Z</time>
      </trkpt>
      <trkpt lat="46.57713" lon="5.98499">
        <ele>905.2</ele>
        <time>2021-11-09T13:18:36Z</time>
      </trkpt>
      <trkpt lat="46.5771" lon="5.98493">
        <ele>904.6</ele>
        <time>2021-11-09T13:18:41Z</time>
      </trkpt>
      <trkpt lat="46.57707" lon="5.98489">
        <ele>903.7</ele>
        <time>2021-11-09T13:18:47Z</time>
      </trkpt>
      <trkpt lat="46.57703" lon="5.98483">
        <ele>902.5</ele>
        <time>2021-11-09T13:18:53Z</time>
      </trkpt>
      <trkpt lat="46.57702" lon="5.98475">
        <ele>900.4</ele>
        <time>2021-11-09T13:19:00Z</time>
      </trkpt>
      <trkpt lat="46.57702" lon="5.98467">
        <ele>899.3</ele>
        <time>2021-11-09T13:19:04Z</time>
      </trkpt>
      <trkpt lat="46.57703" lon="5.9846">
        <ele>897.8</ele>
        <time>2021-11-09T13:19:08Z</time>
      </trkpt>
      <trkpt lat="46.577" lon="5.98454">
        <ele>896.8</ele>
        <time>2021-11-09T13:19:15Z</time>
      </trkpt>
      <trkpt lat="46.57695" lon="5.98452">
        <ele>894.9</ele>
        <time>2021-11-09T13:19:21Z</time>
      </trkpt>
      <trkpt lat="46.57691" lon="5.98449">
        <ele>893.4</ele>
        <time>2021-11-09T13:19:26Z</time>
      </trkpt>
      <trkpt lat="46.57687" lon="5.98445">
        <ele>893</ele>
        <time>2021-11-09T13:19:33Z</time>
      </trkpt>
      <trkpt lat="46.57682" lon="5.98447">
        <ele>893.4</ele>
        <time>2021-11-09T13:19:38Z</time>
      </trkpt>
      <trkpt lat="46.57676" lon="5.98449">
        <ele>894.4</ele>
        <time>2021-11-09T13:19:43Z</time>
      </trkpt>
      <trkpt lat="46.57671" lon="5.98447">
        <ele>895.1</ele>
        <time>2021-11-09T13:19:46Z</time>
      </trkpt>
      <trkpt lat="46.57667" lon="5.98443">
        <ele>895.3</ele>
        <time>2021-11-09T13:19:50Z</time>
      </trkpt>
      <trkpt lat="46.57663" lon="5.98438">
        <ele>895.1</ele>
        <time>2021-11-09T13:19:54Z</time>
      </trkpt>
      <trkpt lat="46.57658" lon="5.98436">
        <ele>895.3</ele>
        <time>2021-11-09T13:20:05Z</time>
      </trkpt>
      <trkpt lat="46.57652" lon="5.98435">
        <ele>895.6</ele>
        <time>2021-11-09T13:20:09Z</time>
      </trkpt>
      <trkpt lat="46.57647" lon="5.98437">
        <ele>896.5</ele>
        <time>2021-11-09T13:20:13Z</time>
      </trkpt>
      <trkpt lat="46.57644" lon="5.98432">
        <ele>899</ele>
        <time>2021-11-09T13:20:23Z</time>
      </trkpt>
      <trkpt lat="46.57645" lon="5.98425">
        <ele>899.5</ele>
        <time>2021-11-09T13:20:28Z</time>
      </trkpt>
      <trkpt lat="46.57648" lon="5.98419">
        <ele>899.8</ele>
        <time>2021-11-09T13:20:34Z</time>
      </trkpt>
      <trkpt lat="46.57649" lon="5.98412">
        <ele>899.4</ele>
        <time>2021-11-09T13:20:39Z</time>
      </trkpt>
      <trkpt lat="46.57649" lon="5.98405">
        <ele>898.5</ele>
        <time>2021-11-09T13:20:46Z</time>
      </trkpt>
      <trkpt lat="46.57649" lon="5.98398">
        <ele>898.1</ele>
        <time>2021-11-09T13:20:53Z</time>
      </trkpt>
      <trkpt lat="46.57646" lon="5.9839">
        <ele>900.3</ele>
        <time>2021-11-09T13:21:09Z</time>
      </trkpt>
      <trkpt lat="46.57649" lon="5.98387">
        <ele>899.7</ele>
        <time>2021-11-09T13:21:31Z</time>
      </trkpt>
      <trkpt lat="46.57653" lon="5.98383">
        <ele>899.4</ele>
        <time>2021-11-09T13:21:38Z</time>
      </trkpt>
      <trkpt lat="46.57659" lon="5.98382">
        <ele>899</ele>
        <time>2021-11-09T13:21:43Z</time>
      </trkpt>
      <trkpt lat="46.57663" lon="5.98382">
        <ele>899</ele>
        <time>2021-11-09T13:21:47Z</time>
      </trkpt>
      <trkpt lat="46.57667" lon="5.98378">
        <ele>898.8</ele>
        <time>2021-11-09T13:21:53Z</time>
      </trkpt>
      <trkpt lat="46.57671" lon="5.98373">
        <ele>898.8</ele>
        <time>2021-11-09T13:21:58Z</time>
      </trkpt>
      <trkpt lat="46.57676" lon="5.9837">
        <ele>898.8</ele>
        <time>2021-11-09T13:22:02Z</time>
      </trkpt>
      <trkpt lat="46.5768" lon="5.98369">
        <ele>899.3</ele>
        <time>2021-11-09T13:22:10Z</time>
      </trkpt>
      <trkpt lat="46.57684" lon="5.98374">
        <ele>899.7</ele>
        <time>2021-11-09T13:22:15Z</time>
      </trkpt>
      <trkpt lat="46.57688" lon="5.98373">
        <ele>899.7</ele>
        <time>2021-11-09T13:22:27Z</time>
      </trkpt>
      <trkpt lat="46.57692" lon="5.98369">
        <ele>899.1</ele>
        <time>2021-11-09T13:22:33Z</time>
      </trkpt>
      <trkpt lat="46.57697" lon="5.98369">
        <ele>898.2</ele>
        <time>2021-11-09T13:22:37Z</time>
      </trkpt>
      <trkpt lat="46.57701" lon="5.98365">
        <ele>895.8</ele>
        <time>2021-11-09T13:22:45Z</time>
      </trkpt>
      <trkpt lat="46.57705" lon="5.9836">
        <ele>893</ele>
        <time>2021-11-09T13:22:52Z</time>
      </trkpt>
      <trkpt lat="46.57709" lon="5.98357">
        <ele>891.9</ele>
        <time>2021-11-09T13:22:55Z</time>
      </trkpt>
      <trkpt lat="46.57714" lon="5.98354">
        <ele>890.1</ele>
        <time>2021-11-09T13:23:00Z</time>
      </trkpt>
      <trkpt lat="46.57717" lon="5.98348">
        <ele>888.3</ele>
        <time>2021-11-09T13:23:06Z</time>
      </trkpt>
      <trkpt lat="46.57719" lon="5.98343">
        <ele>886.3</ele>
        <time>2021-11-09T13:23:12Z</time>
      </trkpt>
      <trkpt lat="46.57723" lon="5.9834">
        <ele>884.4</ele>
        <time>2021-11-09T13:23:17Z</time>
      </trkpt>
      <trkpt lat="46.57728" lon="5.98336">
        <ele>881.7</ele>
        <time>2021-11-09T13:23:24Z</time>
      </trkpt>
      <trkpt lat="46.57727" lon="5.98328">
        <ele>879.4</ele>
        <time>2021-11-09T13:23:30Z</time>
      </trkpt>
      <trkpt lat="46.57729" lon="5.98321">
        <ele>877.8</ele>
        <time>2021-11-09T13:23:35Z</time>
      </trkpt>
      <trkpt lat="46.57733" lon="5.98317">
        <ele>876.6</ele>
        <time>2021-11-09T13:23:40Z</time>
      </trkpt>
      <trkpt lat="46.57735" lon="5.98311">
        <ele>875.7</ele>
        <time>2021-11-09T13:23:46Z</time>
      </trkpt>
      <trkpt lat="46.57736" lon="5.98304">
        <ele>875.3</ele>
        <time>2021-11-09T13:23:52Z</time>
      </trkpt>
      <trkpt lat="46.57738" lon="5.98298">
        <ele>875.3</ele>
        <time>2021-11-09T13:23:56Z</time>
      </trkpt>
      <trkpt lat="46.57739" lon="5.98292">
        <ele>874.9</ele>
        <time>2021-11-09T13:24:00Z</time>
      </trkpt>
      <trkpt lat="46.57742" lon="5.98285">
        <ele>874.6</ele>
        <time>2021-11-09T13:24:05Z</time>
      </trkpt>
      <trkpt lat="46.57745" lon="5.98279">
        <ele>874.7</ele>
        <time>2021-11-09T13:24:13Z</time>
      </trkpt>
      <trkpt lat="46.5775" lon="5.98275">
        <ele>874.8</ele>
        <time>2021-11-09T13:24:17Z</time>
      </trkpt>
      <trkpt lat="46.57753" lon="5.9827">
        <ele>874.4</ele>
        <time>2021-11-09T13:24:21Z</time>
      </trkpt>
      <trkpt lat="46.57755" lon="5.98264">
        <ele>874</ele>
        <time>2021-11-09T13:24:26Z</time>
      </trkpt>
      <trkpt lat="46.57755" lon="5.98257">
        <ele>874.1</ele>
        <time>2021-11-09T13:24:32Z</time>
      </trkpt>
      <trkpt lat="46.57753" lon="5.9825">
        <ele>873</ele>
        <time>2021-11-09T13:24:39Z</time>
      </trkpt>
      <trkpt lat="46.57748" lon="5.98245">
        <ele>871.9</ele>
        <time>2021-11-09T13:24:43Z</time>
      </trkpt>
      <trkpt lat="46.57744" lon="5.98242">
        <ele>870.2</ele>
        <time>2021-11-09T13:24:48Z</time>
      </trkpt>
      <trkpt lat="46.5774" lon="5.98239">
        <ele>868.8</ele>
        <time>2021-11-09T13:24:52Z</time>
      </trkpt>
      <trkpt lat="46.57735" lon="5.98236">
        <ele>867.2</ele>
        <time>2021-11-09T13:24:57Z</time>
      </trkpt>
      <trkpt lat="46.57731" lon="5.9823">
        <ele>866.4</ele>
        <time>2021-11-09T13:25:01Z</time>
      </trkpt>
      <trkpt lat="46.57728" lon="5.98223">
        <ele>866.5</ele>
        <time>2021-11-09T13:25:06Z</time>
      </trkpt>
      <trkpt lat="46.57725" lon="5.98218">
        <ele>867.2</ele>
        <time>2021-11-09T13:25:11Z</time>
      </trkpt>
      <trkpt lat="46.5772" lon="5.98215">
        <ele>868.1</ele>
        <time>2021-11-09T13:25:16Z</time>
      </trkpt>
      <trkpt lat="46.57715" lon="5.98212">
        <ele>868.6</ele>
        <time>2021-11-09T13:25:20Z</time>
      </trkpt>
      <trkpt lat="46.57711" lon="5.98208">
        <ele>868.9</ele>
        <time>2021-11-09T13:25:23Z</time>
      </trkpt>
      <trkpt lat="46.57707" lon="5.98205">
        <ele>869.2</ele>
        <time>2021-11-09T13:25:27Z</time>
      </trkpt>
      <trkpt lat="46.57703" lon="5.98202">
        <ele>869.4</ele>
        <time>2021-11-09T13:25:31Z</time>
      </trkpt>
      <trkpt lat="46.57699" lon="5.982">
        <ele>869.2</ele>
        <time>2021-11-09T13:25:36Z</time>
      </trkpt>
      <trkpt lat="46.57694" lon="5.98197">
        <ele>869.1</ele>
        <time>2021-11-09T13:25:40Z</time>
      </trkpt>
      <trkpt lat="46.5769" lon="5.98192">
        <ele>869</ele>
        <time>2021-11-09T13:25:45Z</time>
      </trkpt>
      <trkpt lat="46.57686" lon="5.98189">
        <ele>869</ele>
        <time>2021-11-09T13:25:50Z</time>
      </trkpt>
      <trkpt lat="46.57681" lon="5.98187">
        <ele>869.1</ele>
        <time>2021-11-09T13:25:54Z</time>
      </trkpt>
      <trkpt lat="46.57677" lon="5.98184">
        <ele>869.3</ele>
        <time>2021-11-09T13:25:57Z</time>
      </trkpt>
      <trkpt lat="46.57672" lon="5.98181">
        <ele>869.7</ele>
        <time>2021-11-09T13:26:04Z</time>
      </trkpt>
      <trkpt lat="46.57668" lon="5.98178">
        <ele>870</ele>
        <time>2021-11-09T13:26:08Z</time>
      </trkpt>
      <trkpt lat="46.57664" lon="5.98174">
        <ele>870.6</ele>
        <time>2021-11-09T13:26:12Z</time>
      </trkpt>
      <trkpt lat="46.57659" lon="5.9817">
        <ele>871.3</ele>
        <time>2021-11-09T13:26:16Z</time>
      </trkpt>
      <trkpt lat="46.57655" lon="5.98168">
        <ele>871.8</ele>
        <time>2021-11-09T13:26:19Z</time>
      </trkpt>
      <trkpt lat="46.5765" lon="5.98169">
        <ele>872.3</ele>
        <time>2021-11-09T13:26:23Z</time>
      </trkpt>
      <trkpt lat="46.57645" lon="5.98169">
        <ele>872.7</ele>
        <time>2021-11-09T13:26:27Z</time>
      </trkpt>
      <trkpt lat="46.57639" lon="5.98166">
        <ele>872.9</ele>
        <time>2021-11-09T13:26:32Z</time>
      </trkpt>
      <trkpt lat="46.57634" lon="5.98164">
        <ele>873.1</ele>
        <time>2021-11-09T13:26:38Z</time>
      </trkpt>
      <trkpt lat="46.57629" lon="5.98162">
        <ele>873.1</ele>
        <time>2021-11-09T13:26:43Z</time>
      </trkpt>
      <trkpt lat="46.57626" lon="5.98157">
        <ele>872.9</ele>
        <time>2021-11-09T13:26:52Z</time>
      </trkpt>
      <trkpt lat="46.57621" lon="5.98155">
        <ele>872.4</ele>
        <time>2021-11-09T13:26:57Z</time>
      </trkpt>
      <trkpt lat="46.57616" lon="5.98153">
        <ele>872.3</ele>
        <time>2021-11-09T13:27:01Z</time>
      </trkpt>
      <trkpt lat="46.57611" lon="5.98151">
        <ele>872.1</ele>
        <time>2021-11-09T13:27:04Z</time>
      </trkpt>
      <trkpt lat="46.57605" lon="5.98148">
        <ele>871.8</ele>
        <time>2021-11-09T13:27:08Z</time>
      </trkpt>
      <trkpt lat="46.576" lon="5.98147">
        <ele>871.8</ele>
        <time>2021-11-09T13:27:12Z</time>
      </trkpt>
      <trkpt lat="46.57596" lon="5.98143">
        <ele>871.3</ele>
        <time>2021-11-09T13:27:17Z</time>
      </trkpt>
      <trkpt lat="46.5759" lon="5.9814">
        <ele>871.1</ele>
        <time>2021-11-09T13:27:21Z</time>
      </trkpt>
      <trkpt lat="46.57586" lon="5.98138">
        <ele>871.6</ele>
        <time>2021-11-09T13:27:24Z</time>
      </trkpt>
      <trkpt lat="46.57582" lon="5.98133">
        <ele>872.7</ele>
        <time>2021-11-09T13:27:29Z</time>
      </trkpt>
      <trkpt lat="46.57579" lon="5.98128">
        <ele>873.6</ele>
        <time>2021-11-09T13:27:34Z</time>
      </trkpt>
      <trkpt lat="46.57576" lon="5.98124">
        <ele>873.4</ele>
        <time>2021-11-09T13:27:39Z</time>
      </trkpt>
      <trkpt lat="46.57571" lon="5.98119">
        <ele>873</ele>
        <time>2021-11-09T13:27:43Z</time>
      </trkpt>
      <trkpt lat="46.57566" lon="5.98115">
        <ele>872.9</ele>
        <time>2021-11-09T13:27:47Z</time>
      </trkpt>
      <trkpt lat="46.57562" lon="5.98111">
        <ele>873.1</ele>
        <time>2021-11-09T13:27:51Z</time>
      </trkpt>
      <trkpt lat="46.57559" lon="5.98104">
        <ele>874.1</ele>
        <time>2021-11-09T13:27:56Z</time>
      </trkpt>
      <trkpt lat="46.57557" lon="5.98097">
        <ele>874.5</ele>
        <time>2021-11-09T13:28:00Z</time>
      </trkpt>
      <trkpt lat="46.57555" lon="5.98091">
        <ele>874.8</ele>
        <time>2021-11-09T13:28:04Z</time>
      </trkpt>
      <trkpt lat="46.57553" lon="5.98084">
        <ele>875.6</ele>
        <time>2021-11-09T13:28:09Z</time>
      </trkpt>
      <trkpt lat="46.57554" lon="5.98076">
        <ele>876.9</ele>
        <time>2021-11-09T13:28:14Z</time>
      </trkpt>
      <trkpt lat="46.57553" lon="5.98069">
        <ele>877.9</ele>
        <time>2021-11-09T13:28:19Z</time>
      </trkpt>
      <trkpt lat="46.57552" lon="5.98062">
        <ele>878.2</ele>
        <time>2021-11-09T13:28:23Z</time>
      </trkpt>
      <trkpt lat="46.57552" lon="5.98055">
        <ele>878.1</ele>
        <time>2021-11-09T13:28:27Z</time>
      </trkpt>
      <trkpt lat="46.57551" lon="5.98048">
        <ele>878</ele>
        <time>2021-11-09T13:28:32Z</time>
      </trkpt>
      <trkpt lat="46.5755" lon="5.98042">
        <ele>877.7</ele>
        <time>2021-11-09T13:28:38Z</time>
      </trkpt>
      <trkpt lat="46.57549" lon="5.98035">
        <ele>876.8</ele>
        <time>2021-11-09T13:28:44Z</time>
      </trkpt>
      <trkpt lat="46.57549" lon="5.98028">
        <ele>876</ele>
        <time>2021-11-09T13:28:50Z</time>
      </trkpt>
      <trkpt lat="46.57551" lon="5.98021">
        <ele>875.4</ele>
        <time>2021-11-09T13:28:55Z</time>
      </trkpt>
      <trkpt lat="46.57552" lon="5.98014">
        <ele>874.9</ele>
        <time>2021-11-09T13:28:59Z</time>
      </trkpt>
      <trkpt lat="46.57552" lon="5.98008">
        <ele>875.1</ele>
        <time>2021-11-09T13:29:03Z</time>
      </trkpt>
      <trkpt lat="46.57552" lon="5.98001">
        <ele>875.7</ele>
        <time>2021-11-09T13:29:07Z</time>
      </trkpt>
      <trkpt lat="46.57553" lon="5.97994">
        <ele>876.1</ele>
        <time>2021-11-09T13:29:13Z</time>
      </trkpt>
      <trkpt lat="46.57554" lon="5.97987">
        <ele>876.2</ele>
        <time>2021-11-09T13:29:18Z</time>
      </trkpt>
      <trkpt lat="46.57555" lon="5.97979">
        <ele>876.4</ele>
        <time>2021-11-09T13:29:24Z</time>
      </trkpt>
      <trkpt lat="46.57555" lon="5.97972">
        <ele>876.4</ele>
        <time>2021-11-09T13:29:29Z</time>
      </trkpt>
      <trkpt lat="46.57557" lon="5.97965">
        <ele>876.1</ele>
        <time>2021-11-09T13:29:34Z</time>
      </trkpt>
      <trkpt lat="46.57556" lon="5.97956">
        <ele>874.6</ele>
        <time>2021-11-09T13:29:57Z</time>
      </trkpt>
      <trkpt lat="46.57556" lon="5.97949">
        <ele>874.6</ele>
        <time>2021-11-09T13:30:01Z</time>
      </trkpt>
      <trkpt lat="46.57557" lon="5.97942">
        <ele>875</ele>
        <time>2021-11-09T13:30:07Z</time>
      </trkpt>
      <trkpt lat="46.57557" lon="5.97935">
        <ele>875.5</ele>
        <time>2021-11-09T13:30:13Z</time>
      </trkpt>
      <trkpt lat="46.57558" lon="5.97928">
        <ele>876.1</ele>
        <time>2021-11-09T13:30:19Z</time>
      </trkpt>
      <trkpt lat="46.57558" lon="5.97921">
        <ele>876.5</ele>
        <time>2021-11-09T13:30:25Z</time>
      </trkpt>
      <trkpt lat="46.57558" lon="5.97914">
        <ele>876.5</ele>
        <time>2021-11-09T13:30:30Z</time>
      </trkpt>
      <trkpt lat="46.57559" lon="5.97907">
        <ele>876.1</ele>
        <time>2021-11-09T13:30:35Z</time>
      </trkpt>
      <trkpt lat="46.5756" lon="5.979">
        <ele>875.4</ele>
        <time>2021-11-09T13:30:40Z</time>
      </trkpt>
      <trkpt lat="46.57559" lon="5.97893">
        <ele>874.2</ele>
        <time>2021-11-09T13:30:46Z</time>
      </trkpt>
      <trkpt lat="46.57561" lon="5.97886">
        <ele>872.9</ele>
        <time>2021-11-09T13:30:52Z</time>
      </trkpt>
      <trkpt lat="46.57562" lon="5.97879">
        <ele>871.9</ele>
        <time>2021-11-09T13:30:57Z</time>
      </trkpt>
      <trkpt lat="46.57562" lon="5.97872">
        <ele>871.1</ele>
        <time>2021-11-09T13:31:02Z</time>
      </trkpt>
      <trkpt lat="46.57563" lon="5.97865">
        <ele>870.7</ele>
        <time>2021-11-09T13:31:06Z</time>
      </trkpt>
      <trkpt lat="46.57563" lon="5.97857">
        <ele>870.7</ele>
        <time>2021-11-09T13:31:11Z</time>
      </trkpt>
      <trkpt lat="46.57563" lon="5.97849">
        <ele>871.5</ele>
        <time>2021-11-09T13:31:17Z</time>
      </trkpt>
      <trkpt lat="46.57563" lon="5.97842">
        <ele>871.7</ele>
        <time>2021-11-09T13:31:21Z</time>
      </trkpt>
      <trkpt lat="46.57562" lon="5.97835">
        <ele>871.6</ele>
        <time>2021-11-09T13:31:25Z</time>
      </trkpt>
      <trkpt lat="46.5756" lon="5.97829">
        <ele>871.4</ele>
        <time>2021-11-09T13:31:30Z</time>
      </trkpt>
      <trkpt lat="46.57558" lon="5.97822">
        <ele>871.1</ele>
        <time>2021-11-09T13:31:35Z</time>
      </trkpt>
      <trkpt lat="46.57557" lon="5.97816">
        <ele>870.5</ele>
        <time>2021-11-09T13:31:39Z</time>
      </trkpt>
      <trkpt lat="46.57556" lon="5.97809">
        <ele>870.4</ele>
        <time>2021-11-09T13:31:44Z</time>
      </trkpt>
      <trkpt lat="46.57554" lon="5.97802">
        <ele>870.5</ele>
        <time>2021-11-09T13:31:50Z</time>
      </trkpt>
      <trkpt lat="46.57551" lon="5.97795">
        <ele>870.6</ele>
        <time>2021-11-09T13:31:55Z</time>
      </trkpt>
      <trkpt lat="46.57548" lon="5.97789">
        <ele>870.3</ele>
        <time>2021-11-09T13:32:01Z</time>
      </trkpt>
      <trkpt lat="46.57544" lon="5.97784">
        <ele>869.9</ele>
        <time>2021-11-09T13:32:07Z</time>
      </trkpt>
      <trkpt lat="46.5754" lon="5.97782">
        <ele>869.5</ele>
        <time>2021-11-09T13:32:12Z</time>
      </trkpt>
      <trkpt lat="46.57537" lon="5.97776">
        <ele>869.1</ele>
        <time>2021-11-09T13:32:17Z</time>
      </trkpt>
      <trkpt lat="46.57536" lon="5.97769">
        <ele>868.5</ele>
        <time>2021-11-09T13:32:21Z</time>
      </trkpt>
      <trkpt lat="46.57535" lon="5.97761">
        <ele>867.8</ele>
        <time>2021-11-09T13:32:25Z</time>
      </trkpt>
      <trkpt lat="46.57534" lon="5.97754">
        <ele>867.5</ele>
        <time>2021-11-09T13:32:29Z</time>
      </trkpt>
      <trkpt lat="46.57533" lon="5.97748">
        <ele>867.3</ele>
        <time>2021-11-09T13:32:33Z</time>
      </trkpt>
      <trkpt lat="46.5753" lon="5.97742">
        <ele>867.1</ele>
        <time>2021-11-09T13:32:37Z</time>
      </trkpt>
      <trkpt lat="46.57527" lon="5.97737">
        <ele>866.6</ele>
        <time>2021-11-09T13:32:41Z</time>
      </trkpt>
      <trkpt lat="46.57525" lon="5.9773">
        <ele>866</ele>
        <time>2021-11-09T13:32:46Z</time>
      </trkpt>
      <trkpt lat="46.57523" lon="5.97723">
        <ele>865.8</ele>
        <time>2021-11-09T13:32:51Z</time>
      </trkpt>
      <trkpt lat="46.57521" lon="5.97717">
        <ele>865.6</ele>
        <time>2021-11-09T13:32:55Z</time>
      </trkpt>
      <trkpt lat="46.57519" lon="5.9771">
        <ele>865.8</ele>
        <time>2021-11-09T13:33:00Z</time>
      </trkpt>
      <trkpt lat="46.57516" lon="5.97704">
        <ele>866.9</ele>
        <time>2021-11-09T13:33:05Z</time>
      </trkpt>
      <trkpt lat="46.57514" lon="5.97697">
        <ele>867.6</ele>
        <time>2021-11-09T13:33:09Z</time>
      </trkpt>
      <trkpt lat="46.57511" lon="5.97692">
        <ele>868.2</ele>
        <time>2021-11-09T13:33:13Z</time>
      </trkpt>
      <trkpt lat="46.57509" lon="5.97685">
        <ele>868.3</ele>
        <time>2021-11-09T13:33:17Z</time>
      </trkpt>
      <trkpt lat="46.57507" lon="5.97678">
        <ele>867.7</ele>
        <time>2021-11-09T13:33:22Z</time>
      </trkpt>
      <trkpt lat="46.57504" lon="5.97672">
        <ele>867.1</ele>
        <time>2021-11-09T13:33:27Z</time>
      </trkpt>
      <trkpt lat="46.57502" lon="5.97666">
        <ele>867.2</ele>
        <time>2021-11-09T13:33:31Z</time>
      </trkpt>
      <trkpt lat="46.575" lon="5.97659">
        <ele>867.5</ele>
        <time>2021-11-09T13:33:35Z</time>
      </trkpt>
      <trkpt lat="46.57497" lon="5.97654">
        <ele>868.3</ele>
        <time>2021-11-09T13:33:39Z</time>
      </trkpt>
      <trkpt lat="46.57495" lon="5.97647">
        <ele>868.6</ele>
        <time>2021-11-09T13:33:45Z</time>
      </trkpt>
      <trkpt lat="46.57493" lon="5.97641">
        <ele>868.1</ele>
        <time>2021-11-09T13:33:49Z</time>
      </trkpt>
      <trkpt lat="46.5749" lon="5.97634">
        <ele>868</ele>
        <time>2021-11-09T13:33:54Z</time>
      </trkpt>
      <trkpt lat="46.57489" lon="5.97628">
        <ele>868</ele>
        <time>2021-11-09T13:33:59Z</time>
      </trkpt>
      <trkpt lat="46.57487" lon="5.9762">
        <ele>867.8</ele>
        <time>2021-11-09T13:34:04Z</time>
      </trkpt>
      <trkpt lat="46.57485" lon="5.97613">
        <ele>867.7</ele>
        <time>2021-11-09T13:34:09Z</time>
      </trkpt>
      <trkpt lat="46.57484" lon="5.97606">
        <ele>868</ele>
        <time>2021-11-09T13:34:14Z</time>
      </trkpt>
      <trkpt lat="46.57483" lon="5.97599">
        <ele>868.2</ele>
        <time>2021-11-09T13:34:19Z</time>
      </trkpt>
      <trkpt lat="46.57481" lon="5.97592">
        <ele>868.6</ele>
        <time>2021-11-09T13:34:24Z</time>
      </trkpt>
      <trkpt lat="46.57478" lon="5.97585">
        <ele>869</ele>
        <time>2021-11-09T13:34:29Z</time>
      </trkpt>
      <trkpt lat="46.57478" lon="5.97577">
        <ele>869.1</ele>
        <time>2021-11-09T13:34:34Z</time>
      </trkpt>
      <trkpt lat="46.57479" lon="5.9757">
        <ele>868.7</ele>
        <time>2021-11-09T13:34:38Z</time>
      </trkpt>
      <trkpt lat="46.5748" lon="5.97563">
        <ele>868.2</ele>
        <time>2021-11-09T13:34:42Z</time>
      </trkpt>
      <trkpt lat="46.57481" lon="5.97556">
        <ele>867.8</ele>
        <time>2021-11-09T13:34:47Z</time>
      </trkpt>
      <trkpt lat="46.57482" lon="5.97549">
        <ele>867.7</ele>
        <time>2021-11-09T13:34:51Z</time>
      </trkpt>
      <trkpt lat="46.57483" lon="5.97543">
        <ele>867.6</ele>
        <time>2021-11-09T13:34:55Z</time>
      </trkpt>
      <trkpt lat="46.57485" lon="5.97537">
        <ele>867.2</ele>
        <time>2021-11-09T13:35:00Z</time>
      </trkpt>
      <trkpt lat="46.57485" lon="5.9753">
        <ele>867.2</ele>
        <time>2021-11-09T13:35:05Z</time>
      </trkpt>
      <trkpt lat="46.57484" lon="5.97522">
        <ele>867.4</ele>
        <time>2021-11-09T13:35:10Z</time>
      </trkpt>
      <trkpt lat="46.57484" lon="5.97515">
        <ele>868</ele>
        <time>2021-11-09T13:35:15Z</time>
      </trkpt>
      <trkpt lat="46.57484" lon="5.97508">
        <ele>868.4</ele>
        <time>2021-11-09T13:35:20Z</time>
      </trkpt>
      <trkpt lat="46.57484" lon="5.97501">
        <ele>868.5</ele>
        <time>2021-11-09T13:35:25Z</time>
      </trkpt>
      <trkpt lat="46.57482" lon="5.97494">
        <ele>868.2</ele>
        <time>2021-11-09T13:35:30Z</time>
      </trkpt>
      <trkpt lat="46.57484" lon="5.97487">
        <ele>867.9</ele>
        <time>2021-11-09T13:35:36Z</time>
      </trkpt>
      <trkpt lat="46.57484" lon="5.9748">
        <ele>867.9</ele>
        <time>2021-11-09T13:35:42Z</time>
      </trkpt>
      <trkpt lat="46.57483" lon="5.97472">
        <ele>868.7</ele>
        <time>2021-11-09T13:35:47Z</time>
      </trkpt>
      <trkpt lat="46.57482" lon="5.97464">
        <ele>868.8</ele>
        <time>2021-11-09T13:35:52Z</time>
      </trkpt>
      <trkpt lat="46.57483" lon="5.97458">
        <ele>868.4</ele>
        <time>2021-11-09T13:35:58Z</time>
      </trkpt>
      <trkpt lat="46.5748" lon="5.97452">
        <ele>868.2</ele>
        <time>2021-11-09T13:36:04Z</time>
      </trkpt>
      <trkpt lat="46.57467" lon="5.97445">
        <ele>867.5</ele>
        <time>2021-11-09T13:36:24Z</time>
      </trkpt>
      <trkpt lat="46.5746" lon="5.97444">
        <ele>867.1</ele>
        <time>2021-11-09T13:36:27Z</time>
      </trkpt>
      <trkpt lat="46.57456" lon="5.97447">
        <ele>867</ele>
        <time>2021-11-09T13:36:30Z</time>
      </trkpt>
      <trkpt lat="46.57452" lon="5.97451">
        <ele>867.4</ele>
        <time>2021-11-09T13:36:35Z</time>
      </trkpt>
      <trkpt lat="46.57449" lon="5.97458">
        <ele>868.1</ele>
        <time>2021-11-09T13:36:39Z</time>
      </trkpt>
      <trkpt lat="46.57446" lon="5.97464">
        <ele>869.6</ele>
        <time>2021-11-09T13:36:43Z</time>
      </trkpt>
      <trkpt lat="46.57444" lon="5.97469">
        <ele>871.7</ele>
        <time>2021-11-09T13:36:49Z</time>
      </trkpt>
      <trkpt lat="46.57441" lon="5.97475">
        <ele>874.3</ele>
        <time>2021-11-09T13:36:55Z</time>
      </trkpt>
      <trkpt lat="46.57439" lon="5.97481">
        <ele>874.8</ele>
        <time>2021-11-09T13:36:59Z</time>
      </trkpt>
      <trkpt lat="46.57434" lon="5.9748">
        <ele>874.5</ele>
        <time>2021-11-09T13:37:09Z</time>
      </trkpt>
      <trkpt lat="46.57433" lon="5.97474">
        <ele>872.5</ele>
        <time>2021-11-09T13:37:16Z</time>
      </trkpt>
    </trkseg>
  </trk>
</gpx>